<?xml version='1.0' encoding='UTF-8'?><gpx version="1.1" creator="JPX - https://github.com/jenetics/jpx" xmlns="http://www.topografix.com/GPX/1/1"><trk><trkseg><trkpt lat="46.02628198130443" lon="11.903556336802355"><ele>281.0</ele><time>2026-04-18T13:34:52Z</time></trkpt><trkpt lat="46.02621676511597" lon="11.90355145439154"><ele>281.0</ele><time>2026-04-18T13:35:02.999Z</time></trkpt><trkpt lat="46.02616229524905" lon="11.903643376173642"><ele>281.0</ele><time>2026-04-18T13:35:35Z</time></trkpt><trkpt lat="46.02611799698479" lon="11.90378336113975"><ele>281.0</ele><time>2026-04-18T13:35:37Z</time></trkpt><trkpt lat="46.026078217560915" lon="11.903868558238026"><ele>281.0</ele><time>2026-04-18T13:35:38Z</time></trkpt><trkpt lat="46.02604731297686" lon="11.903975229689088"><ele>281.0</ele><time>2026-04-18T13:35:40Z</time></trkpt><trkpt lat="46.02601121704068" lon="11.90406223631449"><ele>281.0</ele><time>2026-04-18T13:35:42Z</time></trkpt><trkpt lat="46.02594208295959" lon="11.90409906054713"><ele>281.0</ele><time>2026-04-18T13:35:45Z</time></trkpt><trkpt lat="46.02586395704102" lon="11.904013339361146"><ele>281.0</ele><time>2026-04-18T13:35:47Z</time></trkpt><trkpt lat="46.0258046268124" lon="11.903943230708949"><ele>281.0</ele><time>2026-04-18T13:35:48Z</time></trkpt><trkpt lat="46.025738207204824" lon="11.90387485425442"><ele>281.0</ele><time>2026-04-18T13:35:49Z</time></trkpt><trkpt lat="46.02568179523952" lon="11.903824165610956"><ele>281.0</ele><time>2026-04-18T13:35:50Z</time></trkpt><trkpt lat="46.02562580784782" lon="11.903764820799775"><ele>281.2</ele><time>2026-04-18T13:35:52Z</time></trkpt><trkpt lat="46.02553881742074" lon="11.903714408767843"><ele>281.40000000000003</ele><time>2026-04-18T13:35:55Z</time></trkpt><trkpt lat="46.02545076400872" lon="11.903732700493238"><ele>281.6</ele><time>2026-04-18T13:35:57Z</time></trkpt><trkpt lat="46.025380109616464" lon="11.903755327720926"><ele>281.8</ele><time>2026-04-18T13:36:00Z</time></trkpt><trkpt lat="46.02531536896472" lon="11.90375132065379"><ele>282.0</ele><time>2026-04-18T13:36:06Z</time></trkpt><trkpt lat="46.025325790108084" lon="11.904015297258066"><ele>282.0</ele><time>2026-04-18T13:36:09Z</time></trkpt><trkpt lat="46.02535283831061" lon="11.904138831068058"><ele>282.0</ele><time>2026-04-18T13:36:10Z</time></trkpt><trkpt lat="46.025367838082" lon="11.90426280147436"><ele>282.0</ele><time>2026-04-18T13:36:12Z</time></trkpt><trkpt lat="46.02534990757385" lon="11.90436783985289"><ele>282.0</ele><time>2026-04-18T13:36:15Z</time></trkpt><trkpt lat="46.02523089730091" lon="11.904406817243457"><ele>282.0</ele><time>2026-04-18T13:36:17Z</time></trkpt><trkpt lat="46.02514423311016" lon="11.904422159996379"><ele>282.2</ele><time>2026-04-18T13:36:18Z</time></trkpt><trkpt lat="46.025061825346256" lon="11.904436884443006"><ele>282.4</ele><time>2026-04-18T13:36:19Z</time></trkpt><trkpt lat="46.02495667896869" lon="11.9044670993305"><ele>282.6</ele><time>2026-04-18T13:36:20Z</time></trkpt><trkpt lat="46.02482641434256" lon="11.9045179517415"><ele>282.8</ele><time>2026-04-18T13:36:21Z</time></trkpt><trkpt lat="46.02470853698211" lon="11.90455766151366"><ele>283.0</ele><time>2026-04-18T13:36:22Z</time></trkpt><trkpt lat="46.024580178688694" lon="11.90457807799913"><ele>283.0</ele><time>2026-04-18T13:36:23Z</time></trkpt><trkpt lat="46.02445378707435" lon="11.904614230861815"><ele>283.0</ele><time>2026-04-18T13:36:24Z</time></trkpt><trkpt lat="46.024328372067295" lon="11.904645649126303"><ele>283.0</ele><time>2026-04-18T13:36:25Z</time></trkpt><trkpt lat="46.02421717402346" lon="11.904675086287474"><ele>283.0</ele><time>2026-04-18T13:36:26Z</time></trkpt><trkpt lat="46.02411576788151" lon="11.904704108888948"><ele>282.2</ele><time>2026-04-18T13:36:27Z</time></trkpt><trkpt lat="46.02402634787287" lon="11.904739791652778"><ele>281.4</ele><time>2026-04-18T13:36:28Z</time></trkpt><trkpt lat="46.02392915202341" lon="11.904769432568843"><ele>280.59999999999997</ele><time>2026-04-18T13:36:29Z</time></trkpt><trkpt lat="46.0238286710679" lon="11.904798041465568"><ele>279.8</ele><time>2026-04-18T13:36:30Z</time></trkpt><trkpt lat="46.02372514241509" lon="11.904826493350123"><ele>279.0</ele><time>2026-04-18T13:36:31Z</time></trkpt><trkpt lat="46.02361923301799" lon="11.904857844335858"><ele>279.0</ele><time>2026-04-18T13:36:32Z</time></trkpt><trkpt lat="46.02351711704735" lon="11.904887056548379"><ele>279.0</ele><time>2026-04-18T13:36:33Z</time></trkpt><trkpt lat="46.023426680444416" lon="11.904911157418494"><ele>279.0</ele><time>2026-04-18T13:36:34Z</time></trkpt><trkpt lat="46.023339398583296" lon="11.904939674069853"><ele>279.0</ele><time>2026-04-18T13:36:35Z</time></trkpt><trkpt lat="46.02325473169133" lon="11.904962926223588"><ele>279.0</ele><time>2026-04-18T13:36:36Z</time></trkpt><trkpt lat="46.023179545773324" lon="11.904985584035655"><ele>279.0</ele><time>2026-04-18T13:36:37Z</time></trkpt><trkpt lat="46.023106288202" lon="11.905006237610463"><ele>278.99999999999994</ele><time>2026-04-18T13:36:38Z</time></trkpt><trkpt lat="46.02303807070546" lon="11.90502113721552"><ele>279.0</ele><time>2026-04-18T13:36:39Z</time></trkpt><trkpt lat="46.02297313522639" lon="11.905040597633896"><ele>279.0</ele><time>2026-04-18T13:36:40Z</time></trkpt><trkpt lat="46.02290711192114" lon="11.905060080219721"><ele>279.0</ele><time>2026-04-18T13:36:41Z</time></trkpt><trkpt lat="46.0228442916123" lon="11.905066338202264"><ele>279.0</ele><time>2026-04-18T13:36:42Z</time></trkpt><trkpt lat="46.02278059721155" lon="11.905060243005806"><ele>278.99999999999994</ele><time>2026-04-18T13:36:43Z</time></trkpt><trkpt lat="46.02267900848531" lon="11.905002472585638"><ele>279.0</ele><time>2026-04-18T13:36:45Z</time></trkpt><trkpt lat="46.022578857896605" lon="11.90492615787549"><ele>279.0</ele><time>2026-04-18T13:36:47Z</time></trkpt><trkpt lat="46.022518502874306" lon="11.90488675457719"><ele>279.0</ele><time>2026-04-18T13:36:48Z</time></trkpt><trkpt lat="46.02245194970548" lon="11.904870648024605"><ele>279.0</ele><time>2026-04-18T13:36:49Z</time></trkpt><trkpt lat="46.02236568942026" lon="11.904904452637417"><ele>279.0</ele><time>2026-04-18T13:36:50Z</time></trkpt><trkpt lat="46.02226383943427" lon="11.904938890527681"><ele>279.0</ele><time>2026-04-18T13:36:51Z</time></trkpt><trkpt lat="46.02217397567591" lon="11.90496288497924"><ele>279.0</ele><time>2026-04-18T13:36:52Z</time></trkpt><trkpt lat="46.02209876796266" lon="11.90497791846899"><ele>278.1666666666667</ele><time>2026-04-18T13:36:53Z</time></trkpt><trkpt lat="46.021988672661536" lon="11.90501135614953"><ele>277.3333333333333</ele><time>2026-04-18T13:36:54.999Z</time></trkpt><trkpt lat="46.021923697082634" lon="11.90501062177132"><ele>276.5</ele><time>2026-04-18T13:36:55.999Z</time></trkpt><trkpt lat="46.02183399514103" lon="11.905052650958519"><ele>275.66666666666663</ele><time>2026-04-18T13:36:57.999Z</time></trkpt><trkpt lat="46.02176140476115" lon="11.905067365646634"><ele>274.8333333333333</ele><time>2026-04-18T13:36:59.999Z</time></trkpt><trkpt lat="46.021677385224734" lon="11.905060717030013"><ele>274.0</ele><time>2026-04-18T13:37:29Z</time></trkpt><trkpt lat="46.02157035203131" lon="11.90502385102906"><ele>274.0</ele><time>2026-04-18T13:37:31Z</time></trkpt><trkpt lat="46.02150462493732" lon="11.905064847157115"><ele>274.0</ele><time>2026-04-18T13:37:33Z</time></trkpt><trkpt lat="46.02149796556224" lon="11.905237578848965"><ele>274.0</ele><time>2026-04-18T13:37:35Z</time></trkpt><trkpt lat="46.02152110845333" lon="11.905349421688205"><ele>274.0</ele><time>2026-04-18T13:37:36Z</time></trkpt><trkpt lat="46.02153137625662" lon="11.905478160926846"><ele>274.0</ele><time>2026-04-18T13:37:37Z</time></trkpt><trkpt lat="46.021542142308455" lon="11.90564570668357"><ele>274.0</ele><time>2026-04-18T13:37:38Z</time></trkpt><trkpt lat="46.021555302583955" lon="11.905817522781776"><ele>274.0</ele><time>2026-04-18T13:37:39Z</time></trkpt><trkpt lat="46.02155350468839" lon="11.905999612452176"><ele>274.0</ele><time>2026-04-18T13:37:40Z</time></trkpt><trkpt lat="46.0215498965911" lon="11.906264575111855"><ele>274.0</ele><time>2026-04-18T13:37:41Z</time></trkpt><trkpt lat="46.02154578193886" lon="11.906561859852776"><ele>273.75</ele><time>2026-04-18T13:37:42Z</time></trkpt><trkpt lat="46.02158945073471" lon="11.906372251860274"><ele>273.5</ele><time>2026-04-18T13:37:43Z</time></trkpt><trkpt lat="46.021607201929044" lon="11.906518270431306"><ele>273.25</ele><time>2026-04-18T13:37:44Z</time></trkpt><trkpt lat="46.02162658422524" lon="11.90666120107336"><ele>273.0</ele><time>2026-04-18T13:37:45Z</time></trkpt><trkpt lat="46.021647531780246" lon="11.90681314808658"><ele>272.75</ele><time>2026-04-18T13:37:46Z</time></trkpt><trkpt lat="46.021675172528866" lon="11.906976645461942"><ele>272.5</ele><time>2026-04-18T13:37:47Z</time></trkpt><trkpt lat="46.02170210366021" lon="11.907150931904642"><ele>272.25</ele><time>2026-04-18T13:37:48Z</time></trkpt><trkpt lat="46.02173886775629" lon="11.907320545284948"><ele>272.0</ele><time>2026-04-18T13:37:49Z</time></trkpt><trkpt lat="46.0217712154836" lon="11.907489747286604"><ele>272.25</ele><time>2026-04-18T13:37:50Z</time></trkpt><trkpt lat="46.02180733198752" lon="11.907661663030568"><ele>272.5</ele><time>2026-04-18T13:37:51Z</time></trkpt><trkpt lat="46.021844051142345" lon="11.907831697816766"><ele>272.75</ele><time>2026-04-18T13:37:52Z</time></trkpt><trkpt lat="46.021881508869825" lon="11.908006469493145"><ele>273.0</ele><time>2026-04-18T13:37:53Z</time></trkpt><trkpt lat="46.02192078593206" lon="11.90816683822559"><ele>273.0</ele><time>2026-04-18T13:37:54Z</time></trkpt><trkpt lat="46.0219572570947" lon="11.908332139909204"><ele>273.0</ele><time>2026-04-18T13:37:55Z</time></trkpt><trkpt lat="46.021993131644614" lon="11.908493565838844"><ele>273.0</ele><time>2026-04-18T13:37:56Z</time></trkpt><trkpt lat="46.02203040480077" lon="11.908660513957019"><ele>273.0</ele><time>2026-04-18T13:37:57Z</time></trkpt><trkpt lat="46.02206735100348" lon="11.908827921290667"><ele>273.2</ele><time>2026-04-18T13:37:58Z</time></trkpt><trkpt lat="46.022103015015894" lon="11.90898991083118"><ele>273.4</ele><time>2026-04-18T13:37:59Z</time></trkpt><trkpt lat="46.02213964405888" lon="11.90914597700498"><ele>273.59999999999997</ele><time>2026-04-18T13:38:00Z</time></trkpt><trkpt lat="46.02217412834612" lon="11.909297415956267"><ele>273.8</ele><time>2026-04-18T13:38:01Z</time></trkpt><trkpt lat="46.02220484389762" lon="11.909441827852834"><ele>274.0</ele><time>2026-04-18T13:38:02Z</time></trkpt><trkpt lat="46.022238550118786" lon="11.909588306303615"><ele>274.2</ele><time>2026-04-18T13:38:03Z</time></trkpt><trkpt lat="46.0222709502551" lon="11.9097353030858"><ele>274.4</ele><time>2026-04-18T13:38:04Z</time></trkpt><trkpt lat="46.022302476934904" lon="11.909876440475713"><ele>274.6</ele><time>2026-04-18T13:38:05Z</time></trkpt><trkpt lat="46.022332140634944" lon="11.91000317333236"><ele>274.8</ele><time>2026-04-18T13:38:06Z</time></trkpt><trkpt lat="46.0223617341647" lon="11.910147160064149"><ele>275.0</ele><time>2026-04-18T13:38:07Z</time></trkpt><trkpt lat="46.02239562608429" lon="11.910299021297906"><ele>275.2</ele><time>2026-04-18T13:38:08Z</time></trkpt><trkpt lat="46.02244135299096" lon="11.910444594165869"><ele>275.4</ele><time>2026-04-18T13:38:09Z</time></trkpt><trkpt lat="46.02246366362258" lon="11.910577057213375"><ele>275.6</ele><time>2026-04-18T13:38:10Z</time></trkpt><trkpt lat="46.02247318783184" lon="11.910695177153695"><ele>275.8</ele><time>2026-04-18T13:38:11Z</time></trkpt><trkpt lat="46.022491808898" lon="11.910816285473684"><ele>276.0</ele><time>2026-04-18T13:38:12Z</time></trkpt><trkpt lat="46.022507973063114" lon="11.910940056722882"><ele>276.2</ele><time>2026-04-18T13:38:13Z</time></trkpt><trkpt lat="46.022527257524" lon="11.91106864806638"><ele>276.40000000000003</ele><time>2026-04-18T13:38:14Z</time></trkpt><trkpt lat="46.022546827864375" lon="11.91120087244666"><ele>276.6</ele><time>2026-04-18T13:38:15Z</time></trkpt><trkpt lat="46.02255980833354" lon="11.911329935621398"><ele>276.8</ele><time>2026-04-18T13:38:16Z</time></trkpt><trkpt lat="46.022568539802556" lon="11.911462981539483"><ele>277.0</ele><time>2026-04-18T13:38:17Z</time></trkpt><trkpt lat="46.02257686178422" lon="11.911596668428588"><ele>277.0</ele><time>2026-04-18T13:38:18Z</time></trkpt><trkpt lat="46.022582466249695" lon="11.911725425401492"><ele>277.0</ele><time>2026-04-18T13:38:19Z</time></trkpt><trkpt lat="46.02258963180266" lon="11.911842509274443"><ele>277.0</ele><time>2026-04-18T13:38:20Z</time></trkpt><trkpt lat="46.02259559999241" lon="11.911937416386428"><ele>277.0</ele><time>2026-04-18T13:38:21Z</time></trkpt><trkpt lat="46.022597567405704" lon="11.912084228209801"><ele>277.0</ele><time>2026-04-18T13:38:23Z</time></trkpt><trkpt lat="46.02258725534119" lon="11.912176894974943"><ele>277.0</ele><time>2026-04-18T13:38:25Z</time></trkpt><trkpt lat="46.02254876761094" lon="11.912319326173426"><ele>277.0</ele><time>2026-04-18T13:38:31Z</time></trkpt><trkpt lat="46.02253762451905" lon="11.91241173008569"><ele>277.0</ele><time>2026-04-18T13:38:32Z</time></trkpt><trkpt lat="46.02252940443982" lon="11.912524604839042"><ele>277.0</ele><time>2026-04-18T13:38:33Z</time></trkpt><trkpt lat="46.02258979094604" lon="11.912626659224623"><ele>277.0</ele><time>2026-04-18T13:38:34Z</time></trkpt><trkpt lat="46.02262947226205" lon="11.912741252996467"><ele>277.0</ele><time>2026-04-18T13:38:35Z</time></trkpt><trkpt lat="46.02264421197072" lon="11.912889673151726"><ele>277.0</ele><time>2026-04-18T13:38:36Z</time></trkpt><trkpt lat="46.022661750865296" lon="11.913066167037504"><ele>276.5</ele><time>2026-04-18T13:38:37Z</time></trkpt><trkpt lat="46.02267036262491" lon="11.9132628020832"><ele>276.0</ele><time>2026-04-18T13:38:38Z</time></trkpt><trkpt lat="46.02267843310728" lon="11.91346001979663"><ele>275.5</ele><time>2026-04-18T13:38:39Z</time></trkpt><trkpt lat="46.02268479234646" lon="11.91363828653978"><ele>275.0</ele><time>2026-04-18T13:38:40Z</time></trkpt><trkpt lat="46.022693784111105" lon="11.913806830529559"><ele>275.0</ele><time>2026-04-18T13:38:40.999Z</time></trkpt><trkpt lat="46.02270123634076" lon="11.913977595804873"><ele>275.0</ele><time>2026-04-18T13:38:41.999Z</time></trkpt><trkpt lat="46.02270550933799" lon="11.914156484368487"><ele>275.0</ele><time>2026-04-18T13:38:42.999Z</time></trkpt><trkpt lat="46.02271357392306" lon="11.9143419156532"><ele>275.0</ele><time>2026-04-18T13:38:43.999Z</time></trkpt><trkpt lat="46.02272264533697" lon="11.914525872738645"><ele>275.0</ele><time>2026-04-18T13:38:44.999Z</time></trkpt><trkpt lat="46.02272956390664" lon="11.914712191212818"><ele>275.0</ele><time>2026-04-18T13:38:45.999Z</time></trkpt><trkpt lat="46.0227374369129" lon="11.914899078578634"><ele>275.0</ele><time>2026-04-18T13:38:46.999Z</time></trkpt><trkpt lat="46.02274717815778" lon="11.915088036935257"><ele>275.0</ele><time>2026-04-18T13:38:47.999Z</time></trkpt><trkpt lat="46.02274045827165" lon="11.915277464077397"><ele>275.75</ele><time>2026-04-18T13:38:48.999Z</time></trkpt><trkpt lat="46.02275899666735" lon="11.915471356486808"><ele>276.5</ele><time>2026-04-18T13:38:49.999Z</time></trkpt><trkpt lat="46.022764086231575" lon="11.915655681446369"><ele>277.25</ele><time>2026-04-18T13:38:50.999Z</time></trkpt><trkpt lat="46.02277766667038" lon="11.915838428071945"><ele>278.0</ele><time>2026-04-18T13:38:51.999Z</time></trkpt><trkpt lat="46.022783403617694" lon="11.916019585295404"><ele>279.25</ele><time>2026-04-18T13:38:52.999Z</time></trkpt><trkpt lat="46.02279126977143" lon="11.916198037190014"><ele>280.5</ele><time>2026-04-18T13:38:53.999Z</time></trkpt><trkpt lat="46.02280160055913" lon="11.916370445936376"><ele>281.75</ele><time>2026-04-18T13:38:54.999Z</time></trkpt><trkpt lat="46.02280633529168" lon="11.916550271662636"><ele>283.0</ele><time>2026-04-18T13:38:55.999Z</time></trkpt><trkpt lat="46.02280737581005" lon="11.916730624454386"><ele>283.75</ele><time>2026-04-18T13:38:56.999Z</time></trkpt><trkpt lat="46.02280987142639" lon="11.916906010105224"><ele>284.5</ele><time>2026-04-18T13:38:57.999Z</time></trkpt><trkpt lat="46.02281689850053" lon="11.917083570611984"><ele>285.25</ele><time>2026-04-18T13:38:58.999Z</time></trkpt><trkpt lat="46.02282489393813" lon="11.917255828476176"><ele>286.0</ele><time>2026-04-18T13:38:59.999Z</time></trkpt><trkpt lat="46.02283599931229" lon="11.917431643328953"><ele>286.25</ele><time>2026-04-18T13:39:00.999Z</time></trkpt><trkpt lat="46.02284770725911" lon="11.91760872279042"><ele>286.5</ele><time>2026-04-18T13:39:01.999Z</time></trkpt><trkpt lat="46.022852632156294" lon="11.917789503866455"><ele>286.75</ele><time>2026-04-18T13:39:02.999Z</time></trkpt><trkpt lat="46.0228625103539" lon="11.917968756522576"><ele>287.0</ele><time>2026-04-18T13:39:03.999Z</time></trkpt><trkpt lat="46.02287162773627" lon="11.918147351133824"><ele>287.0</ele><time>2026-04-18T13:39:04.999Z</time></trkpt><trkpt lat="46.02288171409817" lon="11.91832796858354"><ele>287.0</ele><time>2026-04-18T13:39:05.999Z</time></trkpt><trkpt lat="46.02289186856522" lon="11.918506010638048"><ele>287.0</ele><time>2026-04-18T13:39:06.999Z</time></trkpt><trkpt lat="46.02289764136918" lon="11.918688362325584"><ele>287.0</ele><time>2026-04-18T13:39:07.999Z</time></trkpt><trkpt lat="46.02290686382889" lon="11.91886688306003"><ele>288.0</ele><time>2026-04-18T13:39:08.999Z</time></trkpt><trkpt lat="46.022916462428356" lon="11.919051188494796"><ele>289.0</ele><time>2026-04-18T13:39:09.999Z</time></trkpt><trkpt lat="46.022922813160314" lon="11.919232069026338"><ele>290.0</ele><time>2026-04-18T13:39:10.999Z</time></trkpt><trkpt lat="46.022931092771906" lon="11.919414517523544"><ele>291.0</ele><time>2026-04-18T13:39:11.999Z</time></trkpt><trkpt lat="46.02293821947523" lon="11.919594089388628"><ele>291.5</ele><time>2026-04-18T13:39:12.999Z</time></trkpt><trkpt lat="46.0229477033617" lon="11.919769529785896"><ele>292.0</ele><time>2026-04-18T13:39:13.999Z</time></trkpt><trkpt lat="46.02295969115121" lon="11.919929563535995"><ele>292.5</ele><time>2026-04-18T13:39:14.999Z</time></trkpt><trkpt lat="46.022965061640534" lon="11.920084147179608"><ele>293.0</ele><time>2026-04-18T13:39:15.999Z</time></trkpt><trkpt lat="46.02296908284361" lon="11.920240107577246"><ele>293.0</ele><time>2026-04-18T13:39:16.999Z</time></trkpt><trkpt lat="46.022976683596944" lon="11.920392806278922"><ele>293.0</ele><time>2026-04-18T13:39:17.999Z</time></trkpt><trkpt lat="46.022987630721545" lon="11.920529320619387"><ele>293.0</ele><time>2026-04-18T13:39:19Z</time></trkpt><trkpt lat="46.022992000677505" lon="11.920644026226748"><ele>293.0</ele><time>2026-04-18T13:39:20Z</time></trkpt><trkpt lat="46.022996897330636" lon="11.920752706589534"><ele>293.0</ele><time>2026-04-18T13:39:21Z</time></trkpt><trkpt lat="46.02299748072388" lon="11.920857648316234"><ele>293.0</ele><time>2026-04-18T13:39:22Z</time></trkpt><trkpt lat="46.022968715696614" lon="11.920951933862995"><ele>292.6666666666667</ele><time>2026-04-18T13:39:23Z</time></trkpt><trkpt lat="46.022897066321384" lon="11.921032818138332"><ele>292.33333333333337</ele><time>2026-04-18T13:39:24Z</time></trkpt><trkpt lat="46.02284509473647" lon="11.921135182536196"><ele>292.0</ele><time>2026-04-18T13:39:25Z</time></trkpt><trkpt lat="46.02279562965295" lon="11.921232214116149"><ele>291.6666666666667</ele><time>2026-04-18T13:39:26Z</time></trkpt><trkpt lat="46.02277926690562" lon="11.921348732930674"><ele>291.3333333333333</ele><time>2026-04-18T13:39:27Z</time></trkpt><trkpt lat="46.022801052282404" lon="11.921474892649023"><ele>291.0</ele><time>2026-04-18T13:39:28Z</time></trkpt><trkpt lat="46.02285743789117" lon="11.921580314979153"><ele>291.0</ele><time>2026-04-18T13:39:29Z</time></trkpt><trkpt lat="46.022938514128136" lon="11.921679333705017"><ele>291.0</ele><time>2026-04-18T13:39:30Z</time></trkpt><trkpt lat="46.02301670117906" lon="11.921784762962044"><ele>291.0</ele><time>2026-04-18T13:39:31Z</time></trkpt><trkpt lat="46.023079395995396" lon="11.921909065847416"><ele>291.0</ele><time>2026-04-18T13:39:32Z</time></trkpt><trkpt lat="46.02313315806853" lon="11.922037584385112"><ele>291.0</ele><time>2026-04-18T13:39:33Z</time></trkpt><trkpt lat="46.02318221235112" lon="11.922161909019792"><ele>291.40000000000003</ele><time>2026-04-18T13:39:34Z</time></trkpt><trkpt lat="46.023232742881916" lon="11.922294970911326"><ele>291.8</ele><time>2026-04-18T13:39:35Z</time></trkpt><trkpt lat="46.02328098491059" lon="11.922434384998063"><ele>292.20000000000005</ele><time>2026-04-18T13:39:36Z</time></trkpt><trkpt lat="46.02333167997341" lon="11.922575586447655"><ele>292.6</ele><time>2026-04-18T13:39:37Z</time></trkpt><trkpt lat="46.0233844777697" lon="11.922715456542031"><ele>293.0</ele><time>2026-04-18T13:39:38Z</time></trkpt><trkpt lat="46.023438464943254" lon="11.922856928579305"><ele>293.5</ele><time>2026-04-18T13:39:39Z</time></trkpt><trkpt lat="46.023496085411224" lon="11.922998881004693"><ele>294.0</ele><time>2026-04-18T13:39:40Z</time></trkpt><trkpt lat="46.02355946085544" lon="11.923128687426312"><ele>294.5</ele><time>2026-04-18T13:39:41Z</time></trkpt><trkpt lat="46.023655757664166" lon="11.92324222263998"><ele>295.0</ele><time>2026-04-18T13:39:42Z</time></trkpt><trkpt lat="46.02373125151349" lon="11.923373604434824"><ele>295.5</ele><time>2026-04-18T13:39:43Z</time></trkpt><trkpt lat="46.02375830341343" lon="11.923554852039151"><ele>296.0</ele><time>2026-04-18T13:39:44Z</time></trkpt><trkpt lat="46.02383044405061" lon="11.923688266063731"><ele>296.5</ele><time>2026-04-18T13:39:45Z</time></trkpt><trkpt lat="46.0238886063171" lon="11.923823023220242"><ele>297.0</ele><time>2026-04-18T13:39:46Z</time></trkpt><trkpt lat="46.02395785914269" lon="11.923953013151827"><ele>297.0</ele><time>2026-04-18T13:39:47Z</time></trkpt><trkpt lat="46.02403001716875" lon="11.924084006702104"><ele>297.0</ele><time>2026-04-18T13:39:48Z</time></trkpt><trkpt lat="46.02410635787905" lon="11.92421790878237"><ele>297.0</ele><time>2026-04-18T13:39:49Z</time></trkpt><trkpt lat="46.02418058217103" lon="11.924346042115772"><ele>297.0</ele><time>2026-04-18T13:39:50Z</time></trkpt><trkpt lat="46.024254990511466" lon="11.924473828741222"><ele>297.0</ele><time>2026-04-18T13:39:51Z</time></trkpt><trkpt lat="46.02433224245658" lon="11.9246059406566"><ele>297.0</ele><time>2026-04-18T13:39:52Z</time></trkpt><trkpt lat="46.02441055379618" lon="11.924737141838657"><ele>297.0</ele><time>2026-04-18T13:39:53Z</time></trkpt><trkpt lat="46.02448884486341" lon="11.924870015434045"><ele>297.0</ele><time>2026-04-18T13:39:54Z</time></trkpt><trkpt lat="46.02456593892951" lon="11.925002941944708"><ele>297.75</ele><time>2026-04-18T13:39:55Z</time></trkpt><trkpt lat="46.024640875627156" lon="11.925136087485644"><ele>298.5</ele><time>2026-04-18T13:39:56Z</time></trkpt><trkpt lat="46.02471078442294" lon="11.92526746544185"><ele>299.25</ele><time>2026-04-18T13:39:57Z</time></trkpt><trkpt lat="46.024782406689006" lon="11.925396290055746"><ele>300.0</ele><time>2026-04-18T13:39:58Z</time></trkpt><trkpt lat="46.02485109760339" lon="11.925531261386729"><ele>300.0</ele><time>2026-04-18T13:39:59Z</time></trkpt><trkpt lat="46.024911830548405" lon="11.925668778579144"><ele>300.0</ele><time>2026-04-18T13:40:00Z</time></trkpt><trkpt lat="46.024975316312016" lon="11.925808777147926"><ele>300.0</ele><time>2026-04-18T13:40:01Z</time></trkpt><trkpt lat="46.025034436313405" lon="11.925950797056261"><ele>300.0</ele><time>2026-04-18T13:40:02Z</time></trkpt><trkpt lat="46.02509836082889" lon="11.926097332777736"><ele>299.75</ele><time>2026-04-18T13:40:03Z</time></trkpt><trkpt lat="46.025162419949964" lon="11.926243568092506"><ele>299.5</ele><time>2026-04-18T13:40:04Z</time></trkpt><trkpt lat="46.0252172296898" lon="11.926396000976448"><ele>299.25</ele><time>2026-04-18T13:40:05Z</time></trkpt><trkpt lat="46.025273673669716" lon="11.926545248633538"><ele>299.0</ele><time>2026-04-18T13:40:06Z</time></trkpt><trkpt lat="46.02532497824529" lon="11.926697814916881"><ele>299.8</ele><time>2026-04-18T13:40:07Z</time></trkpt><trkpt lat="46.025375686034195" lon="11.926846405974088"><ele>300.59999999999997</ele><time>2026-04-18T13:40:08Z</time></trkpt><trkpt lat="46.02541700887526" lon="11.926968856481034"><ele>301.4</ele><time>2026-04-18T13:40:09Z</time></trkpt><trkpt lat="46.02546639154349" lon="11.927112996899528"><ele>302.2</ele><time>2026-04-18T13:40:11Z</time></trkpt><trkpt lat="46.02549022866321" lon="11.927202679628932"><ele>303.0</ele><time>2026-04-18T13:40:15Z</time></trkpt><trkpt lat="46.02551871073723" lon="11.927312531982283"><ele>303.0</ele><time>2026-04-18T13:40:35Z</time></trkpt><trkpt lat="46.02554636676303" lon="11.927419888358672"><ele>303.0</ele><time>2026-04-18T13:40:36Z</time></trkpt><trkpt lat="46.02557807365649" lon="11.927540540655695"><ele>303.0</ele><time>2026-04-18T13:40:37Z</time></trkpt><trkpt lat="46.02561238574731" lon="11.927691763148196"><ele>303.0</ele><time>2026-04-18T13:40:38Z</time></trkpt><trkpt lat="46.02565363108474" lon="11.927854073920194"><ele>303.0</ele><time>2026-04-18T13:40:39Z</time></trkpt><trkpt lat="46.02570322942893" lon="11.92800190977168"><ele>302.5</ele><time>2026-04-18T13:40:40Z</time></trkpt><trkpt lat="46.02575498401773" lon="11.92815413150162"><ele>302.0</ele><time>2026-04-18T13:40:41Z</time></trkpt><trkpt lat="46.025817079844884" lon="11.928299584254514"><ele>301.5</ele><time>2026-04-18T13:40:42Z</time></trkpt><trkpt lat="46.02586957191013" lon="11.928469773804897"><ele>301.0</ele><time>2026-04-18T13:40:43Z</time></trkpt><trkpt lat="46.02614003991774" lon="11.928523814531365"><ele>301.0</ele><time>2026-04-18T13:40:44Z</time></trkpt><trkpt lat="46.02632361459655" lon="11.92863915368924"><ele>301.0</ele><time>2026-04-18T13:40:45Z</time></trkpt><trkpt lat="46.026008401481256" lon="11.928917250073205"><ele>301.0</ele><time>2026-04-18T13:40:46Z</time></trkpt><trkpt lat="46.026059845631316" lon="11.929071336612836"><ele>301.0</ele><time>2026-04-18T13:40:47Z</time></trkpt><trkpt lat="46.0261037982359" lon="11.929225560472696"><ele>301.0</ele><time>2026-04-18T13:40:48Z</time></trkpt><trkpt lat="46.02615208189195" lon="11.929375665559379"><ele>301.0</ele><time>2026-04-18T13:40:49Z</time></trkpt><trkpt lat="46.026189572493294" lon="11.929535361054048"><ele>302.75</ele><time>2026-04-18T13:40:50Z</time></trkpt><trkpt lat="46.02623860113306" lon="11.929693584557338"><ele>304.5</ele><time>2026-04-18T13:40:51Z</time></trkpt><trkpt lat="46.026280052387044" lon="11.92986568616322"><ele>306.25</ele><time>2026-04-18T13:40:52Z</time></trkpt><trkpt lat="46.02631988090288" lon="11.930034762855609"><ele>308.0</ele><time>2026-04-18T13:40:53Z</time></trkpt><trkpt lat="46.02635442570831" lon="11.930214492856136"><ele>309.25</ele><time>2026-04-18T13:40:54Z</time></trkpt><trkpt lat="46.02639051023586" lon="11.930385089178358"><ele>310.5</ele><time>2026-04-18T13:40:55Z</time></trkpt><trkpt lat="46.02642766095618" lon="11.930551059592316"><ele>311.75</ele><time>2026-04-18T13:40:56Z</time></trkpt><trkpt lat="46.02645847483229" lon="11.930721013908503"><ele>313.0</ele><time>2026-04-18T13:40:57Z</time></trkpt><trkpt lat="46.02649442376216" lon="11.930902943311338"><ele>314.25</ele><time>2026-04-18T13:40:57.999Z</time></trkpt><trkpt lat="46.02650528440382" lon="11.931090811071877"><ele>315.5</ele><time>2026-04-18T13:40:58.999Z</time></trkpt><trkpt lat="46.02652643170957" lon="11.931271032646247"><ele>316.75</ele><time>2026-04-18T13:40:59.999Z</time></trkpt><trkpt lat="46.02654815698257" lon="11.931458290016668"><ele>318.0</ele><time>2026-04-18T13:41:00.999Z</time></trkpt><trkpt lat="46.026566890842425" lon="11.93165171090336"><ele>318.3333333333333</ele><time>2026-04-18T13:41:01.999Z</time></trkpt><trkpt lat="46.0265824010977" lon="11.93186064201678"><ele>318.66666666666663</ele><time>2026-04-18T13:41:02.999Z</time></trkpt><trkpt lat="46.026596925333656" lon="11.932077832209258"><ele>319.0</ele><time>2026-04-18T13:41:03.999Z</time></trkpt><trkpt lat="46.026611781574196" lon="11.932298524017764"><ele>319.0</ele><time>2026-04-18T13:41:04.999Z</time></trkpt><trkpt lat="46.02663823119867" lon="11.932516232339296"><ele>319.0</ele><time>2026-04-18T13:41:05.999Z</time></trkpt><trkpt lat="46.02664484359593" lon="11.932717588493444"><ele>319.0</ele><time>2026-04-18T13:41:06.999Z</time></trkpt><trkpt lat="46.02665112397018" lon="11.932918261031306"><ele>319.0</ele><time>2026-04-18T13:41:07.999Z</time></trkpt><trkpt lat="46.0266630754759" lon="11.933125372239031"><ele>315.75</ele><time>2026-04-18T13:41:08.999Z</time></trkpt><trkpt lat="46.026675869198485" lon="11.933337067652522"><ele>312.5</ele><time>2026-04-18T13:41:09.999Z</time></trkpt><trkpt lat="46.02668955777242" lon="11.933544306319343"><ele>309.25</ele><time>2026-04-18T13:41:10.999Z</time></trkpt><trkpt lat="46.0267029318621" lon="11.933752883946"><ele>306.0</ele><time>2026-04-18T13:41:11.999Z</time></trkpt><trkpt lat="46.02671204684828" lon="11.933964159264152"><ele>306.0</ele><time>2026-04-18T13:41:12.999Z</time></trkpt><trkpt lat="46.02672630472973" lon="11.93417472042562"><ele>306.0</ele><time>2026-04-18T13:41:13.999Z</time></trkpt><trkpt lat="46.02674387009074" lon="11.9343845772122"><ele>306.0</ele><time>2026-04-18T13:41:14.999Z</time></trkpt><trkpt lat="46.0267674766142" lon="11.934594944188554"><ele>306.0</ele><time>2026-04-18T13:41:15.999Z</time></trkpt><trkpt lat="46.02679827557443" lon="11.934811669438494"><ele>306.6666666666667</ele><time>2026-04-18T13:41:16.999Z</time></trkpt><trkpt lat="46.02683956153908" lon="11.935028097275886"><ele>307.33333333333337</ele><time>2026-04-18T13:41:17.999Z</time></trkpt><trkpt lat="46.02687829269453" lon="11.935242451203221"><ele>308.0</ele><time>2026-04-18T13:41:18.999Z</time></trkpt><trkpt lat="46.02690267800175" lon="11.935445784191137"><ele>308.0</ele><time>2026-04-18T13:41:19.999Z</time></trkpt><trkpt lat="46.02695261435698" lon="11.935632473848605"><ele>308.0</ele><time>2026-04-18T13:41:20.999Z</time></trkpt><trkpt lat="46.026981904050835" lon="11.935824140720566"><ele>308.0</ele><time>2026-04-18T13:41:21.999Z</time></trkpt><trkpt lat="46.027020419244536" lon="11.936014767340666"><ele>308.0</ele><time>2026-04-18T13:41:22.999Z</time></trkpt><trkpt lat="46.02705810387721" lon="11.936206525596525"><ele>309.75</ele><time>2026-04-18T13:41:23.999Z</time></trkpt><trkpt lat="46.027091845936226" lon="11.936398280505962"><ele>311.5</ele><time>2026-04-18T13:41:25Z</time></trkpt><trkpt lat="46.02712989362477" lon="11.936592889723586"><ele>313.25</ele><time>2026-04-18T13:41:26Z</time></trkpt><trkpt lat="46.027170128509184" lon="11.936793662181218"><ele>315.0</ele><time>2026-04-18T13:41:27Z</time></trkpt><trkpt lat="46.0272107327625" lon="11.936981203386804"><ele>315.25</ele><time>2026-04-18T13:41:28Z</time></trkpt><trkpt lat="46.02724914834435" lon="11.937183590409793"><ele>315.5</ele><time>2026-04-18T13:41:29Z</time></trkpt><trkpt lat="46.02728676544837" lon="11.937381103938549"><ele>315.75</ele><time>2026-04-18T13:41:30Z</time></trkpt><trkpt lat="46.02731995822928" lon="11.937585423550637"><ele>316.0</ele><time>2026-04-18T13:41:31Z</time></trkpt><trkpt lat="46.027356649279284" lon="11.937789003825532"><ele>315.0</ele><time>2026-04-18T13:41:32Z</time></trkpt><trkpt lat="46.02739363756006" lon="11.93798749235419"><ele>314.0</ele><time>2026-04-18T13:41:33Z</time></trkpt><trkpt lat="46.027437409798026" lon="11.938186528078406"><ele>313.0</ele><time>2026-04-18T13:41:34Z</time></trkpt><trkpt lat="46.027477008776195" lon="11.938388589870407"><ele>312.0</ele><time>2026-04-18T13:41:35Z</time></trkpt><trkpt lat="46.02751449853793" lon="11.938584128919073"><ele>310.25</ele><time>2026-04-18T13:41:36Z</time></trkpt><trkpt lat="46.02756190564112" lon="11.93877981969041"><ele>308.5</ele><time>2026-04-18T13:41:37Z</time></trkpt><trkpt lat="46.027601501227025" lon="11.938981874597529"><ele>306.75</ele><time>2026-04-18T13:41:38Z</time></trkpt><trkpt lat="46.027651269725546" lon="11.9391635750563"><ele>305.0</ele><time>2026-04-18T13:41:39Z</time></trkpt><trkpt lat="46.027702902075" lon="11.939353256145132"><ele>305.0</ele><time>2026-04-18T13:41:40Z</time></trkpt><trkpt lat="46.02776050293882" lon="11.939550425841686"><ele>305.0</ele><time>2026-04-18T13:41:41Z</time></trkpt><trkpt lat="46.027817815265095" lon="11.939735610070068"><ele>305.0</ele><time>2026-04-18T13:41:42Z</time></trkpt><trkpt lat="46.02787224319421" lon="11.93992996497996"><ele>305.0</ele><time>2026-04-18T13:41:43Z</time></trkpt><trkpt lat="46.027923625526846" lon="11.940132104009086"><ele>306.25</ele><time>2026-04-18T13:41:44Z</time></trkpt><trkpt lat="46.027982226158265" lon="11.940329184637541"><ele>307.5</ele><time>2026-04-18T13:41:45Z</time></trkpt><trkpt lat="46.02803627138884" lon="11.940521562540079"><ele>308.75</ele><time>2026-04-18T13:41:46Z</time></trkpt><trkpt lat="46.02809065776458" lon="11.940718133841662"><ele>310.0</ele><time>2026-04-18T13:41:47Z</time></trkpt><trkpt lat="46.02814422997875" lon="11.940912472802513"><ele>310.25</ele><time>2026-04-18T13:41:48Z</time></trkpt><trkpt lat="46.02820164477825" lon="11.941101714248157"><ele>310.5</ele><time>2026-04-18T13:41:49Z</time></trkpt><trkpt lat="46.028252012954376" lon="11.94129541488798"><ele>310.75</ele><time>2026-04-18T13:41:50Z</time></trkpt><trkpt lat="46.02830451282975" lon="11.941486936199656"><ele>311.0</ele><time>2026-04-18T13:41:51Z</time></trkpt><trkpt lat="46.028362504413025" lon="11.941668872138386"><ele>312.0</ele><time>2026-04-18T13:41:52Z</time></trkpt><trkpt lat="46.02842081223821" lon="11.941858885967312"><ele>313.0</ele><time>2026-04-18T13:41:53Z</time></trkpt><trkpt lat="46.028475488042844" lon="11.94204609844182"><ele>314.0</ele><time>2026-04-18T13:41:54Z</time></trkpt><trkpt lat="46.02854712547029" lon="11.94223458009974"><ele>315.0</ele><time>2026-04-18T13:41:55Z</time></trkpt><trkpt lat="46.028594203726676" lon="11.942425903221679"><ele>315.0</ele><time>2026-04-18T13:41:56Z</time></trkpt><trkpt lat="46.02864886196818" lon="11.942614521160698"><ele>315.0</ele><time>2026-04-18T13:41:57Z</time></trkpt><trkpt lat="46.028699242838925" lon="11.942809831002835"><ele>315.0</ele><time>2026-04-18T13:41:58Z</time></trkpt><trkpt lat="46.02877534678747" lon="11.943001928350897"><ele>315.0</ele><time>2026-04-18T13:41:59Z</time></trkpt><trkpt lat="46.0288261952754" lon="11.943199822328609"><ele>315.5</ele><time>2026-04-18T13:42:00Z</time></trkpt><trkpt lat="46.02888462667864" lon="11.943393384988786"><ele>316.0</ele><time>2026-04-18T13:42:01Z</time></trkpt><trkpt lat="46.02892896047811" lon="11.943579921490148"><ele>316.5</ele><time>2026-04-18T13:42:02Z</time></trkpt><trkpt lat="46.02898676010361" lon="11.943759611605541"><ele>317.0</ele><time>2026-04-18T13:42:03Z</time></trkpt><trkpt lat="46.029048072132724" lon="11.943949544764203"><ele>317.0</ele><time>2026-04-18T13:42:04Z</time></trkpt><trkpt lat="46.02908844659242" lon="11.944147497739499"><ele>317.0</ele><time>2026-04-18T13:42:05Z</time></trkpt><trkpt lat="46.02914084554601" lon="11.944343769754596"><ele>317.0</ele><time>2026-04-18T13:42:06Z</time></trkpt><trkpt lat="46.029205759608296" lon="11.944540888762443"><ele>317.0</ele><time>2026-04-18T13:42:07Z</time></trkpt><trkpt lat="46.02925428981402" lon="11.944748174270671"><ele>316.5</ele><time>2026-04-18T13:42:08Z</time></trkpt><trkpt lat="46.02928167226025" lon="11.944955309573619"><ele>316.0</ele><time>2026-04-18T13:42:09Z</time></trkpt><trkpt lat="46.029323265341226" lon="11.945155857006757"><ele>315.5</ele><time>2026-04-18T13:42:10Z</time></trkpt><trkpt lat="46.02936327147867" lon="11.945352444317793"><ele>315.0</ele><time>2026-04-18T13:42:11Z</time></trkpt><trkpt lat="46.029414804559615" lon="11.945542351046594"><ele>314.75</ele><time>2026-04-18T13:42:12Z</time></trkpt><trkpt lat="46.02944823703267" lon="11.945742557137315"><ele>314.5</ele><time>2026-04-18T13:42:13Z</time></trkpt><trkpt lat="46.029486852863215" lon="11.945945612807638"><ele>314.25</ele><time>2026-04-18T13:42:14Z</time></trkpt><trkpt lat="46.02952352275063" lon="11.946151084384562"><ele>314.0</ele><time>2026-04-18T13:42:15Z</time></trkpt><trkpt lat="46.02955144436451" lon="11.946346728681306"><ele>314.0</ele><time>2026-04-18T13:42:16Z</time></trkpt><trkpt lat="46.02958562915982" lon="11.946539058435329"><ele>314.0</ele><time>2026-04-18T13:42:17Z</time></trkpt><trkpt lat="46.02962386613201" lon="11.946730883826621"><ele>314.0</ele><time>2026-04-18T13:42:18Z</time></trkpt><trkpt lat="46.02965855821791" lon="11.946931730010721"><ele>314.0</ele><time>2026-04-18T13:42:19Z</time></trkpt><trkpt lat="46.029701438188184" lon="11.94713537553261"><ele>313.6666666666667</ele><time>2026-04-18T13:42:20Z</time></trkpt><trkpt lat="46.029739820030414" lon="11.947343305995195"><ele>313.3333333333333</ele><time>2026-04-18T13:42:21Z</time></trkpt><trkpt lat="46.02977766715638" lon="11.947551998592576"><ele>313.0</ele><time>2026-04-18T13:42:22Z</time></trkpt><trkpt lat="46.02982069791262" lon="11.947761233919993"><ele>312.25</ele><time>2026-04-18T13:42:23Z</time></trkpt><trkpt lat="46.02985107379802" lon="11.947973506917128"><ele>311.5</ele><time>2026-04-18T13:42:24Z</time></trkpt><trkpt lat="46.0298878207933" lon="11.94817268087589"><ele>310.75</ele><time>2026-04-18T13:42:25Z</time></trkpt><trkpt lat="46.02992340295024" lon="11.948370843063353"><ele>310.0</ele><time>2026-04-18T13:42:26Z</time></trkpt><trkpt lat="46.029966329287305" lon="11.948567661673755"><ele>309.75</ele><time>2026-04-18T13:42:27Z</time></trkpt><trkpt lat="46.0300056767622" lon="11.948772153517913"><ele>309.5</ele><time>2026-04-18T13:42:28Z</time></trkpt><trkpt lat="46.03004233749581" lon="11.948980421608653"><ele>309.25</ele><time>2026-04-18T13:42:29Z</time></trkpt><trkpt lat="46.0300789744904" lon="11.949186851266266"><ele>309.0</ele><time>2026-04-18T13:42:30Z</time></trkpt><trkpt lat="46.03011586768463" lon="11.949396728244492"><ele>309.0</ele><time>2026-04-18T13:42:31Z</time></trkpt><trkpt lat="46.03015164483692" lon="11.949605776553154"><ele>309.0</ele><time>2026-04-18T13:42:32Z</time></trkpt><trkpt lat="46.03019226354308" lon="11.949810681355702"><ele>309.0</ele><time>2026-04-18T13:42:33Z</time></trkpt><trkpt lat="46.03023290928979" lon="11.9500189855544"><ele>309.0</ele><time>2026-04-18T13:42:34Z</time></trkpt><trkpt lat="46.0302711294223" lon="11.950227995933378"><ele>308.5</ele><time>2026-04-18T13:42:35Z</time></trkpt><trkpt lat="46.03031005391433" lon="11.950439531583063"><ele>308.0</ele><time>2026-04-18T13:42:36Z</time></trkpt><trkpt lat="46.03035041836212" lon="11.950648784990873"><ele>307.5</ele><time>2026-04-18T13:42:37Z</time></trkpt><trkpt lat="46.03038733464355" lon="11.950846495567927"><ele>307.0</ele><time>2026-04-18T13:42:38Z</time></trkpt><trkpt lat="46.03042387411094" lon="11.951046038587318"><ele>307.0</ele><time>2026-04-18T13:42:39Z</time></trkpt><trkpt lat="46.03046156533748" lon="11.951249544332388"><ele>307.0</ele><time>2026-04-18T13:42:40Z</time></trkpt><trkpt lat="46.03049844060751" lon="11.951450639872029"><ele>307.0</ele><time>2026-04-18T13:42:41Z</time></trkpt><trkpt lat="46.030535848054384" lon="11.951655093822799"><ele>307.0</ele><time>2026-04-18T13:42:42Z</time></trkpt><trkpt lat="46.030571319024645" lon="11.95186092443823"><ele>306.0</ele><time>2026-04-18T13:42:43Z</time></trkpt><trkpt lat="46.03060394096109" lon="11.952061423037874"><ele>305.0</ele><time>2026-04-18T13:42:44Z</time></trkpt><trkpt lat="46.03062929847983" lon="11.95228452219168"><ele>304.0</ele><time>2026-04-18T13:42:45Z</time></trkpt><trkpt lat="46.03066226828825" lon="11.952539734030935"><ele>303.75</ele><time>2026-04-18T13:42:46Z</time></trkpt><trkpt lat="46.030693521334975" lon="11.952719297294344"><ele>303.5</ele><time>2026-04-18T13:42:47Z</time></trkpt><trkpt lat="46.030697972805534" lon="11.952880175552048"><ele>303.25</ele><time>2026-04-18T13:42:48Z</time></trkpt><trkpt lat="46.03076405297303" lon="11.953121828739443"><ele>303.0</ele><time>2026-04-18T13:42:49Z</time></trkpt><trkpt lat="46.03074717084827" lon="11.953292503149582"><ele>303.0</ele><time>2026-04-18T13:42:50Z</time></trkpt><trkpt lat="46.03072066651958" lon="11.953436142673311"><ele>303.0</ele><time>2026-04-18T13:42:51Z</time></trkpt><trkpt lat="46.03070042505778" lon="11.953543120006927"><ele>303.0</ele><time>2026-04-18T13:42:52Z</time></trkpt><trkpt lat="46.0306862383394" lon="11.953672102805934"><ele>303.0</ele><time>2026-04-18T13:42:53Z</time></trkpt><trkpt lat="46.03084591955281" lon="11.954293722855185"><ele>301.75</ele><time>2026-04-18T13:42:55Z</time></trkpt><trkpt lat="46.03086624490787" lon="11.954493668515733"><ele>300.5</ele><time>2026-04-18T13:42:56Z</time></trkpt><trkpt lat="46.030882641501975" lon="11.95469991650486"><ele>299.25</ele><time>2026-04-18T13:42:57Z</time></trkpt><trkpt lat="46.03090354097995" lon="11.95491389682688"><ele>298.0</ele><time>2026-04-18T13:42:58Z</time></trkpt><trkpt lat="46.03092410935477" lon="11.955127345869563"><ele>297.75</ele><time>2026-04-18T13:42:58.999Z</time></trkpt><trkpt lat="46.030939292940005" lon="11.95533738860478"><ele>297.5</ele><time>2026-04-18T13:42:59.999Z</time></trkpt><trkpt lat="46.03095887089867" lon="11.95554229168552"><ele>297.25</ele><time>2026-04-18T13:43:00.999Z</time></trkpt><trkpt lat="46.03097683240358" lon="11.955737828980086"><ele>297.0</ele><time>2026-04-18T13:43:01.999Z</time></trkpt><trkpt lat="46.03100012740711" lon="11.955931926065047"><ele>296.75</ele><time>2026-04-18T13:43:02.999Z</time></trkpt><trkpt lat="46.03101842481826" lon="11.956131005229919"><ele>296.5</ele><time>2026-04-18T13:43:03.999Z</time></trkpt><trkpt lat="46.03103539176779" lon="11.956328191709218"><ele>296.25</ele><time>2026-04-18T13:43:04.999Z</time></trkpt><trkpt lat="46.03105248203902" lon="11.956535623421976"><ele>296.0</ele><time>2026-04-18T13:43:05.999Z</time></trkpt><trkpt lat="46.03107288970698" lon="11.956735921508484"><ele>295.25</ele><time>2026-04-18T13:43:06.999Z</time></trkpt><trkpt lat="46.0310877066653" lon="11.956942447252157"><ele>294.5</ele><time>2026-04-18T13:43:07.999Z</time></trkpt><trkpt lat="46.031108874182756" lon="11.957144496507718"><ele>293.75</ele><time>2026-04-18T13:43:08.999Z</time></trkpt><trkpt lat="46.0311290023016" lon="11.957350926961006"><ele>293.0</ele><time>2026-04-18T13:43:09.999Z</time></trkpt><trkpt lat="46.031148483325" lon="11.957554217449697"><ele>292.5</ele><time>2026-04-18T13:43:10.999Z</time></trkpt><trkpt lat="46.03116979427935" lon="11.957762571936849"><ele>292.0</ele><time>2026-04-18T13:43:11.999Z</time></trkpt><trkpt lat="46.03118183307295" lon="11.957968041511725"><ele>291.5</ele><time>2026-04-18T13:43:12.999Z</time></trkpt><trkpt lat="46.03120007733813" lon="11.958158000638608"><ele>291.0</ele><time>2026-04-18T13:43:13.999Z</time></trkpt><trkpt lat="46.03123265902165" lon="11.958336714046508"><ele>290.75</ele><time>2026-04-18T13:43:14.999Z</time></trkpt><trkpt lat="46.031250427290054" lon="11.958518358185385"><ele>290.5</ele><time>2026-04-18T13:43:15.999Z</time></trkpt><trkpt lat="46.03125809014675" lon="11.958705638039165"><ele>290.25</ele><time>2026-04-18T13:43:16.999Z</time></trkpt><trkpt lat="46.03128122500061" lon="11.958893982423756"><ele>290.0</ele><time>2026-04-18T13:43:17.999Z</time></trkpt><trkpt lat="46.031297346658604" lon="11.95906410106622"><ele>289.6</ele><time>2026-04-18T13:43:18.999Z</time></trkpt><trkpt lat="46.031308512680475" lon="11.959223980693722"><ele>289.2</ele><time>2026-04-18T13:43:19.999Z</time></trkpt><trkpt lat="46.03131791964388" lon="11.959370725852109"><ele>288.8</ele><time>2026-04-18T13:43:20.999Z</time></trkpt><trkpt lat="46.031338981817306" lon="11.959507659224917"><ele>288.4</ele><time>2026-04-18T13:43:21.999Z</time></trkpt><trkpt lat="46.03135187583557" lon="11.959632223661583"><ele>288.0</ele><time>2026-04-18T13:43:22.999Z</time></trkpt><trkpt lat="46.03135336347759" lon="11.959733183161825"><ele>288.0</ele><time>2026-04-18T13:43:23.999Z</time></trkpt><trkpt lat="46.031332973581584" lon="11.959837104157714"><ele>288.0</ele><time>2026-04-18T13:43:25.999Z</time></trkpt><trkpt lat="46.03129725980954" lon="11.959936564981067"><ele>288.0</ele><time>2026-04-18T13:43:31Z</time></trkpt><trkpt lat="46.03128750482183" lon="11.960030066352408"><ele>288.0</ele><time>2026-04-18T13:43:32Z</time></trkpt><trkpt lat="46.03131094929186" lon="11.960138827786484"><ele>288.0</ele><time>2026-04-18T13:43:33Z</time></trkpt><trkpt lat="46.03136160957525" lon="11.960246819504441"><ele>288.0</ele><time>2026-04-18T13:43:34Z</time></trkpt><trkpt lat="46.031420395988135" lon="11.960376607380375"><ele>287.75</ele><time>2026-04-18T13:43:35Z</time></trkpt><trkpt lat="46.03145217812275" lon="11.960546151292839"><ele>287.5</ele><time>2026-04-18T13:43:36Z</time></trkpt><trkpt lat="46.031453295807225" lon="11.96073939877525"><ele>287.25</ele><time>2026-04-18T13:43:37Z</time></trkpt><trkpt lat="46.03145522591338" lon="11.960927737988056"><ele>287.0</ele><time>2026-04-18T13:43:38Z</time></trkpt><trkpt lat="46.03147489179358" lon="11.961122284809605"><ele>286.75</ele><time>2026-04-18T13:43:39Z</time></trkpt><trkpt lat="46.03149598018146" lon="11.961327704631758"><ele>286.5</ele><time>2026-04-18T13:43:40Z</time></trkpt><trkpt lat="46.03151412064667" lon="11.961529948974036"><ele>286.25</ele><time>2026-04-18T13:43:41Z</time></trkpt><trkpt lat="46.03153080909108" lon="11.961715850298301"><ele>286.0</ele><time>2026-04-18T13:43:42Z</time></trkpt><trkpt lat="46.031557896253894" lon="11.96190450589793"><ele>286.0</ele><time>2026-04-18T13:43:43Z</time></trkpt><trkpt lat="46.03159191359624" lon="11.962103298629197"><ele>286.0</ele><time>2026-04-18T13:43:44Z</time></trkpt><trkpt lat="46.03164017281341" lon="11.962294679073857"><ele>286.0</ele><time>2026-04-18T13:43:45Z</time></trkpt><trkpt lat="46.0317063477046" lon="11.962505345503914"><ele>286.0</ele><time>2026-04-18T13:43:46Z</time></trkpt><trkpt lat="46.03178417951669" lon="11.962703551531817"><ele>286.25</ele><time>2026-04-18T13:43:47Z</time></trkpt><trkpt lat="46.031875507772966" lon="11.962876977713172"><ele>286.5</ele><time>2026-04-18T13:43:48Z</time></trkpt><trkpt lat="46.031968469604514" lon="11.963027914422373"><ele>286.75</ele><time>2026-04-18T13:43:49Z</time></trkpt><trkpt lat="46.032065118396766" lon="11.963181603522989"><ele>287.0</ele><time>2026-04-18T13:43:50Z</time></trkpt><trkpt lat="46.032162361092865" lon="11.963346510106723"><ele>286.25</ele><time>2026-04-18T13:43:51Z</time></trkpt><trkpt lat="46.032259119907756" lon="11.963514388547447"><ele>285.5</ele><time>2026-04-18T13:43:52Z</time></trkpt><trkpt lat="46.03235187916083" lon="11.963671565183596"><ele>284.75</ele><time>2026-04-18T13:43:53Z</time></trkpt><trkpt lat="46.03244273074597" lon="11.963822700361614"><ele>284.0</ele><time>2026-04-18T13:43:54Z</time></trkpt><trkpt lat="46.03253927298056" lon="11.963979105905562"><ele>283.0</ele><time>2026-04-18T13:43:55Z</time></trkpt><trkpt lat="46.03263567445482" lon="11.964145042224814"><ele>282.0</ele><time>2026-04-18T13:43:56Z</time></trkpt><trkpt lat="46.03273112869807" lon="11.96431102997046"><ele>281.0</ele><time>2026-04-18T13:43:57Z</time></trkpt><trkpt lat="46.03281895485" lon="11.964477200306316"><ele>280.0</ele><time>2026-04-18T13:43:58Z</time></trkpt><trkpt lat="46.03289554310764" lon="11.964654966629078"><ele>278.3333333333333</ele><time>2026-04-18T13:43:59Z</time></trkpt><trkpt lat="46.03296274530444" lon="11.96484581675726"><ele>276.6666666666667</ele><time>2026-04-18T13:44:00Z</time></trkpt><trkpt lat="46.03302824519418" lon="11.965043542768173"><ele>275.0</ele><time>2026-04-18T13:44:01Z</time></trkpt><trkpt lat="46.03309420477345" lon="11.965253990108696"><ele>274.33333333333337</ele><time>2026-04-18T13:44:02Z</time></trkpt><trkpt lat="46.033163026302795" lon="11.965484498734952"><ele>273.6666666666667</ele><time>2026-04-18T13:44:03Z</time></trkpt><trkpt lat="46.033235095273504" lon="11.965718176142518"><ele>273.0</ele><time>2026-04-18T13:44:04Z</time></trkpt><trkpt lat="46.03329903540296" lon="11.96592800698221"><ele>273.6666666666667</ele><time>2026-04-18T13:44:05Z</time></trkpt><trkpt lat="46.033358885805114" lon="11.966134798528262"><ele>274.33333333333337</ele><time>2026-04-18T13:44:06Z</time></trkpt><trkpt lat="46.03341275071931" lon="11.966345076508594"><ele>275.0</ele><time>2026-04-18T13:44:07Z</time></trkpt><trkpt lat="46.033456152339916" lon="11.96655802383599"><ele>273.6666666666667</ele><time>2026-04-18T13:44:08Z</time></trkpt><trkpt lat="46.033488390117185" lon="11.966784224500529"><ele>272.3333333333333</ele><time>2026-04-18T13:44:09Z</time></trkpt><trkpt lat="46.03348879028633" lon="11.967017808104991"><ele>271.0</ele><time>2026-04-18T13:44:10Z</time></trkpt><trkpt lat="46.03350981644618" lon="11.967274517220854"><ele>269.3333333333333</ele><time>2026-04-18T13:44:11Z</time></trkpt><trkpt lat="46.033504258386714" lon="11.967536997505809"><ele>267.6666666666667</ele><time>2026-04-18T13:44:12Z</time></trkpt><trkpt lat="46.033496646663664" lon="11.967779499355899"><ele>266.0</ele><time>2026-04-18T13:44:13Z</time></trkpt><trkpt lat="46.03349054503276" lon="11.96801387038836"><ele>266.0</ele><time>2026-04-18T13:44:14Z</time></trkpt><trkpt lat="46.03348676032332" lon="11.968255803579233"><ele>266.0</ele><time>2026-04-18T13:44:15Z</time></trkpt><trkpt lat="46.0334796892454" lon="11.968493578506385"><ele>266.0</ele><time>2026-04-18T13:44:16Z</time></trkpt><trkpt lat="46.03347037044029" lon="11.96872619790625"><ele>266.0</ele><time>2026-04-18T13:44:17Z</time></trkpt><trkpt lat="46.03346534453" lon="11.96895670911617"><ele>266.0</ele><time>2026-04-18T13:44:18Z</time></trkpt><trkpt lat="46.03346119460797" lon="11.969190631420519"><ele>266.0</ele><time>2026-04-18T13:44:19Z</time></trkpt><trkpt lat="46.03346511480864" lon="11.969425881274653"><ele>266.0</ele><time>2026-04-18T13:44:20Z</time></trkpt><trkpt lat="46.03348153267246" lon="11.969662578161426"><ele>266.0</ele><time>2026-04-18T13:44:21Z</time></trkpt><trkpt lat="46.03351559066126" lon="11.969893582953492"><ele>266.0</ele><time>2026-04-18T13:44:22Z</time></trkpt><trkpt lat="46.03356795356713" lon="11.970118892667292"><ele>265.0</ele><time>2026-04-18T13:44:23Z</time></trkpt><trkpt lat="46.03363317830321" lon="11.970343725883493"><ele>264.0</ele><time>2026-04-18T13:44:24Z</time></trkpt><trkpt lat="46.033713058641325" lon="11.970561617045506"><ele>263.0</ele><time>2026-04-18T13:44:25Z</time></trkpt><trkpt lat="46.03379382202837" lon="11.970777805527668"><ele>262.6666666666667</ele><time>2026-04-18T13:44:26Z</time></trkpt><trkpt lat="46.033877455049115" lon="11.971001239110677"><ele>262.3333333333333</ele><time>2026-04-18T13:44:27Z</time></trkpt><trkpt lat="46.0339467960325" lon="11.971234288694877"><ele>262.0</ele><time>2026-04-18T13:44:28Z</time></trkpt><trkpt lat="46.03402842311299" lon="11.971451677094782"><ele>262.0</ele><time>2026-04-18T13:44:29Z</time></trkpt><trkpt lat="46.03412123378253" lon="11.971657984616913"><ele>262.0</ele><time>2026-04-18T13:44:30Z</time></trkpt><trkpt lat="46.0341994592876" lon="11.971877950534479"><ele>262.0</ele><time>2026-04-18T13:44:31Z</time></trkpt><trkpt lat="46.034282960770796" lon="11.972098758472532"><ele>262.66666666666663</ele><time>2026-04-18T13:44:32Z</time></trkpt><trkpt lat="46.03436742924362" lon="11.972321275603315"><ele>263.3333333333333</ele><time>2026-04-18T13:44:33Z</time></trkpt><trkpt lat="46.034448606540785" lon="11.9725419455495"><ele>264.0</ele><time>2026-04-18T13:44:34Z</time></trkpt><trkpt lat="46.0345366416288" lon="11.972778696396777"><ele>264.0</ele><time>2026-04-18T13:44:35Z</time></trkpt><trkpt lat="46.03462666705552" lon="11.972991192072644"><ele>264.0</ele><time>2026-04-18T13:44:36Z</time></trkpt><trkpt lat="46.03470444260866" lon="11.973206749953498"><ele>264.0</ele><time>2026-04-18T13:44:37Z</time></trkpt><trkpt lat="46.03478657231231" lon="11.973432230806086"><ele>264.3333333333333</ele><time>2026-04-18T13:44:38Z</time></trkpt><trkpt lat="46.034871888924435" lon="11.973646215252744"><ele>264.66666666666663</ele><time>2026-04-18T13:44:39Z</time></trkpt><trkpt lat="46.034961350411756" lon="11.97385309322248"><ele>265.0</ele><time>2026-04-18T13:44:40Z</time></trkpt><trkpt lat="46.03504786952889" lon="11.974058890278018"><ele>264.0</ele><time>2026-04-18T13:44:41Z</time></trkpt><trkpt lat="46.03513655281585" lon="11.974266561715108"><ele>263.0</ele><time>2026-04-18T13:44:42Z</time></trkpt><trkpt lat="46.03522039759741" lon="11.97447926946236"><ele>262.0</ele><time>2026-04-18T13:44:43Z</time></trkpt><trkpt lat="46.03530766627504" lon="11.974693102163567"><ele>262.0</ele><time>2026-04-18T13:44:44Z</time></trkpt><trkpt lat="46.03539649640882" lon="11.97490942417644"><ele>262.0</ele><time>2026-04-18T13:44:45Z</time></trkpt><trkpt lat="46.03548693582516" lon="11.975124607517063"><ele>262.0</ele><time>2026-04-18T13:44:46Z</time></trkpt><trkpt lat="46.03557207110475" lon="11.975342013782297"><ele>262.0</ele><time>2026-04-18T13:44:47Z</time></trkpt><trkpt lat="46.03566061987" lon="11.975561347936935"><ele>262.0</ele><time>2026-04-18T13:44:48Z</time></trkpt><trkpt lat="46.0357423012546" lon="11.975771412081379"><ele>262.0</ele><time>2026-04-18T13:44:49Z</time></trkpt><trkpt lat="46.03582684630712" lon="11.97596799818285"><ele>260.3333333333333</ele><time>2026-04-18T13:44:50Z</time></trkpt><trkpt lat="46.0359035618513" lon="11.976160766146783"><ele>258.6666666666667</ele><time>2026-04-18T13:44:51Z</time></trkpt><trkpt lat="46.03598297612923" lon="11.976346881776795"><ele>257.0</ele><time>2026-04-18T13:44:52Z</time></trkpt><trkpt lat="46.036063282965856" lon="11.976539369161177"><ele>257.6666666666667</ele><time>2026-04-18T13:44:53Z</time></trkpt><trkpt lat="46.03613910301993" lon="11.976729642767015"><ele>258.3333333333333</ele><time>2026-04-18T13:44:54Z</time></trkpt><trkpt lat="46.03621125190264" lon="11.97691147567214"><ele>259.0</ele><time>2026-04-18T13:44:55Z</time></trkpt><trkpt lat="46.036288489418695" lon="11.977102347902864"><ele>259.0</ele><time>2026-04-18T13:44:56Z</time></trkpt><trkpt lat="46.03636697477225" lon="11.977297979089085"><ele>259.0</ele><time>2026-04-18T13:44:56.999Z</time></trkpt><trkpt lat="46.03644587594418" lon="11.977499993883768"><ele>259.0</ele><time>2026-04-18T13:44:57.999Z</time></trkpt><trkpt lat="46.03652911958712" lon="11.977709736603682"><ele>258.3333333333333</ele><time>2026-04-18T13:44:58.999Z</time></trkpt><trkpt lat="46.03661230435153" lon="11.977909278156838"><ele>257.6666666666667</ele><time>2026-04-18T13:44:59.999Z</time></trkpt><trkpt lat="46.036688289361635" lon="11.978093228884848"><ele>257.0</ele><time>2026-04-18T13:45:00.999Z</time></trkpt><trkpt lat="46.03676584783987" lon="11.978282094198029"><ele>258.33333333333337</ele><time>2026-04-18T13:45:01.999Z</time></trkpt><trkpt lat="46.03684324701501" lon="11.978469574723663"><ele>259.6666666666667</ele><time>2026-04-18T13:45:02.999Z</time></trkpt><trkpt lat="46.036924816200916" lon="11.978664397945362"><ele>261.0</ele><time>2026-04-18T13:45:03.999Z</time></trkpt><trkpt lat="46.03700401356409" lon="11.978863350095612"><ele>261.0</ele><time>2026-04-18T13:45:04.999Z</time></trkpt><trkpt lat="46.0370790837639" lon="11.979048898472948"><ele>261.0</ele><time>2026-04-18T13:45:05.999Z</time></trkpt><trkpt lat="46.03715309011691" lon="11.979224022951682"><ele>261.0</ele><time>2026-04-18T13:45:06.999Z</time></trkpt><trkpt lat="46.037217538288" lon="11.979407103093026"><ele>261.0</ele><time>2026-04-18T13:45:07.999Z</time></trkpt><trkpt lat="46.03728791401835" lon="11.979560545491188"><ele>259.5</ele><time>2026-04-18T13:45:08.999Z</time></trkpt><trkpt lat="46.03735495672485" lon="11.979713844368737"><ele>258.0</ele><time>2026-04-18T13:45:09.999Z</time></trkpt><trkpt lat="46.03741534350278" lon="11.979869908877411"><ele>256.5</ele><time>2026-04-18T13:45:10.999Z</time></trkpt><trkpt lat="46.037477149728744" lon="11.980024586121942"><ele>255.0</ele><time>2026-04-18T13:45:11.999Z</time></trkpt><trkpt lat="46.03754043800787" lon="11.980180142440007"><ele>253.0</ele><time>2026-04-18T13:45:12.999Z</time></trkpt><trkpt lat="46.037599654475024" lon="11.980329779047983"><ele>251.0</ele><time>2026-04-18T13:45:13.999Z</time></trkpt><trkpt lat="46.03766014100057" lon="11.980476445339141"><ele>249.0</ele><time>2026-04-18T13:45:14.999Z</time></trkpt><trkpt lat="46.03772100081947" lon="11.980625115718068"><ele>247.0</ele><time>2026-04-18T13:45:15.999Z</time></trkpt><trkpt lat="46.03778221036311" lon="11.980774000848923"><ele>247.0</ele><time>2026-04-18T13:45:16.999Z</time></trkpt><trkpt lat="46.03784151574115" lon="11.980924639844405"><ele>247.0</ele><time>2026-04-18T13:45:17.999Z</time></trkpt><trkpt lat="46.037902035269454" lon="11.981075858508492"><ele>247.0</ele><time>2026-04-18T13:45:18.999Z</time></trkpt><trkpt lat="46.037962695635095" lon="11.98122029409347"><ele>247.0</ele><time>2026-04-18T13:45:19.999Z</time></trkpt><trkpt lat="46.03802487813585" lon="11.981370439485861"><ele>247.0</ele><time>2026-04-18T13:45:20.999Z</time></trkpt><trkpt lat="46.0380858932011" lon="11.981526481815726"><ele>247.0</ele><time>2026-04-18T13:45:21.999Z</time></trkpt><trkpt lat="46.038152537590165" lon="11.981680382924111"><ele>247.0</ele><time>2026-04-18T13:45:22.999Z</time></trkpt><trkpt lat="46.038215571077465" lon="11.981833477663205"><ele>247.0</ele><time>2026-04-18T13:45:23.999Z</time></trkpt><trkpt lat="46.03827933828962" lon="11.98199004887966"><ele>246.8</ele><time>2026-04-18T13:45:24.999Z</time></trkpt><trkpt lat="46.03834061926942" lon="11.98213693995198"><ele>246.6</ele><time>2026-04-18T13:45:25.999Z</time></trkpt><trkpt lat="46.038400542074996" lon="11.9822628617754"><ele>246.40000000000003</ele><time>2026-04-18T13:45:26.999Z</time></trkpt><trkpt lat="46.03845180556816" lon="11.982388457929988"><ele>246.20000000000002</ele><time>2026-04-18T13:45:27.999Z</time></trkpt><trkpt lat="46.038496363327795" lon="11.982507028587525"><ele>246.0</ele><time>2026-04-18T13:45:28.999Z</time></trkpt><trkpt lat="46.038533513582514" lon="11.982609874818058"><ele>246.0</ele><time>2026-04-18T13:45:29.999Z</time></trkpt><trkpt lat="46.03856665731324" lon="11.982699547922083"><ele>246.0</ele><time>2026-04-18T13:45:30.999Z</time></trkpt><trkpt lat="46.03857632895714" lon="11.982879917578142"><ele>246.0</ele><time>2026-04-18T13:45:32.999Z</time></trkpt><trkpt lat="46.03855939739569" lon="11.982989456937384"><ele>246.0</ele><time>2026-04-18T13:45:33.999Z</time></trkpt><trkpt lat="46.038570060868416" lon="11.9831030125999"><ele>246.0</ele><time>2026-04-18T13:45:34.999Z</time></trkpt><trkpt lat="46.03860593543788" lon="11.983214328233482"><ele>246.0</ele><time>2026-04-18T13:45:35.999Z</time></trkpt><trkpt lat="46.03864984436972" lon="11.983308897977631"><ele>246.0</ele><time>2026-04-18T13:45:37Z</time></trkpt><trkpt lat="46.03870453052417" lon="11.983399996114787"><ele>246.00000000000003</ele><time>2026-04-18T13:45:38Z</time></trkpt><trkpt lat="46.03874912531924" lon="11.983508834801643"><ele>246.00000000000003</ele><time>2026-04-18T13:45:39Z</time></trkpt><trkpt lat="46.03876318779005" lon="11.983650858020953"><ele>246.0</ele><time>2026-04-18T13:45:40Z</time></trkpt><trkpt lat="46.0387283009826" lon="11.9838002381906"><ele>246.0</ele><time>2026-04-18T13:45:41Z</time></trkpt><trkpt lat="46.03871281279678" lon="11.98394610790749"><ele>246.0</ele><time>2026-04-18T13:45:42Z</time></trkpt><trkpt lat="46.03868299421815" lon="11.984094511657645"><ele>246.0</ele><time>2026-04-18T13:45:43Z</time></trkpt><trkpt lat="46.03864015885369" lon="11.984250471894187"><ele>246.0</ele><time>2026-04-18T13:45:44Z</time></trkpt><trkpt lat="46.03858506366028" lon="11.984403379484492"><ele>246.0</ele><time>2026-04-18T13:45:45Z</time></trkpt><trkpt lat="46.038522601884594" lon="11.98456050900178"><ele>245.0</ele><time>2026-04-18T13:45:46Z</time></trkpt><trkpt lat="46.03845715852297" lon="11.984721411567087"><ele>244.0</ele><time>2026-04-18T13:45:47Z</time></trkpt><trkpt lat="46.03839469928273" lon="11.984878832771196"><ele>243.0</ele><time>2026-04-18T13:45:48Z</time></trkpt><trkpt lat="46.03832940609365" lon="11.985044464958904"><ele>242.0</ele><time>2026-04-18T13:45:49Z</time></trkpt><trkpt lat="46.03826618016077" lon="11.985205251456625"><ele>242.0</ele><time>2026-04-18T13:45:50Z</time></trkpt><trkpt lat="46.03820381642621" lon="11.985363411130034"><ele>242.0</ele><time>2026-04-18T13:45:51Z</time></trkpt><trkpt lat="46.038156490498096" lon="11.985527014878652"><ele>242.0</ele><time>2026-04-18T13:45:52Z</time></trkpt><trkpt lat="46.038094628781636" lon="11.985677490440438"><ele>242.0</ele><time>2026-04-18T13:45:53Z</time></trkpt><trkpt lat="46.038047363047816" lon="11.985835008122033"><ele>239.75</ele><time>2026-04-18T13:45:54Z</time></trkpt><trkpt lat="46.038025998538416" lon="11.986006035359365"><ele>237.5</ele><time>2026-04-18T13:45:55Z</time></trkpt><trkpt lat="46.038019578192774" lon="11.986186130540673"><ele>235.25</ele><time>2026-04-18T13:45:56Z</time></trkpt><trkpt lat="46.03802734667514" lon="11.986376899904219"><ele>233.0</ele><time>2026-04-18T13:45:57Z</time></trkpt><trkpt lat="46.038026973741175" lon="11.986571395041999"><ele>232.75</ele><time>2026-04-18T13:45:58Z</time></trkpt><trkpt lat="46.03802625329559" lon="11.986758235189061"><ele>232.5</ele><time>2026-04-18T13:45:59Z</time></trkpt><trkpt lat="46.038028415626094" lon="11.986934801672906"><ele>232.25</ele><time>2026-04-18T13:46:00Z</time></trkpt><trkpt lat="46.0380246034055" lon="11.987111088951613"><ele>232.0</ele><time>2026-04-18T13:46:01Z</time></trkpt><trkpt lat="46.03802055532679" lon="11.987290096880775"><ele>232.0</ele><time>2026-04-18T13:46:02Z</time></trkpt><trkpt lat="46.03801475918389" lon="11.98747462825054"><ele>232.0</ele><time>2026-04-18T13:46:03Z</time></trkpt><trkpt lat="46.03801090142437" lon="11.987655591168165"><ele>232.0</ele><time>2026-04-18T13:46:04Z</time></trkpt><trkpt lat="46.03800849243869" lon="11.98783788909161"><ele>232.0</ele><time>2026-04-18T13:46:05Z</time></trkpt><trkpt lat="46.038011846311164" lon="11.988027335650214"><ele>232.5</ele><time>2026-04-18T13:46:06Z</time></trkpt><trkpt lat="46.038028207418186" lon="11.988210601194996"><ele>233.0</ele><time>2026-04-18T13:46:07Z</time></trkpt><trkpt lat="46.038057016541984" lon="11.988394132150857"><ele>233.5</ele><time>2026-04-18T13:46:08Z</time></trkpt><trkpt lat="46.0380878558783" lon="11.988574405499355"><ele>234.0</ele><time>2026-04-18T13:46:09Z</time></trkpt><trkpt lat="46.03811609320659" lon="11.988754105707782"><ele>234.5</ele><time>2026-04-18T13:46:10Z</time></trkpt><trkpt lat="46.038142465233804" lon="11.988935258307341"><ele>235.0</ele><time>2026-04-18T13:46:11Z</time></trkpt><trkpt lat="46.0381687211247" lon="11.989108487375992"><ele>235.5</ele><time>2026-04-18T13:46:12Z</time></trkpt><trkpt lat="46.03819334649328" lon="11.989283062688417"><ele>236.0</ele><time>2026-04-18T13:46:13Z</time></trkpt><trkpt lat="46.03821894308697" lon="11.989462201501492"><ele>236.75</ele><time>2026-04-18T13:46:14Z</time></trkpt><trkpt lat="46.038239105947376" lon="11.989638359210979"><ele>237.5</ele><time>2026-04-18T13:46:15Z</time></trkpt><trkpt lat="46.038257390734145" lon="11.989821321477601"><ele>238.25</ele><time>2026-04-18T13:46:16Z</time></trkpt><trkpt lat="46.038266163673406" lon="11.989992291464333"><ele>239.0</ele><time>2026-04-18T13:46:17Z</time></trkpt><trkpt lat="46.038266139869016" lon="11.990166392409963"><ele>239.25</ele><time>2026-04-18T13:46:18Z</time></trkpt><trkpt lat="46.03825449924001" lon="11.990344348704859"><ele>239.5</ele><time>2026-04-18T13:46:19Z</time></trkpt><trkpt lat="46.03823278296443" lon="11.990523461593433"><ele>239.75</ele><time>2026-04-18T13:46:20Z</time></trkpt><trkpt lat="46.03821538546266" lon="11.990689757037082"><ele>240.0</ele><time>2026-04-18T13:46:21Z</time></trkpt><trkpt lat="46.038198068072916" lon="11.990844566471939"><ele>240.0</ele><time>2026-04-18T13:46:22Z</time></trkpt><trkpt lat="46.038177680398825" lon="11.991006162963897"><ele>240.0</ele><time>2026-04-18T13:46:23Z</time></trkpt><trkpt lat="46.03816063194502" lon="11.991169369345"><ele>240.0</ele><time>2026-04-18T13:46:24Z</time></trkpt><trkpt lat="46.03814326326995" lon="11.991334415535134"><ele>240.0</ele><time>2026-04-18T13:46:25Z</time></trkpt><trkpt lat="46.03812937248401" lon="11.991496724318818"><ele>240.0</ele><time>2026-04-18T13:46:26Z</time></trkpt><trkpt lat="46.0381271599938" lon="11.991656302982499"><ele>240.0</ele><time>2026-04-18T13:46:27Z</time></trkpt><trkpt lat="46.03810213900533" lon="11.991863818568934"><ele>240.0</ele><time>2026-04-18T13:46:28Z</time></trkpt><trkpt lat="46.03808262807231" lon="11.992064820894317"><ele>240.0</ele><time>2026-04-18T13:46:29Z</time></trkpt><trkpt lat="46.03807354936426" lon="11.992155267245957"><ele>240.0</ele><time>2026-04-18T13:46:30Z</time></trkpt><trkpt lat="46.038055401461534" lon="11.99233183759138"><ele>240.0</ele><time>2026-04-18T13:46:31Z</time></trkpt><trkpt lat="46.03803764703181" lon="11.992513449664074"><ele>240.0</ele><time>2026-04-18T13:46:32Z</time></trkpt><trkpt lat="46.03803348871379" lon="11.992698030969771"><ele>240.0</ele><time>2026-04-18T13:46:33Z</time></trkpt><trkpt lat="46.03801244257103" lon="11.992874775401162"><ele>240.0</ele><time>2026-04-18T13:46:34Z</time></trkpt><trkpt lat="46.03799046542851" lon="11.993051513625847"><ele>240.0</ele><time>2026-04-18T13:46:35Z</time></trkpt><trkpt lat="46.03797318045751" lon="11.993227215303206"><ele>240.0</ele><time>2026-04-18T13:46:36Z</time></trkpt><trkpt lat="46.037954590550505" lon="11.993403623856285"><ele>240.0</ele><time>2026-04-18T13:46:37Z</time></trkpt><trkpt lat="46.03793250556976" lon="11.993561077668305"><ele>240.0</ele><time>2026-04-18T13:46:38Z</time></trkpt><trkpt lat="46.03791056302347" lon="11.993721715834093"><ele>240.0</ele><time>2026-04-18T13:46:39Z</time></trkpt><trkpt lat="46.03788863319747" lon="11.993885672457179"><ele>240.0</ele><time>2026-04-18T13:46:40Z</time></trkpt><trkpt lat="46.03787578871345" lon="11.994053624963044"><ele>240.0</ele><time>2026-04-18T13:46:41Z</time></trkpt><trkpt lat="46.0378726222802" lon="11.994219999511817"><ele>240.5</ele><time>2026-04-18T13:46:42Z</time></trkpt><trkpt lat="46.037869875555685" lon="11.99439012620252"><ele>241.0</ele><time>2026-04-18T13:46:43Z</time></trkpt><trkpt lat="46.037862137025506" lon="11.99456373478067"><ele>241.5</ele><time>2026-04-18T13:46:44Z</time></trkpt><trkpt lat="46.03784849239284" lon="11.994736485576928"><ele>242.0</ele><time>2026-04-18T13:46:45Z</time></trkpt><trkpt lat="46.03782975881749" lon="11.994904430532406"><ele>242.25</ele><time>2026-04-18T13:46:46Z</time></trkpt><trkpt lat="46.03781129663949" lon="11.995070559396982"><ele>242.5</ele><time>2026-04-18T13:46:47Z</time></trkpt><trkpt lat="46.03779458247857" lon="11.995243004058416"><ele>242.75</ele><time>2026-04-18T13:46:48Z</time></trkpt><trkpt lat="46.037780113121485" lon="11.995415683029124"><ele>243.0</ele><time>2026-04-18T13:46:49Z</time></trkpt><trkpt lat="46.03776763606017" lon="11.995589869960316"><ele>243.0</ele><time>2026-04-18T13:46:50Z</time></trkpt><trkpt lat="46.03775789427742" lon="11.995766412839135"><ele>243.0</ele><time>2026-04-18T13:46:51Z</time></trkpt><trkpt lat="46.037748084040295" lon="11.995943723209198"><ele>243.0</ele><time>2026-04-18T13:46:52Z</time></trkpt><trkpt lat="46.037739816193074" lon="11.996124961034187"><ele>243.0</ele><time>2026-04-18T13:46:53Z</time></trkpt><trkpt lat="46.037733641966625" lon="11.996309318983824"><ele>242.75</ele><time>2026-04-18T13:46:54Z</time></trkpt><trkpt lat="46.03773217184077" lon="11.99649505580676"><ele>242.5</ele><time>2026-04-18T13:46:55Z</time></trkpt><trkpt lat="46.03773307979142" lon="11.99668175868739"><ele>242.25</ele><time>2026-04-18T13:46:56Z</time></trkpt><trkpt lat="46.03773267384755" lon="11.996864991409012"><ele>242.0</ele><time>2026-04-18T13:46:57Z</time></trkpt><trkpt lat="46.03773507973198" lon="11.997041552098706"><ele>241.75</ele><time>2026-04-18T13:46:58Z</time></trkpt><trkpt lat="46.03773943356037" lon="11.997222551332731"><ele>241.5</ele><time>2026-04-18T13:46:59Z</time></trkpt><trkpt lat="46.037745193911455" lon="11.997401511031514"><ele>241.25</ele><time>2026-04-18T13:47:00Z</time></trkpt><trkpt lat="46.03775572791267" lon="11.997581459986963"><ele>241.0</ele><time>2026-04-18T13:47:01Z</time></trkpt><trkpt lat="46.03777065991939" lon="11.997764500683937"><ele>241.25</ele><time>2026-04-18T13:47:02Z</time></trkpt><trkpt lat="46.037783020682504" lon="11.997945291773153"><ele>241.5</ele><time>2026-04-18T13:47:03Z</time></trkpt><trkpt lat="46.03779972888678" lon="11.998129035713504"><ele>241.75</ele><time>2026-04-18T13:47:04Z</time></trkpt><trkpt lat="46.03781880960418" lon="11.99830639160866"><ele>242.0</ele><time>2026-04-18T13:47:05Z</time></trkpt><trkpt lat="46.03783647587066" lon="11.99848326715049"><ele>242.0</ele><time>2026-04-18T13:47:06Z</time></trkpt><trkpt lat="46.0378557163509" lon="11.998656727452145"><ele>242.0</ele><time>2026-04-18T13:47:07Z</time></trkpt><trkpt lat="46.03787897792863" lon="11.998828672305084"><ele>242.0</ele><time>2026-04-18T13:47:08Z</time></trkpt><trkpt lat="46.037894265895765" lon="11.999004775283657"><ele>242.0</ele><time>2026-04-18T13:47:09Z</time></trkpt><trkpt lat="46.037923523896" lon="11.999174647653469"><ele>241.75</ele><time>2026-04-18T13:47:10Z</time></trkpt><trkpt lat="46.037949239807396" lon="11.999349980944245"><ele>241.5</ele><time>2026-04-18T13:47:11Z</time></trkpt><trkpt lat="46.03798002725073" lon="11.999524481817977"><ele>241.25</ele><time>2026-04-18T13:47:12Z</time></trkpt><trkpt lat="46.03801043767421" lon="11.999698627167813"><ele>241.0</ele><time>2026-04-18T13:47:13Z</time></trkpt><trkpt lat="46.038043225077345" lon="11.999870425733677"><ele>241.0</ele><time>2026-04-18T13:47:14Z</time></trkpt><trkpt lat="46.03808207526226" lon="12.000041366878994"><ele>241.0</ele><time>2026-04-18T13:47:14.999Z</time></trkpt><trkpt lat="46.03812526043012" lon="12.000211482906243"><ele>241.0</ele><time>2026-04-18T13:47:15.999Z</time></trkpt><trkpt lat="46.038178028172524" lon="12.000384514947541"><ele>241.0</ele><time>2026-04-18T13:47:16.999Z</time></trkpt><trkpt lat="46.038230212534636" lon="12.000554906537426"><ele>241.0</ele><time>2026-04-18T13:47:17.999Z</time></trkpt><trkpt lat="46.03828551671453" lon="12.000726800003553"><ele>241.0</ele><time>2026-04-18T13:47:18.999Z</time></trkpt><trkpt lat="46.03834338413562" lon="12.000894917478538"><ele>241.0</ele><time>2026-04-18T13:47:19.999Z</time></trkpt><trkpt lat="46.0384026970148" lon="12.001047656420914"><ele>241.0</ele><time>2026-04-18T13:47:20.999Z</time></trkpt><trkpt lat="46.03846621308857" lon="12.00120020695306"><ele>241.5</ele><time>2026-04-18T13:47:21.999Z</time></trkpt><trkpt lat="46.038529683539146" lon="12.001351132960036"><ele>242.0</ele><time>2026-04-18T13:47:22.999Z</time></trkpt><trkpt lat="46.03859371209224" lon="12.001505527435821"><ele>242.5</ele><time>2026-04-18T13:47:23.999Z</time></trkpt><trkpt lat="46.03865670395821" lon="12.001659913572809"><ele>243.0</ele><time>2026-04-18T13:47:24.999Z</time></trkpt><trkpt lat="46.038723565947606" lon="12.001811200647246"><ele>243.0</ele><time>2026-04-18T13:47:25.999Z</time></trkpt><trkpt lat="46.03879628729357" lon="12.001958163467272"><ele>243.0</ele><time>2026-04-18T13:47:26.999Z</time></trkpt><trkpt lat="46.038875183492245" lon="12.00210020391417"><ele>243.0</ele><time>2026-04-18T13:47:27.999Z</time></trkpt><trkpt lat="46.03895847246498" lon="12.002238855538755"><ele>243.0</ele><time>2026-04-18T13:47:28.999Z</time></trkpt><trkpt lat="46.03904428360651" lon="12.002376112961551"><ele>243.0</ele><time>2026-04-18T13:47:29.999Z</time></trkpt><trkpt lat="46.03912483681486" lon="12.00250816050946"><ele>243.0</ele><time>2026-04-18T13:47:30.999Z</time></trkpt><trkpt lat="46.039204388683906" lon="12.002639756616315"><ele>243.0</ele><time>2026-04-18T13:47:31.999Z</time></trkpt><trkpt lat="46.039284293270704" lon="12.002771362898862"><ele>243.0</ele><time>2026-04-18T13:47:32.999Z</time></trkpt><trkpt lat="46.03936010397234" lon="12.002896766913569"><ele>243.0</ele><time>2026-04-18T13:47:33.999Z</time></trkpt><trkpt lat="46.03942612217621" lon="12.003008342945018"><ele>243.0</ele><time>2026-04-18T13:47:34.999Z</time></trkpt><trkpt lat="46.03948041075873" lon="12.003105857858717"><ele>243.0</ele><time>2026-04-18T13:47:35.999Z</time></trkpt><trkpt lat="46.03952683829136" lon="12.003194869676134"><ele>243.0</ele><time>2026-04-18T13:47:36.999Z</time></trkpt><trkpt lat="46.03956769385604" lon="12.003264441983086"><ele>243.0</ele><time>2026-04-18T13:47:37.999Z</time></trkpt><trkpt lat="46.03962223994105" lon="12.003367461182725"><ele>243.0</ele><time>2026-04-18T13:47:39.999Z</time></trkpt><trkpt lat="46.03968082203944" lon="12.003483166652428"><ele>243.0</ele><time>2026-04-18T13:47:41.999Z</time></trkpt><trkpt lat="46.03976116017737" lon="12.003619448851227"><ele>243.0</ele><time>2026-04-18T13:47:44Z</time></trkpt><trkpt lat="46.039807476367606" lon="12.003710162681086"><ele>243.0</ele><time>2026-04-18T13:47:45Z</time></trkpt><trkpt lat="46.03986425998139" lon="12.003819331997144"><ele>243.0</ele><time>2026-04-18T13:47:46Z</time></trkpt><trkpt lat="46.039924607302765" lon="12.003945646068148"><ele>243.0</ele><time>2026-04-18T13:47:47Z</time></trkpt><trkpt lat="46.03998265876589" lon="12.00407006112879"><ele>243.4</ele><time>2026-04-18T13:47:48Z</time></trkpt><trkpt lat="46.0400380134217" lon="12.004184029547474"><ele>243.8</ele><time>2026-04-18T13:47:49Z</time></trkpt><trkpt lat="46.040091894928516" lon="12.004295021099473"><ele>244.2</ele><time>2026-04-18T13:47:50Z</time></trkpt><trkpt lat="46.04014612127494" lon="12.00440966581247"><ele>244.6</ele><time>2026-04-18T13:47:51Z</time></trkpt><trkpt lat="46.040196993326816" lon="12.004531138623676"><ele>245.0</ele><time>2026-04-18T13:47:52Z</time></trkpt><trkpt lat="46.04025394839802" lon="12.004662862293257"><ele>245.0</ele><time>2026-04-18T13:47:53Z</time></trkpt><trkpt lat="46.040318214568984" lon="12.004801135837239"><ele>245.0</ele><time>2026-04-18T13:47:54Z</time></trkpt><trkpt lat="46.040375255108195" lon="12.004932429496375"><ele>245.0</ele><time>2026-04-18T13:47:55Z</time></trkpt><trkpt lat="46.040437210173636" lon="12.005084438143339"><ele>245.0</ele><time>2026-04-18T13:47:56Z</time></trkpt><trkpt lat="46.04050238998941" lon="12.005203967732315"><ele>245.2</ele><time>2026-04-18T13:47:57Z</time></trkpt><trkpt lat="46.04055792753169" lon="12.005340733264017"><ele>245.4</ele><time>2026-04-18T13:47:58Z</time></trkpt><trkpt lat="46.04061810541394" lon="12.005475704693254"><ele>245.60000000000002</ele><time>2026-04-18T13:47:59Z</time></trkpt><trkpt lat="46.04067936416395" lon="12.005609363774745"><ele>245.8</ele><time>2026-04-18T13:48:00Z</time></trkpt><trkpt lat="46.040738257149755" lon="12.005750064545074"><ele>246.0</ele><time>2026-04-18T13:48:01Z</time></trkpt><trkpt lat="46.040805504323345" lon="12.005900210386876"><ele>246.0</ele><time>2026-04-18T13:48:02Z</time></trkpt><trkpt lat="46.04087309579699" lon="12.006051036261633"><ele>246.0</ele><time>2026-04-18T13:48:03Z</time></trkpt><trkpt lat="46.040939801005095" lon="12.00621359001042"><ele>246.0</ele><time>2026-04-18T13:48:04Z</time></trkpt><trkpt lat="46.040996348756615" lon="12.006377495659981"><ele>246.0</ele><time>2026-04-18T13:48:05Z</time></trkpt><trkpt lat="46.04106717198009" lon="12.006513708006127"><ele>246.0</ele><time>2026-04-18T13:48:06Z</time></trkpt><trkpt lat="46.04113207698743" lon="12.006660435382638"><ele>246.0</ele><time>2026-04-18T13:48:07Z</time></trkpt><trkpt lat="46.041195082821105" lon="12.00680766468811"><ele>246.0</ele><time>2026-04-18T13:48:08Z</time></trkpt><trkpt lat="46.04126265063139" lon="12.006958362692568"><ele>246.0</ele><time>2026-04-18T13:48:09Z</time></trkpt><trkpt lat="46.04133328439107" lon="12.007108629895452"><ele>246.25</ele><time>2026-04-18T13:48:10Z</time></trkpt><trkpt lat="46.04140034388722" lon="12.007267147191756"><ele>246.5</ele><time>2026-04-18T13:48:11Z</time></trkpt><trkpt lat="46.04146573809161" lon="12.007419638648626"><ele>246.75</ele><time>2026-04-18T13:48:12Z</time></trkpt><trkpt lat="46.041532573756825" lon="12.007582532516194"><ele>247.0</ele><time>2026-04-18T13:48:13Z</time></trkpt><trkpt lat="46.04159581679736" lon="12.007741996011863"><ele>247.25</ele><time>2026-04-18T13:48:14Z</time></trkpt><trkpt lat="46.041665095060324" lon="12.007895875658459"><ele>247.5</ele><time>2026-04-18T13:48:15Z</time></trkpt><trkpt lat="46.04173722548223" lon="12.008054702589195"><ele>247.75</ele><time>2026-04-18T13:48:16Z</time></trkpt><trkpt lat="46.04180402716011" lon="12.00820847548491"><ele>248.0</ele><time>2026-04-18T13:48:17Z</time></trkpt><trkpt lat="46.041873020273215" lon="12.008370117106688"><ele>248.25</ele><time>2026-04-18T13:48:18Z</time></trkpt><trkpt lat="46.04194176997836" lon="12.008529970238117"><ele>248.5</ele><time>2026-04-18T13:48:19Z</time></trkpt><trkpt lat="46.04200587452116" lon="12.008688286535092"><ele>248.75</ele><time>2026-04-18T13:48:20Z</time></trkpt><trkpt lat="46.04207446745266" lon="12.008846573955758"><ele>249.0</ele><time>2026-04-18T13:48:21Z</time></trkpt><trkpt lat="46.04214190224865" lon="12.00899999609901"><ele>249.0</ele><time>2026-04-18T13:48:22Z</time></trkpt><trkpt lat="46.0422094596214" lon="12.009155021277984"><ele>249.0</ele><time>2026-04-18T13:48:23Z</time></trkpt><trkpt lat="46.04227844935387" lon="12.009305851708538"><ele>249.0</ele><time>2026-04-18T13:48:24Z</time></trkpt><trkpt lat="46.0423427995279" lon="12.009463410906205"><ele>249.0</ele><time>2026-04-18T13:48:25Z</time></trkpt><trkpt lat="46.042406248555025" lon="12.009626329325119"><ele>249.0</ele><time>2026-04-18T13:48:26Z</time></trkpt><trkpt lat="46.0424638363903" lon="12.00978028455159"><ele>249.0</ele><time>2026-04-18T13:48:27Z</time></trkpt><trkpt lat="46.042521833435" lon="12.009923423902679"><ele>249.0</ele><time>2026-04-18T13:48:28Z</time></trkpt><trkpt lat="46.042581118717244" lon="12.010069422216027"><ele>249.0</ele><time>2026-04-18T13:48:29Z</time></trkpt><trkpt lat="46.04262745920467" lon="12.010212163784628"><ele>249.0</ele><time>2026-04-18T13:48:30Z</time></trkpt><trkpt lat="46.04266730320643" lon="12.010346794958338"><ele>248.99999999999997</ele><time>2026-04-18T13:48:31Z</time></trkpt><trkpt lat="46.04268292400103" lon="12.01048025497298"><ele>248.99999999999997</ele><time>2026-04-18T13:48:32Z</time></trkpt><trkpt lat="46.04268943250629" lon="12.010600042875316"><ele>249.0</ele><time>2026-04-18T13:48:33Z</time></trkpt><trkpt lat="46.042763666572625" lon="12.010665853630519"><ele>249.0</ele><time>2026-04-18T13:48:34Z</time></trkpt><trkpt lat="46.04277865920014" lon="12.010846032580028"><ele>249.2</ele><time>2026-04-18T13:48:36Z</time></trkpt><trkpt lat="46.04278655320413" lon="12.01096360982444"><ele>249.39999999999998</ele><time>2026-04-18T13:48:37Z</time></trkpt><trkpt lat="46.04282443910864" lon="12.01107550351093"><ele>249.6</ele><time>2026-04-18T13:48:38Z</time></trkpt><trkpt lat="46.042897015565245" lon="12.011176703290534"><ele>249.8</ele><time>2026-04-18T13:48:39Z</time></trkpt><trkpt lat="46.04295317944886" lon="12.011303986860803"><ele>250.0</ele><time>2026-04-18T13:48:40Z</time></trkpt><trkpt lat="46.043004227718065" lon="12.011468776432112"><ele>250.0</ele><time>2026-04-18T13:48:41Z</time></trkpt><trkpt lat="46.043056913787574" lon="12.011620726792305"><ele>250.0</ele><time>2026-04-18T13:48:42Z</time></trkpt><trkpt lat="46.043107597340025" lon="12.011777513874122"><ele>250.0</ele><time>2026-04-18T13:48:43Z</time></trkpt><trkpt lat="46.043158822387426" lon="12.011931803091299"><ele>250.0</ele><time>2026-04-18T13:48:44Z</time></trkpt><trkpt lat="46.04319539962573" lon="12.012069592254013"><ele>250.0</ele><time>2026-04-18T13:48:45Z</time></trkpt><trkpt lat="46.04323879124271" lon="12.012222196643952"><ele>250.0</ele><time>2026-04-18T13:48:46Z</time></trkpt><trkpt lat="46.04328619335288" lon="12.012381983485835"><ele>250.0</ele><time>2026-04-18T13:48:47Z</time></trkpt><trkpt lat="46.04333296797061" lon="12.01254652578824"><ele>250.0</ele><time>2026-04-18T13:48:48Z</time></trkpt><trkpt lat="46.04337892581318" lon="12.012709584088778"><ele>250.0</ele><time>2026-04-18T13:48:49Z</time></trkpt><trkpt lat="46.04342561580159" lon="12.012867633639441"><ele>250.0</ele><time>2026-04-18T13:48:50Z</time></trkpt><trkpt lat="46.0434659159099" lon="12.01301727168955"><ele>250.0</ele><time>2026-04-18T13:48:51Z</time></trkpt><trkpt lat="46.04350853453805" lon="12.013163878789385"><ele>250.0</ele><time>2026-04-18T13:48:52Z</time></trkpt><trkpt lat="46.04355245845226" lon="12.013314481176971"><ele>250.5</ele><time>2026-04-18T13:48:53Z</time></trkpt><trkpt lat="46.043596601319145" lon="12.013459240684464"><ele>251.0</ele><time>2026-04-18T13:48:54Z</time></trkpt><trkpt lat="46.04363871130904" lon="12.0136144991998"><ele>251.5</ele><time>2026-04-18T13:48:55Z</time></trkpt><trkpt lat="46.043686264833596" lon="12.013770286277214"><ele>252.0</ele><time>2026-04-18T13:48:56Z</time></trkpt><trkpt lat="46.043732775014114" lon="12.013926987952674"><ele>252.0</ele><time>2026-04-18T13:48:57Z</time></trkpt><trkpt lat="46.043777801561184" lon="12.014083684319262"><ele>252.0</ele><time>2026-04-18T13:48:58Z</time></trkpt><trkpt lat="46.0438245759741" lon="12.014240363518208"><ele>252.0</ele><time>2026-04-18T13:48:59Z</time></trkpt><trkpt lat="46.04387258020462" lon="12.014400776588005"><ele>252.0</ele><time>2026-04-18T13:49:00Z</time></trkpt><trkpt lat="46.04391977867983" lon="12.014556516396187"><ele>253.0</ele><time>2026-04-18T13:49:01Z</time></trkpt><trkpt lat="46.043965762853794" lon="12.014721186409194"><ele>254.0</ele><time>2026-04-18T13:49:02Z</time></trkpt><trkpt lat="46.044012455738745" lon="12.014881598524836"><ele>255.0</ele><time>2026-04-18T13:49:03Z</time></trkpt><trkpt lat="46.04405838823025" lon="12.015041480908419"><ele>256.0</ele><time>2026-04-18T13:49:04Z</time></trkpt><trkpt lat="46.044102567913775" lon="12.0152060241008"><ele>255.8</ele><time>2026-04-18T13:49:05Z</time></trkpt><trkpt lat="46.04414431619141" lon="12.015357735371499"><ele>255.60000000000002</ele><time>2026-04-18T13:49:06Z</time></trkpt><trkpt lat="46.04418616357377" lon="12.015489978942517"><ele>255.4</ele><time>2026-04-18T13:49:07Z</time></trkpt><trkpt lat="46.044231754689214" lon="12.015635610529687"><ele>255.2</ele><time>2026-04-18T13:49:08Z</time></trkpt><trkpt lat="46.04427862951441" lon="12.015785694115241"><ele>255.0</ele><time>2026-04-18T13:49:09Z</time></trkpt><trkpt lat="46.044319614020466" lon="12.0159315879872"><ele>255.5</ele><time>2026-04-18T13:49:10Z</time></trkpt><trkpt lat="46.04435866570113" lon="12.016079267545969"><ele>256.0</ele><time>2026-04-18T13:49:11Z</time></trkpt><trkpt lat="46.04440029242039" lon="12.016227834242637"><ele>256.5</ele><time>2026-04-18T13:49:12Z</time></trkpt><trkpt lat="46.044432823292986" lon="12.016381291564231"><ele>257.0</ele><time>2026-04-18T13:49:13Z</time></trkpt><trkpt lat="46.04447535378336" lon="12.016540238952764"><ele>257.0</ele><time>2026-04-18T13:49:14Z</time></trkpt><trkpt lat="46.04450093935495" lon="12.016694477060788"><ele>257.0</ele><time>2026-04-18T13:49:15Z</time></trkpt><trkpt lat="46.04451965702182" lon="12.016845361164716"><ele>257.0</ele><time>2026-04-18T13:49:16Z</time></trkpt><trkpt lat="46.04452981124215" lon="12.016998430573747"><ele>257.0</ele><time>2026-04-18T13:49:16.999Z</time></trkpt><trkpt lat="46.044538971565906" lon="12.017148866962616"><ele>257.0</ele><time>2026-04-18T13:49:17.999Z</time></trkpt><trkpt lat="46.044537777844134" lon="12.017298337000689"><ele>257.0</ele><time>2026-04-18T13:49:18.999Z</time></trkpt><trkpt lat="46.04453692308158" lon="12.01745452793892"><ele>257.0</ele><time>2026-04-18T13:49:19.999Z</time></trkpt><trkpt lat="46.04454242131959" lon="12.017633019423602"><ele>257.0</ele><time>2026-04-18T13:49:20.999Z</time></trkpt><trkpt lat="46.044547322316966" lon="12.017810330044162"><ele>257.0</ele><time>2026-04-18T13:49:21.999Z</time></trkpt><trkpt lat="46.044541642000574" lon="12.017980690500345"><ele>257.0</ele><time>2026-04-18T13:49:22.999Z</time></trkpt><trkpt lat="46.04454248958309" lon="12.01814702382297"><ele>257.0</ele><time>2026-04-18T13:49:23.999Z</time></trkpt><trkpt lat="46.04454761623138" lon="12.018313859293846"><ele>257.0</ele><time>2026-04-18T13:49:24.999Z</time></trkpt><trkpt lat="46.04454924302684" lon="12.018482352595509"><ele>257.0</ele><time>2026-04-18T13:49:25.999Z</time></trkpt><trkpt lat="46.044547117119144" lon="12.018649323892593"><ele>257.2</ele><time>2026-04-18T13:49:26.999Z</time></trkpt><trkpt lat="46.0445493416924" lon="12.018803836772975"><ele>257.4</ele><time>2026-04-18T13:49:27.999Z</time></trkpt><trkpt lat="46.04454968608508" lon="12.018963842265148"><ele>257.6</ele><time>2026-04-18T13:49:28.999Z</time></trkpt><trkpt lat="46.04455158344038" lon="12.019114882148815"><ele>257.8</ele><time>2026-04-18T13:49:29.999Z</time></trkpt><trkpt lat="46.04454969302178" lon="12.019276991970957"><ele>258.0</ele><time>2026-04-18T13:49:30.999Z</time></trkpt><trkpt lat="46.044549831977356" lon="12.01944053089948"><ele>258.2</ele><time>2026-04-18T13:49:31.999Z</time></trkpt><trkpt lat="46.04454352888625" lon="12.019598538603292"><ele>258.4</ele><time>2026-04-18T13:49:32.999Z</time></trkpt><trkpt lat="46.04453543643783" lon="12.019759709656308"><ele>258.59999999999997</ele><time>2026-04-18T13:49:33.999Z</time></trkpt><trkpt lat="46.04453947743907" lon="12.019924836417633"><ele>258.8</ele><time>2026-04-18T13:49:34.999Z</time></trkpt><trkpt lat="46.04454719360201" lon="12.02008419111758"><ele>259.0</ele><time>2026-04-18T13:49:35.999Z</time></trkpt><trkpt lat="46.04456619563658" lon="12.020240214219237"><ele>259.5</ele><time>2026-04-18T13:49:36.999Z</time></trkpt><trkpt lat="46.04458929974261" lon="12.02039685118009"><ele>260.0</ele><time>2026-04-18T13:49:37.999Z</time></trkpt><trkpt lat="46.0446145781518" lon="12.020569334391766"><ele>260.5</ele><time>2026-04-18T13:49:38.999Z</time></trkpt><trkpt lat="46.044648714446986" lon="12.020737931352832"><ele>261.0</ele><time>2026-04-18T13:49:39.999Z</time></trkpt><trkpt lat="46.04468657199529" lon="12.020901788169944"><ele>261.40000000000003</ele><time>2026-04-18T13:49:40.999Z</time></trkpt><trkpt lat="46.04471985605722" lon="12.021059974520973"><ele>261.8</ele><time>2026-04-18T13:49:41.999Z</time></trkpt><trkpt lat="46.04475391583505" lon="12.021213931577467"><ele>262.20000000000005</ele><time>2026-04-18T13:49:42.999Z</time></trkpt><trkpt lat="46.044785746543916" lon="12.021355755935861"><ele>262.6</ele><time>2026-04-18T13:49:43.999Z</time></trkpt><trkpt lat="46.044841741025486" lon="12.021493382278901"><ele>263.0</ele><time>2026-04-18T13:49:44.999Z</time></trkpt><trkpt lat="46.04489799408795" lon="12.021637394517118"><ele>263.2</ele><time>2026-04-18T13:49:45.999Z</time></trkpt><trkpt lat="46.04493522473269" lon="12.021758673386913"><ele>263.4</ele><time>2026-04-18T13:49:46.999Z</time></trkpt><trkpt lat="46.0449575111507" lon="12.021874613359115"><ele>263.59999999999997</ele><time>2026-04-18T13:49:47.999Z</time></trkpt><trkpt lat="46.04498762828818" lon="12.022001863929175"><ele>263.8</ele><time>2026-04-18T13:49:49Z</time></trkpt><trkpt lat="46.04501335479717" lon="12.022136601317145"><ele>264.0</ele><time>2026-04-18T13:49:50Z</time></trkpt><trkpt lat="46.04501895488857" lon="12.02229416199319"><ele>263.59999999999997</ele><time>2026-04-18T13:49:51Z</time></trkpt><trkpt lat="46.0450487897577" lon="12.022452160416616"><ele>263.2</ele><time>2026-04-18T13:49:52Z</time></trkpt><trkpt lat="46.045075783793564" lon="12.022589753496751"><ele>262.79999999999995</ele><time>2026-04-18T13:49:53Z</time></trkpt><trkpt lat="46.04510062751617" lon="12.022721086570684"><ele>262.4</ele><time>2026-04-18T13:49:54Z</time></trkpt><trkpt lat="46.045124739338334" lon="12.022852925647861"><ele>262.0</ele><time>2026-04-18T13:49:55Z</time></trkpt><trkpt lat="46.04515247644532" lon="12.022969500984187"><ele>262.0</ele><time>2026-04-18T13:49:56Z</time></trkpt><trkpt lat="46.04516556892241" lon="12.02310905698091"><ele>262.0</ele><time>2026-04-18T13:49:57Z</time></trkpt><trkpt lat="46.04518721295194" lon="12.023203210062048"><ele>262.0</ele><time>2026-04-18T13:49:58Z</time></trkpt><trkpt lat="46.04521236384675" lon="12.02340387949229"><ele>262.0</ele><time>2026-04-18T13:50:00Z</time></trkpt><trkpt lat="46.04523581816673" lon="12.023548172312317"><ele>262.0</ele><time>2026-04-18T13:50:01Z</time></trkpt><trkpt lat="46.04527180199803" lon="12.023705968905974"><ele>262.25</ele><time>2026-04-18T13:50:02Z</time></trkpt><trkpt lat="46.04529079994111" lon="12.023879737569198"><ele>262.5</ele><time>2026-04-18T13:50:03Z</time></trkpt><trkpt lat="46.04529948744629" lon="12.024082723870468"><ele>262.75</ele><time>2026-04-18T13:50:04Z</time></trkpt><trkpt lat="46.04530559134615" lon="12.024269623264047"><ele>263.0</ele><time>2026-04-18T13:50:05Z</time></trkpt><trkpt lat="46.04529627648256" lon="12.024419469826677"><ele>263.1666666666667</ele><time>2026-04-18T13:50:06Z</time></trkpt><trkpt lat="46.04528174852943" lon="12.024559283089653"><ele>263.33333333333337</ele><time>2026-04-18T13:50:07Z</time></trkpt><trkpt lat="46.04527140662576" lon="12.02469154821773"><ele>263.5</ele><time>2026-04-18T13:50:08Z</time></trkpt><trkpt lat="46.04525967762428" lon="12.02480575368083"><ele>263.6666666666667</ele><time>2026-04-18T13:50:09Z</time></trkpt><trkpt lat="46.04524987363586" lon="12.024905798258155"><ele>263.8333333333333</ele><time>2026-04-18T13:50:10Z</time></trkpt><trkpt lat="46.04523422001449" lon="12.02500169518485"><ele>264.0</ele><time>2026-04-18T13:50:11Z</time></trkpt><trkpt lat="46.04519276998065" lon="12.025073574868472"><ele>264.0</ele><time>2026-04-18T13:50:12Z</time></trkpt><trkpt lat="46.04504705424712" lon="12.025102591414994"><ele>264.0</ele><time>2026-04-18T13:50:14Z</time></trkpt><trkpt lat="46.04493999570739" lon="12.025097021889087"><ele>264.0</ele><time>2026-04-18T13:50:15Z</time></trkpt><trkpt lat="46.04481563243599" lon="12.025103413475575"><ele>264.0</ele><time>2026-04-18T13:50:16Z</time></trkpt><trkpt lat="46.04469138262204" lon="12.02509863269389"><ele>264.59999999999997</ele><time>2026-04-18T13:50:17Z</time></trkpt><trkpt lat="46.044568796348734" lon="12.025098067723997"><ele>265.2</ele><time>2026-04-18T13:50:18Z</time></trkpt><trkpt lat="46.0444668012734" lon="12.025089128151022"><ele>265.79999999999995</ele><time>2026-04-18T13:50:19Z</time></trkpt><trkpt lat="46.04438571535735" lon="12.025080797400609"><ele>266.4</ele><time>2026-04-18T13:50:20Z</time></trkpt><trkpt lat="46.04431327520103" lon="12.025079593807542"><ele>267.0</ele><time>2026-04-18T13:50:21Z</time></trkpt><trkpt lat="46.04424192375889" lon="12.025089252703644"><ele>267.0</ele><time>2026-04-18T13:50:22Z</time></trkpt><trkpt lat="46.04415919026144" lon="12.025133043189399"><ele>267.0</ele><time>2026-04-18T13:50:23Z</time></trkpt><trkpt lat="46.04405899696675" lon="12.025233757763063"><ele>267.0</ele><time>2026-04-18T13:50:24Z</time></trkpt><trkpt lat="46.04395740094872" lon="12.025333033822436"><ele>267.0</ele><time>2026-04-18T13:50:25Z</time></trkpt><trkpt lat="46.04383182044452" lon="12.02540100755253"><ele>268.6</ele><time>2026-04-18T13:50:26Z</time></trkpt><trkpt lat="46.04371507589165" lon="12.02547191457295"><ele>270.2</ele><time>2026-04-18T13:50:27Z</time></trkpt><trkpt lat="46.04360432107173" lon="12.02553035746598"><ele>271.8</ele><time>2026-04-18T13:50:28Z</time></trkpt><trkpt lat="46.043514841862375" lon="12.025564396477867"><ele>273.4</ele><time>2026-04-18T13:50:29Z</time></trkpt><trkpt lat="46.04343403068238" lon="12.025562577841418"><ele>275.0</ele><time>2026-04-18T13:50:30Z</time></trkpt><trkpt lat="46.043357966802965" lon="12.025538398281391"><ele>278.6</ele><time>2026-04-18T13:50:31Z</time></trkpt><trkpt lat="46.04328489557162" lon="12.025447001001151"><ele>282.2</ele><time>2026-04-18T13:50:32Z</time></trkpt><trkpt lat="46.043231819658665" lon="12.025327898827566"><ele>285.8</ele><time>2026-04-18T13:50:33Z</time></trkpt><trkpt lat="46.04318196195679" lon="12.025188544434572"><ele>289.4</ele><time>2026-04-18T13:50:34Z</time></trkpt><trkpt lat="46.043112625386755" lon="12.025043057508162"><ele>293.0</ele><time>2026-04-18T13:50:35Z</time></trkpt><trkpt lat="46.04304747581161" lon="12.024907758913283"><ele>293.0</ele><time>2026-04-18T13:50:36Z</time></trkpt><trkpt lat="46.04297858405633" lon="12.02477516767777"><ele>293.0</ele><time>2026-04-18T13:50:37Z</time></trkpt><trkpt lat="46.042934381645544" lon="12.024655207453986"><ele>293.0</ele><time>2026-04-18T13:50:38Z</time></trkpt><trkpt lat="46.042899414736326" lon="12.02455195572991"><ele>293.0</ele><time>2026-04-18T13:50:39Z</time></trkpt><trkpt lat="46.04285361840723" lon="12.02446953107905"><ele>293.0</ele><time>2026-04-18T13:50:40Z</time></trkpt><trkpt lat="46.042804488736074" lon="12.024403375006422"><ele>293.0</ele><time>2026-04-18T13:50:41Z</time></trkpt><trkpt lat="46.042746908429564" lon="12.024337718520936"><ele>293.0</ele><time>2026-04-18T13:50:42Z</time></trkpt><trkpt lat="46.04267656014431" lon="12.024278619989717"><ele>293.0</ele><time>2026-04-18T13:50:43Z</time></trkpt><trkpt lat="46.042595551240844" lon="12.024212141601543"><ele>293.0</ele><time>2026-04-18T13:50:44Z</time></trkpt><trkpt lat="46.04250374444362" lon="12.02414454288047"><ele>293.0</ele><time>2026-04-18T13:50:45Z</time></trkpt><trkpt lat="46.04240170718011" lon="12.02407083790419"><ele>293.0</ele><time>2026-04-18T13:50:46Z</time></trkpt><trkpt lat="46.04232888941525" lon="12.024018719264355"><ele>292.83333333333337</ele><time>2026-04-18T13:50:47Z</time></trkpt><trkpt lat="46.04225415261545" lon="12.023986299984493"><ele>292.6666666666667</ele><time>2026-04-18T13:50:48Z</time></trkpt><trkpt lat="46.04217244010758" lon="12.023973741866811"><ele>292.5</ele><time>2026-04-18T13:50:49Z</time></trkpt><trkpt lat="46.04208523095396" lon="12.023989235602778"><ele>292.3333333333333</ele><time>2026-04-18T13:50:50Z</time></trkpt><trkpt lat="46.04200175139275" lon="12.023999413849005"><ele>292.16666666666663</ele><time>2026-04-18T13:50:51Z</time></trkpt><trkpt lat="46.04192343755551" lon="12.024090439439808"><ele>292.0</ele><time>2026-04-18T13:50:52Z</time></trkpt><trkpt lat="46.04186096074047" lon="12.024184673037984"><ele>293.5</ele><time>2026-04-18T13:50:53Z</time></trkpt><trkpt lat="46.0417939984753" lon="12.024294292591492"><ele>295.0</ele><time>2026-04-18T13:50:54Z</time></trkpt><trkpt lat="46.04174009298766" lon="12.02439751453596"><ele>296.5</ele><time>2026-04-18T13:50:55Z</time></trkpt><trkpt lat="46.041683336141816" lon="12.024500330698416"><ele>298.0</ele><time>2026-04-18T13:50:56Z</time></trkpt><trkpt lat="46.041629055352146" lon="12.024598772723142"><ele>299.5</ele><time>2026-04-18T13:50:57Z</time></trkpt><trkpt lat="46.04157744460474" lon="12.024686646689586"><ele>301.0</ele><time>2026-04-18T13:50:58Z</time></trkpt><trkpt lat="46.04152764530277" lon="12.024778571693876"><ele>303.0</ele><time>2026-04-18T13:50:59Z</time></trkpt><trkpt lat="46.041468007145326" lon="12.024858019344267"><ele>305.0</ele><time>2026-04-18T13:51:00Z</time></trkpt><trkpt lat="46.04138370367718" lon="12.024900799029998"><ele>307.0</ele><time>2026-04-18T13:51:01Z</time></trkpt><trkpt lat="46.04134048644106" lon="12.02502091500385"><ele>309.0</ele><time>2026-04-18T13:51:02Z</time></trkpt><trkpt lat="46.04126088835174" lon="12.025101023167789"><ele>311.0</ele><time>2026-04-18T13:51:03Z</time></trkpt><trkpt lat="46.04117175891911" lon="12.025181654126849"><ele>311.0</ele><time>2026-04-18T13:51:04Z</time></trkpt><trkpt lat="46.041103888870595" lon="12.025247218475887"><ele>311.0</ele><time>2026-04-18T13:51:05Z</time></trkpt><trkpt lat="46.04101174629706" lon="12.025358900882528"><ele>311.0</ele><time>2026-04-18T13:51:07Z</time></trkpt><trkpt lat="46.040925546280135" lon="12.025509645518179"><ele>311.0</ele><time>2026-04-18T13:51:09Z</time></trkpt><trkpt lat="46.04090437012698" lon="12.025620552383206"><ele>311.0</ele><time>2026-04-18T13:51:10Z</time></trkpt><trkpt lat="46.04089462553713" lon="12.025756662113226"><ele>312.5</ele><time>2026-04-18T13:51:11Z</time></trkpt><trkpt lat="46.04095355321868" lon="12.025914463444531"><ele>314.0</ele><time>2026-04-18T13:51:12Z</time></trkpt><trkpt lat="46.0410209830585" lon="12.026093740260688"><ele>315.5</ele><time>2026-04-18T13:51:13Z</time></trkpt><trkpt lat="46.04104706621616" lon="12.026254212843957"><ele>317.0</ele><time>2026-04-18T13:51:14Z</time></trkpt><trkpt lat="46.04106516502153" lon="12.02642396501112"><ele>317.0</ele><time>2026-04-18T13:51:15Z</time></trkpt><trkpt lat="46.041065494235184" lon="12.026638711739384"><ele>317.0</ele><time>2026-04-18T13:51:16Z</time></trkpt><trkpt lat="46.041065409094735" lon="12.026878065971422"><ele>317.0</ele><time>2026-04-18T13:51:17Z</time></trkpt><trkpt lat="46.04106283535445" lon="12.027063487806107"><ele>317.0</ele><time>2026-04-18T13:51:18Z</time></trkpt><trkpt lat="46.04105555114114" lon="12.027213912146333"><ele>319.33333333333337</ele><time>2026-04-18T13:51:19Z</time></trkpt><trkpt lat="46.04105282427389" lon="12.027329363876781"><ele>321.6666666666667</ele><time>2026-04-18T13:51:20Z</time></trkpt><trkpt lat="46.04104482325649" lon="12.027432084821452"><ele>324.0</ele><time>2026-04-18T13:51:21Z</time></trkpt><trkpt lat="46.04101720467282" lon="12.027520615598888"><ele>326.3333333333333</ele><time>2026-04-18T13:51:22Z</time></trkpt><trkpt lat="46.040970379737054" lon="12.027608636501508"><ele>328.66666666666663</ele><time>2026-04-18T13:51:23Z</time></trkpt><trkpt lat="46.040899542364286" lon="12.027690364408718"><ele>331.0</ele><time>2026-04-18T13:51:24Z</time></trkpt><trkpt lat="46.04080222789535" lon="12.027754732273726"><ele>333.0</ele><time>2026-04-18T13:51:25Z</time></trkpt><trkpt lat="46.040718228661845" lon="12.027806798867688"><ele>335.0</ele><time>2026-04-18T13:51:26Z</time></trkpt><trkpt lat="46.040663285199564" lon="12.027852387617932"><ele>337.0</ele><time>2026-04-18T13:51:27Z</time></trkpt><trkpt lat="46.0406061575161" lon="12.02789412975209"><ele>339.0</ele><time>2026-04-18T13:51:28Z</time></trkpt><trkpt lat="46.0405404158835" lon="12.027940792771137"><ele>341.0</ele><time>2026-04-18T13:51:29Z</time></trkpt><trkpt lat="46.04047856197206" lon="12.027973544797154"><ele>343.0</ele><time>2026-04-18T13:51:30Z</time></trkpt><trkpt lat="46.04040316304736" lon="12.028029937107638"><ele>345.0</ele><time>2026-04-18T13:51:31.999Z</time></trkpt><trkpt lat="46.04032043005389" lon="12.028087539768688"><ele>345.0</ele><time>2026-04-18T13:51:34.999Z</time></trkpt><trkpt lat="46.04026564475643" lon="12.028147828887223"><ele>345.0</ele><time>2026-04-18T13:51:56Z</time></trkpt><trkpt lat="46.04016346096833" lon="12.028226219598105"><ele>345.0</ele><time>2026-04-18T13:51:58Z</time></trkpt><trkpt lat="46.0401005605104" lon="12.0282778803333"><ele>345.0</ele><time>2026-04-18T13:51:59Z</time></trkpt><trkpt lat="46.04001463403187" lon="12.028323353402861"><ele>345.0</ele><time>2026-04-18T13:52:00Z</time></trkpt><trkpt lat="46.039942077860815" lon="12.028393594876482"><ele>345.0</ele><time>2026-04-18T13:52:01Z</time></trkpt><trkpt lat="46.03980787322043" lon="12.028444413029314"><ele>346.1666666666667</ele><time>2026-04-18T13:52:03Z</time></trkpt><trkpt lat="46.039741754720964" lon="12.028476440696405"><ele>347.3333333333333</ele><time>2026-04-18T13:52:04Z</time></trkpt><trkpt lat="46.03967492290878" lon="12.02848376019782"><ele>348.5</ele><time>2026-04-18T13:52:05Z</time></trkpt><trkpt lat="46.03959524270544" lon="12.02848760260005"><ele>349.66666666666663</ele><time>2026-04-18T13:52:06Z</time></trkpt><trkpt lat="46.039508930904155" lon="12.028498749289625"><ele>350.8333333333333</ele><time>2026-04-18T13:52:07Z</time></trkpt><trkpt lat="46.039409582298845" lon="12.028438587000123"><ele>352.0</ele><time>2026-04-18T13:52:08Z</time></trkpt><trkpt lat="46.03931492064452" lon="12.02837585547903"><ele>352.75</ele><time>2026-04-18T13:52:09Z</time></trkpt><trkpt lat="46.03922487919374" lon="12.028294651197614"><ele>353.5</ele><time>2026-04-18T13:52:10Z</time></trkpt><trkpt lat="46.039140628266345" lon="12.028205478025397"><ele>354.25</ele><time>2026-04-18T13:52:11Z</time></trkpt><trkpt lat="46.039036645113015" lon="12.028084338355198"><ele>355.0</ele><time>2026-04-18T13:52:12Z</time></trkpt><trkpt lat="46.038943651616165" lon="12.027933434797127"><ele>357.8</ele><time>2026-04-18T13:52:13Z</time></trkpt><trkpt lat="46.03885705590023" lon="12.027788391385844"><ele>360.6</ele><time>2026-04-18T13:52:15Z</time></trkpt><trkpt lat="46.03880219679385" lon="12.02769893729455"><ele>363.4</ele><time>2026-04-18T13:52:16Z</time></trkpt><trkpt lat="46.03873372157404" lon="12.027596772926696"><ele>366.2</ele><time>2026-04-18T13:52:17Z</time></trkpt><trkpt lat="46.03867253206793" lon="12.027498945025021"><ele>369.0</ele><time>2026-04-18T13:52:18Z</time></trkpt><trkpt lat="46.03862158591641" lon="12.027414092260436"><ele>369.0</ele><time>2026-04-18T13:52:19Z</time></trkpt><trkpt lat="46.0385651792208" lon="12.02733128179407"><ele>369.0</ele><time>2026-04-18T13:52:20Z</time></trkpt><trkpt lat="46.0385118838638" lon="12.02723773836914"><ele>369.0</ele><time>2026-04-18T13:52:21Z</time></trkpt><trkpt lat="46.03844889753492" lon="12.027124260215105"><ele>369.0</ele><time>2026-04-18T13:52:22Z</time></trkpt><trkpt lat="46.03838587130133" lon="12.027024084658839"><ele>369.0</ele><time>2026-04-18T13:52:23Z</time></trkpt><trkpt lat="46.03832560543287" lon="12.026925660236415"><ele>371.6666666666667</ele><time>2026-04-18T13:52:24Z</time></trkpt><trkpt lat="46.038267528247914" lon="12.026827913985587"><ele>374.33333333333337</ele><time>2026-04-18T13:52:25Z</time></trkpt><trkpt lat="46.03821448755554" lon="12.026733062319042"><ele>377.0</ele><time>2026-04-18T13:52:26Z</time></trkpt><trkpt lat="46.038165152888396" lon="12.02664309528047"><ele>379.6666666666667</ele><time>2026-04-18T13:52:27Z</time></trkpt><trkpt lat="46.03811892469679" lon="12.0265567757229"><ele>382.33333333333337</ele><time>2026-04-18T13:52:28Z</time></trkpt><trkpt lat="46.038070266873234" lon="12.026479886014815"><ele>385.0</ele><time>2026-04-18T13:52:29Z</time></trkpt><trkpt lat="46.03801337411886" lon="12.026398402343448"><ele>385.1666666666667</ele><time>2026-04-18T13:52:30Z</time></trkpt><trkpt lat="46.03794104878323" lon="12.026337106823856"><ele>385.33333333333337</ele><time>2026-04-18T13:52:31Z</time></trkpt><trkpt lat="46.03786753748336" lon="12.02631302582793"><ele>385.5</ele><time>2026-04-18T13:52:32Z</time></trkpt><trkpt lat="46.03778910111274" lon="12.026313511408153"><ele>385.66666666666663</ele><time>2026-04-18T13:52:33Z</time></trkpt><trkpt lat="46.037706828055235" lon="12.026354673760581"><ele>385.8333333333333</ele><time>2026-04-18T13:52:34Z</time></trkpt><trkpt lat="46.037629017597" lon="12.026448132386754"><ele>386.0</ele><time>2026-04-18T13:52:35Z</time></trkpt><trkpt lat="46.03757472770571" lon="12.026577506636501"><ele>385.75</ele><time>2026-04-18T13:52:36Z</time></trkpt><trkpt lat="46.037537064996535" lon="12.026682335935433"><ele>385.5</ele><time>2026-04-18T13:52:37Z</time></trkpt><trkpt lat="46.037549849626025" lon="12.026885240636377"><ele>385.25</ele><time>2026-04-18T13:52:38Z</time></trkpt><trkpt lat="46.037567882715194" lon="12.027094222091824"><ele>385.0</ele><time>2026-04-18T13:52:39Z</time></trkpt><trkpt lat="46.037565414216786" lon="12.027275797993315"><ele>385.0</ele><time>2026-04-18T13:52:40Z</time></trkpt><trkpt lat="46.03754755042058" lon="12.02741437878265"><ele>385.0</ele><time>2026-04-18T13:52:41Z</time></trkpt><trkpt lat="46.037515002883566" lon="12.027565146649009"><ele>385.0</ele><time>2026-04-18T13:52:42Z</time></trkpt><trkpt lat="46.03744741649416" lon="12.027726475707803"><ele>385.0</ele><time>2026-04-18T13:52:43Z</time></trkpt><trkpt lat="46.037371403929114" lon="12.027815331402824"><ele>385.0</ele><time>2026-04-18T13:52:44Z</time></trkpt><trkpt lat="46.03728689776814" lon="12.027917695832796"><ele>388.0</ele><time>2026-04-18T13:52:45Z</time></trkpt><trkpt lat="46.03720439538483" lon="12.02799995541184"><ele>391.0</ele><time>2026-04-18T13:52:46Z</time></trkpt><trkpt lat="46.03708032109144" lon="12.02809425670224"><ele>394.0</ele><time>2026-04-18T13:52:47Z</time></trkpt><trkpt lat="46.03697538966653" lon="12.028152367826838"><ele>397.0</ele><time>2026-04-18T13:52:48Z</time></trkpt><trkpt lat="46.0368333149956" lon="12.02821086516532"><ele>397.0</ele><time>2026-04-18T13:52:49Z</time></trkpt><trkpt lat="46.03667435432543" lon="12.028263787364022"><ele>397.0</ele><time>2026-04-18T13:52:50Z</time></trkpt><trkpt lat="46.03656237776971" lon="12.028297236913353"><ele>397.0</ele><time>2026-04-18T13:52:51Z</time></trkpt><trkpt lat="46.036467657763815" lon="12.028325172610323"><ele>397.0</ele><time>2026-04-18T13:52:52Z</time></trkpt><trkpt lat="46.03637374489772" lon="12.028353007916573"><ele>400.40000000000003</ele><time>2026-04-18T13:52:53Z</time></trkpt><trkpt lat="46.03624655273206" lon="12.028387781120003"><ele>403.8</ele><time>2026-04-18T13:52:54Z</time></trkpt><trkpt lat="46.03613881978381" lon="12.028408962734478"><ele>407.2</ele><time>2026-04-18T13:52:55Z</time></trkpt><trkpt lat="46.0360465132033" lon="12.028417267685144"><ele>410.6</ele><time>2026-04-18T13:52:56Z</time></trkpt><trkpt lat="46.03595361343872" lon="12.02840065200741"><ele>414.0</ele><time>2026-04-18T13:52:57Z</time></trkpt><trkpt lat="46.035869967714945" lon="12.02834632633177"><ele>417.75</ele><time>2026-04-18T13:52:58Z</time></trkpt><trkpt lat="46.035786127813836" lon="12.028254560265905"><ele>421.5</ele><time>2026-04-18T13:52:59Z</time></trkpt><trkpt lat="46.03570119116772" lon="12.028136806003136"><ele>425.25</ele><time>2026-04-18T13:53:00Z</time></trkpt><trkpt lat="46.035604325478815" lon="12.027998941781378"><ele>429.0</ele><time>2026-04-18T13:53:01Z</time></trkpt><trkpt lat="46.0355053093715" lon="12.027873175998785"><ele>429.0</ele><time>2026-04-18T13:53:02Z</time></trkpt><trkpt lat="46.03539616931302" lon="12.027723974343827"><ele>429.0</ele><time>2026-04-18T13:53:03Z</time></trkpt><trkpt lat="46.03527984382748" lon="12.02756344151715"><ele>429.0</ele><time>2026-04-18T13:53:04Z</time></trkpt><trkpt lat="46.035188764981804" lon="12.027424731133573"><ele>429.0</ele><time>2026-04-18T13:53:05Z</time></trkpt><trkpt lat="46.03510870649289" lon="12.027307842126547"><ele>428.6</ele><time>2026-04-18T13:53:06Z</time></trkpt><trkpt lat="46.03504282347199" lon="12.027212984236634"><ele>428.2</ele><time>2026-04-18T13:53:07Z</time></trkpt><trkpt lat="46.03497088354975" lon="12.02710281739511"><ele>427.80000000000007</ele><time>2026-04-18T13:53:08Z</time></trkpt><trkpt lat="46.03492630067379" lon="12.026974691270254"><ele>427.40000000000003</ele><time>2026-04-18T13:53:09Z</time></trkpt><trkpt lat="46.03487239978782" lon="12.026822066466462"><ele>427.0</ele><time>2026-04-18T13:53:10Z</time></trkpt><trkpt lat="46.03483221987914" lon="12.026625732510004"><ele>433.75</ele><time>2026-04-18T13:53:11Z</time></trkpt><trkpt lat="46.03480664745833" lon="12.026425540530669"><ele>440.5</ele><time>2026-04-18T13:53:12Z</time></trkpt><trkpt lat="46.034779353861325" lon="12.026226572083658"><ele>447.25</ele><time>2026-04-18T13:53:13Z</time></trkpt><trkpt lat="46.034716785224475" lon="12.02604440693194"><ele>454.0</ele><time>2026-04-18T13:53:14Z</time></trkpt><trkpt lat="46.03465347067284" lon="12.025866652940648"><ele>453.75</ele><time>2026-04-18T13:53:15Z</time></trkpt><trkpt lat="46.03461227046764" lon="12.025717844067877"><ele>453.5</ele><time>2026-04-18T13:53:16Z</time></trkpt><trkpt lat="46.03457413357139" lon="12.025544826656509"><ele>453.25</ele><time>2026-04-18T13:53:17Z</time></trkpt><trkpt lat="46.03454367793212" lon="12.025367710434763"><ele>453.0</ele><time>2026-04-18T13:53:18Z</time></trkpt><trkpt lat="46.034517873471486" lon="12.025171756505937"><ele>453.0</ele><time>2026-04-18T13:53:19Z</time></trkpt><trkpt lat="46.0344818408431" lon="12.024979958401437"><ele>452.99999999999994</ele><time>2026-04-18T13:53:20Z</time></trkpt><trkpt lat="46.03445336985969" lon="12.024821611215843"><ele>452.99999999999994</ele><time>2026-04-18T13:53:21Z</time></trkpt><trkpt lat="46.034414996926934" lon="12.024695970900035"><ele>453.0</ele><time>2026-04-18T13:53:22Z</time></trkpt><trkpt lat="46.034365614475725" lon="12.02457828666228"><ele>453.0</ele><time>2026-04-18T13:53:23Z</time></trkpt><trkpt lat="46.034312063894475" lon="12.024462964937987"><ele>453.0</ele><time>2026-04-18T13:53:24Z</time></trkpt><trkpt lat="46.03425355023505" lon="12.024345721307895"><ele>452.99999999999994</ele><time>2026-04-18T13:53:25Z</time></trkpt><trkpt lat="46.03420311296031" lon="12.024248635028957"><ele>452.99999999999994</ele><time>2026-04-18T13:53:26Z</time></trkpt><trkpt lat="46.03413132578717" lon="12.024154878083781"><ele>453.0</ele><time>2026-04-18T13:53:28Z</time></trkpt><trkpt lat="46.0340406685341" lon="12.024020333787341"><ele>453.0</ele><time>2026-04-18T14:04:03.999Z</time></trkpt><trkpt lat="46.03397728827579" lon="12.023935207505113"><ele>452.0</ele><time>2026-04-18T14:04:04.999Z</time></trkpt><trkpt lat="46.03386793078986" lon="12.02387079968514"><ele>450.99999999999994</ele><time>2026-04-18T14:04:06.999Z</time></trkpt><trkpt lat="46.03373824939581" lon="12.023891615713369"><ele>449.99999999999994</ele><time>2026-04-18T14:04:08.999Z</time></trkpt><trkpt lat="46.0336680992868" lon="12.023934556817233"><ele>449.0</ele><time>2026-04-18T14:04:09.999Z</time></trkpt><trkpt lat="46.033596208142015" lon="12.023974568427732"><ele>448.0</ele><time>2026-04-18T14:04:10.999Z</time></trkpt><trkpt lat="46.033511123293415" lon="12.024025290020012"><ele>448.00000000000006</ele><time>2026-04-18T14:04:11.999Z</time></trkpt><trkpt lat="46.033411246539046" lon="12.024085008445741"><ele>448.0</ele><time>2026-04-18T14:04:12.999Z</time></trkpt><trkpt lat="46.033317406925434" lon="12.024140536056876"><ele>448.0</ele><time>2026-04-18T14:04:13.999Z</time></trkpt><trkpt lat="46.03323752205385" lon="12.02417330266332"><ele>448.0</ele><time>2026-04-18T14:04:14.999Z</time></trkpt><trkpt lat="46.03317019775879" lon="12.024206244145335"><ele>448.00000000000006</ele><time>2026-04-18T14:04:15.999Z</time></trkpt><trkpt lat="46.03311133446106" lon="12.024259942230438"><ele>448.0</ele><time>2026-04-18T14:04:16.999Z</time></trkpt><trkpt lat="46.03307956863576" lon="12.024353031031708"><ele>450.5</ele><time>2026-04-18T14:04:17.999Z</time></trkpt><trkpt lat="46.03303313970821" lon="12.024519258766023"><ele>453.0</ele><time>2026-04-18T14:04:18.999Z</time></trkpt><trkpt lat="46.03299357631512" lon="12.0247086596769"><ele>455.5</ele><time>2026-04-18T14:04:19.999Z</time></trkpt><trkpt lat="46.032977147890314" lon="12.024847496294196"><ele>458.0</ele><time>2026-04-18T14:04:20.999Z</time></trkpt><trkpt lat="46.03295762759109" lon="12.024985784489624"><ele>460.3333333333333</ele><time>2026-04-18T14:04:21.999Z</time></trkpt><trkpt lat="46.03294240728296" lon="12.025129449434031"><ele>462.66666666666663</ele><time>2026-04-18T14:04:22.999Z</time></trkpt><trkpt lat="46.032935164563476" lon="12.025237969023022"><ele>465.0</ele><time>2026-04-18T14:04:23.999Z</time></trkpt><trkpt lat="46.03292713036449" lon="12.025351844606153"><ele>467.33333333333337</ele><time>2026-04-18T14:04:24.999Z</time></trkpt><trkpt lat="46.0329054933031" lon="12.025476048142314"><ele>469.6666666666667</ele><time>2026-04-18T14:04:25.999Z</time></trkpt><trkpt lat="46.032881601945405" lon="12.025601855949827"><ele>472.0</ele><time>2026-04-18T14:04:26.999Z</time></trkpt><trkpt lat="46.03285446161159" lon="12.025734068051115"><ele>473.6</ele><time>2026-04-18T14:04:27.999Z</time></trkpt><trkpt lat="46.032833082736694" lon="12.025858355556887"><ele>475.20000000000005</ele><time>2026-04-18T14:04:28.999Z</time></trkpt><trkpt lat="46.032812553780595" lon="12.02600145946452"><ele>476.8</ele><time>2026-04-18T14:04:29.999Z</time></trkpt><trkpt lat="46.03277902864603" lon="12.026103690652482"><ele>478.4</ele><time>2026-04-18T14:04:31Z</time></trkpt><trkpt lat="46.03277559690831" lon="12.026222519416562"><ele>480.0</ele><time>2026-04-18T14:04:32Z</time></trkpt><trkpt lat="46.0327421709646" lon="12.0263732596692"><ele>480.0</ele><time>2026-04-18T14:04:33Z</time></trkpt><trkpt lat="46.0327209527401" lon="12.026497313712245"><ele>480.0</ele><time>2026-04-18T14:04:34Z</time></trkpt><trkpt lat="46.03270882036421" lon="12.026595449091559"><ele>480.0</ele><time>2026-04-18T14:04:35Z</time></trkpt><trkpt lat="46.03268432485578" lon="12.026701618539004"><ele>480.0</ele><time>2026-04-18T14:04:36Z</time></trkpt><trkpt lat="46.03266615791561" lon="12.026826080447469"><ele>480.0</ele><time>2026-04-18T14:04:37Z</time></trkpt><trkpt lat="46.032642424798674" lon="12.026950696539107"><ele>480.0</ele><time>2026-04-18T14:04:38Z</time></trkpt><trkpt lat="46.032615411770664" lon="12.027069781751198"><ele>481.8333333333333</ele><time>2026-04-18T14:04:39Z</time></trkpt><trkpt lat="46.03260611066809" lon="12.0271997058816"><ele>483.66666666666663</ele><time>2026-04-18T14:04:40Z</time></trkpt><trkpt lat="46.032593376614535" lon="12.027322857272866"><ele>485.5</ele><time>2026-04-18T14:04:41Z</time></trkpt><trkpt lat="46.03261256074906" lon="12.027422219588004"><ele>487.3333333333333</ele><time>2026-04-18T14:04:42Z</time></trkpt><trkpt lat="46.03263356417101" lon="12.027532013390168"><ele>489.16666666666663</ele><time>2026-04-18T14:04:43Z</time></trkpt><trkpt lat="46.03266866940167" lon="12.027679984667861"><ele>491.0</ele><time>2026-04-18T14:04:44Z</time></trkpt><trkpt lat="46.032697770343695" lon="12.027784360110308"><ele>493.4</ele><time>2026-04-18T14:04:45Z</time></trkpt><trkpt lat="46.03273030594214" lon="12.027869876945681"><ele>495.8</ele><time>2026-04-18T14:04:46Z</time></trkpt><trkpt lat="46.03276125479737" lon="12.028064175304156"><ele>498.19999999999993</ele><time>2026-04-18T14:04:47Z</time></trkpt><trkpt lat="46.03283583464055" lon="12.028218338537231"><ele>500.59999999999997</ele><time>2026-04-18T14:04:48Z</time></trkpt><trkpt lat="46.03287252803886" lon="12.028370302711183"><ele>503.0</ele><time>2026-04-18T14:04:49Z</time></trkpt><trkpt lat="46.03290941671924" lon="12.028472287851304"><ele>506.2</ele><time>2026-04-18T14:04:50Z</time></trkpt><trkpt lat="46.03292533796937" lon="12.028577758178809"><ele>509.4</ele><time>2026-04-18T14:04:51Z</time></trkpt><trkpt lat="46.03293780024453" lon="12.028700281261294"><ele>512.5999999999999</ele><time>2026-04-18T14:04:52Z</time></trkpt><trkpt lat="46.03294489814789" lon="12.028848175543349"><ele>515.8</ele><time>2026-04-18T14:04:53Z</time></trkpt><trkpt lat="46.03294560347191" lon="12.029009973194505"><ele>519.0</ele><time>2026-04-18T14:04:54Z</time></trkpt><trkpt lat="46.032952587225125" lon="12.029171116138912"><ele>520.8</ele><time>2026-04-18T14:04:55Z</time></trkpt><trkpt lat="46.03295912158543" lon="12.029318561138878"><ele>522.5999999999999</ele><time>2026-04-18T14:04:56Z</time></trkpt><trkpt lat="46.03295953392479" lon="12.029484451915755"><ele>524.4</ele><time>2026-04-18T14:04:57Z</time></trkpt><trkpt lat="46.03295773288496" lon="12.02961493359332"><ele>526.1999999999999</ele><time>2026-04-18T14:04:58Z</time></trkpt><trkpt lat="46.03293436128489" lon="12.029745429220911"><ele>528.0</ele><time>2026-04-18T14:04:59Z</time></trkpt><trkpt lat="46.03288027666968" lon="12.029879511715468"><ele>527.8</ele><time>2026-04-18T14:05:00Z</time></trkpt><trkpt lat="46.03283872101437" lon="12.030052767712016"><ele>527.5999999999999</ele><time>2026-04-18T14:05:01Z</time></trkpt><trkpt lat="46.0327860771269" lon="12.030205508618517"><ele>527.4000000000001</ele><time>2026-04-18T14:05:02Z</time></trkpt><trkpt lat="46.032748471735786" lon="12.03032150360579"><ele>527.2</ele><time>2026-04-18T14:05:03Z</time></trkpt><trkpt lat="46.03272894030398" lon="12.030459234867873"><ele>527.0</ele><time>2026-04-18T14:05:04Z</time></trkpt><trkpt lat="46.03273994879927" lon="12.030602279259286"><ele>527.0</ele><time>2026-04-18T14:05:05Z</time></trkpt><trkpt lat="46.032762039252894" lon="12.030757778840075"><ele>527.0</ele><time>2026-04-18T14:05:06Z</time></trkpt><trkpt lat="46.0327938869869" lon="12.030898310003044"><ele>527.0</ele><time>2026-04-18T14:05:07Z</time></trkpt><trkpt lat="46.03281376130813" lon="12.031048658921602"><ele>527.0</ele><time>2026-04-18T14:05:08Z</time></trkpt><trkpt lat="46.0328276803231" lon="12.031190114181427"><ele>527.0</ele><time>2026-04-18T14:05:09Z</time></trkpt><trkpt lat="46.0328377360069" lon="12.031314283707678"><ele>527.4</ele><time>2026-04-18T14:05:10Z</time></trkpt><trkpt lat="46.03283857741692" lon="12.031435925863544"><ele>527.8000000000001</ele><time>2026-04-18T14:05:11Z</time></trkpt><trkpt lat="46.032800588994085" lon="12.03155940318494"><ele>528.2</ele><time>2026-04-18T14:05:12Z</time></trkpt><trkpt lat="46.03276766845448" lon="12.031694722535194"><ele>528.6</ele><time>2026-04-18T14:05:13Z</time></trkpt><trkpt lat="46.03270580895067" lon="12.03182364215893"><ele>529.0</ele><time>2026-04-18T14:05:14Z</time></trkpt><trkpt lat="46.032621820365634" lon="12.031952323244663"><ele>530.0</ele><time>2026-04-18T14:05:15Z</time></trkpt><trkpt lat="46.032539298600106" lon="12.032062300673742"><ele>531.0</ele><time>2026-04-18T14:05:16Z</time></trkpt><trkpt lat="46.032433510898144" lon="12.032179205952273"><ele>532.0</ele><time>2026-04-18T14:05:17Z</time></trkpt><trkpt lat="46.03237541286161" lon="12.032328407702742"><ele>533.0</ele><time>2026-04-18T14:05:18Z</time></trkpt><trkpt lat="46.03231673015109" lon="12.032493033676868"><ele>538.25</ele><time>2026-04-18T14:05:19Z</time></trkpt><trkpt lat="46.0322765650844" lon="12.032717346782865"><ele>543.5</ele><time>2026-04-18T14:05:20Z</time></trkpt><trkpt lat="46.03224087743391" lon="12.032905837187828"><ele>548.75</ele><time>2026-04-18T14:05:21Z</time></trkpt><trkpt lat="46.032215927337774" lon="12.03307396945954"><ele>554.0</ele><time>2026-04-18T14:05:22Z</time></trkpt><trkpt lat="46.032188578456726" lon="12.033240313295806"><ele>554.75</ele><time>2026-04-18T14:05:23Z</time></trkpt><trkpt lat="46.03215689911394" lon="12.033432996244294"><ele>555.5</ele><time>2026-04-18T14:05:24Z</time></trkpt><trkpt lat="46.03212649906291" lon="12.033617771120955"><ele>556.25</ele><time>2026-04-18T14:05:25Z</time></trkpt><trkpt lat="46.03209868495099" lon="12.033782607649332"><ele>557.0</ele><time>2026-04-18T14:05:26Z</time></trkpt><trkpt lat="46.032070851435606" lon="12.033947559138992"><ele>557.0</ele><time>2026-04-18T14:05:27Z</time></trkpt><trkpt lat="46.03204194012145" lon="12.03410732625597"><ele>557.0</ele><time>2026-04-18T14:05:28Z</time></trkpt><trkpt lat="46.03201287739973" lon="12.034250133925537"><ele>557.0</ele><time>2026-04-18T14:05:29Z</time></trkpt><trkpt lat="46.031978965312845" lon="12.034395152966438"><ele>557.0</ele><time>2026-04-18T14:05:30Z</time></trkpt><trkpt lat="46.03193685245954" lon="12.034538858860744"><ele>557.0</ele><time>2026-04-18T14:05:31Z</time></trkpt><trkpt lat="46.03188401370848" lon="12.03466908008817"><ele>557.6</ele><time>2026-04-18T14:05:32Z</time></trkpt><trkpt lat="46.031826797242324" lon="12.034773535435821"><ele>558.2</ele><time>2026-04-18T14:05:33Z</time></trkpt><trkpt lat="46.031752329992905" lon="12.034848162254432"><ele>558.8</ele><time>2026-04-18T14:05:34Z</time></trkpt><trkpt lat="46.031656405491056" lon="12.03488154700092"><ele>559.4</ele><time>2026-04-18T14:05:35Z</time></trkpt><trkpt lat="46.03154169519834" lon="12.03489928065684"><ele>560.0</ele><time>2026-04-18T14:05:36Z</time></trkpt><trkpt lat="46.031403051329356" lon="12.034920136784601"><ele>562.3333333333333</ele><time>2026-04-18T14:05:37Z</time></trkpt><trkpt lat="46.03125554284839" lon="12.034946409496975"><ele>564.6666666666666</ele><time>2026-04-18T14:05:38Z</time></trkpt><trkpt lat="46.031094755053154" lon="12.034978691888396"><ele>567.0</ele><time>2026-04-18T14:05:39Z</time></trkpt><trkpt lat="46.03095374372454" lon="12.034994942460832"><ele>567.0</ele><time>2026-04-18T14:05:40Z</time></trkpt><trkpt lat="46.03083672698164" lon="12.035007843670787"><ele>567.0</ele><time>2026-04-18T14:05:41Z</time></trkpt><trkpt lat="46.03071701732363" lon="12.035020299250018"><ele>567.0</ele><time>2026-04-18T14:05:42Z</time></trkpt><trkpt lat="46.030591301268764" lon="12.035035904814183"><ele>567.0</ele><time>2026-04-18T14:05:43Z</time></trkpt><trkpt lat="46.03046179331934" lon="12.035052532864917"><ele>569.0</ele><time>2026-04-18T14:05:44Z</time></trkpt><trkpt lat="46.03033045741301" lon="12.035073412602104"><ele>571.0</ele><time>2026-04-18T14:05:45Z</time></trkpt><trkpt lat="46.03020232799518" lon="12.035089228020961"><ele>573.0</ele><time>2026-04-18T14:05:46Z</time></trkpt><trkpt lat="46.030069267772475" lon="12.035105627539604"><ele>575.0</ele><time>2026-04-18T14:05:47Z</time></trkpt><trkpt lat="46.029929218667945" lon="12.03512827892368"><ele>576.75</ele><time>2026-04-18T14:05:48Z</time></trkpt><trkpt lat="46.02980858313728" lon="12.035133793683354"><ele>578.5</ele><time>2026-04-18T14:05:49Z</time></trkpt><trkpt lat="46.029692609399476" lon="12.03512532717178"><ele>580.25</ele><time>2026-04-18T14:05:50Z</time></trkpt><trkpt lat="46.02956844594096" lon="12.03510163337688"><ele>582.0</ele><time>2026-04-18T14:05:51Z</time></trkpt><trkpt lat="46.029437357057645" lon="12.035065100989945"><ele>582.0</ele><time>2026-04-18T14:05:52Z</time></trkpt><trkpt lat="46.02931372449094" lon="12.0350029970189"><ele>582.0</ele><time>2026-04-18T14:05:53Z</time></trkpt><trkpt lat="46.02919605757959" lon="12.034935104034245"><ele>582.0</ele><time>2026-04-18T14:05:54Z</time></trkpt><trkpt lat="46.02908499659723" lon="12.034867314453997"><ele>582.0</ele><time>2026-04-18T14:05:55Z</time></trkpt><trkpt lat="46.02897785815141" lon="12.034798931686778"><ele>584.25</ele><time>2026-04-18T14:05:56Z</time></trkpt><trkpt lat="46.02886228325634" lon="12.034726958985283"><ele>586.5</ele><time>2026-04-18T14:05:57Z</time></trkpt><trkpt lat="46.02875130265769" lon="12.034652446271613"><ele>588.75</ele><time>2026-04-18T14:05:58Z</time></trkpt><trkpt lat="46.02864372141701" lon="12.034580036415031"><ele>591.0</ele><time>2026-04-18T14:05:59Z</time></trkpt><trkpt lat="46.02853564937329" lon="12.034502049335977"><ele>591.0</ele><time>2026-04-18T14:06:00Z</time></trkpt><trkpt lat="46.02843189932875" lon="12.034417699403459"><ele>591.0</ele><time>2026-04-18T14:06:01Z</time></trkpt><trkpt lat="46.02832894398341" lon="12.034316517892488"><ele>591.0</ele><time>2026-04-18T14:06:02Z</time></trkpt><trkpt lat="46.02822686113524" lon="12.034194411727128"><ele>591.0</ele><time>2026-04-18T14:06:03Z</time></trkpt><trkpt lat="46.02813542645286" lon="12.034079961305151"><ele>596.0</ele><time>2026-04-18T14:06:04Z</time></trkpt><trkpt lat="46.028047693421094" lon="12.033971587751635"><ele>601.0</ele><time>2026-04-18T14:06:05Z</time></trkpt><trkpt lat="46.02794787946184" lon="12.033854410878904"><ele>606.0</ele><time>2026-04-18T14:06:05.999Z</time></trkpt><trkpt lat="46.027841876719066" lon="12.033732518547197"><ele>611.0</ele><time>2026-04-18T14:06:06.999Z</time></trkpt><trkpt lat="46.02773677655429" lon="12.033604791603285"><ele>611.0</ele><time>2026-04-18T14:06:07.999Z</time></trkpt><trkpt lat="46.027643159407184" lon="12.033494253933853"><ele>611.0</ele><time>2026-04-18T14:06:08.999Z</time></trkpt><trkpt lat="46.02758195231697" lon="12.033375597643877"><ele>611.0</ele><time>2026-04-18T14:06:09.999Z</time></trkpt><trkpt lat="46.02749426977978" lon="12.033267099715076"><ele>611.0</ele><time>2026-04-18T14:06:10.999Z</time></trkpt><trkpt lat="46.027436713071445" lon="12.033159605749889"><ele>611.0</ele><time>2026-04-18T14:06:11.999Z</time></trkpt><trkpt lat="46.0273795440939" lon="12.033001195856901"><ele>616.0</ele><time>2026-04-18T14:06:12.999Z</time></trkpt><trkpt lat="46.027325618922696" lon="12.032858326017628"><ele>621.0</ele><time>2026-04-18T14:06:13.999Z</time></trkpt><trkpt lat="46.02727815350368" lon="12.03271809657506"><ele>626.0</ele><time>2026-04-18T14:06:14.999Z</time></trkpt><trkpt lat="46.02721805704524" lon="12.032553277106507"><ele>631.0</ele><time>2026-04-18T14:06:15.999Z</time></trkpt><trkpt lat="46.027156511468135" lon="12.032360978157705"><ele>631.0</ele><time>2026-04-18T14:06:16.999Z</time></trkpt><trkpt lat="46.02708554893297" lon="12.032164529001081"><ele>631.0</ele><time>2026-04-18T14:06:17.999Z</time></trkpt><trkpt lat="46.02699954060116" lon="12.031933694471435"><ele>631.0</ele><time>2026-04-18T14:06:18.999Z</time></trkpt><trkpt lat="46.02693365506986" lon="12.031735362039015"><ele>630.6666666666667</ele><time>2026-04-18T14:06:19.999Z</time></trkpt><trkpt lat="46.0268682449735" lon="12.03152831599419"><ele>630.3333333333334</ele><time>2026-04-18T14:06:20.999Z</time></trkpt><trkpt lat="46.02680268291069" lon="12.031298758434561"><ele>630.0</ele><time>2026-04-18T14:06:21.999Z</time></trkpt><trkpt lat="46.02674149425513" lon="12.0311130182347"><ele>630.0</ele><time>2026-04-18T14:06:22.999Z</time></trkpt><trkpt lat="46.02669667570029" lon="12.030974654974397"><ele>630.0</ele><time>2026-04-18T14:06:23.999Z</time></trkpt><trkpt lat="46.0266587049519" lon="12.030854768313706"><ele>630.0</ele><time>2026-04-18T14:06:24.999Z</time></trkpt><trkpt lat="46.026615488807074" lon="12.030729824348285"><ele>630.0</ele><time>2026-04-18T14:06:25.999Z</time></trkpt><trkpt lat="46.02657513095785" lon="12.030585700354521"><ele>630.0</ele><time>2026-04-18T14:06:26.999Z</time></trkpt><trkpt lat="46.02652952296212" lon="12.03043762928612"><ele>634.4</ele><time>2026-04-18T14:06:27.999Z</time></trkpt><trkpt lat="46.0264824544974" lon="12.03028160597338"><ele>638.8</ele><time>2026-04-18T14:06:28.999Z</time></trkpt><trkpt lat="46.026446433535746" lon="12.030149872225728"><ele>643.2</ele><time>2026-04-18T14:06:29.999Z</time></trkpt><trkpt lat="46.02640846012884" lon="12.03003207653889"><ele>647.6</ele><time>2026-04-18T14:06:30.999Z</time></trkpt><trkpt lat="46.02637437631558" lon="12.029893222676288"><ele>652.0</ele><time>2026-04-18T14:06:31.999Z</time></trkpt><trkpt lat="46.026340226258036" lon="12.02977172958563"><ele>652.2</ele><time>2026-04-18T14:06:32.999Z</time></trkpt><trkpt lat="46.02629202726278" lon="12.029606514059466"><ele>652.4000000000001</ele><time>2026-04-18T14:06:33.999Z</time></trkpt><trkpt lat="46.0262566940762" lon="12.029464420297023"><ele>652.5999999999999</ele><time>2026-04-18T14:06:34.999Z</time></trkpt><trkpt lat="46.02623020370878" lon="12.029332424636097"><ele>652.8</ele><time>2026-04-18T14:06:35.999Z</time></trkpt><trkpt lat="46.02620778108977" lon="12.029213025523763"><ele>653.0</ele><time>2026-04-18T14:06:37Z</time></trkpt><trkpt lat="46.026184638342095" lon="12.02910722537808"><ele>653.0</ele><time>2026-04-18T14:06:38Z</time></trkpt><trkpt lat="46.026163038155104" lon="12.028985713162122"><ele>653.0</ele><time>2026-04-18T14:06:39Z</time></trkpt><trkpt lat="46.026134980890376" lon="12.028871114654056"><ele>653.0</ele><time>2026-04-18T14:06:40Z</time></trkpt><trkpt lat="46.026106847847025" lon="12.028767769733566"><ele>653.0</ele><time>2026-04-18T14:06:41Z</time></trkpt><trkpt lat="46.02606703246744" lon="12.028668644914005"><ele>653.0</ele><time>2026-04-18T14:06:42Z</time></trkpt><trkpt lat="46.02600737336843" lon="12.028591145654008"><ele>653.0</ele><time>2026-04-18T14:06:43Z</time></trkpt><trkpt lat="46.025922910879764" lon="12.02851376390983"><ele>653.0</ele><time>2026-04-18T14:06:44Z</time></trkpt><trkpt lat="46.02582819654559" lon="12.02845026009602"><ele>653.0</ele><time>2026-04-18T14:06:45Z</time></trkpt><trkpt lat="46.02576248240252" lon="12.028401504860097"><ele>653.0</ele><time>2026-04-18T14:06:46Z</time></trkpt><trkpt lat="46.025646499353236" lon="12.02832212193007"><ele>653.0</ele><time>2026-04-18T14:06:48Z</time></trkpt><trkpt lat="46.025575908378556" lon="12.028269024216367"><ele>653.0</ele><time>2026-04-18T14:06:50Z</time></trkpt><trkpt lat="46.02547847655074" lon="12.028178613897325"><ele>655.8</ele><time>2026-04-18T14:06:52Z</time></trkpt><trkpt lat="46.02541064924029" lon="12.028046471099653"><ele>658.5999999999999</ele><time>2026-04-18T14:06:54Z</time></trkpt><trkpt lat="46.025375617471546" lon="12.027908876422284"><ele>661.4000000000001</ele><time>2026-04-18T14:06:56Z</time></trkpt><trkpt lat="46.02534578959829" lon="12.027772289696358"><ele>664.2</ele><time>2026-04-18T14:06:58Z</time></trkpt><trkpt lat="46.02532798611857" lon="12.027638674514298"><ele>667.0</ele><time>2026-04-18T14:07:00Z</time></trkpt><trkpt lat="46.02531376814344" lon="12.02750127695208"><ele>666.8</ele><time>2026-04-18T14:07:02Z</time></trkpt><trkpt lat="46.02528441303212" lon="12.027339750112613"><ele>666.6</ele><time>2026-04-18T14:07:04Z</time></trkpt><trkpt lat="46.025260690416665" lon="12.027188308377628"><ele>666.4</ele><time>2026-04-18T14:07:06Z</time></trkpt><trkpt lat="46.02523984502826" lon="12.027018330048623"><ele>666.1999999999999</ele><time>2026-04-18T14:07:08Z</time></trkpt><trkpt lat="46.02522328557018" lon="12.02692039976821"><ele>666.0</ele><time>2026-04-18T14:07:09Z</time></trkpt><trkpt lat="46.02518136035667" lon="12.026738521497405"><ele>665.8</ele><time>2026-04-18T14:07:11Z</time></trkpt><trkpt lat="46.02515197247464" lon="12.026636940782932"><ele>665.5999999999999</ele><time>2026-04-18T14:07:12Z</time></trkpt><trkpt lat="46.02512595228691" lon="12.026528160285151"><ele>665.4</ele><time>2026-04-18T14:07:13Z</time></trkpt><trkpt lat="46.02509621383049" lon="12.026409195350553"><ele>665.2</ele><time>2026-04-18T14:07:14Z</time></trkpt><trkpt lat="46.025064196188985" lon="12.026265158762714"><ele>665.0</ele><time>2026-04-18T14:07:15Z</time></trkpt><trkpt lat="46.02502414432359" lon="12.026116017805343"><ele>665.0</ele><time>2026-04-18T14:07:16Z</time></trkpt><trkpt lat="46.024983026875134" lon="12.025985417602882"><ele>665.0</ele><time>2026-04-18T14:07:17Z</time></trkpt><trkpt lat="46.02492962330978" lon="12.025859127912211"><ele>665.0</ele><time>2026-04-18T14:07:18Z</time></trkpt><trkpt lat="46.02487896687923" lon="12.02574191195188"><ele>665.0</ele><time>2026-04-18T14:07:19Z</time></trkpt><trkpt lat="46.0248314462989" lon="12.025617874666867"><ele>665.0</ele><time>2026-04-18T14:07:20Z</time></trkpt><trkpt lat="46.024766653137824" lon="12.025473720386021"><ele>668.75</ele><time>2026-04-18T14:07:21Z</time></trkpt><trkpt lat="46.024721457605" lon="12.025337427238226"><ele>672.5</ele><time>2026-04-18T14:07:22Z</time></trkpt><trkpt lat="46.024655710336276" lon="12.025189330013035"><ele>676.25</ele><time>2026-04-18T14:07:23Z</time></trkpt><trkpt lat="46.02458637437994" lon="12.025007514585347"><ele>680.0</ele><time>2026-04-18T14:07:24Z</time></trkpt><trkpt lat="46.024529745446586" lon="12.024855744301664"><ele>680.0</ele><time>2026-04-18T14:07:25Z</time></trkpt><trkpt lat="46.02446897754924" lon="12.024727918490157"><ele>680.0</ele><time>2026-04-18T14:07:26Z</time></trkpt><trkpt lat="46.024417616764346" lon="12.024592291915422"><ele>680.0</ele><time>2026-04-18T14:07:27Z</time></trkpt><trkpt lat="46.02437965538841" lon="12.024482655167155"><ele>680.0</ele><time>2026-04-18T14:07:28Z</time></trkpt><trkpt lat="46.024332201124345" lon="12.024402084112022"><ele>680.0</ele><time>2026-04-18T14:07:29Z</time></trkpt><trkpt lat="46.02429381920568" lon="12.024319459815977"><ele>680.0</ele><time>2026-04-18T14:07:30Z</time></trkpt><trkpt lat="46.02424743991379" lon="12.02424984532459"><ele>688.5</ele><time>2026-04-18T14:07:31Z</time></trkpt><trkpt lat="46.02413016745333" lon="12.024200627467037"><ele>697.0</ele><time>2026-04-18T14:07:33Z</time></trkpt><trkpt lat="46.024064998391026" lon="12.024183040763063"><ele>705.5</ele><time>2026-04-18T14:07:34Z</time></trkpt><trkpt lat="46.02398042018704" lon="12.024418464579124"><ele>714.0</ele><time>2026-04-18T14:07:36Z</time></trkpt><trkpt lat="46.023973635615434" lon="12.024575154916937"><ele>714.0</ele><time>2026-04-18T14:07:37Z</time></trkpt><trkpt lat="46.02401044414691" lon="12.024692989812651"><ele>714.0</ele><time>2026-04-18T14:07:38Z</time></trkpt><trkpt lat="46.02406603232929" lon="12.024854970188478"><ele>714.0</ele><time>2026-04-18T14:07:39Z</time></trkpt><trkpt lat="46.024120236012855" lon="12.025057655438077"><ele>714.0</ele><time>2026-04-18T14:07:40Z</time></trkpt><trkpt lat="46.02416145229239" lon="12.025195375321822"><ele>714.0</ele><time>2026-04-18T14:07:41Z</time></trkpt><trkpt lat="46.0241791368022" lon="12.025323999655948"><ele>714.0</ele><time>2026-04-18T14:07:42Z</time></trkpt><trkpt lat="46.024195496683824" lon="12.025450271560219"><ele>714.0</ele><time>2026-04-18T14:07:43Z</time></trkpt><trkpt lat="46.02418934385678" lon="12.025604013007907"><ele>714.0</ele><time>2026-04-18T14:07:44Z</time></trkpt><trkpt lat="46.02412657396362" lon="12.025752229940055"><ele>714.0</ele><time>2026-04-18T14:07:45Z</time></trkpt><trkpt lat="46.0240717636942" lon="12.025937438755308"><ele>714.5</ele><time>2026-04-18T14:07:46Z</time></trkpt><trkpt lat="46.02402072851147" lon="12.026117665627925"><ele>715.0</ele><time>2026-04-18T14:07:47Z</time></trkpt><trkpt lat="46.02396369967545" lon="12.026269649621842"><ele>715.5</ele><time>2026-04-18T14:07:48Z</time></trkpt><trkpt lat="46.02390243113606" lon="12.026402499443822"><ele>716.0</ele><time>2026-04-18T14:07:49Z</time></trkpt><trkpt lat="46.02383035131753" lon="12.026532780700824"><ele>715.0</ele><time>2026-04-18T14:07:50Z</time></trkpt><trkpt lat="46.02375019627667" lon="12.026660597680314"><ele>714.0</ele><time>2026-04-18T14:07:51Z</time></trkpt><trkpt lat="46.02366013623855" lon="12.026789425121684"><ele>713.0</ele><time>2026-04-18T14:07:52Z</time></trkpt><trkpt lat="46.02357141802221" lon="12.026929427273883"><ele>712.0</ele><time>2026-04-18T14:07:53Z</time></trkpt><trkpt lat="46.02349068742527" lon="12.027012407045563"><ele>712.0</ele><time>2026-04-18T14:07:54Z</time></trkpt><trkpt lat="46.02340916697566" lon="12.027042519740743"><ele>712.0</ele><time>2026-04-18T14:07:55Z</time></trkpt><trkpt lat="46.023328126009694" lon="12.027081416781431"><ele>712.0</ele><time>2026-04-18T14:07:56Z</time></trkpt><trkpt lat="46.0232648805517" lon="12.02707325966794"><ele>712.0</ele><time>2026-04-18T14:07:57Z</time></trkpt><trkpt lat="46.02318666174008" lon="12.027049919591903"><ele>712.0</ele><time>2026-04-18T14:07:58Z</time></trkpt><trkpt lat="46.0231261763491" lon="12.026952454394573"><ele>712.0</ele><time>2026-04-18T14:07:59Z</time></trkpt><trkpt lat="46.023092798294364" lon="12.026841304146522"><ele>715.4000000000001</ele><time>2026-04-18T14:08:00Z</time></trkpt><trkpt lat="46.02309758123409" lon="12.026713058758283"><ele>718.8000000000001</ele><time>2026-04-18T14:08:01Z</time></trkpt><trkpt lat="46.02307553565142" lon="12.026548035382515"><ele>722.2</ele><time>2026-04-18T14:08:02Z</time></trkpt><trkpt lat="46.023023305989554" lon="12.026372789918117"><ele>725.6</ele><time>2026-04-18T14:08:03Z</time></trkpt><trkpt lat="46.02301766452833" lon="12.026213911567414"><ele>729.0</ele><time>2026-04-18T14:08:04Z</time></trkpt><trkpt lat="46.02298823223787" lon="12.0260921530636"><ele>729.5</ele><time>2026-04-18T14:08:05Z</time></trkpt><trkpt lat="46.02292804251405" lon="12.025949918094323"><ele>730.0</ele><time>2026-04-18T14:08:06Z</time></trkpt><trkpt lat="46.02288262565033" lon="12.025757898877034"><ele>730.5</ele><time>2026-04-18T14:08:07Z</time></trkpt><trkpt lat="46.02284229226504" lon="12.025595507496794"><ele>731.0</ele><time>2026-04-18T14:08:08Z</time></trkpt><trkpt lat="46.0228073102736" lon="12.025488134743405"><ele>731.0</ele><time>2026-04-18T14:08:09Z</time></trkpt><trkpt lat="46.022784137111124" lon="12.025391183675605"><ele>731.0</ele><time>2026-04-18T14:08:10Z</time></trkpt><trkpt lat="46.02275108877106" lon="12.025287447717348"><ele>731.0</ele><time>2026-04-18T14:08:11Z</time></trkpt><trkpt lat="46.022742467341295" lon="12.025180952604854"><ele>731.0</ele><time>2026-04-18T14:08:12Z</time></trkpt><trkpt lat="46.02270125840398" lon="12.02510798099902"><ele>731.0</ele><time>2026-04-18T14:08:13Z</time></trkpt><trkpt lat="46.022631691896095" lon="12.025050347408865"><ele>731.0</ele><time>2026-04-18T14:08:14Z</time></trkpt><trkpt lat="46.02254569314802" lon="12.025026787340124"><ele>732.8</ele><time>2026-04-18T14:08:15Z</time></trkpt><trkpt lat="46.02243694539529" lon="12.025028942062042"><ele>734.5999999999999</ele><time>2026-04-18T14:08:16Z</time></trkpt><trkpt lat="46.02232500852836" lon="12.025041149736367"><ele>736.4</ele><time>2026-04-18T14:08:17Z</time></trkpt><trkpt lat="46.022245528741074" lon="12.02504163953787"><ele>738.2</ele><time>2026-04-18T14:08:18Z</time></trkpt><trkpt lat="46.02218111369914" lon="12.025006904224831"><ele>740.0</ele><time>2026-04-18T14:08:19Z</time></trkpt><trkpt lat="46.02210523547371" lon="12.02493653586076"><ele>740.2</ele><time>2026-04-18T14:08:20Z</time></trkpt><trkpt lat="46.02205281361764" lon="12.02481874074868"><ele>740.4</ele><time>2026-04-18T14:08:21Z</time></trkpt><trkpt lat="46.021989489928565" lon="12.024721604786642"><ele>740.5999999999999</ele><time>2026-04-18T14:08:21.999Z</time></trkpt><trkpt lat="46.02193486948708" lon="12.024616257594754"><ele>740.8</ele><time>2026-04-18T14:08:22.999Z</time></trkpt><trkpt lat="46.021877163221106" lon="12.024513192576986"><ele>741.0</ele><time>2026-04-18T14:08:23.999Z</time></trkpt><trkpt lat="46.021822327664" lon="12.02439976782013"><ele>741.0</ele><time>2026-04-18T14:08:24.999Z</time></trkpt><trkpt lat="46.021768266791995" lon="12.02429719870411"><ele>741.0</ele><time>2026-04-18T14:08:25.999Z</time></trkpt><trkpt lat="46.0217066248131" lon="12.024218387831448"><ele>741.0</ele><time>2026-04-18T14:08:26.999Z</time></trkpt><trkpt lat="46.02162314441186" lon="12.024142186191021"><ele>741.0</ele><time>2026-04-18T14:08:27.999Z</time></trkpt><trkpt lat="46.02151664101923" lon="12.024070550819877"><ele>741.0</ele><time>2026-04-18T14:08:28.999Z</time></trkpt><trkpt lat="46.02138590125413" lon="12.023983795551734"><ele>743.4</ele><time>2026-04-18T14:08:29.999Z</time></trkpt><trkpt lat="46.02126004815588" lon="12.023936956016287"><ele>745.8</ele><time>2026-04-18T14:08:30.999Z</time></trkpt><trkpt lat="46.02116465548568" lon="12.023888931225448"><ele>748.1999999999999</ele><time>2026-04-18T14:08:31.999Z</time></trkpt><trkpt lat="46.02107678010308" lon="12.023834790556743"><ele>750.5999999999999</ele><time>2026-04-18T14:08:32.999Z</time></trkpt><trkpt lat="46.0209932676783" lon="12.02377955855525"><ele>753.0</ele><time>2026-04-18T14:08:33.999Z</time></trkpt><trkpt lat="46.02090774785364" lon="12.02371881017087"><ele>753.0</ele><time>2026-04-18T14:08:34.999Z</time></trkpt><trkpt lat="46.020850305160906" lon="12.02365165047621"><ele>753.0</ele><time>2026-04-18T14:08:35.999Z</time></trkpt><trkpt lat="46.02076219730823" lon="12.023602848676912"><ele>753.0</ele><time>2026-04-18T14:08:36.999Z</time></trkpt><trkpt lat="46.02067388856477" lon="12.023503506092345"><ele>753.0</ele><time>2026-04-18T14:08:37.999Z</time></trkpt><trkpt lat="46.02058128120879" lon="12.023400541202488"><ele>753.0</ele><time>2026-04-18T14:08:38.999Z</time></trkpt><trkpt lat="46.020488004230366" lon="12.023311573730883"><ele>757.2</ele><time>2026-04-18T14:08:39.999Z</time></trkpt><trkpt lat="46.020407642571044" lon="12.023255992889617"><ele>761.4</ele><time>2026-04-18T14:08:40.999Z</time></trkpt><trkpt lat="46.02031767192303" lon="12.023227986919014"><ele>765.6</ele><time>2026-04-18T14:08:41.999Z</time></trkpt><trkpt lat="46.02022366751771" lon="12.023221370266635"><ele>769.8000000000001</ele><time>2026-04-18T14:08:43Z</time></trkpt><trkpt lat="46.0201164078094" lon="12.023226132539873"><ele>774.0</ele><time>2026-04-18T14:08:44Z</time></trkpt><trkpt lat="46.01999780619045" lon="12.023243284318559"><ele>776.6</ele><time>2026-04-18T14:08:45Z</time></trkpt><trkpt lat="46.019866345507175" lon="12.023269536704003"><ele>779.2</ele><time>2026-04-18T14:08:46Z</time></trkpt><trkpt lat="46.01975724108139" lon="12.023292468585446"><ele>781.8000000000001</ele><time>2026-04-18T14:08:47Z</time></trkpt><trkpt lat="46.01967762608308" lon="12.023289187205586"><ele>784.4000000000001</ele><time>2026-04-18T14:08:48Z</time></trkpt><trkpt lat="46.01958010285135" lon="12.023293523853123"><ele>787.0</ele><time>2026-04-18T14:08:49Z</time></trkpt><trkpt lat="46.0194881685542" lon="12.023307754883545"><ele>787.9999999999999</ele><time>2026-04-18T14:08:50Z</time></trkpt><trkpt lat="46.01939023057504" lon="12.02332674658467"><ele>789.0</ele><time>2026-04-18T14:08:51Z</time></trkpt><trkpt lat="46.01929762649895" lon="12.02333394353514"><ele>790.0</ele><time>2026-04-18T14:08:52Z</time></trkpt><trkpt lat="46.01922491096112" lon="12.023341974349728"><ele>791.0</ele><time>2026-04-18T14:08:53Z</time></trkpt><trkpt lat="46.01916217526859" lon="12.023322905997057"><ele>791.9999999999999</ele><time>2026-04-18T14:08:54Z</time></trkpt><trkpt lat="46.01909171068349" lon="12.023312661659611"><ele>793.0</ele><time>2026-04-18T14:08:55Z</time></trkpt><trkpt lat="46.019021714929686" lon="12.02328184577458"><ele>794.4</ele><time>2026-04-18T14:08:56Z</time></trkpt><trkpt lat="46.018963418481306" lon="12.023196111882148"><ele>795.8</ele><time>2026-04-18T14:08:57Z</time></trkpt><trkpt lat="46.01890903120326" lon="12.023090795414541"><ele>797.2</ele><time>2026-04-18T14:08:58Z</time></trkpt><trkpt lat="46.01885417995774" lon="12.0229879472679"><ele>798.6</ele><time>2026-04-18T14:08:59Z</time></trkpt><trkpt lat="46.01881291976089" lon="12.02290594671961"><ele>800.0</ele><time>2026-04-18T14:09:00Z</time></trkpt><trkpt lat="46.01869243814532" lon="12.022859334986903"><ele>800.0000000000001</ele><time>2026-04-18T14:09:02Z</time></trkpt><trkpt lat="46.018625580528955" lon="12.022884105243968"><ele>800.0</ele><time>2026-04-18T14:09:03Z</time></trkpt><trkpt lat="46.018570633564934" lon="12.022940660147208"><ele>800.0</ele><time>2026-04-18T14:09:04Z</time></trkpt><trkpt lat="46.0185170456649" lon="12.023018754439674"><ele>800.0</ele><time>2026-04-18T14:09:05Z</time></trkpt><trkpt lat="46.0184770219766" lon="12.023122277460928"><ele>800.0000000000001</ele><time>2026-04-18T14:09:06Z</time></trkpt><trkpt lat="46.018463114144346" lon="12.023253396805325"><ele>800.0</ele><time>2026-04-18T14:09:07Z</time></trkpt><trkpt lat="46.01845815167945" lon="12.023400642653918"><ele>801.5</ele><time>2026-04-18T14:09:08Z</time></trkpt><trkpt lat="46.01844762013576" lon="12.023582416208125"><ele>803.0</ele><time>2026-04-18T14:09:09Z</time></trkpt><trkpt lat="46.01843571616699" lon="12.023773755489211"><ele>804.5</ele><time>2026-04-18T14:09:10Z</time></trkpt><trkpt lat="46.01843142992567" lon="12.023976188287769"><ele>806.0</ele><time>2026-04-18T14:09:11Z</time></trkpt><trkpt lat="46.018424340109625" lon="12.02414855034189"><ele>808.5999999999999</ele><time>2026-04-18T14:09:12Z</time></trkpt><trkpt lat="46.018416317094065" lon="12.024308711818046"><ele>811.2</ele><time>2026-04-18T14:09:13Z</time></trkpt><trkpt lat="46.018411689202274" lon="12.024453049309257"><ele>813.8</ele><time>2026-04-18T14:09:14Z</time></trkpt><trkpt lat="46.01840831886666" lon="12.024579176814505"><ele>816.4000000000001</ele><time>2026-04-18T14:09:15Z</time></trkpt><trkpt lat="46.0184067606247" lon="12.02471392779566"><ele>819.0</ele><time>2026-04-18T14:09:16Z</time></trkpt><trkpt lat="46.018407854321" lon="12.02486089494528"><ele>820.8000000000001</ele><time>2026-04-18T14:09:17Z</time></trkpt><trkpt lat="46.01840314985357" lon="12.0250170483835"><ele>822.6</ele><time>2026-04-18T14:09:18Z</time></trkpt><trkpt lat="46.01840700090777" lon="12.025176448297339"><ele>824.4</ele><time>2026-04-18T14:09:19Z</time></trkpt><trkpt lat="46.01840367232001" lon="12.025327995931931"><ele>826.2</ele><time>2026-04-18T14:09:20Z</time></trkpt><trkpt lat="46.01840267514357" lon="12.025479741956968"><ele>828.0</ele><time>2026-04-18T14:09:21Z</time></trkpt><trkpt lat="46.01839514601804" lon="12.025625751886539"><ele>828.0</ele><time>2026-04-18T14:09:22Z</time></trkpt><trkpt lat="46.01839489379787" lon="12.025766895752136"><ele>828.0</ele><time>2026-04-18T14:09:23Z</time></trkpt><trkpt lat="46.018406955760064" lon="12.02588879050376"><ele>828.0</ele><time>2026-04-18T14:09:24Z</time></trkpt><trkpt lat="46.01840212355655" lon="12.026041264657861"><ele>828.0</ele><time>2026-04-18T14:09:25Z</time></trkpt><trkpt lat="46.01839302714865" lon="12.02619192201591"><ele>828.0</ele><time>2026-04-18T14:09:26Z</time></trkpt><trkpt lat="46.01839411610043" lon="12.02631089705653"><ele>828.6666666666666</ele><time>2026-04-18T14:09:27Z</time></trkpt><trkpt lat="46.01839153760786" lon="12.026439380563186"><ele>829.3333333333333</ele><time>2026-04-18T14:09:28Z</time></trkpt><trkpt lat="46.01840011234947" lon="12.02656228543296"><ele>830.0</ele><time>2026-04-18T14:09:29Z</time></trkpt><trkpt lat="46.01839246372259" lon="12.026668065729421"><ele>830.6666666666666</ele><time>2026-04-18T14:09:30Z</time></trkpt><trkpt lat="46.01841427986786" lon="12.026758330910416"><ele>831.3333333333333</ele><time>2026-04-18T14:09:31Z</time></trkpt><trkpt lat="46.01837189669312" lon="12.026855066872326"><ele>832.0</ele><time>2026-04-18T14:09:32Z</time></trkpt><trkpt lat="46.01831644884332" lon="12.026932690942308"><ele>835.3333333333333</ele><time>2026-04-18T14:09:33Z</time></trkpt><trkpt lat="46.01824365625074" lon="12.026957699598375"><ele>838.6666666666666</ele><time>2026-04-18T14:09:34Z</time></trkpt><trkpt lat="46.018166895520416" lon="12.026911523706783"><ele>842.0</ele><time>2026-04-18T14:09:35Z</time></trkpt><trkpt lat="46.01810572911943" lon="12.026828799468946"><ele>845.3333333333333</ele><time>2026-04-18T14:09:36Z</time></trkpt><trkpt lat="46.01803290281423" lon="12.026731635436311"><ele>848.6666666666666</ele><time>2026-04-18T14:09:37Z</time></trkpt><trkpt lat="46.017971072011335" lon="12.026642332458845"><ele>852.0</ele><time>2026-04-18T14:09:38Z</time></trkpt><trkpt lat="46.01785733966322" lon="12.026572826212112"><ele>852.0</ele><time>2026-04-18T14:09:40Z</time></trkpt><trkpt lat="46.017787084797135" lon="12.026584234828732"><ele>852.0</ele><time>2026-04-18T14:09:41Z</time></trkpt><trkpt lat="46.01771618140399" lon="12.026651476510667"><ele>852.0</ele><time>2026-04-18T14:09:42Z</time></trkpt><trkpt lat="46.01766084014178" lon="12.026762762726731"><ele>852.0</ele><time>2026-04-18T14:09:43Z</time></trkpt><trkpt lat="46.0176516512433" lon="12.026907093802118"><ele>852.0</ele><time>2026-04-18T14:09:44Z</time></trkpt><trkpt lat="46.01765668329451" lon="12.027092771152256"><ele>853.25</ele><time>2026-04-18T14:09:45Z</time></trkpt><trkpt lat="46.0176658129806" lon="12.027293469902608"><ele>854.5</ele><time>2026-04-18T14:09:46Z</time></trkpt><trkpt lat="46.01766215696725" lon="12.027503998352616"><ele>855.75</ele><time>2026-04-18T14:09:47Z</time></trkpt><trkpt lat="46.017662688659705" lon="12.027719337617125"><ele>857.0</ele><time>2026-04-18T14:09:48Z</time></trkpt><trkpt lat="46.017660297886835" lon="12.027922652616759"><ele>858.0</ele><time>2026-04-18T14:09:49Z</time></trkpt><trkpt lat="46.01765919999671" lon="12.028081137294922"><ele>859.0</ele><time>2026-04-18T14:09:50Z</time></trkpt><trkpt lat="46.017655984598484" lon="12.02821734003757"><ele>860.0</ele><time>2026-04-18T14:09:51Z</time></trkpt><trkpt lat="46.017644450302654" lon="12.028345896628217"><ele>861.0</ele><time>2026-04-18T14:09:52Z</time></trkpt><trkpt lat="46.01761119724002" lon="12.028457293983944"><ele>862.0</ele><time>2026-04-18T14:09:53Z</time></trkpt><trkpt lat="46.017562675660145" lon="12.028537567424419"><ele>864.4000000000001</ele><time>2026-04-18T14:09:54Z</time></trkpt><trkpt lat="46.01748273713137" lon="12.028575130264636"><ele>866.8000000000001</ele><time>2026-04-18T14:09:55Z</time></trkpt><trkpt lat="46.017402786175985" lon="12.02860692831306"><ele>869.2</ele><time>2026-04-18T14:09:56Z</time></trkpt><trkpt lat="46.0172964001557" lon="12.02863420002957"><ele>871.6</ele><time>2026-04-18T14:09:57Z</time></trkpt><trkpt lat="46.01717001096187" lon="12.028674711646987"><ele>874.0</ele><time>2026-04-18T14:09:58Z</time></trkpt><trkpt lat="46.01706720769179" lon="12.028689344590605"><ele>873.9999999999999</ele><time>2026-04-18T14:09:59Z</time></trkpt><trkpt lat="46.01699512183381" lon="12.028710862197402"><ele>874.0</ele><time>2026-04-18T14:10:00Z</time></trkpt><trkpt lat="46.01692620308413" lon="12.02874895776204"><ele>874.0</ele><time>2026-04-18T14:10:01Z</time></trkpt><trkpt lat="46.01682744386554" lon="12.028868637347342"><ele>874.0</ele><time>2026-04-18T14:10:03Z</time></trkpt><trkpt lat="46.01680041838942" lon="12.02897618171414"><ele>873.9999999999999</ele><time>2026-04-18T14:10:04Z</time></trkpt><trkpt lat="46.016800561212634" lon="12.029099266281914"><ele>874.0</ele><time>2026-04-18T14:10:05Z</time></trkpt><trkpt lat="46.01682696560691" lon="12.029235315764241"><ele>875.0</ele><time>2026-04-18T14:10:06Z</time></trkpt><trkpt lat="46.0168732713767" lon="12.029374125710396"><ele>876.0000000000001</ele><time>2026-04-18T14:10:07Z</time></trkpt><trkpt lat="46.016929796418516" lon="12.029516502615627"><ele>877.0000000000001</ele><time>2026-04-18T14:10:08Z</time></trkpt><trkpt lat="46.01694300141974" lon="12.029651051196646"><ele>878.0</ele><time>2026-04-18T14:10:09Z</time></trkpt><trkpt lat="46.01696019862814" lon="12.02978017131095"><ele>879.0</ele><time>2026-04-18T14:10:10Z</time></trkpt><trkpt lat="46.0169272582249" lon="12.02994484372706"><ele>879.2</ele><time>2026-04-18T14:10:11Z</time></trkpt><trkpt lat="46.01690549199463" lon="12.030106442108801"><ele>879.4000000000001</ele><time>2026-04-18T14:10:12Z</time></trkpt><trkpt lat="46.016883737041624" lon="12.030251745710144"><ele>879.6</ele><time>2026-04-18T14:10:13Z</time></trkpt><trkpt lat="46.016865378570955" lon="12.030359178620447"><ele>879.8</ele><time>2026-04-18T14:10:14Z</time></trkpt><trkpt lat="46.016821463810004" lon="12.030530126284798"><ele>880.0</ele><time>2026-04-18T14:10:16Z</time></trkpt><trkpt lat="46.01676844830623" lon="12.030590317501224"><ele>879.9999999999999</ele><time>2026-04-18T14:10:17Z</time></trkpt><trkpt lat="46.01670535395195" lon="12.030609079611189"><ele>880.0</ele><time>2026-04-18T14:10:18Z</time></trkpt><trkpt lat="46.01663837378283" lon="12.030589560369288"><ele>880.0</ele><time>2026-04-18T14:10:19Z</time></trkpt><trkpt lat="46.016574265023294" lon="12.030545976734672"><ele>880.0</ele><time>2026-04-18T14:10:20Z</time></trkpt><trkpt lat="46.01651470625676" lon="12.030463671203062"><ele>879.9999999999999</ele><time>2026-04-18T14:10:21Z</time></trkpt><trkpt lat="46.01645433798711" lon="12.030354005525233"><ele>880.0</ele><time>2026-04-18T14:10:22Z</time></trkpt><trkpt lat="46.01637605874455" lon="12.030215950068559"><ele>884.6</ele><time>2026-04-18T14:10:23Z</time></trkpt><trkpt lat="46.016289092958495" lon="12.030080608564615"><ele>889.2</ele><time>2026-04-18T14:10:24Z</time></trkpt><trkpt lat="46.01620462344202" lon="12.02993827284723"><ele>893.8</ele><time>2026-04-18T14:10:25Z</time></trkpt><trkpt lat="46.01614349781237" lon="12.029822309493056"><ele>898.4</ele><time>2026-04-18T14:10:26Z</time></trkpt><trkpt lat="46.01609859961647" lon="12.029728745714916"><ele>903.0</ele><time>2026-04-18T14:10:27Z</time></trkpt><trkpt lat="46.01606474635128" lon="12.029615880356909"><ele>903.0</ele><time>2026-04-18T14:10:28Z</time></trkpt><trkpt lat="46.01603482775833" lon="12.029497603453576"><ele>903.0</ele><time>2026-04-18T14:10:29Z</time></trkpt><trkpt lat="46.016001490040644" lon="12.029379241393869"><ele>903.0</ele><time>2026-04-18T14:10:30Z</time></trkpt><trkpt lat="46.015975570203416" lon="12.029262786488466"><ele>903.0</ele><time>2026-04-18T14:10:31Z</time></trkpt><trkpt lat="46.01594881557903" lon="12.029143831443069"><ele>903.0</ele><time>2026-04-18T14:10:32Z</time></trkpt><trkpt lat="46.0159232840347" lon="12.02904191954584"><ele>903.0</ele><time>2026-04-18T14:10:33Z</time></trkpt><trkpt lat="46.015903862782594" lon="12.028954916284452"><ele>902.6666666666666</ele><time>2026-04-18T14:10:34Z</time></trkpt><trkpt lat="46.01582895565978" lon="12.028836389861924"><ele>902.3333333333333</ele><time>2026-04-18T14:10:36Z</time></trkpt><trkpt lat="46.01576030881981" lon="12.028823202283245"><ele>902.0</ele><time>2026-04-18T14:10:37Z</time></trkpt><trkpt lat="46.01568781519956" lon="12.028865224080285"><ele>901.6666666666666</ele><time>2026-04-18T14:10:38Z</time></trkpt><trkpt lat="46.01562502459364" lon="12.02894840307155"><ele>901.3333333333333</ele><time>2026-04-18T14:10:39Z</time></trkpt><trkpt lat="46.015598001293284" lon="12.0290463436877"><ele>901.0</ele><time>2026-04-18T14:10:40Z</time></trkpt><trkpt lat="46.015599515586" lon="12.029176596897376"><ele>905.4</ele><time>2026-04-18T14:10:41Z</time></trkpt><trkpt lat="46.015644470387194" lon="12.029303045914487"><ele>909.8</ele><time>2026-04-18T14:10:42Z</time></trkpt><trkpt lat="46.01569460725136" lon="12.029433001585014"><ele>914.1999999999999</ele><time>2026-04-18T14:10:43Z</time></trkpt><trkpt lat="46.0157287224669" lon="12.029570388332033"><ele>918.5999999999999</ele><time>2026-04-18T14:10:44Z</time></trkpt><trkpt lat="46.01576497681296" lon="12.029729158140801"><ele>923.0</ele><time>2026-04-18T14:10:45Z</time></trkpt><trkpt lat="46.01578834922074" lon="12.02984230066111"><ele>923.0000000000001</ele><time>2026-04-18T14:10:46Z</time></trkpt><trkpt lat="46.01578752186499" lon="12.029952633061962"><ele>923.0</ele><time>2026-04-18T14:10:47Z</time></trkpt><trkpt lat="46.015764145404795" lon="12.030054816028777"><ele>923.0</ele><time>2026-04-18T14:10:48Z</time></trkpt><trkpt lat="46.0157191224146" lon="12.030147261132054"><ele>923.0</ele><time>2026-04-18T14:10:49Z</time></trkpt><trkpt lat="46.015630179358745" lon="12.030172902185418"><ele>923.0000000000001</ele><time>2026-04-18T14:10:50Z</time></trkpt><trkpt lat="46.015545353074515" lon="12.030230558229112"><ele>923.0</ele><time>2026-04-18T14:10:51Z</time></trkpt><trkpt lat="46.01544059152538" lon="12.030202597033142"><ele>923.0000000000001</ele><time>2026-04-18T14:10:52Z</time></trkpt><trkpt lat="46.01534743336145" lon="12.030173123851089"><ele>923.0</ele><time>2026-04-18T14:10:53Z</time></trkpt><trkpt lat="46.01527784780424" lon="12.030127120508476"><ele>923.0</ele><time>2026-04-18T14:10:54Z</time></trkpt><trkpt lat="46.015198487464865" lon="12.030091678363492"><ele>923.0</ele><time>2026-04-18T14:10:55Z</time></trkpt><trkpt lat="46.01513405258226" lon="12.030017482275916"><ele>923.0000000000001</ele><time>2026-04-18T14:10:56Z</time></trkpt><trkpt lat="46.01507003060366" lon="12.029939281406493"><ele>923.0</ele><time>2026-04-18T14:10:57Z</time></trkpt><trkpt lat="46.015008648071294" lon="12.029858899056478"><ele>924.3333333333334</ele><time>2026-04-18T14:10:58Z</time></trkpt><trkpt lat="46.01495143143505" lon="12.029779637487469"><ele>925.6666666666667</ele><time>2026-04-18T14:10:59Z</time></trkpt><trkpt lat="46.01489775647824" lon="12.02967693654966"><ele>927.0</ele><time>2026-04-18T14:11:00Z</time></trkpt><trkpt lat="46.01485466298377" lon="12.029580370765792"><ele>928.3333333333333</ele><time>2026-04-18T14:11:01Z</time></trkpt><trkpt lat="46.01481125285043" lon="12.02948729072859"><ele>929.6666666666666</ele><time>2026-04-18T14:11:02Z</time></trkpt><trkpt lat="46.01477213920456" lon="12.029390407438267"><ele>931.0</ele><time>2026-04-18T14:11:03Z</time></trkpt><trkpt lat="46.01474447859339" lon="12.029281197590095"><ele>931.0</ele><time>2026-04-18T14:11:04Z</time></trkpt><trkpt lat="46.0147255470592" lon="12.02916897255685"><ele>930.9999999999999</ele><time>2026-04-18T14:11:05Z</time></trkpt><trkpt lat="46.0147300752063" lon="12.029044229851689"><ele>930.9999999999999</ele><time>2026-04-18T14:11:06Z</time></trkpt><trkpt lat="46.014741831928276" lon="12.028924355096471"><ele>931.0</ele><time>2026-04-18T14:11:07Z</time></trkpt><trkpt lat="46.01474444794104" lon="12.028746947482423"><ele>931.0</ele><time>2026-04-18T14:11:09Z</time></trkpt><trkpt lat="46.01472135337858" lon="12.028642447556827"><ele>933.1999999999999</ele><time>2026-04-18T14:11:10Z</time></trkpt><trkpt lat="46.014678145256845" lon="12.028527362925459"><ele>935.3999999999999</ele><time>2026-04-18T14:11:11Z</time></trkpt><trkpt lat="46.01462433586786" lon="12.028412576992393"><ele>937.6</ele><time>2026-04-18T14:11:12Z</time></trkpt><trkpt lat="46.01455398211476" lon="12.028281875197875"><ele>939.8</ele><time>2026-04-18T14:11:13Z</time></trkpt><trkpt lat="46.0144681700539" lon="12.028117544085395"><ele>942.0</ele><time>2026-04-18T14:11:14Z</time></trkpt><trkpt lat="46.01439090770585" lon="12.027922163980024"><ele>943.6666666666667</ele><time>2026-04-18T14:11:15Z</time></trkpt><trkpt lat="46.014289384044396" lon="12.027743309280973"><ele>945.3333333333334</ele><time>2026-04-18T14:11:16Z</time></trkpt><trkpt lat="46.014194488843295" lon="12.02755338874859"><ele>947.0</ele><time>2026-04-18T14:11:17Z</time></trkpt><trkpt lat="46.01410109323564" lon="12.02735035525791"><ele>956.5</ele><time>2026-04-18T14:11:18Z</time></trkpt><trkpt lat="46.01401865004757" lon="12.027183321658233"><ele>966.0</ele><time>2026-04-18T14:11:19Z</time></trkpt><trkpt lat="46.01393861988165" lon="12.027030835899762"><ele>975.5</ele><time>2026-04-18T14:11:20Z</time></trkpt><trkpt lat="46.01386327793827" lon="12.026920661695318"><ele>985.0</ele><time>2026-04-18T14:11:21Z</time></trkpt><trkpt lat="46.01379415471302" lon="12.026799813256094"><ele>985.0</ele><time>2026-04-18T14:11:22Z</time></trkpt><trkpt lat="46.01372413837141" lon="12.02667060246218"><ele>985.0</ele><time>2026-04-18T14:11:23Z</time></trkpt><trkpt lat="46.01368689899044" lon="12.026524247081106"><ele>985.0</ele><time>2026-04-18T14:11:24Z</time></trkpt><trkpt lat="46.0136567441276" lon="12.026396193727452"><ele>985.0</ele><time>2026-04-18T14:11:25Z</time></trkpt><trkpt lat="46.01362504172746" lon="12.026278639960303"><ele>985.0</ele><time>2026-04-18T14:11:26Z</time></trkpt><trkpt lat="46.01359651679867" lon="12.026168496969788"><ele>984.3333333333333</ele><time>2026-04-18T14:11:27Z</time></trkpt><trkpt lat="46.01356260317655" lon="12.026066136021955"><ele>983.6666666666666</ele><time>2026-04-18T14:11:28Z</time></trkpt><trkpt lat="46.01351736069537" lon="12.025953556228373"><ele>983.0</ele><time>2026-04-18T14:11:29Z</time></trkpt><trkpt lat="46.013462765361076" lon="12.02583703494166"><ele>982.3333333333333</ele><time>2026-04-18T14:11:30Z</time></trkpt><trkpt lat="46.013405363690175" lon="12.025735350349889"><ele>981.6666666666666</ele><time>2026-04-18T14:11:31Z</time></trkpt><trkpt lat="46.01335706233013" lon="12.025655520810817"><ele>981.0</ele><time>2026-04-18T14:11:32Z</time></trkpt><trkpt lat="46.013283659309316" lon="12.025582242554231"><ele>983.5999999999999</ele><time>2026-04-18T14:11:33Z</time></trkpt><trkpt lat="46.01319113203396" lon="12.025514221766992"><ele>986.1999999999999</ele><time>2026-04-18T14:11:34Z</time></trkpt><trkpt lat="46.01309283060158" lon="12.025447843230115"><ele>988.8000000000001</ele><time>2026-04-18T14:11:35Z</time></trkpt><trkpt lat="46.01300812127461" lon="12.025411588825436"><ele>991.4000000000001</ele><time>2026-04-18T14:11:36Z</time></trkpt><trkpt lat="46.01292301591145" lon="12.025366566106936"><ele>994.0</ele><time>2026-04-18T14:11:37Z</time></trkpt><trkpt lat="46.01277294542312" lon="12.025290647383946"><ele>994.0</ele><time>2026-04-18T14:11:39Z</time></trkpt><trkpt lat="46.01268884594298" lon="12.025221181272565"><ele>994.0000000000001</ele><time>2026-04-18T14:11:40Z</time></trkpt><trkpt lat="46.01261846765924" lon="12.025106395183313"><ele>994.0000000000001</ele><time>2026-04-18T14:11:41Z</time></trkpt><trkpt lat="46.012566618844176" lon="12.0249792274476"><ele>994.0</ele><time>2026-04-18T14:11:42Z</time></trkpt><trkpt lat="46.01252444208845" lon="12.024884602703786"><ele>994.0</ele><time>2026-04-18T14:11:43Z</time></trkpt><trkpt lat="46.01248531210121" lon="12.024805755444735"><ele>995.0</ele><time>2026-04-18T14:11:44Z</time></trkpt><trkpt lat="46.012435173679435" lon="12.024734082624938"><ele>996.0000000000001</ele><time>2026-04-18T14:11:45Z</time></trkpt><trkpt lat="46.01235242864767" lon="12.02469623998269"><ele>997.0000000000001</ele><time>2026-04-18T14:11:46Z</time></trkpt><trkpt lat="46.012253637328236" lon="12.024652936704186"><ele>998.0</ele><time>2026-04-18T14:11:47Z</time></trkpt><trkpt lat="46.01214479947446" lon="12.02462486088375"><ele>999.0</ele><time>2026-04-18T14:11:48Z</time></trkpt><trkpt lat="46.01204718397925" lon="12.024601074857802"><ele>999.0</ele><time>2026-04-18T14:11:49Z</time></trkpt><trkpt lat="46.01195170807647" lon="12.02455006876003"><ele>999.0</ele><time>2026-04-18T14:11:50Z</time></trkpt><trkpt lat="46.011852217108185" lon="12.024518212749712"><ele>999.0</ele><time>2026-04-18T14:11:51Z</time></trkpt><trkpt lat="46.01177222932792" lon="12.02448269727774"><ele>999.0</ele><time>2026-04-18T14:11:52Z</time></trkpt><trkpt lat="46.011696996558555" lon="12.024455317116153"><ele>999.0</ele><time>2026-04-18T14:11:53Z</time></trkpt><trkpt lat="46.011616116222044" lon="12.024429065055838"><ele>999.0</ele><time>2026-04-18T14:11:54Z</time></trkpt><trkpt lat="46.01151577205055" lon="12.024388031474226"><ele>1000.6666666666666</ele><time>2026-04-18T14:11:55Z</time></trkpt><trkpt lat="46.01144862994071" lon="12.024353389132477"><ele>1002.3333333333333</ele><time>2026-04-18T14:11:56Z</time></trkpt><trkpt lat="46.01136669546223" lon="12.024336367534591"><ele>1004.0</ele><time>2026-04-18T14:11:57Z</time></trkpt><trkpt lat="46.01126830224961" lon="12.024354648529995"><ele>1005.6666666666666</ele><time>2026-04-18T14:11:58Z</time></trkpt><trkpt lat="46.01117393476126" lon="12.024406260427037"><ele>1007.3333333333333</ele><time>2026-04-18T14:11:59Z</time></trkpt><trkpt lat="46.011088986697786" lon="12.02443277873934"><ele>1009.0</ele><time>2026-04-18T14:12:00Z</time></trkpt><trkpt lat="46.011026012884614" lon="12.024461232330772"><ele>1008.9999999999999</ele><time>2026-04-18T14:12:01Z</time></trkpt><trkpt lat="46.010953801177315" lon="12.024498575599148"><ele>1009.0</ele><time>2026-04-18T14:12:02Z</time></trkpt><trkpt lat="46.01088107384509" lon="12.024516991549605"><ele>1009.0</ele><time>2026-04-18T14:12:03Z</time></trkpt><trkpt lat="46.010794030392304" lon="12.02455312739949"><ele>1009.0</ele><time>2026-04-18T14:12:04Z</time></trkpt><trkpt lat="46.010699963928715" lon="12.024590620257891"><ele>1008.9999999999999</ele><time>2026-04-18T14:12:05Z</time></trkpt><trkpt lat="46.01059385190534" lon="12.024613831179192"><ele>1009.0</ele><time>2026-04-18T14:12:06Z</time></trkpt><trkpt lat="46.01049819465431" lon="12.024576971923146"><ele>1014.0</ele><time>2026-04-18T14:12:07Z</time></trkpt><trkpt lat="46.0104004374056" lon="12.024550441565028"><ele>1019.0000000000001</ele><time>2026-04-18T14:12:08Z</time></trkpt><trkpt lat="46.01030117213982" lon="12.024536872279556"><ele>1024.0</ele><time>2026-04-18T14:12:09Z</time></trkpt><trkpt lat="46.01020900474273" lon="12.024506608672056"><ele>1029.0</ele><time>2026-04-18T14:12:10Z</time></trkpt><trkpt lat="46.0101100792676" lon="12.024459354485861"><ele>1034.0</ele><time>2026-04-18T14:12:11Z</time></trkpt><trkpt lat="46.01001847874106" lon="12.024408965823367"><ele>1035.8333333333335</ele><time>2026-04-18T14:12:12Z</time></trkpt><trkpt lat="46.00992878326032" lon="12.024368662529659"><ele>1037.6666666666667</ele><time>2026-04-18T14:12:13Z</time></trkpt><trkpt lat="46.00984609550208" lon="12.024333382680004"><ele>1039.5</ele><time>2026-04-18T14:12:14Z</time></trkpt><trkpt lat="46.0097624891166" lon="12.024284833109746"><ele>1041.3333333333333</ele><time>2026-04-18T14:12:15Z</time></trkpt><trkpt lat="46.009680885400044" lon="12.024233495453934"><ele>1043.1666666666665</ele><time>2026-04-18T14:12:16Z</time></trkpt><trkpt lat="46.009595962028015" lon="12.024190823781753"><ele>1045.0</ele><time>2026-04-18T14:12:17Z</time></trkpt><trkpt lat="46.00951073006254" lon="12.02413757506172"><ele>1045.0</ele><time>2026-04-18T14:12:18Z</time></trkpt><trkpt lat="46.00943189677288" lon="12.024070621166903"><ele>1045.0</ele><time>2026-04-18T14:12:19Z</time></trkpt><trkpt lat="46.00936070464126" lon="12.023980281104134"><ele>1045.0</ele><time>2026-04-18T14:12:20Z</time></trkpt><trkpt lat="46.00928905979789" lon="12.023907125131194"><ele>1045.0</ele><time>2026-04-18T14:12:21Z</time></trkpt><trkpt lat="46.00922977082172" lon="12.023823731382693"><ele>1045.0</ele><time>2026-04-18T14:12:22Z</time></trkpt><trkpt lat="46.009167758033364" lon="12.023738850095445"><ele>1045.0</ele><time>2026-04-18T14:12:23Z</time></trkpt><trkpt lat="46.00910759050074" lon="12.023664622079899"><ele>1047.0</ele><time>2026-04-18T14:12:24Z</time></trkpt><trkpt lat="46.00904195796823" lon="12.023581158785209"><ele>1049.0</ele><time>2026-04-18T14:12:25Z</time></trkpt><trkpt lat="46.008972768620524" lon="12.023494112647485"><ele>1051.0</ele><time>2026-04-18T14:12:26Z</time></trkpt><trkpt lat="46.008904652270026" lon="12.023406308476485"><ele>1053.0</ele><time>2026-04-18T14:12:27Z</time></trkpt><trkpt lat="46.00884171018923" lon="12.023322447355328"><ele>1055.0</ele><time>2026-04-18T14:12:28Z</time></trkpt><trkpt lat="46.00877865010652" lon="12.023247268178272"><ele>1057.0</ele><time>2026-04-18T14:12:29Z</time></trkpt><trkpt lat="46.00872826143039" lon="12.023173176920363"><ele>1057.0</ele><time>2026-04-18T14:12:30Z</time></trkpt><trkpt lat="46.008670639233515" lon="12.02310632506296"><ele>1057.0</ele><time>2026-04-18T14:12:31Z</time></trkpt><trkpt lat="46.00861212236276" lon="12.023065679068829"><ele>1057.0</ele><time>2026-04-18T14:12:32Z</time></trkpt><trkpt lat="46.00853844144024" lon="12.023031319035764"><ele>1057.0</ele><time>2026-04-18T14:12:33Z</time></trkpt><trkpt lat="46.00845722656837" lon="12.023025016806967"><ele>1057.0</ele><time>2026-04-18T14:12:34Z</time></trkpt><trkpt lat="46.00837914277791" lon="12.02303130054722"><ele>1057.0</ele><time>2026-04-18T14:12:35Z</time></trkpt><trkpt lat="46.008290891800605" lon="12.023057554824852"><ele>1059.8</ele><time>2026-04-18T14:12:36Z</time></trkpt><trkpt lat="46.0081829751996" lon="12.023087196268136"><ele>1062.6</ele><time>2026-04-18T14:12:37Z</time></trkpt><trkpt lat="46.008089116394" lon="12.023107348281776"><ele>1065.3999999999999</ele><time>2026-04-18T14:12:38Z</time></trkpt><trkpt lat="46.008012395281405" lon="12.023113328827357"><ele>1068.2</ele><time>2026-04-18T14:12:39Z</time></trkpt><trkpt lat="46.00792683357903" lon="12.02311227934297"><ele>1071.0</ele><time>2026-04-18T14:12:40Z</time></trkpt><trkpt lat="46.00783867713127" lon="12.023077017344173"><ele>1071.0</ele><time>2026-04-18T14:12:41Z</time></trkpt><trkpt lat="46.00775320582551" lon="12.02303892727869"><ele>1071.0</ele><time>2026-04-18T14:12:42Z</time></trkpt><trkpt lat="46.007670740459155" lon="12.022996411514626"><ele>1071.0</ele><time>2026-04-18T14:12:43Z</time></trkpt><trkpt lat="46.00758858319217" lon="12.02292821027042"><ele>1071.0</ele><time>2026-04-18T14:12:44Z</time></trkpt><trkpt lat="46.00751376088851" lon="12.02286705133824"><ele>1071.0</ele><time>2026-04-18T14:12:45Z</time></trkpt><trkpt lat="46.007436780230556" lon="12.022788535894119"><ele>1073.1666666666667</ele><time>2026-04-18T14:12:46Z</time></trkpt><trkpt lat="46.007358755887545" lon="12.022717469334232"><ele>1075.3333333333333</ele><time>2026-04-18T14:12:47Z</time></trkpt><trkpt lat="46.007288122836314" lon="12.022638677024927"><ele>1077.5</ele><time>2026-04-18T14:12:48Z</time></trkpt><trkpt lat="46.00723289922938" lon="12.022569579460253"><ele>1079.6666666666665</ele><time>2026-04-18T14:12:49Z</time></trkpt><trkpt lat="46.007172889920184" lon="12.02249402035504"><ele>1081.8333333333333</ele><time>2026-04-18T14:12:50Z</time></trkpt><trkpt lat="46.0070993662913" lon="12.022430406003119"><ele>1084.0</ele><time>2026-04-18T14:12:51Z</time></trkpt><trkpt lat="46.007022904559264" lon="12.0223890751755"><ele>1085.6666666666665</ele><time>2026-04-18T14:12:52Z</time></trkpt><trkpt lat="46.00693574590816" lon="12.022352669944631"><ele>1087.3333333333333</ele><time>2026-04-18T14:12:53Z</time></trkpt><trkpt lat="46.006856080063976" lon="12.022314393918888"><ele>1089.0</ele><time>2026-04-18T14:12:54Z</time></trkpt><trkpt lat="46.006778788143976" lon="12.02228546359484"><ele>1090.6666666666667</ele><time>2026-04-18T14:12:55Z</time></trkpt><trkpt lat="46.006703372043155" lon="12.0222502950467"><ele>1092.3333333333335</ele><time>2026-04-18T14:12:56Z</time></trkpt><trkpt lat="46.0066282930369" lon="12.022215053307397"><ele>1094.0</ele><time>2026-04-18T14:12:57Z</time></trkpt><trkpt lat="46.00653924523194" lon="12.022180873157291"><ele>1096.1666666666667</ele><time>2026-04-18T14:12:58Z</time></trkpt><trkpt lat="46.00646185172465" lon="12.022151439967736"><ele>1098.3333333333335</ele><time>2026-04-18T14:12:59Z</time></trkpt><trkpt lat="46.006384634066045" lon="12.022119636002031"><ele>1100.5</ele><time>2026-04-18T14:13:00Z</time></trkpt><trkpt lat="46.006315431214894" lon="12.022079291817352"><ele>1102.6666666666667</ele><time>2026-04-18T14:13:01Z</time></trkpt><trkpt lat="46.00623808110289" lon="12.02204140049592"><ele>1104.8333333333333</ele><time>2026-04-18T14:13:02Z</time></trkpt><trkpt lat="46.00616733248732" lon="12.021995840461843"><ele>1107.0</ele><time>2026-04-18T14:13:03Z</time></trkpt><trkpt lat="46.00610228510298" lon="12.021939986472077"><ele>1107.0</ele><time>2026-04-18T14:13:04Z</time></trkpt><trkpt lat="46.00602798962524" lon="12.021889878800913"><ele>1107.0</ele><time>2026-04-18T14:13:05Z</time></trkpt><trkpt lat="46.00595111984401" lon="12.021829215476584"><ele>1107.0</ele><time>2026-04-18T14:13:06Z</time></trkpt><trkpt lat="46.00586632918641" lon="12.021742735311864"><ele>1107.0</ele><time>2026-04-18T14:13:07Z</time></trkpt><trkpt lat="46.00580303429838" lon="12.02166581686811"><ele>1107.0</ele><time>2026-04-18T14:13:08Z</time></trkpt><trkpt lat="46.00574773668875" lon="12.021604804376093"><ele>1107.0</ele><time>2026-04-18T14:13:09Z</time></trkpt><trkpt lat="46.00570775511011" lon="12.021522417889367"><ele>1109.6</ele><time>2026-04-18T14:13:10Z</time></trkpt><trkpt lat="46.005637713537126" lon="12.021460975196543"><ele>1112.2</ele><time>2026-04-18T14:13:11Z</time></trkpt><trkpt lat="46.00557737448946" lon="12.021413400961055"><ele>1114.8</ele><time>2026-04-18T14:13:12Z</time></trkpt><trkpt lat="46.005458839342865" lon="12.021367002152298"><ele>1117.4</ele><time>2026-04-18T14:13:13Z</time></trkpt><trkpt lat="46.00536045244239" lon="12.021320605501039"><ele>1120.0</ele><time>2026-04-18T14:13:14Z</time></trkpt><trkpt lat="46.00527257606255" lon="12.021267045300633"><ele>1120.0</ele><time>2026-04-18T14:13:15Z</time></trkpt><trkpt lat="46.00519386331773" lon="12.021207824030467"><ele>1120.0</ele><time>2026-04-18T14:13:16Z</time></trkpt><trkpt lat="46.00511955431292" lon="12.02113301252431"><ele>1120.0</ele><time>2026-04-18T14:13:17Z</time></trkpt><trkpt lat="46.00504341835179" lon="12.02107255300852"><ele>1120.0</ele><time>2026-04-18T14:13:18Z</time></trkpt><trkpt lat="46.00496475259315" lon="12.02101025837753"><ele>1120.0</ele><time>2026-04-18T14:13:19Z</time></trkpt><trkpt lat="46.00489064818671" lon="12.020969701199464"><ele>1120.0</ele><time>2026-04-18T14:13:20Z</time></trkpt><trkpt lat="46.00478597477046" lon="12.020960024251329"><ele>1119.8333333333333</ele><time>2026-04-18T14:13:21Z</time></trkpt><trkpt lat="46.00469918507001" lon="12.020948969446795"><ele>1119.6666666666665</ele><time>2026-04-18T14:13:22Z</time></trkpt><trkpt lat="46.004622046331974" lon="12.020939751757739"><ele>1119.5</ele><time>2026-04-18T14:13:23Z</time></trkpt><trkpt lat="46.0045521185863" lon="12.020935546904267"><ele>1119.3333333333333</ele><time>2026-04-18T14:13:24Z</time></trkpt><trkpt lat="46.00447619367914" lon="12.020909294776573"><ele>1119.1666666666667</ele><time>2026-04-18T14:13:25Z</time></trkpt><trkpt lat="46.004392843768706" lon="12.020869438598112"><ele>1119.0</ele><time>2026-04-18T14:13:26Z</time></trkpt><trkpt lat="46.00431244604913" lon="12.020814661424"><ele>1121.3333333333333</ele><time>2026-04-18T14:13:27Z</time></trkpt><trkpt lat="46.004239009159704" lon="12.020747705053077"><ele>1123.6666666666667</ele><time>2026-04-18T14:13:28Z</time></trkpt><trkpt lat="46.004176049451694" lon="12.020671449069756"><ele>1126.0</ele><time>2026-04-18T14:13:29Z</time></trkpt><trkpt lat="46.004105471443864" lon="12.020587381428514"><ele>1128.3333333333335</ele><time>2026-04-18T14:13:30Z</time></trkpt><trkpt lat="46.004035666247574" lon="12.02050167211512"><ele>1130.6666666666667</ele><time>2026-04-18T14:13:31Z</time></trkpt><trkpt lat="46.003968377331084" lon="12.020432495622666"><ele>1133.0</ele><time>2026-04-18T14:13:32Z</time></trkpt><trkpt lat="46.00391176166909" lon="12.020365924247171"><ele>1133.1666666666667</ele><time>2026-04-18T14:13:33Z</time></trkpt><trkpt lat="46.00385358238168" lon="12.020283535474292"><ele>1133.3333333333335</ele><time>2026-04-18T14:13:34Z</time></trkpt><trkpt lat="46.0037733538744" lon="12.02022853931605"><ele>1133.5</ele><time>2026-04-18T14:13:35Z</time></trkpt><trkpt lat="46.003707639079536" lon="12.020164686586101"><ele>1133.6666666666667</ele><time>2026-04-18T14:13:36Z</time></trkpt><trkpt lat="46.00363906081305" lon="12.020100242901238"><ele>1133.8333333333333</ele><time>2026-04-18T14:13:37Z</time></trkpt><trkpt lat="46.00357063682479" lon="12.020037022318977"><ele>1134.0</ele><time>2026-04-18T14:13:38Z</time></trkpt><trkpt lat="46.0035003491006" lon="12.019970004201692"><ele>1135.1666666666667</ele><time>2026-04-18T14:13:39Z</time></trkpt><trkpt lat="46.00342576723184" lon="12.019905638696951"><ele>1136.3333333333333</ele><time>2026-04-18T14:13:40Z</time></trkpt><trkpt lat="46.00334679463076" lon="12.019844565809784"><ele>1137.5</ele><time>2026-04-18T14:13:41Z</time></trkpt><trkpt lat="46.003270590288125" lon="12.019786210244499"><ele>1138.6666666666665</ele><time>2026-04-18T14:13:42Z</time></trkpt><trkpt lat="46.00319329937229" lon="12.019720311006598"><ele>1139.8333333333333</ele><time>2026-04-18T14:13:43Z</time></trkpt><trkpt lat="46.003110653614186" lon="12.019667273707563"><ele>1141.0</ele><time>2026-04-18T14:13:44Z</time></trkpt><trkpt lat="46.003029645851264" lon="12.019620468110537"><ele>1142.1666666666665</ele><time>2026-04-18T14:13:45Z</time></trkpt><trkpt lat="46.00295220279189" lon="12.019578260338966"><ele>1143.3333333333333</ele><time>2026-04-18T14:13:46Z</time></trkpt><trkpt lat="46.00287058226433" lon="12.019533567449518"><ele>1144.5</ele><time>2026-04-18T14:13:47Z</time></trkpt><trkpt lat="46.002796312521866" lon="12.019487715248601"><ele>1145.6666666666667</ele><time>2026-04-18T14:13:48Z</time></trkpt><trkpt lat="46.00272350860104" lon="12.019441620263143"><ele>1146.8333333333335</ele><time>2026-04-18T14:13:49Z</time></trkpt><trkpt lat="46.00264171118198" lon="12.019391540437763"><ele>1148.0</ele><time>2026-04-18T14:13:50Z</time></trkpt><trkpt lat="46.002567004972036" lon="12.019310339399603"><ele>1147.5</ele><time>2026-04-18T14:13:51Z</time></trkpt><trkpt lat="46.002482984260396" lon="12.019227477065616"><ele>1147.0</ele><time>2026-04-18T14:13:52Z</time></trkpt><trkpt lat="46.0024221384678" lon="12.019173226826299"><ele>1146.5</ele><time>2026-04-18T14:13:53Z</time></trkpt><trkpt lat="46.002356331814" lon="12.019110515395985"><ele>1146.0</ele><time>2026-04-18T14:13:54Z</time></trkpt><trkpt lat="46.002288167284604" lon="12.019043912641019"><ele>1145.5</ele><time>2026-04-18T14:13:55Z</time></trkpt><trkpt lat="46.00221879866854" lon="12.018967523662988"><ele>1145.0</ele><time>2026-04-18T14:13:56Z</time></trkpt><trkpt lat="46.00214788031927" lon="12.018893518658649"><ele>1148.8</ele><time>2026-04-18T14:13:57Z</time></trkpt><trkpt lat="46.00205672335845" lon="12.018799771551972"><ele>1152.6</ele><time>2026-04-18T14:13:58Z</time></trkpt><trkpt lat="46.00196436677608" lon="12.018692809898331"><ele>1156.4</ele><time>2026-04-18T14:13:59Z</time></trkpt><trkpt lat="46.001908963164986" lon="12.018647127508487"><ele>1160.2</ele><time>2026-04-18T14:14:00Z</time></trkpt><trkpt lat="46.001818766185636" lon="12.018591534260672"><ele>1164.0</ele><time>2026-04-18T14:14:01Z</time></trkpt><trkpt lat="46.001713128951586" lon="12.018542508816148"><ele>1164.4</ele><time>2026-04-18T14:14:02Z</time></trkpt><trkpt lat="46.001591920746606" lon="12.01848760149114"><ele>1164.8000000000002</ele><time>2026-04-18T14:14:03Z</time></trkpt><trkpt lat="46.00148611652044" lon="12.018439061115846"><ele>1165.1999999999998</ele><time>2026-04-18T14:14:04Z</time></trkpt><trkpt lat="46.00139741066724" lon="12.018401681550595"><ele>1165.6</ele><time>2026-04-18T14:14:05Z</time></trkpt><trkpt lat="46.00130398941125" lon="12.018365523237279"><ele>1166.0</ele><time>2026-04-18T14:14:06Z</time></trkpt><trkpt lat="46.00121719724573" lon="12.018329534011503"><ele>1167.5</ele><time>2026-04-18T14:14:07Z</time></trkpt><trkpt lat="46.00113408464704" lon="12.018301380852888"><ele>1169.0</ele><time>2026-04-18T14:14:08Z</time></trkpt><trkpt lat="46.00105733185374" lon="12.018268264536314"><ele>1170.5</ele><time>2026-04-18T14:14:09Z</time></trkpt><trkpt lat="46.000981672523984" lon="12.018238706315712"><ele>1172.0</ele><time>2026-04-18T14:14:10Z</time></trkpt><trkpt lat="46.00090493832581" lon="12.018209104817748"><ele>1173.5</ele><time>2026-04-18T14:14:11Z</time></trkpt><trkpt lat="46.00084418035265" lon="12.018147954737838"><ele>1175.0</ele><time>2026-04-18T14:14:12Z</time></trkpt><trkpt lat="46.00078848165957" lon="12.01808621184486"><ele>1175.0</ele><time>2026-04-18T14:14:13Z</time></trkpt><trkpt lat="46.00073556829188" lon="12.017998433934848"><ele>1175.0</ele><time>2026-04-18T14:14:14Z</time></trkpt><trkpt lat="46.00066787293553" lon="12.017903698170368"><ele>1175.0</ele><time>2026-04-18T14:14:15Z</time></trkpt><trkpt lat="46.00061759515303" lon="12.01784418406996"><ele>1175.0</ele><time>2026-04-18T14:14:16Z</time></trkpt><trkpt lat="46.000548243677756" lon="12.017761332012523"><ele>1175.0</ele><time>2026-04-18T14:14:18Z</time></trkpt><trkpt lat="46.00049638060331" lon="12.017678994197823"><ele>1175.0</ele><time>2026-04-18T14:14:21Z</time></trkpt><trkpt lat="46.000457238682706" lon="12.01756311835086"><ele>1174.8333333333335</ele><time>2026-04-18T14:14:24Z</time></trkpt><trkpt lat="46.000435472452985" lon="12.017461840502214"><ele>1174.6666666666667</ele><time>2026-04-18T14:14:26Z</time></trkpt><trkpt lat="46.000422476037954" lon="12.01732602340775"><ele>1174.5</ele><time>2026-04-18T14:14:28Z</time></trkpt><trkpt lat="46.00040575467599" lon="12.017186064894878"><ele>1174.3333333333333</ele><time>2026-04-18T14:14:30Z</time></trkpt><trkpt lat="46.000374927019315" lon="12.01704129532964"><ele>1174.1666666666665</ele><time>2026-04-18T14:14:32Z</time></trkpt><trkpt lat="46.00036007480205" lon="12.016932933487778"><ele>1174.0</ele><time>2026-04-18T14:14:34Z</time></trkpt><trkpt lat="46.00032533115235" lon="12.016814296482163"><ele>1174.0</ele><time>2026-04-18T14:14:36Z</time></trkpt><trkpt lat="46.00028109908113" lon="12.016709270406164"><ele>1174.0</ele><time>2026-04-18T14:14:38Z</time></trkpt><trkpt lat="46.00020062005448" lon="12.016645087124546"><ele>1174.0</ele><time>2026-04-18T14:14:40Z</time></trkpt><trkpt lat="46.00012489706617" lon="12.016555442365283"><ele>1174.0</ele><time>2026-04-18T14:14:42Z</time></trkpt><trkpt lat="46.000020218869345" lon="12.016498309331539"><ele>1174.0</ele><time>2026-04-18T14:14:43.999Z</time></trkpt><trkpt lat="45.999930084263106" lon="12.016476473126618"><ele>1169.4</ele><time>2026-04-18T14:14:45.999Z</time></trkpt><trkpt lat="45.99982273286914" lon="12.016432286036745"><ele>1164.8000000000002</ele><time>2026-04-18T14:14:47.999Z</time></trkpt><trkpt lat="45.999711689736706" lon="12.016392479736842"><ele>1160.1999999999998</ele><time>2026-04-18T14:14:49.999Z</time></trkpt><trkpt lat="45.99962940604838" lon="12.016350854329792"><ele>1155.6</ele><time>2026-04-18T14:14:51.999Z</time></trkpt><trkpt lat="45.99951334626311" lon="12.016326013702903"><ele>1151.0</ele><time>2026-04-18T14:14:53.999Z</time></trkpt><trkpt lat="45.99940423643703" lon="12.016285490610157"><ele>1151.0</ele><time>2026-04-18T14:14:55.999Z</time></trkpt><trkpt lat="45.999298373543645" lon="12.016303058996819"><ele>1151.0</ele><time>2026-04-18T14:14:57.999Z</time></trkpt><trkpt lat="45.99920512741448" lon="12.016291318746813"><ele>1151.0</ele><time>2026-04-18T14:14:59.999Z</time></trkpt><trkpt lat="45.999067402207594" lon="12.01638438636449"><ele>1151.0</ele><time>2026-04-18T14:15:02Z</time></trkpt><trkpt lat="45.998965880781654" lon="12.016425548937752"><ele>1152.0</ele><time>2026-04-18T14:15:04Z</time></trkpt><trkpt lat="45.99884300306714" lon="12.016459755025439"><ele>1153.0</ele><time>2026-04-18T14:15:06Z</time></trkpt><trkpt lat="45.99875263359322" lon="12.016381900731876"><ele>1154.0</ele><time>2026-04-18T14:15:08Z</time></trkpt><trkpt lat="45.998701660621386" lon="12.01630938572338"><ele>1155.0</ele><time>2026-04-18T14:15:09Z</time></trkpt><trkpt lat="45.998594405781795" lon="12.016198221460632"><ele>1156.0</ele><time>2026-04-18T14:15:11Z</time></trkpt><trkpt lat="45.99853794968129" lon="12.016145937589101"><ele>1156.0</ele><time>2026-04-18T14:15:12Z</time></trkpt><trkpt lat="45.99843135921714" lon="12.016064362138222"><ele>1156.0</ele><time>2026-04-18T14:15:14Z</time></trkpt><trkpt lat="45.99833265564478" lon="12.016008091105132"><ele>1156.0</ele><time>2026-04-18T14:15:16Z</time></trkpt><trkpt lat="45.99822175151634" lon="12.01597489141617"><ele>1156.0</ele><time>2026-04-18T14:15:18Z</time></trkpt><trkpt lat="45.99810605218401" lon="12.015952285470217"><ele>1155.857142857143</ele><time>2026-04-18T14:15:20Z</time></trkpt><trkpt lat="45.99803881315154" lon="12.015938778924811"><ele>1155.7142857142858</ele><time>2026-04-18T14:15:21Z</time></trkpt><trkpt lat="45.99796615659871" lon="12.015926221170298"><ele>1155.5714285714284</ele><time>2026-04-18T14:15:22Z</time></trkpt><trkpt lat="45.99788985054231" lon="12.015917872038512"><ele>1155.4285714285716</ele><time>2026-04-18T14:15:23Z</time></trkpt><trkpt lat="45.997806339608935" lon="12.01589755707685"><ele>1155.2857142857142</ele><time>2026-04-18T14:15:24Z</time></trkpt><trkpt lat="45.99773981678839" lon="12.01588913405318"><ele>1155.142857142857</ele><time>2026-04-18T14:15:25Z</time></trkpt><trkpt lat="45.99767833115781" lon="12.015868348242178"><ele>1155.0</ele><time>2026-04-18T14:15:26Z</time></trkpt><trkpt lat="45.997562113233926" lon="12.015841456571781"><ele>1153.8</ele><time>2026-04-18T14:15:28Z</time></trkpt><trkpt lat="45.99744719145716" lon="12.015804760782668"><ele>1152.6</ele><time>2026-04-18T14:15:30Z</time></trkpt><trkpt lat="45.997326488960965" lon="12.015763933082948"><ele>1151.4</ele><time>2026-04-18T14:15:32Z</time></trkpt><trkpt lat="45.997261554741804" lon="12.015723554569961"><ele>1150.2</ele><time>2026-04-18T14:15:33Z</time></trkpt><trkpt lat="45.997145700976" lon="12.01567614629412"><ele>1149.0</ele><time>2026-04-18T14:15:35Z</time></trkpt><trkpt lat="45.997080863486715" lon="12.015647901724252"><ele>1149.0</ele><time>2026-04-18T14:15:36Z</time></trkpt><trkpt lat="45.997009214940775" lon="12.01561216239794"><ele>1149.0</ele><time>2026-04-18T14:15:37Z</time></trkpt><trkpt lat="45.99694692707119" lon="12.015570786693065"><ele>1149.0</ele><time>2026-04-18T14:15:38Z</time></trkpt><trkpt lat="45.996841042464006" lon="12.015518353343653"><ele>1149.0</ele><time>2026-04-18T14:15:40Z</time></trkpt><trkpt lat="45.99673516251503" lon="12.015452880333537"><ele>1149.0</ele><time>2026-04-18T14:15:42Z</time></trkpt><trkpt lat="45.99662180189829" lon="12.015388473354177"><ele>1151.0</ele><time>2026-04-18T14:15:44Z</time></trkpt><trkpt lat="45.99655694414309" lon="12.015351559288476"><ele>1153.0</ele><time>2026-04-18T14:15:45Z</time></trkpt><trkpt lat="45.996498986922724" lon="12.01531425009581"><ele>1155.0</ele><time>2026-04-18T14:15:46Z</time></trkpt><trkpt lat="45.99639820637006" lon="12.015239925534289"><ele>1157.0</ele><time>2026-04-18T14:15:48Z</time></trkpt><trkpt lat="45.99628980407411" lon="12.015169547075562"><ele>1159.0</ele><time>2026-04-18T14:15:50Z</time></trkpt><trkpt lat="45.99619833882744" lon="12.015116551768203"><ele>1159.0</ele><time>2026-04-18T14:15:52Z</time></trkpt><trkpt lat="45.996101144012876" lon="12.01503801166015"><ele>1159.0</ele><time>2026-04-18T14:15:54Z</time></trkpt><trkpt lat="45.995990095606444" lon="12.014983783666256"><ele>1159.0</ele><time>2026-04-18T14:15:56Z</time></trkpt><trkpt lat="45.99586734547055" lon="12.014948547810116"><ele>1159.0</ele><time>2026-04-18T14:15:58Z</time></trkpt><trkpt lat="45.99580206860825" lon="12.014933797533788"><ele>1159.0</ele><time>2026-04-18T14:15:59Z</time></trkpt><trkpt lat="45.99568170144091" lon="12.014916334862034"><ele>1160.5</ele><time>2026-04-18T14:16:01Z</time></trkpt><trkpt lat="45.99561881203783" lon="12.014895787778052"><ele>1162.0</ele><time>2026-04-18T14:16:02Z</time></trkpt><trkpt lat="45.995501782988214" lon="12.014849895986684"><ele>1163.5</ele><time>2026-04-18T14:16:04Z</time></trkpt><trkpt lat="45.99543019436024" lon="12.014833762974655"><ele>1165.0</ele><time>2026-04-18T14:16:05Z</time></trkpt><trkpt lat="45.99536681498058" lon="12.014798771802868"><ele>1166.5</ele><time>2026-04-18T14:16:06Z</time></trkpt><trkpt lat="45.99530627640755" lon="12.014773134572405"><ele>1168.0</ele><time>2026-04-18T14:16:07Z</time></trkpt><trkpt lat="45.99524101931725" lon="12.01473788686451"><ele>1168.0</ele><time>2026-04-18T14:16:08Z</time></trkpt><trkpt lat="45.99517807203843" lon="12.01468994417875"><ele>1168.0</ele><time>2026-04-18T14:16:09Z</time></trkpt><trkpt lat="45.995065974230464" lon="12.014610863589743"><ele>1168.0</ele><time>2026-04-18T14:16:11Z</time></trkpt><trkpt lat="45.99500674630473" lon="12.014554729468232"><ele>1168.0</ele><time>2026-04-18T14:16:12Z</time></trkpt><trkpt lat="45.99494453546825" lon="12.014491829011767"><ele>1168.0</ele><time>2026-04-18T14:16:13Z</time></trkpt><trkpt lat="45.99485600478751" lon="12.01437293501321"><ele>1168.6666666666665</ele><time>2026-04-18T14:16:15Z</time></trkpt><trkpt lat="45.99474812288729" lon="12.014262457230394"><ele>1169.3333333333333</ele><time>2026-04-18T14:16:17Z</time></trkpt><trkpt lat="45.99467963795734" lon="12.01421793725926"><ele>1170.0</ele><time>2026-04-18T14:16:18Z</time></trkpt><trkpt lat="45.99463272203441" lon="12.01415330968353"><ele>1170.6666666666667</ele><time>2026-04-18T14:16:19Z</time></trkpt><trkpt lat="45.99456856573087" lon="12.014093788438867"><ele>1171.3333333333335</ele><time>2026-04-18T14:16:20Z</time></trkpt><trkpt lat="45.99450550790458" lon="12.014028058591013"><ele>1172.0</ele><time>2026-04-18T14:16:21Z</time></trkpt><trkpt lat="45.99444324013986" lon="12.01396434430056"><ele>1172.0</ele><time>2026-04-18T14:16:22Z</time></trkpt><trkpt lat="45.99439668733096" lon="12.013881103001765"><ele>1172.0</ele><time>2026-04-18T14:16:23Z</time></trkpt><trkpt lat="45.99433463821148" lon="12.013831178826681"><ele>1172.0</ele><time>2026-04-18T14:16:24Z</time></trkpt><trkpt lat="45.99428244670553" lon="12.013762607827571"><ele>1172.0</ele><time>2026-04-18T14:16:25Z</time></trkpt><trkpt lat="45.994224189949385" lon="12.013702869490688"><ele>1172.0</ele><time>2026-04-18T14:16:26Z</time></trkpt><trkpt lat="45.99413288138797" lon="12.013613226037023"><ele>1172.0</ele><time>2026-04-18T14:16:28Z</time></trkpt><trkpt lat="45.994038184210844" lon="12.01351823370835"><ele>1174.8</ele><time>2026-04-18T14:16:30Z</time></trkpt><trkpt lat="45.99393663450205" lon="12.0134489843223"><ele>1177.6</ele><time>2026-04-18T14:16:32Z</time></trkpt><trkpt lat="45.99382747798654" lon="12.013413776328505"><ele>1180.3999999999999</ele><time>2026-04-18T14:16:34Z</time></trkpt><trkpt lat="45.99376146684097" lon="12.013397444540486"><ele>1183.2</ele><time>2026-04-18T14:16:35Z</time></trkpt><trkpt lat="45.99364727065393" lon="12.01338899885308"><ele>1186.0</ele><time>2026-04-18T14:16:36.999Z</time></trkpt><trkpt lat="45.99353340817859" lon="12.013380297798337"><ele>1186.0</ele><time>2026-04-18T14:16:38.999Z</time></trkpt><trkpt lat="45.993415582424745" lon="12.013362906959298"><ele>1186.0</ele><time>2026-04-18T14:16:40.999Z</time></trkpt><trkpt lat="45.99334945054655" lon="12.013340054272943"><ele>1186.0</ele><time>2026-04-18T14:16:41.999Z</time></trkpt><trkpt lat="45.993284074674044" lon="12.013337523378693"><ele>1186.0</ele><time>2026-04-18T14:16:42.999Z</time></trkpt><trkpt lat="45.99316695142921" lon="12.013339548845803"><ele>1186.0</ele><time>2026-04-18T14:16:44.999Z</time></trkpt><trkpt lat="45.993102746979545" lon="12.0133428706123"><ele>1186.0</ele><time>2026-04-18T14:16:45.999Z</time></trkpt><trkpt lat="45.99299380620387" lon="12.013350682209271"><ele>1188.2</ele><time>2026-04-18T14:16:47.999Z</time></trkpt><trkpt lat="45.99290454723634" lon="12.013357656074605"><ele>1190.3999999999999</ele><time>2026-04-18T14:16:49.999Z</time></trkpt><trkpt lat="45.99283448596081" lon="12.013363130014785"><ele>1192.6</ele><time>2026-04-18T14:16:52.999Z</time></trkpt><trkpt lat="45.992722569103" lon="12.013375453565851"><ele>1194.8</ele><time>2026-04-18T14:17:50Z</time></trkpt><trkpt lat="45.992612681812275" lon="12.013390840506622"><ele>1197.0</ele><time>2026-04-18T14:17:52Z</time></trkpt><trkpt lat="45.99252404679927" lon="12.013400075611122"><ele>1198.6</ele><time>2026-04-18T14:17:53Z</time></trkpt><trkpt lat="45.99240466494193" lon="12.013398979072107"><ele>1200.2</ele><time>2026-04-18T14:17:55Z</time></trkpt><trkpt lat="45.99227983388109" lon="12.013392835549958"><ele>1201.8</ele><time>2026-04-18T14:17:57Z</time></trkpt><trkpt lat="45.99221566555476" lon="12.013412795940747"><ele>1203.4</ele><time>2026-04-18T14:17:58Z</time></trkpt><trkpt lat="45.99214799156043" lon="12.013412222996884"><ele>1205.0</ele><time>2026-04-18T14:17:59Z</time></trkpt><trkpt lat="45.99202620340269" lon="12.01343339375178"><ele>1205.0</ele><time>2026-04-18T14:18:01Z</time></trkpt><trkpt lat="45.99193049145353" lon="12.013463286694865"><ele>1205.0</ele><time>2026-04-18T14:18:03Z</time></trkpt><trkpt lat="45.99181858183269" lon="12.013495932431347"><ele>1205.0</ele><time>2026-04-18T14:18:05Z</time></trkpt><trkpt lat="45.99170289714888" lon="12.01352525990291"><ele>1205.0</ele><time>2026-04-18T14:18:07Z</time></trkpt><trkpt lat="45.991578445715476" lon="12.01353665582366"><ele>1206.1666666666667</ele><time>2026-04-18T14:18:09Z</time></trkpt><trkpt lat="45.99151154691244" lon="12.013535393002273"><ele>1207.3333333333335</ele><time>2026-04-18T14:18:10Z</time></trkpt><trkpt lat="45.99144067383928" lon="12.013523535369512"><ele>1208.5</ele><time>2026-04-18T14:18:11Z</time></trkpt><trkpt lat="45.991371178351784" lon="12.01352903502615"><ele>1209.6666666666667</ele><time>2026-04-18T14:18:12Z</time></trkpt><trkpt lat="45.99130722920145" lon="12.013536605405838"><ele>1210.8333333333333</ele><time>2026-04-18T14:18:13Z</time></trkpt><trkpt lat="45.99119431283851" lon="12.013502671664835"><ele>1212.0</ele><time>2026-04-18T14:18:15Z</time></trkpt><trkpt lat="45.99107503515" lon="12.013471045930382"><ele>1212.0</ele><time>2026-04-18T14:18:17Z</time></trkpt><trkpt lat="45.99100476550688" lon="12.013481323245534"><ele>1212.0</ele><time>2026-04-18T14:18:18Z</time></trkpt><trkpt lat="45.990936898945066" lon="12.013456556294415"><ele>1212.0</ele><time>2026-04-18T14:18:19Z</time></trkpt><trkpt lat="45.99087070675088" lon="12.013455640378904"><ele>1212.0</ele><time>2026-04-18T14:18:20Z</time></trkpt><trkpt lat="45.99074709311854" lon="12.013433110668812"><ele>1212.0</ele><time>2026-04-18T14:18:22Z</time></trkpt><trkpt lat="45.99068265901262" lon="12.01342859746847"><ele>1212.0</ele><time>2026-04-18T14:18:23Z</time></trkpt><trkpt lat="45.99061245743969" lon="12.013424249257383"><ele>1212.4285714285716</ele><time>2026-04-18T14:18:24Z</time></trkpt><trkpt lat="45.99054449447215" lon="12.01343995672856"><ele>1212.857142857143</ele><time>2026-04-18T14:18:25Z</time></trkpt><trkpt lat="45.99046873726334" lon="12.013427623082954"><ele>1213.2857142857142</ele><time>2026-04-18T14:18:26Z</time></trkpt><trkpt lat="45.99040305863753" lon="12.013419419339257"><ele>1213.7142857142858</ele><time>2026-04-18T14:18:27Z</time></trkpt><trkpt lat="45.990331623436106" lon="12.013393648460081"><ele>1214.142857142857</ele><time>2026-04-18T14:18:28Z</time></trkpt><trkpt lat="45.99025866531607" lon="12.013416393124812"><ele>1214.5714285714287</ele><time>2026-04-18T14:18:29Z</time></trkpt><trkpt lat="45.99018249576063" lon="12.013424461096188"><ele>1215.0</ele><time>2026-04-18T14:18:30Z</time></trkpt><trkpt lat="45.99010792128823" lon="12.013438048046233"><ele>1215.0</ele><time>2026-04-18T14:18:31Z</time></trkpt><trkpt lat="45.990036579803416" lon="12.013450937790745"><ele>1215.0</ele><time>2026-04-18T14:18:32Z</time></trkpt><trkpt lat="45.989964463692225" lon="12.013465636397457"><ele>1215.0</ele><time>2026-04-18T14:18:33Z</time></trkpt><trkpt lat="45.98989545807053" lon="12.013448295619447"><ele>1215.0</ele><time>2026-04-18T14:18:34Z</time></trkpt><trkpt lat="45.98982578650023" lon="12.013445785121597"><ele>1215.0</ele><time>2026-04-18T14:18:35Z</time></trkpt><trkpt lat="45.989693599807104" lon="12.013423373201938"><ele>1215.0</ele><time>2026-04-18T14:18:36.999Z</time></trkpt><trkpt lat="45.9896271360708" lon="12.013408955323374"><ele>1214.7142857142858</ele><time>2026-04-18T14:18:37.999Z</time></trkpt><trkpt lat="45.98955920529569" lon="12.01339421918214"><ele>1214.4285714285716</ele><time>2026-04-18T14:18:38.999Z</time></trkpt><trkpt lat="45.98949311755578" lon="12.013403847967908"><ele>1214.1428571428573</ele><time>2026-04-18T14:18:39.999Z</time></trkpt><trkpt lat="45.9894276231075" lon="12.013395683356473"><ele>1213.857142857143</ele><time>2026-04-18T14:18:40.999Z</time></trkpt><trkpt lat="45.98936633515598" lon="12.013362938213861"><ele>1213.5714285714284</ele><time>2026-04-18T14:18:41.999Z</time></trkpt><trkpt lat="45.989301029601165" lon="12.013353226820023"><ele>1213.2857142857144</ele><time>2026-04-18T14:18:42.999Z</time></trkpt><trkpt lat="45.989237379466374" lon="12.013343490374186"><ele>1213.0</ele><time>2026-04-18T14:18:43.999Z</time></trkpt><trkpt lat="45.98916914818203" lon="12.013332236365866"><ele>1209.0</ele><time>2026-04-18T14:18:44.999Z</time></trkpt><trkpt lat="45.989101678912604" lon="12.013320095116528"><ele>1205.0</ele><time>2026-04-18T14:18:45.999Z</time></trkpt><trkpt lat="45.9890360928879" lon="12.013308292722726"><ele>1201.0</ele><time>2026-04-18T14:18:46.999Z</time></trkpt><trkpt lat="45.988904659553114" lon="12.013295674205214"><ele>1197.0</ele><time>2026-04-18T14:18:48.999Z</time></trkpt><trkpt lat="45.98884161993507" lon="12.013299031781342"><ele>1193.0</ele><time>2026-04-18T14:18:49.999Z</time></trkpt><trkpt lat="45.988778396724264" lon="12.013293828220933"><ele>1189.0</ele><time>2026-04-18T14:18:50.999Z</time></trkpt><trkpt lat="45.9887082557622" lon="12.013261226921735"><ele>1189.0</ele><time>2026-04-18T14:18:51.999Z</time></trkpt><trkpt lat="45.98863398340879" lon="12.013255922370316"><ele>1189.0</ele><time>2026-04-18T14:18:52.999Z</time></trkpt><trkpt lat="45.98856590046681" lon="12.013217742463741"><ele>1189.0</ele><time>2026-04-18T14:18:53.999Z</time></trkpt><trkpt lat="45.988506396892774" lon="12.01314842209642"><ele>1189.0</ele><time>2026-04-18T14:18:54.999Z</time></trkpt><trkpt lat="45.98844052956665" lon="12.013095375273412"><ele>1189.0</ele><time>2026-04-18T14:18:55.999Z</time></trkpt><trkpt lat="45.988379540166136" lon="12.013056603609837"><ele>1189.0</ele><time>2026-04-18T14:18:56.999Z</time></trkpt><trkpt lat="45.98831736594713" lon="12.013026370137123"><ele>1189.0</ele><time>2026-04-18T14:18:57.999Z</time></trkpt><trkpt lat="45.988247655725736" lon="12.013034620964406"><ele>1189.6666666666665</ele><time>2026-04-18T14:18:58.999Z</time></trkpt><trkpt lat="45.98818787464167" lon="12.01300541911294"><ele>1190.3333333333333</ele><time>2026-04-18T14:18:59.999Z</time></trkpt><trkpt lat="45.98805982482666" lon="12.0130116990775"><ele>1191.0</ele><time>2026-04-18T14:19:01.999Z</time></trkpt><trkpt lat="45.987997321443494" lon="12.012984246972271"><ele>1191.6666666666667</ele><time>2026-04-18T14:19:02.999Z</time></trkpt><trkpt lat="45.98793055913218" lon="12.012976999491142"><ele>1192.3333333333335</ele><time>2026-04-18T14:19:03.999Z</time></trkpt><trkpt lat="45.98786209663361" lon="12.012962967820728"><ele>1193.0</ele><time>2026-04-18T14:19:04.999Z</time></trkpt><trkpt lat="45.98778977087379" lon="12.012967374942637"><ele>1193.0</ele><time>2026-04-18T14:19:05.999Z</time></trkpt><trkpt lat="45.987727693846246" lon="12.012926765420707"><ele>1193.0</ele><time>2026-04-18T14:19:06.999Z</time></trkpt><trkpt lat="45.98764905301463" lon="12.012921836646491"><ele>1193.0</ele><time>2026-04-18T14:19:07.999Z</time></trkpt><trkpt lat="45.987571553677746" lon="12.012889044523334"><ele>1193.0</ele><time>2026-04-18T14:19:08.999Z</time></trkpt><trkpt lat="45.987492686820616" lon="12.012863653069147"><ele>1193.0</ele><time>2026-04-18T14:19:09.999Z</time></trkpt><trkpt lat="45.98739765452576" lon="12.012829232956122"><ele>1193.0</ele><time>2026-04-18T14:19:10.999Z</time></trkpt><trkpt lat="45.98729678996631" lon="12.012791113358078"><ele>1193.8333333333335</ele><time>2026-04-18T14:19:12Z</time></trkpt><trkpt lat="45.987199944719166" lon="12.012734679209142"><ele>1194.6666666666667</ele><time>2026-04-18T14:19:13Z</time></trkpt><trkpt lat="45.987116426922285" lon="12.012724623346292"><ele>1195.5</ele><time>2026-04-18T14:19:14Z</time></trkpt><trkpt lat="45.98704937746102" lon="12.012669513933007"><ele>1196.3333333333333</ele><time>2026-04-18T14:19:15Z</time></trkpt><trkpt lat="45.9869812865085" lon="12.012659347105203"><ele>1197.1666666666665</ele><time>2026-04-18T14:19:16Z</time></trkpt><trkpt lat="45.986919139857285" lon="12.012618096378995"><ele>1198.0</ele><time>2026-04-18T14:19:17Z</time></trkpt><trkpt lat="45.98686588632621" lon="12.012552664013652"><ele>1198.0</ele><time>2026-04-18T14:19:18Z</time></trkpt><trkpt lat="45.986809845168814" lon="12.012495345917284"><ele>1198.0</ele><time>2026-04-18T14:19:19Z</time></trkpt><trkpt lat="45.986723537152976" lon="12.012408810383594"><ele>1198.0</ele><time>2026-04-18T14:19:20Z</time></trkpt><trkpt lat="45.98662109820798" lon="12.012325415872048"><ele>1198.0</ele><time>2026-04-18T14:19:22Z</time></trkpt><trkpt lat="45.986567972924426" lon="12.012256159013043"><ele>1198.0</ele><time>2026-04-18T14:19:23Z</time></trkpt><trkpt lat="45.986428195441206" lon="12.012192168341949"><ele>1197.0</ele><time>2026-04-18T14:19:25Z</time></trkpt><trkpt lat="45.98636406099002" lon="12.01215244452928"><ele>1196.0</ele><time>2026-04-18T14:19:26Z</time></trkpt><trkpt lat="45.98629290109688" lon="12.012094786366807"><ele>1195.0</ele><time>2026-04-18T14:19:27Z</time></trkpt><trkpt lat="45.986239479805405" lon="12.012029842021617"><ele>1194.0</ele><time>2026-04-18T14:19:28Z</time></trkpt><trkpt lat="45.98621455911679" lon="12.011930038867428"><ele>1193.0</ele><time>2026-04-18T14:19:29Z</time></trkpt><trkpt lat="45.9861601277004" lon="12.011864452524847"><ele>1192.0</ele><time>2026-04-18T14:19:30Z</time></trkpt><trkpt lat="45.98611060672993" lon="12.01180845426954"><ele>1191.0</ele><time>2026-04-18T14:19:31Z</time></trkpt><trkpt lat="45.98601263840046" lon="12.01172400951264"><ele>1190.3333333333333</ele><time>2026-04-18T14:19:33Z</time></trkpt><trkpt lat="45.98593558147862" lon="12.011601237385786"><ele>1189.6666666666667</ele><time>2026-04-18T14:19:35Z</time></trkpt><trkpt lat="45.98588060839958" lon="12.01155689114591"><ele>1189.0</ele><time>2026-04-18T14:19:36Z</time></trkpt><trkpt lat="45.985837456547046" lon="12.011486490347739"><ele>1188.3333333333335</ele><time>2026-04-18T14:19:37Z</time></trkpt><trkpt lat="45.98578827117846" lon="12.011429524880606"><ele>1187.6666666666667</ele><time>2026-04-18T14:19:38Z</time></trkpt><trkpt lat="45.985687130062104" lon="12.011364988779802"><ele>1187.0</ele><time>2026-04-18T14:19:40Z</time></trkpt><trkpt lat="45.98557743283584" lon="12.011314547759682"><ele>1187.0</ele><time>2026-04-18T14:19:42Z</time></trkpt><trkpt lat="45.98551422715737" lon="12.0112786296787"><ele>1187.0</ele><time>2026-04-18T14:19:43Z</time></trkpt><trkpt lat="45.98545022815669" lon="12.011236787089306"><ele>1187.0</ele><time>2026-04-18T14:19:44Z</time></trkpt><trkpt lat="45.98540146805502" lon="12.011165511546729"><ele>1187.0</ele><time>2026-04-18T14:19:45Z</time></trkpt><trkpt lat="45.98533390009101" lon="12.011131603930904"><ele>1187.0</ele><time>2026-04-18T14:19:46Z</time></trkpt><trkpt lat="45.985233395977254" lon="12.011067267836964"><ele>1187.0</ele><time>2026-04-18T14:19:48Z</time></trkpt><trkpt lat="45.9851246801888" lon="12.01105646445869"><ele>1185.8333333333335</ele><time>2026-04-18T14:19:50Z</time></trkpt><trkpt lat="45.98500448601511" lon="12.011032783557782"><ele>1184.6666666666667</ele><time>2026-04-18T14:19:52Z</time></trkpt><trkpt lat="45.98494206959378" lon="12.0110204716124"><ele>1183.5</ele><time>2026-04-18T14:19:53Z</time></trkpt><trkpt lat="45.98489161302068" lon="12.010958648184317"><ele>1182.3333333333333</ele><time>2026-04-18T14:19:54Z</time></trkpt><trkpt lat="45.98482922719725" lon="12.010913431599867"><ele>1181.1666666666665</ele><time>2026-04-18T14:19:55Z</time></trkpt><trkpt lat="45.984766281537304" lon="12.010865195973475"><ele>1180.0</ele><time>2026-04-18T14:19:56Z</time></trkpt><trkpt lat="45.984707692759656" lon="12.010815978835112"><ele>1180.0</ele><time>2026-04-18T14:19:57Z</time></trkpt><trkpt lat="45.98459846851823" lon="12.010732174253361"><ele>1180.0</ele><time>2026-04-18T14:19:59Z</time></trkpt><trkpt lat="45.98455347076021" lon="12.010663033646791"><ele>1180.0</ele><time>2026-04-18T14:20:00Z</time></trkpt><trkpt lat="45.984501422463715" lon="12.010606456773093"><ele>1180.0</ele><time>2026-04-18T14:20:01Z</time></trkpt><trkpt lat="45.98444798586331" lon="12.010551022611823"><ele>1180.0</ele><time>2026-04-18T14:20:02Z</time></trkpt><trkpt lat="45.9843505633347" lon="12.010484008317999"><ele>1180.0</ele><time>2026-04-18T14:20:04Z</time></trkpt><trkpt lat="45.98424712268997" lon="12.010435122949108"><ele>1183.8</ele><time>2026-04-18T14:20:06Z</time></trkpt><trkpt lat="45.9841144345353" lon="12.010416435219042"><ele>1187.6</ele><time>2026-04-18T14:20:08Z</time></trkpt><trkpt lat="45.98403817395517" lon="12.010406304898417"><ele>1191.4</ele><time>2026-04-18T14:20:09Z</time></trkpt><trkpt lat="45.98393923248775" lon="12.010375218601835"><ele>1195.2</ele><time>2026-04-18T14:20:11Z</time></trkpt><trkpt lat="45.9838504136512" lon="12.010326149296372"><ele>1199.0</ele><time>2026-04-18T14:20:13Z</time></trkpt><trkpt lat="45.98376981066671" lon="12.010274755836367"><ele>1199.0</ele><time>2026-04-18T14:20:15Z</time></trkpt><trkpt lat="45.983660744095886" lon="12.010298199858564"><ele>1199.0</ele><time>2026-04-18T14:20:17Z</time></trkpt><trkpt lat="45.9835901917791" lon="12.010438000631463"><ele>1199.0</ele><time>2026-04-18T14:20:19Z</time></trkpt><trkpt lat="45.98354298245193" lon="12.01060846317377"><ele>1199.0</ele><time>2026-04-18T14:20:21Z</time></trkpt><trkpt lat="45.983525554520355" lon="12.010712828484095"><ele>1199.0</ele><time>2026-04-18T14:20:22Z</time></trkpt><trkpt lat="45.98348135330602" lon="12.010792648076215"><ele>1200.5</ele><time>2026-04-18T14:20:22.999Z</time></trkpt><trkpt lat="45.98346466767237" lon="12.010888903169047"><ele>1202.0</ele><time>2026-04-18T14:20:23.999Z</time></trkpt><trkpt lat="45.98342299006008" lon="12.010957260831"><ele>1203.5</ele><time>2026-04-18T14:20:24.999Z</time></trkpt><trkpt lat="45.9833933935004" lon="12.011038486934723"><ele>1205.0</ele><time>2026-04-18T14:20:25.999Z</time></trkpt><trkpt lat="45.98337509009846" lon="12.011130722766254"><ele>1206.5</ele><time>2026-04-18T14:20:26.999Z</time></trkpt><trkpt lat="45.983323111352945" lon="12.011195063416393"><ele>1208.0</ele><time>2026-04-18T14:20:27.999Z</time></trkpt><trkpt lat="45.983226049790005" lon="12.011308899239557"><ele>1208.0</ele><time>2026-04-18T14:20:29.999Z</time></trkpt><trkpt lat="45.9831031613761" lon="12.01137084838659"><ele>1208.0</ele><time>2026-04-18T14:20:31.999Z</time></trkpt><trkpt lat="45.98298802890057" lon="12.01138796663405"><ele>1208.0</ele><time>2026-04-18T14:20:33.999Z</time></trkpt><trkpt lat="45.982881385916144" lon="12.011441074677634"><ele>1208.0</ele><time>2026-04-18T14:20:35.999Z</time></trkpt><trkpt lat="45.98282202945447" lon="12.011476831831969"><ele>1208.0</ele><time>2026-04-18T14:20:36.999Z</time></trkpt><trkpt lat="45.98276154736726" lon="12.011516762492942"><ele>1208.0</ele><time>2026-04-18T14:20:37.999Z</time></trkpt><trkpt lat="45.98267846285661" lon="12.011613840486099"><ele>1208.0</ele><time>2026-04-18T14:20:39.999Z</time></trkpt><trkpt lat="45.98261471679129" lon="12.011705637514376"><ele>1208.0</ele><time>2026-04-18T14:20:41.999Z</time></trkpt><trkpt lat="45.982583621640295" lon="12.011882380146357"><ele>1208.0</ele><time>2026-04-18T14:20:43.999Z</time></trkpt><trkpt lat="45.98256565713899" lon="12.011982030146637"><ele>1208.0</ele><time>2026-04-18T14:20:44.999Z</time></trkpt><trkpt lat="45.98252311431001" lon="12.012066469844898"><ele>1206.6666666666667</ele><time>2026-04-18T14:20:45.999Z</time></trkpt><trkpt lat="45.982493390090255" lon="12.0121494631983"><ele>1205.3333333333335</ele><time>2026-04-18T14:20:46.999Z</time></trkpt><trkpt lat="45.98246059552466" lon="12.012238132275414"><ele>1204.0</ele><time>2026-04-18T14:20:47.999Z</time></trkpt><trkpt lat="45.982420613756" lon="12.012325227722865"><ele>1202.6666666666667</ele><time>2026-04-18T14:20:48.999Z</time></trkpt><trkpt lat="45.98237728682667" lon="12.012407780630193"><ele>1201.3333333333333</ele><time>2026-04-18T14:20:49.999Z</time></trkpt><trkpt lat="45.982335169082425" lon="12.01247661734709"><ele>1200.0</ele><time>2026-04-18T14:20:50.999Z</time></trkpt><trkpt lat="45.98224052902428" lon="12.012588369946029"><ele>1203.8</ele><time>2026-04-18T14:20:52.999Z</time></trkpt><trkpt lat="45.9821137147418" lon="12.01265118168136"><ele>1207.6</ele><time>2026-04-18T14:20:54.999Z</time></trkpt><trkpt lat="45.98204600398391" lon="12.01269703368248"><ele>1211.4</ele><time>2026-04-18T14:20:55.999Z</time></trkpt><trkpt lat="45.98198113868313" lon="12.012746019653813"><ele>1215.2</ele><time>2026-04-18T14:20:56.999Z</time></trkpt><trkpt lat="45.98190945383553" lon="12.012836516109914"><ele>1219.0</ele><time>2026-04-18T14:20:57.999Z</time></trkpt><trkpt lat="45.98184254589636" lon="12.012916592825805"><ele>1219.0</ele><time>2026-04-18T14:20:58.999Z</time></trkpt><trkpt lat="45.98176588575889" lon="12.0129769127359"><ele>1219.0</ele><time>2026-04-18T14:20:59.999Z</time></trkpt><trkpt lat="45.98169696803739" lon="12.013046090899648"><ele>1219.0</ele><time>2026-04-18T14:21:00.999Z</time></trkpt><trkpt lat="45.98161877178159" lon="12.013122091813635"><ele>1219.0</ele><time>2026-04-18T14:21:01.999Z</time></trkpt><trkpt lat="45.98155166577209" lon="12.013177298227033"><ele>1219.0</ele><time>2026-04-18T14:21:02.999Z</time></trkpt><trkpt lat="45.981488898512296" lon="12.013225234599274"><ele>1219.0</ele><time>2026-04-18T14:21:03.999Z</time></trkpt><trkpt lat="45.98141377078824" lon="12.013275927017293"><ele>1217.1666666666665</ele><time>2026-04-18T14:21:04.999Z</time></trkpt><trkpt lat="45.98134668917857" lon="12.013321689390521"><ele>1215.3333333333333</ele><time>2026-04-18T14:21:05.999Z</time></trkpt><trkpt lat="45.981287242324434" lon="12.013389666468928"><ele>1213.5</ele><time>2026-04-18T14:21:06.999Z</time></trkpt><trkpt lat="45.981227984083965" lon="12.013428819196646"><ele>1211.6666666666667</ele><time>2026-04-18T14:21:07.999Z</time></trkpt><trkpt lat="45.98112749358822" lon="12.013499675975996"><ele>1209.8333333333335</ele><time>2026-04-18T14:21:09.999Z</time></trkpt><trkpt lat="45.981060067777776" lon="12.013400752336603"><ele>1208.0</ele><time>2026-04-18T14:21:10.999Z</time></trkpt><trkpt lat="45.981000852799596" lon="12.013369925970487"><ele>1208.0</ele><time>2026-04-18T14:21:11.999Z</time></trkpt><trkpt lat="45.98093818398541" lon="12.013345794996411"><ele>1208.0</ele><time>2026-04-18T14:21:12.999Z</time></trkpt><trkpt lat="45.980817251788714" lon="12.013315735960138"><ele>1208.0</ele><time>2026-04-18T14:21:14.999Z</time></trkpt><trkpt lat="45.98070416618677" lon="12.013315924874911"><ele>1208.0</ele><time>2026-04-18T14:21:16.999Z</time></trkpt><trkpt lat="45.9805904774439" lon="12.013340664827663"><ele>1208.0</ele><time>2026-04-18T14:21:19Z</time></trkpt><trkpt lat="45.98048587095991" lon="12.013354377009975"><ele>1207.8</ele><time>2026-04-18T14:21:21Z</time></trkpt><trkpt lat="45.98038330738635" lon="12.013359847295954"><ele>1207.6</ele><time>2026-04-18T14:21:23Z</time></trkpt><trkpt lat="45.98029991422922" lon="12.013394605546386"><ele>1207.4</ele><time>2026-04-18T14:21:25Z</time></trkpt><trkpt lat="45.98019772066156" lon="12.01347191901138"><ele>1207.2</ele><time>2026-04-18T14:21:27Z</time></trkpt><trkpt lat="45.980111000686726" lon="12.013576492108347"><ele>1207.0</ele><time>2026-04-18T14:21:29Z</time></trkpt><trkpt lat="45.98003217669577" lon="12.01368106633131"><ele>1206.0</ele><time>2026-04-18T14:21:31Z</time></trkpt><trkpt lat="45.97998176311557" lon="12.013796378383919"><ele>1205.0</ele><time>2026-04-18T14:21:33Z</time></trkpt><trkpt lat="45.979970906177435" lon="12.013932908342339"><ele>1204.0</ele><time>2026-04-18T14:21:35Z</time></trkpt><trkpt lat="45.979966758243854" lon="12.01411480745037"><ele>1203.0</ele><time>2026-04-18T14:21:37Z</time></trkpt><trkpt lat="45.9799323935984" lon="12.01420648646442"><ele>1202.0</ele><time>2026-04-18T14:21:38Z</time></trkpt><trkpt lat="45.97990936637246" lon="12.014383930155587"><ele>1204.6666666666667</ele><time>2026-04-18T14:21:40Z</time></trkpt><trkpt lat="45.979891133155405" lon="12.014478978616875"><ele>1207.3333333333335</ele><time>2026-04-18T14:21:41Z</time></trkpt><trkpt lat="45.979863528954674" lon="12.014585387413058"><ele>1210.0</ele><time>2026-04-18T14:21:42Z</time></trkpt><trkpt lat="45.97983037893128" lon="12.014666792624777"><ele>1212.6666666666667</ele><time>2026-04-18T14:21:43Z</time></trkpt><trkpt lat="45.97977957776967" lon="12.014813101445128"><ele>1215.3333333333333</ele><time>2026-04-18T14:21:45Z</time></trkpt><trkpt lat="45.97971206705297" lon="12.014935968764544"><ele>1218.0</ele><time>2026-04-18T14:21:47Z</time></trkpt><trkpt lat="45.97962192266472" lon="12.015006227504145"><ele>1218.2</ele><time>2026-04-18T14:21:49Z</time></trkpt><trkpt lat="45.97953367339842" lon="12.015055384860236"><ele>1218.4</ele><time>2026-04-18T14:21:51Z</time></trkpt><trkpt lat="45.97941722973257" lon="12.0151346898762"><ele>1218.6000000000001</ele><time>2026-04-18T14:21:53Z</time></trkpt><trkpt lat="45.97935881447295" lon="12.015175164531176"><ele>1218.8</ele><time>2026-04-18T14:21:54Z</time></trkpt><trkpt lat="45.979291172383114" lon="12.015218667320354"><ele>1219.0</ele><time>2026-04-18T14:21:55Z</time></trkpt><trkpt lat="45.97920729035233" lon="12.015263002424373"><ele>1221.4</ele><time>2026-04-18T14:21:56Z</time></trkpt><trkpt lat="45.97907391962804" lon="12.015311259573899"><ele>1223.8000000000002</ele><time>2026-04-18T14:21:58Z</time></trkpt><trkpt lat="45.9789977832259" lon="12.015334733510612"><ele>1226.1999999999998</ele><time>2026-04-18T14:21:59Z</time></trkpt><trkpt lat="45.978912703341955" lon="12.015360432408235"><ele>1228.6</ele><time>2026-04-18T14:22:00Z</time></trkpt><trkpt lat="45.97880868477121" lon="12.015384994952159"><ele>1231.0</ele><time>2026-04-18T14:22:01Z</time></trkpt><trkpt lat="45.97868749696808" lon="12.015409669716357"><ele>1231.0</ele><time>2026-04-18T14:22:02Z</time></trkpt><trkpt lat="45.978588210445935" lon="12.015455684450705"><ele>1231.0</ele><time>2026-04-18T14:22:03Z</time></trkpt><trkpt lat="45.97850224201769" lon="12.015497126158902"><ele>1231.0</ele><time>2026-04-18T14:22:04Z</time></trkpt><trkpt lat="45.97838740328032" lon="12.015565945746756"><ele>1231.0</ele><time>2026-04-18T14:22:05Z</time></trkpt><trkpt lat="45.97828346165104" lon="12.01562703032082"><ele>1231.0</ele><time>2026-04-18T14:22:06Z</time></trkpt><trkpt lat="45.978190947879035" lon="12.015667443227217"><ele>1231.2</ele><time>2026-04-18T14:22:07Z</time></trkpt><trkpt lat="45.97808629989956" lon="12.015718418013206"><ele>1231.3999999999999</ele><time>2026-04-18T14:22:08Z</time></trkpt><trkpt lat="45.97798110256595" lon="12.01577562911085"><ele>1231.6</ele><time>2026-04-18T14:22:09Z</time></trkpt><trkpt lat="45.977891588173975" lon="12.01578429101365"><ele>1231.8</ele><time>2026-04-18T14:22:10Z</time></trkpt><trkpt lat="45.9778121668704" lon="12.015817268661676"><ele>1232.0</ele><time>2026-04-18T14:22:11Z</time></trkpt><trkpt lat="45.97772979362054" lon="12.015821926361626"><ele>1232.0</ele><time>2026-04-18T14:22:12Z</time></trkpt><trkpt lat="45.977649258098936" lon="12.01581831992754"><ele>1232.0</ele><time>2026-04-18T14:22:13Z</time></trkpt><trkpt lat="45.97756649426292" lon="12.015823341627405"><ele>1232.0</ele><time>2026-04-18T14:22:14Z</time></trkpt><trkpt lat="45.97749092364822" lon="12.015868999453037"><ele>1232.0</ele><time>2026-04-18T14:22:15Z</time></trkpt><trkpt lat="45.977423522940065" lon="12.015953997736265"><ele>1232.0</ele><time>2026-04-18T14:22:16Z</time></trkpt><trkpt lat="45.97735395630063" lon="12.016036292149469"><ele>1232.0</ele><time>2026-04-18T14:22:17Z</time></trkpt><trkpt lat="45.977295234038785" lon="12.016092750208024"><ele>1234.8333333333335</ele><time>2026-04-18T14:22:18Z</time></trkpt><trkpt lat="45.977210194995315" lon="12.016141412944062"><ele>1237.6666666666667</ele><time>2026-04-18T14:22:20Z</time></trkpt><trkpt lat="45.97716259545605" lon="12.016071765069356"><ele>1240.5</ele><time>2026-04-18T14:22:22Z</time></trkpt><trkpt lat="45.97719077148608" lon="12.015905550495978"><ele>1243.3333333333333</ele><time>2026-04-18T14:22:24Z</time></trkpt><trkpt lat="45.97715626308323" lon="12.015783397416241"><ele>1246.1666666666665</ele><time>2026-04-18T14:22:25Z</time></trkpt><trkpt lat="45.9771053437104" lon="12.015709816862204"><ele>1249.0</ele><time>2026-04-18T14:22:26Z</time></trkpt><trkpt lat="45.97707014607197" lon="12.015600975677705"><ele>1248.4</ele><time>2026-04-18T14:22:27Z</time></trkpt><trkpt lat="45.97707410265445" lon="12.015485577412402"><ele>1247.8000000000002</ele><time>2026-04-18T14:22:28Z</time></trkpt><trkpt lat="45.97705657106933" lon="12.015374356155318"><ele>1247.1999999999998</ele><time>2026-04-18T14:22:29Z</time></trkpt><trkpt lat="45.977015803555716" lon="12.015220435101721"><ele>1246.6</ele><time>2026-04-18T14:22:30Z</time></trkpt><trkpt lat="45.9769694266074" lon="12.015087229433194"><ele>1246.0</ele><time>2026-04-18T14:22:31Z</time></trkpt><trkpt lat="45.97690992632379" lon="12.01493512811457"><ele>1246.0</ele><time>2026-04-18T14:22:32Z</time></trkpt><trkpt lat="45.9768593464378" lon="12.014819369718357"><ele>1246.0</ele><time>2026-04-18T14:22:33Z</time></trkpt><trkpt lat="45.9767914141602" lon="12.014684791313536"><ele>1246.0</ele><time>2026-04-18T14:22:34Z</time></trkpt><trkpt lat="45.97671769042342" lon="12.014559966302183"><ele>1246.0</ele><time>2026-04-18T14:22:35Z</time></trkpt><trkpt lat="45.97663934041509" lon="12.014427752863833"><ele>1246.0</ele><time>2026-04-18T14:22:37Z</time></trkpt><trkpt lat="45.9766100726044" lon="12.014332618762113"><ele>1247.3333333333333</ele><time>2026-04-18T14:22:38Z</time></trkpt><trkpt lat="45.9765722370683" lon="12.014256383029903"><ele>1248.6666666666665</ele><time>2026-04-18T14:22:38.999Z</time></trkpt><trkpt lat="45.97650430476151" lon="12.01416390302558"><ele>1250.0</ele><time>2026-04-18T14:22:40.999Z</time></trkpt><trkpt lat="45.97644263237348" lon="12.014088916173797"><ele>1251.3333333333333</ele><time>2026-04-18T14:22:42.999Z</time></trkpt><trkpt lat="45.976401214790485" lon="12.01416567262155"><ele>1252.6666666666667</ele><time>2026-04-18T14:22:43.999Z</time></trkpt><trkpt lat="45.976423876956616" lon="12.014334042371345"><ele>1254.0</ele><time>2026-04-18T14:22:45.999Z</time></trkpt><trkpt lat="45.97642462075424" lon="12.014438831387384"><ele>1257.3333333333333</ele><time>2026-04-18T14:22:46.999Z</time></trkpt><trkpt lat="45.97642681367391" lon="12.014543399615583"><ele>1260.6666666666667</ele><time>2026-04-18T14:22:47.999Z</time></trkpt><trkpt lat="45.97640920963939" lon="12.01464061136318"><ele>1264.0</ele><time>2026-04-18T14:22:48.999Z</time></trkpt><trkpt lat="45.97638611509205" lon="12.014755385772123"><ele>1267.3333333333335</ele><time>2026-04-18T14:22:49.999Z</time></trkpt><trkpt lat="45.97637209706303" lon="12.014878901378363"><ele>1270.6666666666667</ele><time>2026-04-18T14:22:50.999Z</time></trkpt><trkpt lat="45.97633272704108" lon="12.014990180041522"><ele>1274.0</ele><time>2026-04-18T14:22:51.999Z</time></trkpt><trkpt lat="45.976296103768334" lon="12.015085407529591"><ele>1275.2857142857142</ele><time>2026-04-18T14:22:52.999Z</time></trkpt><trkpt lat="45.97623955922196" lon="12.015151214182138"><ele>1276.5714285714284</ele><time>2026-04-18T14:22:53.999Z</time></trkpt><trkpt lat="45.97619308736651" lon="12.01522366420255"><ele>1277.857142857143</ele><time>2026-04-18T14:22:54.999Z</time></trkpt><trkpt lat="45.97613558198838" lon="12.015284324098921"><ele>1279.142857142857</ele><time>2026-04-18T14:22:55.999Z</time></trkpt><trkpt lat="45.9760866375751" lon="12.015347370805998"><ele>1280.4285714285713</ele><time>2026-04-18T14:22:56.999Z</time></trkpt><trkpt lat="45.976057310720414" lon="12.015443349810418"><ele>1281.7142857142858</ele><time>2026-04-18T14:22:57.999Z</time></trkpt><trkpt lat="45.976018673618675" lon="12.015531779865057"><ele>1283.0</ele><time>2026-04-18T14:22:58.999Z</time></trkpt><trkpt lat="45.97596412721276" lon="12.01565245471574"><ele>1283.0</ele><time>2026-04-18T14:23:00.999Z</time></trkpt><trkpt lat="45.97587331292607" lon="12.015687711864164"><ele>1283.0</ele><time>2026-04-18T14:23:02.999Z</time></trkpt><trkpt lat="45.97577788000466" lon="12.015773956754948"><ele>1283.0</ele><time>2026-04-18T14:23:04.999Z</time></trkpt><trkpt lat="45.9756785417893" lon="12.015836531008077"><ele>1283.0</ele><time>2026-04-18T14:23:06.999Z</time></trkpt><trkpt lat="45.97561074053427" lon="12.015885401880862"><ele>1283.0</ele><time>2026-04-18T14:23:08.999Z</time></trkpt><trkpt lat="45.975519165943744" lon="12.015928368065504"><ele>1286.142857142857</ele><time>2026-04-18T14:23:10.999Z</time></trkpt><trkpt lat="45.97545403677838" lon="12.015998885523889"><ele>1289.2857142857142</ele><time>2026-04-18T14:23:12.999Z</time></trkpt><trkpt lat="45.97537796570455" lon="12.016041116398238"><ele>1292.4285714285713</ele><time>2026-04-18T14:23:15.999Z</time></trkpt><trkpt lat="45.97536445806785" lon="12.016156534331719"><ele>1295.5714285714284</ele><time>2026-04-18T14:26:27.999Z</time></trkpt><trkpt lat="45.97530284915308" lon="12.016108165901732"><ele>1298.7142857142858</ele><time>2026-04-18T14:27:03.999Z</time></trkpt><trkpt lat="45.97536263058953" lon="12.01615245376943"><ele>1301.8571428571427</ele><time>2026-04-18T14:27:57.996Z</time></trkpt><trkpt lat="45.97540061487813" lon="12.016072102259171"><ele>1305.0</ele><time>2026-04-18T14:46:34Z</time></trkpt><trkpt lat="45.97552539816314" lon="12.015965089336285"><ele>1305.0</ele><time>2026-04-18T14:46:36Z</time></trkpt><trkpt lat="45.97562057269222" lon="12.015905226312606"><ele>1305.0</ele><time>2026-04-18T14:46:37Z</time></trkpt><trkpt lat="45.97570077274384" lon="12.015850038553303"><ele>1305.0</ele><time>2026-04-18T14:46:38Z</time></trkpt><trkpt lat="45.97578868513327" lon="12.015793601551653"><ele>1305.0</ele><time>2026-04-18T14:46:39Z</time></trkpt><trkpt lat="45.97585832260232" lon="12.015743333599382"><ele>1305.0</ele><time>2026-04-18T14:46:40Z</time></trkpt><trkpt lat="45.975943451263284" lon="12.01568130918282"><ele>1301.3333333333333</ele><time>2026-04-18T14:46:42Z</time></trkpt><trkpt lat="45.97599952022753" lon="12.015612549411443"><ele>1297.6666666666667</ele><time>2026-04-18T14:46:44Z</time></trkpt><trkpt lat="45.97603753363167" lon="12.015538637538262"><ele>1294.0</ele><time>2026-04-18T14:46:45Z</time></trkpt><trkpt lat="45.976100347692444" lon="12.015392230998554"><ele>1290.3333333333335</ele><time>2026-04-18T14:46:47Z</time></trkpt><trkpt lat="45.97614414493306" lon="12.015318763059398"><ele>1286.6666666666667</ele><time>2026-04-18T14:46:48Z</time></trkpt><trkpt lat="45.976199345061595" lon="12.015246681413863"><ele>1283.0</ele><time>2026-04-18T14:46:49Z</time></trkpt><trkpt lat="45.976246523063544" lon="12.015185474043157"><ele>1283.0</ele><time>2026-04-18T14:46:50Z</time></trkpt><trkpt lat="45.976326087206026" lon="12.015044170865467"><ele>1283.0</ele><time>2026-04-18T14:46:52Z</time></trkpt><trkpt lat="45.97635342000677" lon="12.014954813376745"><ele>1283.0</ele><time>2026-04-18T14:46:53Z</time></trkpt><trkpt lat="45.97638025020853" lon="12.014868874728958"><ele>1283.0</ele><time>2026-04-18T14:46:54Z</time></trkpt><trkpt lat="45.976419771036916" lon="12.014722990637223"><ele>1283.0</ele><time>2026-04-18T14:46:56Z</time></trkpt><trkpt lat="45.976441371736314" lon="12.014562497924441"><ele>1281.2</ele><time>2026-04-18T14:46:58Z</time></trkpt><trkpt lat="45.976442869630894" lon="12.014440767024183"><ele>1279.4</ele><time>2026-04-18T14:47:00Z</time></trkpt><trkpt lat="45.9764493165029" lon="12.014317746718648"><ele>1277.6000000000001</ele><time>2026-04-18T14:47:02Z</time></trkpt><trkpt lat="45.97644116319664" lon="12.014205104936748"><ele>1275.8000000000002</ele><time>2026-04-18T14:47:04Z</time></trkpt><trkpt lat="45.97655383497633" lon="12.01427814811851"><ele>1274.0</ele><time>2026-04-18T14:47:09Z</time></trkpt><trkpt lat="45.97660763123747" lon="12.014392214521386"><ele>1274.0</ele><time>2026-04-18T14:47:10Z</time></trkpt><trkpt lat="45.97665878950585" lon="12.01447143704892"><ele>1274.0</ele><time>2026-04-18T14:47:11Z</time></trkpt><trkpt lat="45.97669900902401" lon="12.01455932803017"><ele>1274.0</ele><time>2026-04-18T14:47:12Z</time></trkpt><trkpt lat="45.976751950669566" lon="12.014659131078444"><ele>1274.0</ele><time>2026-04-18T14:47:13Z</time></trkpt><trkpt lat="45.976786497857724" lon="12.01475529170994"><ele>1274.0</ele><time>2026-04-18T14:47:14Z</time></trkpt><trkpt lat="45.976835956810476" lon="12.014819611933193"><ele>1274.0</ele><time>2026-04-18T14:47:15Z</time></trkpt><trkpt lat="45.97687135014139" lon="12.014897248951337"><ele>1274.0</ele><time>2026-04-18T14:47:16Z</time></trkpt><trkpt lat="45.9769056882893" lon="12.0149956693647"><ele>1271.2</ele><time>2026-04-18T14:47:17Z</time></trkpt><trkpt lat="45.97694561504444" lon="12.015082090383805"><ele>1268.4</ele><time>2026-04-18T14:47:18Z</time></trkpt><trkpt lat="45.976962432863054" lon="12.015171388914522"><ele>1265.6</ele><time>2026-04-18T14:47:19Z</time></trkpt><trkpt lat="45.977023836101104" lon="12.015310332145022"><ele>1262.8</ele><time>2026-04-18T14:47:21Z</time></trkpt><trkpt lat="45.977036323528715" lon="12.015462372964716"><ele>1260.0</ele><time>2026-04-18T14:47:23Z</time></trkpt><trkpt lat="45.97704828257837" lon="12.015619524538986"><ele>1260.0</ele><time>2026-04-18T14:47:25Z</time></trkpt><trkpt lat="45.977111949042914" lon="12.015775566150719"><ele>1260.0</ele><time>2026-04-18T14:47:27Z</time></trkpt><trkpt lat="45.977152087072454" lon="12.015846073573417"><ele>1260.0</ele><time>2026-04-18T14:47:28Z</time></trkpt><trkpt lat="45.977184657670584" lon="12.015981866517475"><ele>1260.0</ele><time>2026-04-18T14:47:30Z</time></trkpt><trkpt lat="45.9771729401108" lon="12.016121887408644"><ele>1260.0</ele><time>2026-04-18T14:47:32Z</time></trkpt><trkpt lat="45.97722936481995" lon="12.016169818634026"><ele>1257.8</ele><time>2026-04-18T14:47:34Z</time></trkpt><trkpt lat="45.97733512488073" lon="12.016073977684652"><ele>1255.6</ele><time>2026-04-18T14:47:35.999Z</time></trkpt><trkpt lat="45.97740943281324" lon="12.01600200717217"><ele>1253.4</ele><time>2026-04-18T14:47:36.999Z</time></trkpt><trkpt lat="45.97746503445767" lon="12.015949847294083"><ele>1251.2</ele><time>2026-04-18T14:47:37.999Z</time></trkpt><trkpt lat="45.97752020642797" lon="12.015898416714723"><ele>1249.0</ele><time>2026-04-18T14:47:38.999Z</time></trkpt><trkpt lat="45.97763573739159" lon="12.01582987538812"><ele>1246.1666666666665</ele><time>2026-04-18T14:47:40.999Z</time></trkpt><trkpt lat="45.97771352718648" lon="12.015825841526855"><ele>1243.3333333333333</ele><time>2026-04-18T14:47:41.999Z</time></trkpt><trkpt lat="45.977793938307485" lon="12.015833672109606"><ele>1240.5</ele><time>2026-04-18T14:47:42.999Z</time></trkpt><trkpt lat="45.977874018044886" lon="12.01582492899387"><ele>1237.6666666666667</ele><time>2026-04-18T14:47:43.999Z</time></trkpt><trkpt lat="45.97796741260258" lon="12.015796889688888"><ele>1234.8333333333335</ele><time>2026-04-18T14:47:44.999Z</time></trkpt><trkpt lat="45.97806942336419" lon="12.01575288180637"><ele>1232.0</ele><time>2026-04-18T14:47:45.999Z</time></trkpt><trkpt lat="45.97817542949384" lon="12.015691443538076"><ele>1231.8</ele><time>2026-04-18T14:47:46.999Z</time></trkpt><trkpt lat="45.97826776200362" lon="12.01564152198291"><ele>1231.6</ele><time>2026-04-18T14:47:47.999Z</time></trkpt><trkpt lat="45.978358301847535" lon="12.015604119781113"><ele>1231.3999999999999</ele><time>2026-04-18T14:47:48.999Z</time></trkpt><trkpt lat="45.9784452899885" lon="12.015558299168188"><ele>1231.2</ele><time>2026-04-18T14:47:49.999Z</time></trkpt><trkpt lat="45.978530642844206" lon="12.015514518320916"><ele>1231.0</ele><time>2026-04-18T14:47:50.999Z</time></trkpt><trkpt lat="45.97861589762235" lon="12.015477078346743"><ele>1231.0</ele><time>2026-04-18T14:47:51.999Z</time></trkpt><trkpt lat="45.97871684760735" lon="12.015452650287477"><ele>1231.0</ele><time>2026-04-18T14:47:52.999Z</time></trkpt><trkpt lat="45.97882885600977" lon="12.015437485925855"><ele>1231.0</ele><time>2026-04-18T14:47:53.999Z</time></trkpt><trkpt lat="45.97892685611601" lon="12.015387432291094"><ele>1231.0</ele><time>2026-04-18T14:47:54.999Z</time></trkpt><trkpt lat="45.979037657241605" lon="12.015355776520277"><ele>1231.0</ele><time>2026-04-18T14:47:55.999Z</time></trkpt><trkpt lat="45.97914153453089" lon="12.015322504332195"><ele>1229.0</ele><time>2026-04-18T14:47:56.999Z</time></trkpt><trkpt lat="45.979232692552785" lon="12.015298262649898"><ele>1227.0</ele><time>2026-04-18T14:47:57.999Z</time></trkpt><trkpt lat="45.97930216917088" lon="12.01524740357449"><ele>1225.0</ele><time>2026-04-18T14:47:58.999Z</time></trkpt><trkpt lat="45.97937178540252" lon="12.01520015071968"><ele>1223.0</ele><time>2026-04-18T14:47:59.999Z</time></trkpt><trkpt lat="45.979438207375956" lon="12.015151587289665"><ele>1221.0</ele><time>2026-04-18T14:48:00.999Z</time></trkpt><trkpt lat="45.979530988184266" lon="12.015087147634654"><ele>1219.0</ele><time>2026-04-18T14:48:02.999Z</time></trkpt><trkpt lat="45.979626613839905" lon="12.015054629908132"><ele>1219.0</ele><time>2026-04-18T14:48:04.999Z</time></trkpt><trkpt lat="45.97968234297908" lon="12.015012275603949"><ele>1219.0</ele><time>2026-04-18T14:48:05.999Z</time></trkpt><trkpt lat="45.97974559251391" lon="12.01495488629723"><ele>1219.0</ele><time>2026-04-18T14:48:06.999Z</time></trkpt><trkpt lat="45.979789999147044" lon="12.014885031004454"><ele>1219.0</ele><time>2026-04-18T14:48:07.999Z</time></trkpt><trkpt lat="45.97982168705621" lon="12.014805236810933"><ele>1219.0</ele><time>2026-04-18T14:48:08.999Z</time></trkpt><trkpt lat="45.97984932195787" lon="12.014720851077328"><ele>1219.0</ele><time>2026-04-18T14:48:09.999Z</time></trkpt><trkpt lat="45.979884785981106" lon="12.014563577539045"><ele>1219.0</ele><time>2026-04-18T14:48:11.999Z</time></trkpt><trkpt lat="45.979912223001186" lon="12.01447914237495"><ele>1218.8</ele><time>2026-04-18T14:48:12.999Z</time></trkpt><trkpt lat="45.97991774124676" lon="12.014383585754596"><ele>1218.6000000000001</ele><time>2026-04-18T14:48:13.999Z</time></trkpt><trkpt lat="45.97994173386025" lon="12.01428096036251"><ele>1218.4</ele><time>2026-04-18T14:48:14.999Z</time></trkpt><trkpt lat="45.97998125061498" lon="12.014133828422027"><ele>1218.2</ele><time>2026-04-18T14:48:16.999Z</time></trkpt><trkpt lat="45.9799870722241" lon="12.01397537005751"><ele>1218.0</ele><time>2026-04-18T14:48:18.999Z</time></trkpt><trkpt lat="45.979990526424665" lon="12.0138344897073"><ele>1215.8</ele><time>2026-04-18T14:48:20.999Z</time></trkpt><trkpt lat="45.98005509850694" lon="12.01370873363574"><ele>1213.6</ele><time>2026-04-18T14:48:22.999Z</time></trkpt><trkpt lat="45.980141156928475" lon="12.013601359504829"><ele>1211.4</ele><time>2026-04-18T14:48:24.999Z</time></trkpt><trkpt lat="45.980230048897866" lon="12.013505040583162"><ele>1209.2</ele><time>2026-04-18T14:48:26.999Z</time></trkpt><trkpt lat="45.980318327688906" lon="12.013432982979868"><ele>1207.0</ele><time>2026-04-18T14:48:28.999Z</time></trkpt><trkpt lat="45.980424118208134" lon="12.01340717676087"><ele>1207.0</ele><time>2026-04-18T14:48:30.999Z</time></trkpt><trkpt lat="45.98054823043555" lon="12.01337411541264"><ele>1207.0</ele><time>2026-04-18T14:48:32.999Z</time></trkpt><trkpt lat="45.98061486691371" lon="12.013369070377058"><ele>1207.0</ele><time>2026-04-18T14:48:33.999Z</time></trkpt><trkpt lat="45.980723837247304" lon="12.013362940314229"><ele>1207.0</ele><time>2026-04-18T14:48:36Z</time></trkpt><trkpt lat="45.98079431140836" lon="12.01336485984352"><ele>1207.0</ele><time>2026-04-18T14:48:37Z</time></trkpt><trkpt lat="45.98086639625366" lon="12.013369691357752"><ele>1207.0</ele><time>2026-04-18T14:48:38Z</time></trkpt><trkpt lat="45.980928120616085" lon="12.01339097296507"><ele>1207.25</ele><time>2026-04-18T14:48:39Z</time></trkpt><trkpt lat="45.981039059205905" lon="12.013434733557544"><ele>1207.5</ele><time>2026-04-18T14:48:41Z</time></trkpt><trkpt lat="45.98116092793209" lon="12.013500648057365"><ele>1207.75</ele><time>2026-04-18T14:48:43Z</time></trkpt><trkpt lat="45.98129071184865" lon="12.01342119724616"><ele>1208.0</ele><time>2026-04-18T14:48:45Z</time></trkpt><trkpt lat="45.98134661769759" lon="12.013375162802275"><ele>1209.8333333333335</ele><time>2026-04-18T14:48:46Z</time></trkpt><trkpt lat="45.981415530215784" lon="12.013316533789821"><ele>1211.6666666666667</ele><time>2026-04-18T14:48:47Z</time></trkpt><trkpt lat="45.981490337044136" lon="12.013255553583894"><ele>1213.5</ele><time>2026-04-18T14:48:48Z</time></trkpt><trkpt lat="45.98156318538227" lon="12.01319971232776"><ele>1215.3333333333333</ele><time>2026-04-18T14:48:49Z</time></trkpt><trkpt lat="45.981629890275755" lon="12.01314979104812"><ele>1217.1666666666665</ele><time>2026-04-18T14:48:50Z</time></trkpt><trkpt lat="45.98171759897576" lon="12.013075375906805"><ele>1219.0</ele><time>2026-04-18T14:48:51Z</time></trkpt><trkpt lat="45.98179400973585" lon="12.012989402673178"><ele>1219.0</ele><time>2026-04-18T14:48:52Z</time></trkpt><trkpt lat="45.981867042242264" lon="12.01291172558846"><ele>1219.0</ele><time>2026-04-18T14:48:53Z</time></trkpt><trkpt lat="45.981922907881334" lon="12.012849900865447"><ele>1219.0</ele><time>2026-04-18T14:48:54Z</time></trkpt><trkpt lat="45.98197608512866" lon="12.012787719294549"><ele>1219.0</ele><time>2026-04-18T14:48:55Z</time></trkpt><trkpt lat="45.98204185378693" lon="12.012723572934718"><ele>1219.0</ele><time>2026-04-18T14:48:56Z</time></trkpt><trkpt lat="45.98210624997425" lon="12.012686172746873"><ele>1219.0</ele><time>2026-04-18T14:48:57Z</time></trkpt><trkpt lat="45.98218200126487" lon="12.012647105540381"><ele>1219.0</ele><time>2026-04-18T14:48:58Z</time></trkpt><trkpt lat="45.98225778446636" lon="12.012611228860262"><ele>1219.0</ele><time>2026-04-18T14:48:59Z</time></trkpt><trkpt lat="45.9823598178243" lon="12.012513558465212"><ele>1219.0</ele><time>2026-04-18T14:49:01Z</time></trkpt><trkpt lat="45.98240078798633" lon="12.012406088651254"><ele>1219.0</ele><time>2026-04-18T14:49:02Z</time></trkpt><trkpt lat="45.9824543730455" lon="12.012338755759984"><ele>1219.0</ele><time>2026-04-18T14:49:03Z</time></trkpt><trkpt lat="45.982498412155735" lon="12.012238202770881"><ele>1219.0</ele><time>2026-04-18T14:49:04Z</time></trkpt><trkpt lat="45.98253493820889" lon="12.012138991514773"><ele>1220.8</ele><time>2026-04-18T14:49:05Z</time></trkpt><trkpt lat="45.982559762206606" lon="12.012031753940347"><ele>1222.6000000000001</ele><time>2026-04-18T14:49:06Z</time></trkpt><trkpt lat="45.982606187842" lon="12.0118944001059"><ele>1224.4</ele><time>2026-04-18T14:49:08Z</time></trkpt><trkpt lat="45.98264549643384" lon="12.011728980707426"><ele>1226.2</ele><time>2026-04-18T14:49:10Z</time></trkpt><trkpt lat="45.98269278063708" lon="12.01164405197257"><ele>1228.0</ele><time>2026-04-18T14:49:12Z</time></trkpt><trkpt lat="45.98279926703392" lon="12.0115239325446"><ele>1224.6666666666665</ele><time>2026-04-18T14:49:14Z</time></trkpt><trkpt lat="45.98287568826312" lon="12.011476264036492"><ele>1221.3333333333333</ele><time>2026-04-18T14:49:15Z</time></trkpt><trkpt lat="45.98295198811038" lon="12.011433606043486"><ele>1218.0</ele><time>2026-04-18T14:49:16Z</time></trkpt><trkpt lat="45.98302815375545" lon="12.011404348418143"><ele>1214.6666666666667</ele><time>2026-04-18T14:49:17Z</time></trkpt><trkpt lat="45.98310499686621" lon="12.011383084344336"><ele>1211.3333333333335</ele><time>2026-04-18T14:49:18Z</time></trkpt><trkpt lat="45.98317396499004" lon="12.011369286565284"><ele>1208.0</ele><time>2026-04-18T14:49:19Z</time></trkpt><trkpt lat="45.98328136917738" lon="12.011299889671896"><ele>1208.0</ele><time>2026-04-18T14:49:21Z</time></trkpt><trkpt lat="45.983337422326684" lon="12.011232744271437"><ele>1208.0</ele><time>2026-04-18T14:49:22Z</time></trkpt><trkpt lat="45.98339070915115" lon="12.011141936169153"><ele>1208.0</ele><time>2026-04-18T14:49:23Z</time></trkpt><trkpt lat="45.98343484050151" lon="12.011046456586993"><ele>1208.0</ele><time>2026-04-18T14:49:24Z</time></trkpt><trkpt lat="45.98347162134962" lon="12.01092806601678"><ele>1208.0</ele><time>2026-04-18T14:49:25Z</time></trkpt><trkpt lat="45.983503279912426" lon="12.010799503032295"><ele>1208.0</ele><time>2026-04-18T14:49:26Z</time></trkpt><trkpt lat="45.98356402918022" lon="12.01060487495719"><ele>1206.2</ele><time>2026-04-18T14:49:28Z</time></trkpt><trkpt lat="45.98362128699583" lon="12.010462114028282"><ele>1204.4</ele><time>2026-04-18T14:49:30Z</time></trkpt><trkpt lat="45.98367405915422" lon="12.010344311306397"><ele>1202.6000000000001</ele><time>2026-04-18T14:49:32Z</time></trkpt><trkpt lat="45.98377207733661" lon="12.01031109730186"><ele>1200.8</ele><time>2026-04-18T14:49:34Z</time></trkpt><trkpt lat="45.983873432509995" lon="12.010403291550801"><ele>1199.0</ele><time>2026-04-18T14:49:36Z</time></trkpt><trkpt lat="45.983934779833206" lon="12.010429440719353"><ele>1199.0</ele><time>2026-04-18T14:49:37Z</time></trkpt><trkpt lat="45.98399671378222" lon="12.010457631948661"><ele>1199.0</ele><time>2026-04-18T14:49:38Z</time></trkpt><trkpt lat="45.98408764075199" lon="12.010480819163242"><ele>1199.0</ele><time>2026-04-18T14:49:40Z</time></trkpt><trkpt lat="45.984164357821456" lon="12.010471014117785"><ele>1199.0</ele><time>2026-04-18T14:49:40.999Z</time></trkpt><trkpt lat="45.984245262260345" lon="12.010484471042174"><ele>1199.0</ele><time>2026-04-18T14:49:42.999Z</time></trkpt><trkpt lat="45.98436241299651" lon="12.010515115824573"><ele>1199.0</ele><time>2026-04-18T14:49:44.999Z</time></trkpt><trkpt lat="45.98441802315663" lon="12.010559319317553"><ele>1200.0</ele><time>2026-04-18T14:49:45.999Z</time></trkpt><trkpt lat="45.98447597588961" lon="12.01063085310676"><ele>1201.0</ele><time>2026-04-18T14:49:46.999Z</time></trkpt><trkpt lat="45.9845726386038" lon="12.010721146847338"><ele>1202.0</ele><time>2026-04-18T14:49:48.999Z</time></trkpt><trkpt lat="45.98462584038063" lon="12.010769692489523"><ele>1203.0</ele><time>2026-04-18T14:49:49.999Z</time></trkpt><trkpt lat="45.984737411415175" lon="12.010879111811635"><ele>1204.0</ele><time>2026-04-18T14:49:51.999Z</time></trkpt><trkpt lat="45.98480087903706" lon="12.010934352412415"><ele>1204.0</ele><time>2026-04-18T14:49:52.999Z</time></trkpt><trkpt lat="45.9848595060414" lon="12.010976622944561"><ele>1204.0</ele><time>2026-04-18T14:49:53.999Z</time></trkpt><trkpt lat="45.98492694158727" lon="12.011017256797597"><ele>1204.0</ele><time>2026-04-18T14:49:54.999Z</time></trkpt><trkpt lat="45.98498911979281" lon="12.011055800294633"><ele>1204.0</ele><time>2026-04-18T14:49:55.999Z</time></trkpt><trkpt lat="45.98505458810275" lon="12.011074999230305"><ele>1204.0</ele><time>2026-04-18T14:49:56.999Z</time></trkpt><trkpt lat="45.98512466534088" lon="12.011080724018665"><ele>1204.0</ele><time>2026-04-18T14:49:57.999Z</time></trkpt><trkpt lat="45.98524637469478" lon="12.011098291312614"><ele>1201.1666666666665</ele><time>2026-04-18T14:49:59.999Z</time></trkpt><trkpt lat="45.985316756210594" lon="12.011120594335392"><ele>1198.3333333333333</ele><time>2026-04-18T14:50:00.999Z</time></trkpt><trkpt lat="45.98537492792548" lon="12.011185954111172"><ele>1195.5</ele><time>2026-04-18T14:50:01.999Z</time></trkpt><trkpt lat="45.985446565167884" lon="12.011254681993407"><ele>1192.6666666666667</ele><time>2026-04-18T14:50:02.999Z</time></trkpt><trkpt lat="45.98551373737301" lon="12.011316857550717"><ele>1189.8333333333335</ele><time>2026-04-18T14:50:03.999Z</time></trkpt><trkpt lat="45.98558464429723" lon="12.011335590316913"><ele>1187.0</ele><time>2026-04-18T14:50:04.999Z</time></trkpt><trkpt lat="45.98570187260437" lon="12.011402940171386"><ele>1187.0000000000002</ele><time>2026-04-18T14:50:06.999Z</time></trkpt><trkpt lat="45.985761283291744" lon="12.011439120806417"><ele>1187.0</ele><time>2026-04-18T14:50:07.999Z</time></trkpt><trkpt lat="45.98582265453345" lon="12.011486920882373"><ele>1187.0</ele><time>2026-04-18T14:50:08.999Z</time></trkpt><trkpt lat="45.98587293038558" lon="12.011549512103043"><ele>1187.0</ele><time>2026-04-18T14:50:09.999Z</time></trkpt><trkpt lat="45.98592471579647" lon="12.01163052218811"><ele>1187.0</ele><time>2026-04-18T14:50:10.999Z</time></trkpt><trkpt lat="45.98598479455001" lon="12.011708614354106"><ele>1187.0000000000002</ele><time>2026-04-18T14:50:11.999Z</time></trkpt><trkpt lat="45.986044173486384" lon="12.011780211493962"><ele>1187.0</ele><time>2026-04-18T14:50:12.999Z</time></trkpt><trkpt lat="45.98610718945702" lon="12.01184439575053"><ele>1187.8</ele><time>2026-04-18T14:50:13.999Z</time></trkpt><trkpt lat="45.9861737351621" lon="12.01191302783298"><ele>1188.6</ele><time>2026-04-18T14:50:14.999Z</time></trkpt><trkpt lat="45.986228154250824" lon="12.012015389113685"><ele>1189.3999999999999</ele><time>2026-04-18T14:50:15.999Z</time></trkpt><trkpt lat="45.98627469222421" lon="12.012082992322092"><ele>1190.2</ele><time>2026-04-18T14:50:16.999Z</time></trkpt><trkpt lat="45.98639296101311" lon="12.01217579302762"><ele>1191.0</ele><time>2026-04-18T14:50:18.999Z</time></trkpt><trkpt lat="45.98646552781606" lon="12.012225093709134"><ele>1191.0</ele><time>2026-04-18T14:50:19.999Z</time></trkpt><trkpt lat="45.9865319165914" lon="12.012275847513827"><ele>1191.0</ele><time>2026-04-18T14:50:20.999Z</time></trkpt><trkpt lat="45.98660075738559" lon="12.012317174107547"><ele>1191.0</ele><time>2026-04-18T14:50:21.999Z</time></trkpt><trkpt lat="45.98666842626171" lon="12.012380367512241"><ele>1191.0</ele><time>2026-04-18T14:50:22.999Z</time></trkpt><trkpt lat="45.98672700717267" lon="12.012443403797981"><ele>1191.0</ele><time>2026-04-18T14:50:23.999Z</time></trkpt><trkpt lat="45.986784817221796" lon="12.012514388836095"><ele>1191.0</ele><time>2026-04-18T14:50:24.999Z</time></trkpt><trkpt lat="45.98685987288651" lon="12.012587778214918"><ele>1192.3999999999999</ele><time>2026-04-18T14:50:25.999Z</time></trkpt><trkpt lat="45.98693061769621" lon="12.012648333113484"><ele>1193.8</ele><time>2026-04-18T14:50:26.999Z</time></trkpt><trkpt lat="45.98701202012259" lon="12.012694179204619"><ele>1195.1999999999998</ele><time>2026-04-18T14:50:27.999Z</time></trkpt><trkpt lat="45.98710491201272" lon="12.012740788757004"><ele>1196.6</ele><time>2026-04-18T14:50:28.999Z</time></trkpt><trkpt lat="45.987201331079376" lon="12.012773271899826"><ele>1198.0</ele><time>2026-04-18T14:50:29.999Z</time></trkpt><trkpt lat="45.9872842999279" lon="12.012805028028918"><ele>1198.0</ele><time>2026-04-18T14:50:30.999Z</time></trkpt><trkpt lat="45.98739139091185" lon="12.01283690216572"><ele>1198.0</ele><time>2026-04-18T14:50:31.999Z</time></trkpt><trkpt lat="45.98748365088576" lon="12.01287002454973"><ele>1198.0</ele><time>2026-04-18T14:50:32.999Z</time></trkpt><trkpt lat="45.98756678189209" lon="12.012897709291282"><ele>1198.0</ele><time>2026-04-18T14:50:33.999Z</time></trkpt><trkpt lat="45.98765488384986" lon="12.012934092852262"><ele>1198.0</ele><time>2026-04-18T14:50:34.999Z</time></trkpt><trkpt lat="45.98772564050223" lon="12.012958689782542"><ele>1197.0</ele><time>2026-04-18T14:50:35.999Z</time></trkpt><trkpt lat="45.98780591122259" lon="12.012993979187579"><ele>1196.0</ele><time>2026-04-18T14:50:36.999Z</time></trkpt><trkpt lat="45.987899146289834" lon="12.013003720056487"><ele>1195.0</ele><time>2026-04-18T14:50:37.999Z</time></trkpt><trkpt lat="45.987995817126006" lon="12.013028582573824"><ele>1194.0</ele><time>2026-04-18T14:50:38.999Z</time></trkpt><trkpt lat="45.9880965008453" lon="12.01302632361822"><ele>1193.0</ele><time>2026-04-18T14:50:39.999Z</time></trkpt><trkpt lat="45.98818851776992" lon="12.013035473299563"><ele>1193.0</ele><time>2026-04-18T14:50:40.999Z</time></trkpt><trkpt lat="45.988256743333714" lon="12.013042699033296"><ele>1193.0</ele><time>2026-04-18T14:50:42Z</time></trkpt><trkpt lat="45.98832481614337" lon="12.013080067903577"><ele>1193.0</ele><time>2026-04-18T14:50:43Z</time></trkpt><trkpt lat="45.98839979463623" lon="12.01311502745398"><ele>1193.0</ele><time>2026-04-18T14:50:44Z</time></trkpt><trkpt lat="45.9884788253826" lon="12.013181272727646"><ele>1193.0</ele><time>2026-04-18T14:50:45Z</time></trkpt><trkpt lat="45.98856086284153" lon="12.013241623892364"><ele>1193.0</ele><time>2026-04-18T14:50:46Z</time></trkpt><trkpt lat="45.98864983802225" lon="12.013290374613389"><ele>1192.2</ele><time>2026-04-18T14:50:47Z</time></trkpt><trkpt lat="45.9887447079936" lon="12.01331878198581"><ele>1191.4</ele><time>2026-04-18T14:50:48Z</time></trkpt><trkpt lat="45.98885185563969" lon="12.013331063872945"><ele>1190.6000000000001</ele><time>2026-04-18T14:50:49Z</time></trkpt><trkpt lat="45.98896164767447" lon="12.013323406165958"><ele>1189.8</ele><time>2026-04-18T14:50:50Z</time></trkpt><trkpt lat="45.98905584057275" lon="12.01335996757611"><ele>1189.0</ele><time>2026-04-18T14:50:51Z</time></trkpt><trkpt lat="45.989152238836866" lon="12.013377314695996"><ele>1193.8</ele><time>2026-04-18T14:50:52Z</time></trkpt><trkpt lat="45.989248860040846" lon="12.013373463165713"><ele>1198.6000000000001</ele><time>2026-04-18T14:50:53Z</time></trkpt><trkpt lat="45.989362736350955" lon="12.013391981987954"><ele>1203.4</ele><time>2026-04-18T14:50:54Z</time></trkpt><trkpt lat="45.989461202992075" lon="12.01340252193738"><ele>1208.2</ele><time>2026-04-18T14:50:55Z</time></trkpt><trkpt lat="45.98953725855416" lon="12.013415730227868"><ele>1213.0</ele><time>2026-04-18T14:50:56Z</time></trkpt><trkpt lat="45.98962576680299" lon="12.01343531529418"><ele>1213.0</ele><time>2026-04-18T14:50:57Z</time></trkpt><trkpt lat="45.98971267660213" lon="12.013454279279683"><ele>1213.0</ele><time>2026-04-18T14:50:58Z</time></trkpt><trkpt lat="45.989783464487125" lon="12.013489037301186"><ele>1213.0</ele><time>2026-04-18T14:50:59Z</time></trkpt><trkpt lat="45.989867249842646" lon="12.013495831556241"><ele>1213.0</ele><time>2026-04-18T14:51:00Z</time></trkpt><trkpt lat="45.98995453270145" lon="12.01347728945684"><ele>1213.0</ele><time>2026-04-18T14:51:01Z</time></trkpt><trkpt lat="45.9900485415292" lon="12.013471308412852"><ele>1213.0</ele><time>2026-04-18T14:51:02Z</time></trkpt><trkpt lat="45.990130268057435" lon="12.013445380253344"><ele>1213.4</ele><time>2026-04-18T14:51:03Z</time></trkpt><trkpt lat="45.990222646210846" lon="12.013427430947416"><ele>1213.8</ele><time>2026-04-18T14:51:04Z</time></trkpt><trkpt lat="45.99033525202141" lon="12.013441603306447"><ele>1214.2</ele><time>2026-04-18T14:51:05Z</time></trkpt><trkpt lat="45.99043513577571" lon="12.013450471130776"><ele>1214.6</ele><time>2026-04-18T14:51:06Z</time></trkpt><trkpt lat="45.990540404336855" lon="12.013466336613632"><ele>1215.0</ele><time>2026-04-18T14:51:07Z</time></trkpt><trkpt lat="45.99063361682365" lon="12.013473417224647"><ele>1215.0</ele><time>2026-04-18T14:51:08Z</time></trkpt><trkpt lat="45.99071858341973" lon="12.013458264734481"><ele>1215.0</ele><time>2026-04-18T14:51:09Z</time></trkpt><trkpt lat="45.990796478483524" lon="12.013464653339955"><ele>1215.0</ele><time>2026-04-18T14:51:10Z</time></trkpt><trkpt lat="45.990881836754305" lon="12.01347364043484"><ele>1215.0</ele><time>2026-04-18T14:51:11Z</time></trkpt><trkpt lat="45.9909527011421" lon="12.013480433530082"><ele>1215.0</ele><time>2026-04-18T14:51:12Z</time></trkpt><trkpt lat="45.99101889198788" lon="12.013480609859181"><ele>1215.0</ele><time>2026-04-18T14:51:13Z</time></trkpt><trkpt lat="45.99108272753477" lon="12.013491105891273"><ele>1214.5</ele><time>2026-04-18T14:51:14Z</time></trkpt><trkpt lat="45.991147804387545" lon="12.013514357840952"><ele>1214.0</ele><time>2026-04-18T14:51:15Z</time></trkpt><trkpt lat="45.99126904007032" lon="12.013569767667272"><ele>1213.5</ele><time>2026-04-18T14:51:17Z</time></trkpt><trkpt lat="45.99133592181153" lon="12.013568636494362"><ele>1213.0</ele><time>2026-04-18T14:51:18Z</time></trkpt><trkpt lat="45.991414635572106" lon="12.013565194135662"><ele>1212.5</ele><time>2026-04-18T14:51:19Z</time></trkpt><trkpt lat="45.99149770907733" lon="12.013548251718442"><ele>1212.0</ele><time>2026-04-18T14:51:20Z</time></trkpt><trkpt lat="45.99157602179254" lon="12.01354790824266"><ele>1212.0</ele><time>2026-04-18T14:51:21Z</time></trkpt><trkpt lat="45.99165746910293" lon="12.013536077247355"><ele>1212.0</ele><time>2026-04-18T14:51:22Z</time></trkpt><trkpt lat="45.99174200792039" lon="12.013535796903467"><ele>1212.0</ele><time>2026-04-18T14:51:23Z</time></trkpt><trkpt lat="45.991825092532146" lon="12.013521373490066"><ele>1212.0</ele><time>2026-04-18T14:51:24Z</time></trkpt><trkpt lat="45.9919271838234" lon="12.013483919715442"><ele>1212.0</ele><time>2026-04-18T14:51:25Z</time></trkpt><trkpt lat="45.99202013934139" lon="12.013453474952074"><ele>1210.6</ele><time>2026-04-18T14:51:26Z</time></trkpt><trkpt lat="45.992103468296946" lon="12.01342931224671"><ele>1209.2</ele><time>2026-04-18T14:51:27Z</time></trkpt><trkpt lat="45.99219623312829" lon="12.013419581777113"><ele>1207.8</ele><time>2026-04-18T14:51:28Z</time></trkpt><trkpt lat="45.99228083139956" lon="12.013429040150173"><ele>1206.4</ele><time>2026-04-18T14:51:29Z</time></trkpt><trkpt lat="45.99237600756429" lon="12.01344101054148"><ele>1205.0</ele><time>2026-04-18T14:51:30Z</time></trkpt><trkpt lat="45.99247649517717" lon="12.013445981104853"><ele>1203.4</ele><time>2026-04-18T14:51:31Z</time></trkpt><trkpt lat="45.9925637988948" lon="12.013445789843201"><ele>1201.8</ele><time>2026-04-18T14:51:32Z</time></trkpt><trkpt lat="45.99266296185158" lon="12.013431963172629"><ele>1200.2</ele><time>2026-04-18T14:51:33Z</time></trkpt><trkpt lat="45.99276692058016" lon="12.013412554796924"><ele>1198.6</ele><time>2026-04-18T14:51:34Z</time></trkpt><trkpt lat="45.992865244513936" lon="12.013402635328275"><ele>1197.0</ele><time>2026-04-18T14:51:35Z</time></trkpt><trkpt lat="45.9929613112327" lon="12.013396269740594"><ele>1197.0</ele><time>2026-04-18T14:51:36Z</time></trkpt><trkpt lat="45.99304312015411" lon="12.013395780528443"><ele>1197.0</ele><time>2026-04-18T14:51:37Z</time></trkpt><trkpt lat="45.99311264372417" lon="12.013396840700537"><ele>1197.0</ele><time>2026-04-18T14:51:38Z</time></trkpt><trkpt lat="45.993187007878795" lon="12.01339682455536"><ele>1197.0</ele><time>2026-04-18T14:51:39Z</time></trkpt><trkpt lat="45.99327015549068" lon="12.013391904088637"><ele>1197.0</ele><time>2026-04-18T14:51:40Z</time></trkpt><trkpt lat="45.99334780287758" lon="12.013397093914397"><ele>1197.0</ele><time>2026-04-18T14:51:41Z</time></trkpt><trkpt lat="45.99341284050185" lon="12.013394454575051"><ele>1194.8</ele><time>2026-04-18T14:51:42Z</time></trkpt><trkpt lat="45.993497200869896" lon="12.01339959065594"><ele>1192.6</ele><time>2026-04-18T14:51:43Z</time></trkpt><trkpt lat="45.99358024175143" lon="12.013406627559311"><ele>1190.3999999999999</ele><time>2026-04-18T14:51:44Z</time></trkpt><trkpt lat="45.993668423391505" lon="12.013417896992076"><ele>1188.2</ele><time>2026-04-18T14:51:45Z</time></trkpt><trkpt lat="45.99375227123892" lon="12.013433235027136"><ele>1186.0</ele><time>2026-04-18T14:51:46Z</time></trkpt><trkpt lat="45.99386706602273" lon="12.01344902042337"><ele>1186.0</ele><time>2026-04-18T14:51:48Z</time></trkpt><trkpt lat="45.99395326779548" lon="12.013486076555012"><ele>1186.0</ele><time>2026-04-18T14:51:49.999Z</time></trkpt><trkpt lat="45.99403919927352" lon="12.013539032742441"><ele>1186.0</ele><time>2026-04-18T14:51:51.999Z</time></trkpt><trkpt lat="45.99412425451702" lon="12.013626710923123"><ele>1186.0</ele><time>2026-04-18T14:51:53.999Z</time></trkpt><trkpt lat="45.99420177190985" lon="12.013715394483327"><ele>1186.0</ele><time>2026-04-18T14:51:55.999Z</time></trkpt><trkpt lat="45.994280287888536" lon="12.013790480115317"><ele>1184.3999999999999</ele><time>2026-04-18T14:51:57.999Z</time></trkpt><trkpt lat="45.99436253606247" lon="12.013886101875256"><ele>1182.8</ele><time>2026-04-18T14:51:59.999Z</time></trkpt><trkpt lat="45.99443698357703" lon="12.013991339724308"><ele>1181.1999999999998</ele><time>2026-04-18T14:52:01.999Z</time></trkpt><trkpt lat="45.994518720976046" lon="12.014078743350662"><ele>1179.6</ele><time>2026-04-18T14:52:03.999Z</time></trkpt><trkpt lat="45.99459989490828" lon="12.014157173316997"><ele>1178.0</ele><time>2026-04-18T14:52:05.999Z</time></trkpt><trkpt lat="45.99466977934898" lon="12.014247350602945"><ele>1178.0</ele><time>2026-04-18T14:52:07.999Z</time></trkpt><trkpt lat="45.99475453221366" lon="12.014327053674727"><ele>1178.0</ele><time>2026-04-18T14:52:09.999Z</time></trkpt><trkpt lat="45.99481187944233" lon="12.014383792863125"><ele>1178.0</ele><time>2026-04-18T14:52:10.999Z</time></trkpt><trkpt lat="45.99486622796928" lon="12.014442871562533"><ele>1178.0</ele><time>2026-04-18T14:52:11.999Z</time></trkpt><trkpt lat="45.99492486480918" lon="12.01450110684478"><ele>1178.0</ele><time>2026-04-18T14:52:12.999Z</time></trkpt><trkpt lat="45.99498445678608" lon="12.014562081169151"><ele>1178.0</ele><time>2026-04-18T14:52:13.999Z</time></trkpt><trkpt lat="45.99504714558698" lon="12.014627650388586"><ele>1176.5714285714284</ele><time>2026-04-18T14:52:14.999Z</time></trkpt><trkpt lat="45.99510801809052" lon="12.014690894422001"><ele>1175.142857142857</ele><time>2026-04-18T14:52:15.999Z</time></trkpt><trkpt lat="45.99517968505915" lon="12.014742961715307"><ele>1173.7142857142858</ele><time>2026-04-18T14:52:16.999Z</time></trkpt><trkpt lat="45.99524142776176" lon="12.01478844743533"><ele>1172.2857142857142</ele><time>2026-04-18T14:52:17.999Z</time></trkpt><trkpt lat="45.99530506836283" lon="12.014815195376427"><ele>1170.857142857143</ele><time>2026-04-18T14:52:18.999Z</time></trkpt><trkpt lat="45.99537384150118" lon="12.014850103511405"><ele>1169.4285714285713</ele><time>2026-04-18T14:52:19.999Z</time></trkpt><trkpt lat="45.99544164800849" lon="12.014884828848308"><ele>1168.0</ele><time>2026-04-18T14:52:20.999Z</time></trkpt><trkpt lat="45.99551398348371" lon="12.014905183379383"><ele>1168.0</ele><time>2026-04-18T14:52:21.999Z</time></trkpt><trkpt lat="45.995610721806756" lon="12.014928941816445"><ele>1168.0</ele><time>2026-04-18T14:52:22.999Z</time></trkpt><trkpt lat="45.9956936121183" lon="12.014961311999576"><ele>1168.0</ele><time>2026-04-18T14:52:23.999Z</time></trkpt><trkpt lat="45.995757774300685" lon="12.014978347874406"><ele>1168.0</ele><time>2026-04-18T14:52:24.999Z</time></trkpt><trkpt lat="45.99583230913517" lon="12.014998488026292"><ele>1168.0</ele><time>2026-04-18T14:52:25.999Z</time></trkpt><trkpt lat="45.99591199534537" lon="12.015024557725017"><ele>1168.0</ele><time>2026-04-18T14:52:26.999Z</time></trkpt><trkpt lat="45.99598560984268" lon="12.015055765979989"><ele>1166.5</ele><time>2026-04-18T14:52:27.999Z</time></trkpt><trkpt lat="45.99605418967308" lon="12.015086538852644"><ele>1165.0</ele><time>2026-04-18T14:52:28.999Z</time></trkpt><trkpt lat="45.996141618643954" lon="12.015107236216648"><ele>1163.5</ele><time>2026-04-18T14:52:29.999Z</time></trkpt><trkpt lat="45.996209419077495" lon="12.015161930281987"><ele>1162.0</ele><time>2026-04-18T14:52:30.999Z</time></trkpt><trkpt lat="45.99628423300694" lon="12.015203360125385"><ele>1160.5</ele><time>2026-04-18T14:52:31.999Z</time></trkpt><trkpt lat="45.99634669579432" lon="12.015276478124338"><ele>1159.0</ele><time>2026-04-18T14:52:32.999Z</time></trkpt><trkpt lat="45.99648181555471" lon="12.015334172618928"><ele>1159.0</ele><time>2026-04-18T14:52:34.999Z</time></trkpt><trkpt lat="45.99656139268979" lon="12.015397227757187"><ele>1159.0</ele><time>2026-04-18T14:52:35.999Z</time></trkpt><trkpt lat="45.99663155397079" lon="12.01544179732734"><ele>1159.0</ele><time>2026-04-18T14:52:36.999Z</time></trkpt><trkpt lat="45.99669643552108" lon="12.015491876452469"><ele>1159.0</ele><time>2026-04-18T14:52:37.999Z</time></trkpt><trkpt lat="45.99676477903069" lon="12.015527979095959"><ele>1159.0</ele><time>2026-04-18T14:52:38.999Z</time></trkpt><trkpt lat="45.996840685411335" lon="12.015559728979555"><ele>1159.0</ele><time>2026-04-18T14:52:39.999Z</time></trkpt><trkpt lat="45.996915092926706" lon="12.01557914136856"><ele>1157.3333333333333</ele><time>2026-04-18T14:52:40.999Z</time></trkpt><trkpt lat="45.996970103790275" lon="12.015626999972513"><ele>1155.6666666666665</ele><time>2026-04-18T14:52:41.999Z</time></trkpt><trkpt lat="45.997101186319156" lon="12.015683891707651"><ele>1154.0</ele><time>2026-04-18T14:52:43.999Z</time></trkpt><trkpt lat="45.99717000073626" lon="12.015721551393248"><ele>1152.3333333333333</ele><time>2026-04-18T14:52:44.999Z</time></trkpt><trkpt lat="45.99724288314801" lon="12.015763377956949"><ele>1150.6666666666667</ele><time>2026-04-18T14:52:45.999Z</time></trkpt><trkpt lat="45.99730946433605" lon="12.015787053897533"><ele>1149.0</ele><time>2026-04-18T14:52:46.999Z</time></trkpt><trkpt lat="45.99739701980265" lon="12.01581549501773"><ele>1150.0</ele><time>2026-04-18T14:52:48Z</time></trkpt><trkpt lat="45.997486446859" lon="12.01583618438018"><ele>1151.0</ele><time>2026-04-18T14:52:49Z</time></trkpt><trkpt lat="45.99758006492308" lon="12.015861107205279"><ele>1152.0</ele><time>2026-04-18T14:52:50Z</time></trkpt><trkpt lat="45.997665338201095" lon="12.015889447018113"><ele>1153.0</ele><time>2026-04-18T14:52:51Z</time></trkpt><trkpt lat="45.99774956643251" lon="12.015911275613274"><ele>1154.0</ele><time>2026-04-18T14:52:52Z</time></trkpt><trkpt lat="45.99782821825703" lon="12.015930172823136"><ele>1155.0</ele><time>2026-04-18T14:52:53Z</time></trkpt><trkpt lat="45.997915671247924" lon="12.015945623501224"><ele>1155.0</ele><time>2026-04-18T14:52:54Z</time></trkpt><trkpt lat="45.998017318145585" lon="12.015962404327512"><ele>1155.0</ele><time>2026-04-18T14:52:55Z</time></trkpt><trkpt lat="45.99813233809368" lon="12.015982742002429"><ele>1155.0</ele><time>2026-04-18T14:52:56Z</time></trkpt><trkpt lat="45.998242887917336" lon="12.016016078491504"><ele>1155.0</ele><time>2026-04-18T14:52:57Z</time></trkpt><trkpt lat="45.99833769019606" lon="12.016055313856453"><ele>1155.0</ele><time>2026-04-18T14:52:58Z</time></trkpt><trkpt lat="45.9984283777086" lon="12.016091935416142"><ele>1155.2</ele><time>2026-04-18T14:52:59Z</time></trkpt><trkpt lat="45.99851210565407" lon="12.016138940410508"><ele>1155.4</ele><time>2026-04-18T14:53:00Z</time></trkpt><trkpt lat="45.99860038815219" lon="12.016216788059364"><ele>1155.6</ele><time>2026-04-18T14:53:01Z</time></trkpt><trkpt lat="45.998685517141105" lon="12.01631483009125"><ele>1155.8</ele><time>2026-04-18T14:53:02Z</time></trkpt><trkpt lat="45.99874317151764" lon="12.016395297121736"><ele>1156.0</ele><time>2026-04-18T14:53:03Z</time></trkpt><trkpt lat="45.9988402065306" lon="12.01648368368369"><ele>1156.0</ele><time>2026-04-18T14:53:05Z</time></trkpt><trkpt lat="45.99890808703484" lon="12.016498644950525"><ele>1156.0</ele><time>2026-04-18T14:53:06Z</time></trkpt><trkpt lat="45.99898150096524" lon="12.01647971680556"><ele>1156.0</ele><time>2026-04-18T14:53:07Z</time></trkpt><trkpt lat="45.999048263082926" lon="12.01643318675302"><ele>1156.0</ele><time>2026-04-18T14:53:08Z</time></trkpt><trkpt lat="45.99916083123168" lon="12.016345052505269"><ele>1156.0</ele><time>2026-04-18T14:53:10Z</time></trkpt><trkpt lat="45.9993053452191" lon="12.016318871420896"><ele>1155.0</ele><time>2026-04-18T14:53:12Z</time></trkpt><trkpt lat="45.999420279214505" lon="12.016320453733574"><ele>1154.0</ele><time>2026-04-18T14:53:14Z</time></trkpt><trkpt lat="45.99954996532155" lon="12.016346285521022"><ele>1153.0</ele><time>2026-04-18T14:53:16Z</time></trkpt><trkpt lat="45.999621727148735" lon="12.01638268229968"><ele>1152.0</ele><time>2026-04-18T14:53:17Z</time></trkpt><trkpt lat="45.99969203799085" lon="12.016390915906776"><ele>1151.0</ele><time>2026-04-18T14:53:18Z</time></trkpt><trkpt lat="45.99976063563751" lon="12.016425873020486"><ele>1151.0</ele><time>2026-04-18T14:53:19Z</time></trkpt><trkpt lat="45.99981820928755" lon="12.016466810386891"><ele>1151.0</ele><time>2026-04-18T14:53:20Z</time></trkpt><trkpt lat="45.99988912413694" lon="12.016498073255118"><ele>1151.0</ele><time>2026-04-18T14:53:21Z</time></trkpt><trkpt lat="45.9999541745661" lon="12.01653294745355"><ele>1151.0</ele><time>2026-04-18T14:53:22Z</time></trkpt><trkpt lat="46.000067339192235" lon="12.016572269521841"><ele>1151.0</ele><time>2026-04-18T14:53:24Z</time></trkpt><trkpt lat="46.00017703730813" lon="12.016667762671752"><ele>1154.8333333333335</ele><time>2026-04-18T14:53:26Z</time></trkpt><trkpt lat="46.000270445633404" lon="12.016758619837201"><ele>1158.6666666666667</ele><time>2026-04-18T14:53:28Z</time></trkpt><trkpt lat="46.00030005270127" lon="12.016863241803856"><ele>1162.5</ele><time>2026-04-18T14:53:29Z</time></trkpt><trkpt lat="46.00032415762984" lon="12.016981412997813"><ele>1166.3333333333333</ele><time>2026-04-18T14:53:30Z</time></trkpt><trkpt lat="46.00034788114666" lon="12.017085088555808"><ele>1170.1666666666665</ele><time>2026-04-18T14:53:31Z</time></trkpt><trkpt lat="46.000390634671945" lon="12.01720218521024"><ele>1174.0</ele><time>2026-04-18T14:53:32Z</time></trkpt><trkpt lat="46.00040032898434" lon="12.017309709697306"><ele>1174.0</ele><time>2026-04-18T14:53:33Z</time></trkpt><trkpt lat="46.000420307635494" lon="12.017421852428313"><ele>1174.0</ele><time>2026-04-18T14:53:34Z</time></trkpt><trkpt lat="46.00042564882725" lon="12.017523405762548"><ele>1174.0</ele><time>2026-04-18T14:53:35Z</time></trkpt><trkpt lat="46.00043876374934" lon="12.017618652108021"><ele>1174.0</ele><time>2026-04-18T14:53:36Z</time></trkpt><trkpt lat="46.000466673320155" lon="12.017711302871971"><ele>1174.0</ele><time>2026-04-18T14:53:37Z</time></trkpt><trkpt lat="46.00051335941549" lon="12.017777423690328"><ele>1174.0</ele><time>2026-04-18T14:53:38Z</time></trkpt><trkpt lat="46.00061006022921" lon="12.01788026324437"><ele>1174.142857142857</ele><time>2026-04-18T14:53:40Z</time></trkpt><trkpt lat="46.0006598951845" lon="12.017937316106776"><ele>1174.2857142857144</ele><time>2026-04-18T14:53:41Z</time></trkpt><trkpt lat="46.00071170302579" lon="12.018000136033345"><ele>1174.4285714285716</ele><time>2026-04-18T14:53:42Z</time></trkpt><trkpt lat="46.000744043510274" lon="12.018087875245264"><ele>1174.5714285714287</ele><time>2026-04-18T14:53:43Z</time></trkpt><trkpt lat="46.00080068309508" lon="12.01815869120666"><ele>1174.7142857142858</ele><time>2026-04-18T14:53:44Z</time></trkpt><trkpt lat="46.00087840705599" lon="12.01820241965632"><ele>1174.857142857143</ele><time>2026-04-18T14:53:45Z</time></trkpt><trkpt lat="46.00094796944924" lon="12.018242412965652"><ele>1175.0</ele><time>2026-04-18T14:53:46Z</time></trkpt><trkpt lat="46.00102816333842" lon="12.018300206146368"><ele>1173.2</ele><time>2026-04-18T14:53:47Z</time></trkpt><trkpt lat="46.00114456600818" lon="12.018343677702868"><ele>1171.4</ele><time>2026-04-18T14:53:48Z</time></trkpt><trkpt lat="46.00125072869319" lon="12.018383339646393"><ele>1169.6</ele><time>2026-04-18T14:53:49Z</time></trkpt><trkpt lat="46.00135032645436" lon="12.018426290416956"><ele>1167.8</ele><time>2026-04-18T14:53:50Z</time></trkpt><trkpt lat="46.00144902076087" lon="12.01847011955873"><ele>1166.0</ele><time>2026-04-18T14:53:51Z</time></trkpt><trkpt lat="46.00154932636752" lon="12.018517130222147"><ele>1166.0</ele><time>2026-04-18T14:53:52Z</time></trkpt><trkpt lat="46.00164406355647" lon="12.018562410449654"><ele>1166.0</ele><time>2026-04-18T14:53:53Z</time></trkpt><trkpt lat="46.001738705937214" lon="12.018610306161966"><ele>1166.0</ele><time>2026-04-18T14:53:54Z</time></trkpt><trkpt lat="46.00182916129163" lon="12.018658191028019"><ele>1166.0</ele><time>2026-04-18T14:53:55Z</time></trkpt><trkpt lat="46.001932611343854" lon="12.018702731451253"><ele>1166.0</ele><time>2026-04-18T14:53:56Z</time></trkpt><trkpt lat="46.002036974060886" lon="12.018816109011091"><ele>1165.6</ele><time>2026-04-18T14:53:57Z</time></trkpt><trkpt lat="46.002127734385105" lon="12.018914479716178"><ele>1165.1999999999998</ele><time>2026-04-18T14:53:57.999Z</time></trkpt><trkpt lat="46.00221679369388" lon="12.018979307407026"><ele>1164.8000000000002</ele><time>2026-04-18T14:53:58.999Z</time></trkpt><trkpt lat="46.00228704792191" lon="12.019064142329718"><ele>1164.4</ele><time>2026-04-18T14:53:59.999Z</time></trkpt><trkpt lat="46.002358392239714" lon="12.019132156160824"><ele>1164.0</ele><time>2026-04-18T14:54:00.999Z</time></trkpt><trkpt lat="46.00243628765736" lon="12.019203315348015"><ele>1160.8</ele><time>2026-04-18T14:54:01.999Z</time></trkpt><trkpt lat="46.00251665595058" lon="12.01927987911828"><ele>1157.6000000000001</ele><time>2026-04-18T14:54:02.999Z</time></trkpt><trkpt lat="46.00258959113087" lon="12.01935154337961"><ele>1154.4</ele><time>2026-04-18T14:54:03.999Z</time></trkpt><trkpt lat="46.00265774058159" lon="12.019440455584956"><ele>1151.2</ele><time>2026-04-18T14:54:04.999Z</time></trkpt><trkpt lat="46.00275172783731" lon="12.019487973426875"><ele>1148.0</ele><time>2026-04-18T14:54:05.999Z</time></trkpt><trkpt lat="46.00285834734788" lon="12.01955444344773"><ele>1148.0</ele><time>2026-04-18T14:54:06.999Z</time></trkpt><trkpt lat="46.00296280349043" lon="12.0196130368937"><ele>1148.0</ele><time>2026-04-18T14:54:07.999Z</time></trkpt><trkpt lat="46.00305977166989" lon="12.019668713419222"><ele>1148.0</ele><time>2026-04-18T14:54:08.999Z</time></trkpt><trkpt lat="46.003155792571015" lon="12.019729009607602"><ele>1148.0</ele><time>2026-04-18T14:54:09.999Z</time></trkpt><trkpt lat="46.003249725368704" lon="12.019791800891726"><ele>1148.0</ele><time>2026-04-18T14:54:10.999Z</time></trkpt><trkpt lat="46.003336883033285" lon="12.019852670263402"><ele>1146.6</ele><time>2026-04-18T14:54:11.999Z</time></trkpt><trkpt lat="46.00341624048234" lon="12.019913331157863"><ele>1145.1999999999998</ele><time>2026-04-18T14:54:12.999Z</time></trkpt><trkpt lat="46.00349047250279" lon="12.02000129571637"><ele>1143.8</ele><time>2026-04-18T14:54:13.999Z</time></trkpt><trkpt lat="46.00356363034912" lon="12.020068078518577"><ele>1142.3999999999999</ele><time>2026-04-18T14:54:14.999Z</time></trkpt><trkpt lat="46.003639806418285" lon="12.020139942697798"><ele>1141.0</ele><time>2026-04-18T14:54:15.999Z</time></trkpt><trkpt lat="46.00372012725939" lon="12.020199733191768"><ele>1139.6</ele><time>2026-04-18T14:54:16.999Z</time></trkpt><trkpt lat="46.00379307708451" lon="12.020277209561922"><ele>1138.1999999999998</ele><time>2026-04-18T14:54:17.999Z</time></trkpt><trkpt lat="46.00386732659369" lon="12.020353685974024"><ele>1136.8000000000002</ele><time>2026-04-18T14:54:18.999Z</time></trkpt><trkpt lat="46.00393789431022" lon="12.02042649749427"><ele>1135.4</ele><time>2026-04-18T14:54:19.999Z</time></trkpt><trkpt lat="46.00399836025369" lon="12.020519350308456"><ele>1134.0</ele><time>2026-04-18T14:54:20.999Z</time></trkpt><trkpt lat="46.004069292538006" lon="12.020607353412815"><ele>1134.0</ele><time>2026-04-18T14:54:21.999Z</time></trkpt><trkpt lat="46.00416021021888" lon="12.020716626009996"><ele>1134.0</ele><time>2026-04-18T14:54:22.999Z</time></trkpt><trkpt lat="46.00424492467447" lon="12.020780553856484"><ele>1134.0</ele><time>2026-04-18T14:54:23.999Z</time></trkpt><trkpt lat="46.00430651026994" lon="12.020836556311638"><ele>1134.0</ele><time>2026-04-18T14:54:24.999Z</time></trkpt><trkpt lat="46.004369267185126" lon="12.020905026248672"><ele>1134.0</ele><time>2026-04-18T14:54:25.999Z</time></trkpt><trkpt lat="46.00445052635559" lon="12.020926655678682"><ele>1134.0</ele><time>2026-04-18T14:54:26.999Z</time></trkpt><trkpt lat="46.004523717953695" lon="12.020945149587673"><ele>1131.0</ele><time>2026-04-18T14:54:27.999Z</time></trkpt><trkpt lat="46.004600511522185" lon="12.020970970402244"><ele>1128.0</ele><time>2026-04-18T14:54:28.999Z</time></trkpt><trkpt lat="46.00469887689483" lon="12.020978366816854"><ele>1125.0</ele><time>2026-04-18T14:54:29.999Z</time></trkpt><trkpt lat="46.00479755841579" lon="12.020992912093126"><ele>1122.0</ele><time>2026-04-18T14:54:30.999Z</time></trkpt><trkpt lat="46.004890279505354" lon="12.021018374802255"><ele>1119.0</ele><time>2026-04-18T14:54:31.999Z</time></trkpt><trkpt lat="46.004981703809264" lon="12.021054762567598"><ele>1119.1666666666667</ele><time>2026-04-18T14:54:32.999Z</time></trkpt><trkpt lat="46.00505011194775" lon="12.021130830926692"><ele>1119.3333333333333</ele><time>2026-04-18T14:54:33.999Z</time></trkpt><trkpt lat="46.00512440074672" lon="12.021165002978686"><ele>1119.5</ele><time>2026-04-18T14:54:34.999Z</time></trkpt><trkpt lat="46.00518720720719" lon="12.021229740434734"><ele>1119.6666666666665</ele><time>2026-04-18T14:54:35.999Z</time></trkpt><trkpt lat="46.005242374362545" lon="12.021283325376457"><ele>1119.8333333333333</ele><time>2026-04-18T14:54:36.999Z</time></trkpt><trkpt lat="46.00536087257511" lon="12.021385248141518"><ele>1120.0</ele><time>2026-04-18T14:54:38.999Z</time></trkpt><trkpt lat="46.00542831738484" lon="12.021422926322618"><ele>1120.0</ele><time>2026-04-18T14:54:39.999Z</time></trkpt><trkpt lat="46.005495059243664" lon="12.021449179088565"><ele>1120.0</ele><time>2026-04-18T14:54:40.999Z</time></trkpt><trkpt lat="46.005561489453804" lon="12.02148484519098"><ele>1120.0</ele><time>2026-04-18T14:54:41.999Z</time></trkpt><trkpt lat="46.00562081845308" lon="12.021531677987074"><ele>1120.0</ele><time>2026-04-18T14:54:42.999Z</time></trkpt><trkpt lat="46.005685469687265" lon="12.021596807765121"><ele>1120.0</ele><time>2026-04-18T14:54:43.999Z</time></trkpt><trkpt lat="46.00574551511394" lon="12.02166316849781"><ele>1120.0</ele><time>2026-04-18T14:54:44.999Z</time></trkpt><trkpt lat="46.00582073545658" lon="12.021744915543453"><ele>1117.8333333333333</ele><time>2026-04-18T14:54:45.999Z</time></trkpt><trkpt lat="46.0058864948982" lon="12.021814136125261"><ele>1115.6666666666665</ele><time>2026-04-18T14:54:46.999Z</time></trkpt><trkpt lat="46.00595360976408" lon="12.021880233952698"><ele>1113.5</ele><time>2026-04-18T14:54:47.999Z</time></trkpt><trkpt lat="46.00601527695133" lon="12.021936157240905"><ele>1111.3333333333333</ele><time>2026-04-18T14:54:48.999Z</time></trkpt><trkpt lat="46.00608075011766" lon="12.021986063089571"><ele>1109.1666666666667</ele><time>2026-04-18T14:54:49.999Z</time></trkpt><trkpt lat="46.00615047876879" lon="12.02203478339881"><ele>1107.0</ele><time>2026-04-18T14:54:50.999Z</time></trkpt><trkpt lat="46.00623226717389" lon="12.022084377021633"><ele>1107.0</ele><time>2026-04-18T14:54:51.999Z</time></trkpt><trkpt lat="46.00633094129806" lon="12.022111312133157"><ele>1107.0</ele><time>2026-04-18T14:54:52.999Z</time></trkpt><trkpt lat="46.00641478109308" lon="12.022169516520984"><ele>1107.0</ele><time>2026-04-18T14:54:54Z</time></trkpt><trkpt lat="46.00650246395084" lon="12.022185979889853"><ele>1107.0</ele><time>2026-04-18T14:54:55Z</time></trkpt><trkpt lat="46.00656660757874" lon="12.022209073235185"><ele>1107.0</ele><time>2026-04-18T14:54:56Z</time></trkpt><trkpt lat="46.00664252576565" lon="12.022235940680362"><ele>1107.0</ele><time>2026-04-18T14:54:57Z</time></trkpt><trkpt lat="46.006718560573354" lon="12.022280084475701"><ele>1104.8333333333333</ele><time>2026-04-18T14:54:58Z</time></trkpt><trkpt lat="46.00680147729976" lon="12.022314906270214"><ele>1102.6666666666667</ele><time>2026-04-18T14:54:59Z</time></trkpt><trkpt lat="46.00688059385534" lon="12.022346011319648"><ele>1100.5</ele><time>2026-04-18T14:55:00Z</time></trkpt><trkpt lat="46.00695436109725" lon="12.022384104322018"><ele>1098.3333333333335</ele><time>2026-04-18T14:55:01Z</time></trkpt><trkpt lat="46.00702121170907" lon="12.022421403354928"><ele>1096.1666666666667</ele><time>2026-04-18T14:55:02Z</time></trkpt><trkpt lat="46.00708877942433" lon="12.022462397077343"><ele>1094.0</ele><time>2026-04-18T14:55:03Z</time></trkpt><trkpt lat="46.00715756494137" lon="12.022512718108016"><ele>1092.5714285714284</ele><time>2026-04-18T14:55:04Z</time></trkpt><trkpt lat="46.00721662591985" lon="12.022575033571348"><ele>1091.142857142857</ele><time>2026-04-18T14:55:05Z</time></trkpt><trkpt lat="46.0072679034756" lon="12.022643179457448"><ele>1089.7142857142858</ele><time>2026-04-18T14:55:06Z</time></trkpt><trkpt lat="46.0073247161312" lon="12.022714043796705"><ele>1088.2857142857142</ele><time>2026-04-18T14:55:07Z</time></trkpt><trkpt lat="46.00737992217307" lon="12.022781493797025"><ele>1086.857142857143</ele><time>2026-04-18T14:55:08Z</time></trkpt><trkpt lat="46.00743744561568" lon="12.02284518365018"><ele>1085.4285714285713</ele><time>2026-04-18T14:55:09Z</time></trkpt><trkpt lat="46.007498835480746" lon="12.022895826363909"><ele>1084.0</ele><time>2026-04-18T14:55:10Z</time></trkpt><trkpt lat="46.007567332479105" lon="12.022948382898424"><ele>1081.8333333333333</ele><time>2026-04-18T14:55:11Z</time></trkpt><trkpt lat="46.00764356564585" lon="12.022995460527325"><ele>1079.6666666666665</ele><time>2026-04-18T14:55:12Z</time></trkpt><trkpt lat="46.00772711780523" lon="12.023037342252982"><ele>1077.5</ele><time>2026-04-18T14:55:13Z</time></trkpt><trkpt lat="46.007812699020946" lon="12.023082047178026"><ele>1075.3333333333333</ele><time>2026-04-18T14:55:14Z</time></trkpt><trkpt lat="46.007887049227854" lon="12.02312058697462"><ele>1073.1666666666667</ele><time>2026-04-18T14:55:15Z</time></trkpt><trkpt lat="46.00795448921615" lon="12.023143028219865"><ele>1071.0</ele><time>2026-04-18T14:55:16Z</time></trkpt><trkpt lat="46.008029544247556" lon="12.02315438823753"><ele>1071.0</ele><time>2026-04-18T14:55:17Z</time></trkpt><trkpt lat="46.00810537087387" lon="12.0231547270794"><ele>1071.0</ele><time>2026-04-18T14:55:18Z</time></trkpt><trkpt lat="46.008177310120054" lon="12.023141175031633"><ele>1071.0</ele><time>2026-04-18T14:55:19Z</time></trkpt><trkpt lat="46.00825261560877" lon="12.023115520210453"><ele>1071.0</ele><time>2026-04-18T14:55:20Z</time></trkpt><trkpt lat="46.008324905627966" lon="12.023087049471973"><ele>1071.0</ele><time>2026-04-18T14:55:21Z</time></trkpt><trkpt lat="46.008397632797525" lon="12.023074189894285"><ele>1071.0</ele><time>2026-04-18T14:55:22Z</time></trkpt><trkpt lat="46.00846833842248" lon="12.023057354323075"><ele>1071.0</ele><time>2026-04-18T14:55:23Z</time></trkpt><trkpt lat="46.00853197196841" lon="12.023057217956897"><ele>1068.6666666666667</ele><time>2026-04-18T14:55:24Z</time></trkpt><trkpt lat="46.008593623776854" lon="12.023092715562816"><ele>1066.3333333333333</ele><time>2026-04-18T14:55:25Z</time></trkpt><trkpt lat="46.008663182023966" lon="12.02313157780633"><ele>1064.0</ele><time>2026-04-18T14:55:26Z</time></trkpt><trkpt lat="46.00871871417487" lon="12.023217513040391"><ele>1061.6666666666665</ele><time>2026-04-18T14:55:27Z</time></trkpt><trkpt lat="46.00878829938747" lon="12.023301315180685"><ele>1059.3333333333333</ele><time>2026-04-18T14:55:28Z</time></trkpt><trkpt lat="46.00886474471677" lon="12.023377550255745"><ele>1057.0</ele><time>2026-04-18T14:55:29Z</time></trkpt><trkpt lat="46.00892154785251" lon="12.023465679232798"><ele>1057.0</ele><time>2026-04-18T14:55:30Z</time></trkpt><trkpt lat="46.00897878688579" lon="12.023524397238765"><ele>1057.0</ele><time>2026-04-18T14:55:31Z</time></trkpt><trkpt lat="46.00903495705883" lon="12.023605182855336"><ele>1057.0</ele><time>2026-04-18T14:55:32Z</time></trkpt><trkpt lat="46.00909200367928" lon="12.023680920552444"><ele>1057.0</ele><time>2026-04-18T14:55:33Z</time></trkpt><trkpt lat="46.009145974797455" lon="12.023762023224547"><ele>1057.0</ele><time>2026-04-18T14:55:34Z</time></trkpt><trkpt lat="46.00920974910549" lon="12.023840669237421"><ele>1057.0</ele><time>2026-04-18T14:55:35Z</time></trkpt><trkpt lat="46.00926575123006" lon="12.023912395416001"><ele>1055.8333333333333</ele><time>2026-04-18T14:55:36Z</time></trkpt><trkpt lat="46.00932215945675" lon="12.023985691037613"><ele>1054.6666666666665</ele><time>2026-04-18T14:55:37Z</time></trkpt><trkpt lat="46.009382526105185" lon="12.024051063337005"><ele>1053.5</ele><time>2026-04-18T14:55:38Z</time></trkpt><trkpt lat="46.009441761474584" lon="12.024115354032448"><ele>1052.3333333333333</ele><time>2026-04-18T14:55:39Z</time></trkpt><trkpt lat="46.009504919290215" lon="12.024180411629127"><ele>1051.1666666666667</ele><time>2026-04-18T14:55:40Z</time></trkpt><trkpt lat="46.00957140761604" lon="12.024226748436478"><ele>1050.0</ele><time>2026-04-18T14:55:41Z</time></trkpt><trkpt lat="46.00965712215465" lon="12.02427315804096"><ele>1050.0</ele><time>2026-04-18T14:55:42Z</time></trkpt><trkpt lat="46.00975455419061" lon="12.024325153226242"><ele>1050.0</ele><time>2026-04-18T14:55:43Z</time></trkpt><trkpt lat="46.009844091674594" lon="12.024374230180479"><ele>1050.0</ele><time>2026-04-18T14:55:44Z</time></trkpt><trkpt lat="46.00993174621483" lon="12.024408380219947"><ele>1050.0</ele><time>2026-04-18T14:55:45Z</time></trkpt><trkpt lat="46.010024170448155" lon="12.024434610403786"><ele>1050.0</ele><time>2026-04-18T14:55:46Z</time></trkpt><trkpt lat="46.01010729056197" lon="12.024468327915137"><ele>1047.7142857142858</ele><time>2026-04-18T14:55:47Z</time></trkpt><trkpt lat="46.01017698229814" lon="12.024507648212271"><ele>1045.4285714285716</ele><time>2026-04-18T14:55:48Z</time></trkpt><trkpt lat="46.01025446253103" lon="12.024532789642302"><ele>1043.142857142857</ele><time>2026-04-18T14:55:49Z</time></trkpt><trkpt lat="46.0103256767123" lon="12.02456682983042"><ele>1040.857142857143</ele><time>2026-04-18T14:55:50Z</time></trkpt><trkpt lat="46.01039332148122" lon="12.024601818849012"><ele>1038.5714285714287</ele><time>2026-04-18T14:55:51Z</time></trkpt><trkpt lat="46.010460049437" lon="12.024618543113975"><ele>1036.2857142857142</ele><time>2026-04-18T14:55:52Z</time></trkpt><trkpt lat="46.01052652642018" lon="12.024620103763384"><ele>1034.0</ele><time>2026-04-18T14:55:53Z</time></trkpt><trkpt lat="46.0105963560573" lon="12.024623236320256"><ele>1034.0</ele><time>2026-04-18T14:55:54Z</time></trkpt><trkpt lat="46.010683900163" lon="12.024621711140652"><ele>1034.0</ele><time>2026-04-18T14:55:55Z</time></trkpt><trkpt lat="46.01077275184096" lon="12.024598945242428"><ele>1034.0</ele><time>2026-04-18T14:55:56Z</time></trkpt><trkpt lat="46.01084140471223" lon="12.024563677128034"><ele>1034.0</ele><time>2026-04-18T14:55:57Z</time></trkpt><trkpt lat="46.01091529806123" lon="12.024552802649294"><ele>1034.0</ele><time>2026-04-18T14:55:58Z</time></trkpt><trkpt lat="46.01097461557393" lon="12.024504557041807"><ele>1034.0</ele><time>2026-04-18T14:55:59Z</time></trkpt><trkpt lat="46.011046066002514" lon="12.024477691728524"><ele>1030.4285714285716</ele><time>2026-04-18T14:56:00Z</time></trkpt><trkpt lat="46.011119247179394" lon="12.024452451728639"><ele>1026.857142857143</ele><time>2026-04-18T14:56:01Z</time></trkpt><trkpt lat="46.01118906016973" lon="12.024429752129972"><ele>1023.2857142857143</ele><time>2026-04-18T14:56:02Z</time></trkpt><trkpt lat="46.01125975752902" lon="12.024408276506746"><ele>1019.7142857142858</ele><time>2026-04-18T14:56:03Z</time></trkpt><trkpt lat="46.011329456359135" lon="12.024384042407394"><ele>1016.1428571428571</ele><time>2026-04-18T14:56:04Z</time></trkpt><trkpt lat="46.011407887469105" lon="12.024380265970628"><ele>1012.5714285714287</ele><time>2026-04-18T14:56:05Z</time></trkpt><trkpt lat="46.01148663040604" lon="12.02439659761261"><ele>1009.0</ele><time>2026-04-18T14:56:06Z</time></trkpt><trkpt lat="46.01155670382267" lon="12.02440533719802"><ele>1008.9999999999999</ele><time>2026-04-18T14:56:06.999Z</time></trkpt><trkpt lat="46.01163889539632" lon="12.024439240969915"><ele>1009.0</ele><time>2026-04-18T14:56:07.999Z</time></trkpt><trkpt lat="46.01171163508422" lon="12.024473908010002"><ele>1009.0</ele><time>2026-04-18T14:56:08.999Z</time></trkpt><trkpt lat="46.011788554774974" lon="12.024500565834499"><ele>1009.0</ele><time>2026-04-18T14:56:09.999Z</time></trkpt><trkpt lat="46.0118645364068" lon="12.024517526438855"><ele>1008.9999999999999</ele><time>2026-04-18T14:56:10.999Z</time></trkpt><trkpt lat="46.011935602516864" lon="12.024587534638037"><ele>1009.0</ele><time>2026-04-18T14:56:11.999Z</time></trkpt><trkpt lat="46.0120184891765" lon="12.024618914549555"><ele>1007.3333333333333</ele><time>2026-04-18T14:56:12.999Z</time></trkpt><trkpt lat="46.012103792672306" lon="12.024649508619696"><ele>1005.6666666666666</ele><time>2026-04-18T14:56:13.999Z</time></trkpt><trkpt lat="46.01219435728121" lon="12.024659904005746"><ele>1004.0</ele><time>2026-04-18T14:56:14.999Z</time></trkpt><trkpt lat="46.01227018355557" lon="12.02469760547047"><ele>1002.3333333333333</ele><time>2026-04-18T14:56:15.999Z</time></trkpt><trkpt lat="46.01233515643522" lon="12.024717827391012"><ele>1000.6666666666666</ele><time>2026-04-18T14:56:16.999Z</time></trkpt><trkpt lat="46.01239858411267" lon="12.02475107706024"><ele>999.0</ele><time>2026-04-18T14:56:17.999Z</time></trkpt><trkpt lat="46.01245411918396" lon="12.02480345227793"><ele>998.1666666666666</ele><time>2026-04-18T14:56:18.999Z</time></trkpt><trkpt lat="46.0125035500488" lon="12.024893105156917"><ele>997.3333333333333</ele><time>2026-04-18T14:56:19.999Z</time></trkpt><trkpt lat="46.01254675070695" lon="12.024989622057753"><ele>996.5</ele><time>2026-04-18T14:56:20.999Z</time></trkpt><trkpt lat="46.012587764574015" lon="12.025089237969933"><ele>995.6666666666666</ele><time>2026-04-18T14:56:21.999Z</time></trkpt><trkpt lat="46.012634757978375" lon="12.02518589761268"><ele>994.8333333333333</ele><time>2026-04-18T14:56:22.999Z</time></trkpt><trkpt lat="46.012688187847964" lon="12.025261581670236"><ele>994.0</ele><time>2026-04-18T14:56:23.999Z</time></trkpt><trkpt lat="46.012840370760024" lon="12.02537413774159"><ele>993.9999999999999</ele><time>2026-04-18T14:56:25.999Z</time></trkpt><trkpt lat="46.012922872598054" lon="12.02541563514328"><ele>994.0</ele><time>2026-04-18T14:56:26.999Z</time></trkpt><trkpt lat="46.0130073845739" lon="12.025446096715234"><ele>994.0</ele><time>2026-04-18T14:56:27.999Z</time></trkpt><trkpt lat="46.01308975082114" lon="12.025488776045469"><ele>994.0</ele><time>2026-04-18T14:56:28.999Z</time></trkpt><trkpt lat="46.013160619447525" lon="12.025542543102455"><ele>993.9999999999999</ele><time>2026-04-18T14:56:29.999Z</time></trkpt><trkpt lat="46.013233393524395" lon="12.025598293575653"><ele>994.0</ele><time>2026-04-18T14:56:30.999Z</time></trkpt><trkpt lat="46.01331190600365" lon="12.025654545775124"><ele>991.8333333333333</ele><time>2026-04-18T14:56:31.999Z</time></trkpt><trkpt lat="46.01337741408526" lon="12.025727254270423"><ele>989.6666666666666</ele><time>2026-04-18T14:56:32.999Z</time></trkpt><trkpt lat="46.013432637326645" lon="12.025822318447632"><ele>987.5</ele><time>2026-04-18T14:56:33.999Z</time></trkpt><trkpt lat="46.01346547980389" lon="12.025953349995882"><ele>985.3333333333333</ele><time>2026-04-18T14:56:34.999Z</time></trkpt><trkpt lat="46.01350486614939" lon="12.026066195182949"><ele>983.1666666666666</ele><time>2026-04-18T14:56:35.999Z</time></trkpt><trkpt lat="46.01355295707322" lon="12.026177595090397"><ele>981.0</ele><time>2026-04-18T14:56:36.999Z</time></trkpt><trkpt lat="46.013587208200065" lon="12.02629057338425"><ele>981.0</ele><time>2026-04-18T14:56:37.999Z</time></trkpt><trkpt lat="46.01362182422261" lon="12.026411947264492"><ele>981.0</ele><time>2026-04-18T14:56:38.999Z</time></trkpt><trkpt lat="46.013644198854266" lon="12.026534595765867"><ele>981.0</ele><time>2026-04-18T14:56:39.999Z</time></trkpt><trkpt lat="46.013670280110865" lon="12.026648691275915"><ele>981.0</ele><time>2026-04-18T14:56:40.999Z</time></trkpt><trkpt lat="46.01370112131315" lon="12.026743176742631"><ele>981.0</ele><time>2026-04-18T14:56:41.999Z</time></trkpt><trkpt lat="46.013750617546044" lon="12.026827980536302"><ele>981.0</ele><time>2026-04-18T14:56:42.999Z</time></trkpt><trkpt lat="46.013804307530066" lon="12.026912414345844"><ele>981.6666666666666</ele><time>2026-04-18T14:56:43.999Z</time></trkpt><trkpt lat="46.0138641007013" lon="12.026993843180946"><ele>982.3333333333333</ele><time>2026-04-18T14:56:44.999Z</time></trkpt><trkpt lat="46.01392233978639" lon="12.027089834280407"><ele>983.0</ele><time>2026-04-18T14:56:45.999Z</time></trkpt><trkpt lat="46.013966878355454" lon="12.027220841772126"><ele>983.6666666666666</ele><time>2026-04-18T14:56:46.999Z</time></trkpt><trkpt lat="46.014018399471176" lon="12.027285220321573"><ele>984.3333333333333</ele><time>2026-04-18T14:56:47.999Z</time></trkpt><trkpt lat="46.014070932499926" lon="12.02736840101082"><ele>985.0</ele><time>2026-04-18T14:56:48.999Z</time></trkpt><trkpt lat="46.01412262157367" lon="12.027465047739769"><ele>978.6666666666666</ele><time>2026-04-18T14:56:49.999Z</time></trkpt><trkpt lat="46.01417103367501" lon="12.027564434875286"><ele>972.3333333333333</ele><time>2026-04-18T14:56:50.999Z</time></trkpt><trkpt lat="46.014210919750056" lon="12.027670923770264"><ele>966.0</ele><time>2026-04-18T14:56:51.999Z</time></trkpt><trkpt lat="46.0142583114722" lon="12.027756872946727"><ele>959.6666666666667</ele><time>2026-04-18T14:56:52.999Z</time></trkpt><trkpt lat="46.0143081770861" lon="12.027847730678921"><ele>953.3333333333334</ele><time>2026-04-18T14:56:53.999Z</time></trkpt><trkpt lat="46.01435661180429" lon="12.027943921044471"><ele>947.0</ele><time>2026-04-18T14:56:54.999Z</time></trkpt><trkpt lat="46.014408707693875" lon="12.028043070995679"><ele>947.0</ele><time>2026-04-18T14:56:55.999Z</time></trkpt><trkpt lat="46.01445835476875" lon="12.028148248556748"><ele>947.0</ele><time>2026-04-18T14:56:56.999Z</time></trkpt><trkpt lat="46.014538520436275" lon="12.02831262838082"><ele>947.0</ele><time>2026-04-18T14:56:57.999Z</time></trkpt><trkpt lat="46.01462027419757" lon="12.028444477471467"><ele>947.0</ele><time>2026-04-18T14:56:58.999Z</time></trkpt><trkpt lat="46.0146780522423" lon="12.028589802284765"><ele>946.2857142857142</ele><time>2026-04-18T14:57:02Z</time></trkpt><trkpt lat="46.01470594298519" lon="12.028679829526558"><ele>945.5714285714284</ele><time>2026-04-18T14:57:03Z</time></trkpt><trkpt lat="46.01472038932922" lon="12.02877550422164"><ele>944.8571428571429</ele><time>2026-04-18T14:57:04Z</time></trkpt><trkpt lat="46.014723886444756" lon="12.02887949671425"><ele>944.1428571428571</ele><time>2026-04-18T14:57:05Z</time></trkpt><trkpt lat="46.01470111164642" lon="12.028988922801227"><ele>943.4285714285714</ele><time>2026-04-18T14:57:06Z</time></trkpt><trkpt lat="46.01471060267085" lon="12.029085840778102"><ele>942.7142857142858</ele><time>2026-04-18T14:57:07Z</time></trkpt><trkpt lat="46.014710439921565" lon="12.029189057633904"><ele>942.0000000000001</ele><time>2026-04-18T14:57:08Z</time></trkpt><trkpt lat="46.01473034001511" lon="12.02929501825636"><ele>940.1666666666666</ele><time>2026-04-18T14:57:09Z</time></trkpt><trkpt lat="46.01476317654472" lon="12.029404009764717"><ele>938.3333333333333</ele><time>2026-04-18T14:57:10Z</time></trkpt><trkpt lat="46.014801011625636" lon="12.02950511990028"><ele>936.5</ele><time>2026-04-18T14:57:11Z</time></trkpt><trkpt lat="46.01484022309709" lon="12.029601989523647"><ele>934.6666666666666</ele><time>2026-04-18T14:57:12Z</time></trkpt><trkpt lat="46.014876909076015" lon="12.029705494982615"><ele>932.8333333333333</ele><time>2026-04-18T14:57:13Z</time></trkpt><trkpt lat="46.01493478051311" lon="12.029801699283086"><ele>931.0</ele><time>2026-04-18T14:57:14Z</time></trkpt><trkpt lat="46.015002537931004" lon="12.0298701722364"><ele>929.6666666666666</ele><time>2026-04-18T14:57:15Z</time></trkpt><trkpt lat="46.01505641958293" lon="12.029942768730873"><ele>928.3333333333333</ele><time>2026-04-18T14:57:16Z</time></trkpt><trkpt lat="46.015120373977865" lon="12.030017636986761"><ele>927.0</ele><time>2026-04-18T14:57:17Z</time></trkpt><trkpt lat="46.015180641819974" lon="12.030090625160213"><ele>925.6666666666667</ele><time>2026-04-18T14:57:18Z</time></trkpt><trkpt lat="46.01524255393348" lon="12.030151399782408"><ele>924.3333333333334</ele><time>2026-04-18T14:57:19Z</time></trkpt><trkpt lat="46.015310622533924" lon="12.030210196124928"><ele>923.0</ele><time>2026-04-18T14:57:20Z</time></trkpt><trkpt lat="46.015385187848786" lon="12.030244857947427"><ele>922.0</ele><time>2026-04-18T14:57:21Z</time></trkpt><trkpt lat="46.01544986144574" lon="12.030271671187563"><ele>921.0</ele><time>2026-04-18T14:57:22Z</time></trkpt><trkpt lat="46.01552398938521" lon="12.030272005587166"><ele>920.0</ele><time>2026-04-18T14:57:23Z</time></trkpt><trkpt lat="46.01559740332334" lon="12.030255959971374"><ele>919.0</ele><time>2026-04-18T14:57:24Z</time></trkpt><trkpt lat="46.01566938214119" lon="12.03021360938308"><ele>918.0</ele><time>2026-04-18T14:57:25Z</time></trkpt><trkpt lat="46.015731164476406" lon="12.030162191471918"><ele>917.0</ele><time>2026-04-18T14:57:26Z</time></trkpt><trkpt lat="46.01577882048121" lon="12.03008769601825"><ele>916.0</ele><time>2026-04-18T14:57:27Z</time></trkpt><trkpt lat="46.015817226468066" lon="12.029986210902148"><ele>917.4</ele><time>2026-04-18T14:57:28Z</time></trkpt><trkpt lat="46.01583494041729" lon="12.029858279890057"><ele>918.8</ele><time>2026-04-18T14:57:29Z</time></trkpt><trkpt lat="46.015818948081126" lon="12.029716671380788"><ele>920.1999999999999</ele><time>2026-04-18T14:57:30Z</time></trkpt><trkpt lat="46.015784452450916" lon="12.029572718068287"><ele>921.5999999999999</ele><time>2026-04-18T14:57:31Z</time></trkpt><trkpt lat="46.01572941311173" lon="12.029455046923246"><ele>923.0</ele><time>2026-04-18T14:57:32Z</time></trkpt><trkpt lat="46.01568306759646" lon="12.02934441814048"><ele>923.0000000000001</ele><time>2026-04-18T14:57:33Z</time></trkpt><trkpt lat="46.01566405233081" lon="12.02923397863269"><ele>923.0</ele><time>2026-04-18T14:57:34Z</time></trkpt><trkpt lat="46.01563211176729" lon="12.02914096840455"><ele>923.0</ele><time>2026-04-18T14:57:35Z</time></trkpt><trkpt lat="46.01565151767192" lon="12.02897430328397"><ele>923.0</ele><time>2026-04-18T14:57:37Z</time></trkpt><trkpt lat="46.01569866327365" lon="12.028900134459848"><ele>923.0000000000001</ele><time>2026-04-18T14:57:38Z</time></trkpt><trkpt lat="46.015764236958965" lon="12.02886468725209"><ele>923.0</ele><time>2026-04-18T14:57:39Z</time></trkpt><trkpt lat="46.01582998084742" lon="12.02886979471952"><ele>919.0</ele><time>2026-04-18T14:57:40Z</time></trkpt><trkpt lat="46.01588409649116" lon="12.028926837412973"><ele>915.0</ele><time>2026-04-18T14:57:41Z</time></trkpt><trkpt lat="46.01591251493059" lon="12.029028273911884"><ele>911.0</ele><time>2026-04-18T14:57:42Z</time></trkpt><trkpt lat="46.01592174670964" lon="12.029191316294334"><ele>907.0</ele><time>2026-04-18T14:57:43Z</time></trkpt><trkpt lat="46.015974436590234" lon="12.029335016992608"><ele>903.0</ele><time>2026-04-18T14:57:44Z</time></trkpt><trkpt lat="46.01599947850912" lon="12.029463044753014"><ele>903.0</ele><time>2026-04-18T14:57:45Z</time></trkpt><trkpt lat="46.01602554917901" lon="12.029571728243413"><ele>903.0</ele><time>2026-04-18T14:57:46Z</time></trkpt><trkpt lat="46.01605663807432" lon="12.029690281312398"><ele>903.0</ele><time>2026-04-18T14:57:47Z</time></trkpt><trkpt lat="46.016106342886765" lon="12.029819835896056"><ele>903.0</ele><time>2026-04-18T14:57:48Z</time></trkpt><trkpt lat="46.016164019764844" lon="12.029930906956137"><ele>903.0</ele><time>2026-04-18T14:57:49Z</time></trkpt><trkpt lat="46.016211511576806" lon="12.030026502814774"><ele>903.0</ele><time>2026-04-18T14:57:50Z</time></trkpt><trkpt lat="46.016270942846184" lon="12.03011324012631"><ele>903.0</ele><time>2026-04-18T14:57:51Z</time></trkpt><trkpt lat="46.01633042219577" lon="12.03020115362663"><ele>903.0</ele><time>2026-04-18T14:57:52Z</time></trkpt><trkpt lat="46.01638041453702" lon="12.030284747767382"><ele>903.0</ele><time>2026-04-18T14:57:53Z</time></trkpt><trkpt lat="46.016434496108374" lon="12.030369057070965"><ele>903.0</ele><time>2026-04-18T14:57:54Z</time></trkpt><trkpt lat="46.01647930667115" lon="12.030447599712332"><ele>903.0</ele><time>2026-04-18T14:57:55Z</time></trkpt><trkpt lat="46.016533254236315" lon="12.03053433059571"><ele>903.0</ele><time>2026-04-18T14:57:56Z</time></trkpt><trkpt lat="46.01659000989866" lon="12.030596510049572"><ele>903.0</ele><time>2026-04-18T14:57:57Z</time></trkpt><trkpt lat="46.01665204945787" lon="12.03063903060387"><ele>903.0</ele><time>2026-04-18T14:57:58Z</time></trkpt><trkpt lat="46.016720439787605" lon="12.030651175486094"><ele>903.0</ele><time>2026-04-18T14:57:59Z</time></trkpt><trkpt lat="46.01678198278646" lon="12.030623966224919"><ele>903.0</ele><time>2026-04-18T14:58:00Z</time></trkpt><trkpt lat="46.016834372308814" lon="12.03056021120912"><ele>903.0</ele><time>2026-04-18T14:58:01Z</time></trkpt><trkpt lat="46.01686434391395" lon="12.030465750719864"><ele>903.0</ele><time>2026-04-18T14:58:02Z</time></trkpt><trkpt lat="46.016883996400615" lon="12.030348424316326"><ele>903.0</ele><time>2026-04-18T14:58:03Z</time></trkpt><trkpt lat="46.01691328307024" lon="12.03022677176522"><ele>899.1666666666666</ele><time>2026-04-18T14:58:04Z</time></trkpt><trkpt lat="46.01692954184862" lon="12.030123497057362"><ele>895.3333333333333</ele><time>2026-04-18T14:58:05Z</time></trkpt><trkpt lat="46.01693788694545" lon="12.030012996843555"><ele>891.5</ele><time>2026-04-18T14:58:06Z</time></trkpt><trkpt lat="46.01695497572484" lon="12.029905124239521"><ele>887.6666666666666</ele><time>2026-04-18T14:58:07Z</time></trkpt><trkpt lat="46.016970573427244" lon="12.029769317953544"><ele>883.8333333333333</ele><time>2026-04-18T14:58:08Z</time></trkpt><trkpt lat="46.01696624675718" lon="12.029653128611896"><ele>880.0</ele><time>2026-04-18T14:58:09Z</time></trkpt><trkpt lat="46.01695796684228" lon="12.02951474226298"><ele>879.8</ele><time>2026-04-18T14:58:09.999Z</time></trkpt><trkpt lat="46.01691245497465" lon="12.02938781437459"><ele>879.6</ele><time>2026-04-18T14:58:10.999Z</time></trkpt><trkpt lat="46.01686406819847" lon="12.029209454995915"><ele>879.4000000000001</ele><time>2026-04-18T14:58:12.999Z</time></trkpt><trkpt lat="46.01683998142439" lon="12.029120587680028"><ele>879.2</ele><time>2026-04-18T14:58:13.999Z</time></trkpt><trkpt lat="46.0168218148521" lon="12.029028476025289"><ele>879.0</ele><time>2026-04-18T14:58:14.999Z</time></trkpt><trkpt lat="46.016860546080224" lon="12.028851874770309"><ele>878.0</ele><time>2026-04-18T14:58:16.999Z</time></trkpt><trkpt lat="46.01696250851488" lon="12.028751617033542"><ele>877.0000000000001</ele><time>2026-04-18T14:58:18.999Z</time></trkpt><trkpt lat="46.01703225150003" lon="12.028730654525745"><ele>876.0000000000001</ele><time>2026-04-18T14:58:19.999Z</time></trkpt><trkpt lat="46.01712313355983" lon="12.028715686014102"><ele>875.0</ele><time>2026-04-18T14:58:20.999Z</time></trkpt><trkpt lat="46.01722097980839" lon="12.028694849513696"><ele>874.0</ele><time>2026-04-18T14:58:21.999Z</time></trkpt><trkpt lat="46.017324010522834" lon="12.0286762423924"><ele>873.9999999999999</ele><time>2026-04-18T14:58:22.999Z</time></trkpt><trkpt lat="46.01741681207062" lon="12.028642603754024"><ele>874.0</ele><time>2026-04-18T14:58:23.999Z</time></trkpt><trkpt lat="46.01748734694595" lon="12.028661587382578"><ele>874.0</ele><time>2026-04-18T14:58:24.999Z</time></trkpt><trkpt lat="46.01756607496099" lon="12.028583722161907"><ele>874.0</ele><time>2026-04-18T14:58:25.999Z</time></trkpt><trkpt lat="46.01762594169642" lon="12.0285098078453"><ele>873.9999999999999</ele><time>2026-04-18T14:58:26.999Z</time></trkpt><trkpt lat="46.01767174577175" lon="12.028409371003553"><ele>874.0</ele><time>2026-04-18T14:58:27.999Z</time></trkpt><trkpt lat="46.01769752535664" lon="12.028285754305928"><ele>871.9999999999999</ele><time>2026-04-18T14:58:28.999Z</time></trkpt><trkpt lat="46.01769951277046" lon="12.028158401697112"><ele>870.0</ele><time>2026-04-18T14:58:29.999Z</time></trkpt><trkpt lat="46.01769781249892" lon="12.028039086747834"><ele>868.0</ele><time>2026-04-18T14:58:30.999Z</time></trkpt><trkpt lat="46.01769265569734" lon="12.027922036266743"><ele>866.0</ele><time>2026-04-18T14:58:31.999Z</time></trkpt><trkpt lat="46.01769286137219" lon="12.027809222696924"><ele>863.9999999999999</ele><time>2026-04-18T14:58:32.999Z</time></trkpt><trkpt lat="46.01769522016683" lon="12.027680083448745"><ele>862.0</ele><time>2026-04-18T14:58:33.999Z</time></trkpt><trkpt lat="46.01768874906023" lon="12.02755761064958"><ele>861.1666666666666</ele><time>2026-04-18T14:58:34.999Z</time></trkpt><trkpt lat="46.017691072031035" lon="12.027437075668889"><ele>860.3333333333333</ele><time>2026-04-18T14:58:35.999Z</time></trkpt><trkpt lat="46.01768892047145" lon="12.027328504532441"><ele>859.5</ele><time>2026-04-18T14:58:36.999Z</time></trkpt><trkpt lat="46.01768543703691" lon="12.027220491084778"><ele>858.6666666666667</ele><time>2026-04-18T14:58:37.999Z</time></trkpt><trkpt lat="46.017680214066594" lon="12.027102560830105"><ele>857.8333333333334</ele><time>2026-04-18T14:58:38.999Z</time></trkpt><trkpt lat="46.01769291486827" lon="12.0269947489834"><ele>857.0</ele><time>2026-04-18T14:58:39.999Z</time></trkpt><trkpt lat="46.017689022386946" lon="12.026885123788565"><ele>857.0000000000001</ele><time>2026-04-18T14:58:40.999Z</time></trkpt><trkpt lat="46.01771617632499" lon="12.026781190062762"><ele>857.0</ele><time>2026-04-18T14:58:41.999Z</time></trkpt><trkpt lat="46.01773627440272" lon="12.026679764696645"><ele>857.0</ele><time>2026-04-18T14:58:42.999Z</time></trkpt><trkpt lat="46.01779333587428" lon="12.026613630260119"><ele>857.0</ele><time>2026-04-18T14:58:43.999Z</time></trkpt><trkpt lat="46.01786248576749" lon="12.026590321164692"><ele>857.0000000000001</ele><time>2026-04-18T14:58:44.999Z</time></trkpt><trkpt lat="46.01793787955177" lon="12.026611346646124"><ele>857.0</ele><time>2026-04-18T14:58:45.999Z</time></trkpt><trkpt lat="46.01799004986463" lon="12.026713862054393"><ele>857.0000000000001</ele><time>2026-04-18T14:58:46.999Z</time></trkpt><trkpt lat="46.01805413775841" lon="12.026798991812983"><ele>857.0</ele><time>2026-04-18T14:58:47.999Z</time></trkpt><trkpt lat="46.01811801744601" lon="12.026887497549819"><ele>857.0</ele><time>2026-04-18T14:58:48.999Z</time></trkpt><trkpt lat="46.01817123931795" lon="12.026958624073812"><ele>857.0</ele><time>2026-04-18T14:58:49.999Z</time></trkpt><trkpt lat="46.0182391682061" lon="12.026987885426866"><ele>857.0000000000001</ele><time>2026-04-18T14:58:50.999Z</time></trkpt><trkpt lat="46.01830204414295" lon="12.026967097479426"><ele>857.0</ele><time>2026-04-18T14:58:51.999Z</time></trkpt><trkpt lat="46.01837986689625" lon="12.02692941283394"><ele>853.6</ele><time>2026-04-18T14:58:52.999Z</time></trkpt><trkpt lat="46.01843263263516" lon="12.026846003270991"><ele>850.2</ele><time>2026-04-18T14:58:53.999Z</time></trkpt><trkpt lat="46.01845841355971" lon="12.026730402727006"><ele>846.8</ele><time>2026-04-18T14:58:54.999Z</time></trkpt><trkpt lat="46.01845487147178" lon="12.02657493545754"><ele>843.4</ele><time>2026-04-18T14:58:55.999Z</time></trkpt><trkpt lat="46.018443968080426" lon="12.02641403294228"><ele>840.0</ele><time>2026-04-18T14:58:56.999Z</time></trkpt><trkpt lat="46.01843993881033" lon="12.026267176319461"><ele>838.6666666666666</ele><time>2026-04-18T14:58:57.999Z</time></trkpt><trkpt lat="46.018441295962745" lon="12.026132926380116"><ele>837.3333333333333</ele><time>2026-04-18T14:58:58.999Z</time></trkpt><trkpt lat="46.01843388720357" lon="12.025994306277239"><ele>836.0</ele><time>2026-04-18T14:58:59.999Z</time></trkpt><trkpt lat="46.018435496407776" lon="12.02586934254346"><ele>834.6666666666666</ele><time>2026-04-18T14:59:00.999Z</time></trkpt><trkpt lat="46.018433631946074" lon="12.025749039205456"><ele>833.3333333333333</ele><time>2026-04-18T14:59:01.999Z</time></trkpt><trkpt lat="46.018432173887255" lon="12.025630242582974"><ele>832.0</ele><time>2026-04-18T14:59:02.999Z</time></trkpt><trkpt lat="46.018426220314254" lon="12.025517597599968"><ele>831.3333333333333</ele><time>2026-04-18T14:59:03.999Z</time></trkpt><trkpt lat="46.01842311420923" lon="12.025390790827696"><ele>830.6666666666666</ele><time>2026-04-18T14:59:04.999Z</time></trkpt><trkpt lat="46.01843202702794" lon="12.025268255674733"><ele>830.0</ele><time>2026-04-18T14:59:06Z</time></trkpt><trkpt lat="46.018438794699094" lon="12.025161161801146"><ele>829.3333333333333</ele><time>2026-04-18T14:59:07Z</time></trkpt><trkpt lat="46.01842997634886" lon="12.025061000386852"><ele>828.6666666666666</ele><time>2026-04-18T14:59:08Z</time></trkpt><trkpt lat="46.01842836422558" lon="12.024964171571796"><ele>828.0</ele><time>2026-04-18T14:59:09Z</time></trkpt><trkpt lat="46.0184195291118" lon="12.024866320764938"><ele>826.5</ele><time>2026-04-18T14:59:10Z</time></trkpt><trkpt lat="46.01842472615212" lon="12.024745787419292"><ele>825.0</ele><time>2026-04-18T14:59:11Z</time></trkpt><trkpt lat="46.018426519874495" lon="12.024629574972174"><ele>823.5</ele><time>2026-04-18T14:59:12Z</time></trkpt><trkpt lat="46.018430499215896" lon="12.024516345932797"><ele>822.0</ele><time>2026-04-18T14:59:13Z</time></trkpt><trkpt lat="46.018435475895146" lon="12.024405257978813"><ele>820.5</ele><time>2026-04-18T14:59:14Z</time></trkpt><trkpt lat="46.01843965432077" lon="12.024289871097249"><ele>819.0</ele><time>2026-04-18T14:59:15Z</time></trkpt><trkpt lat="46.018447887651895" lon="12.024175733293564"><ele>816.8333333333334</ele><time>2026-04-18T14:59:16Z</time></trkpt><trkpt lat="46.018451801667666" lon="12.024072848640456"><ele>814.6666666666667</ele><time>2026-04-18T14:59:17Z</time></trkpt><trkpt lat="46.01845726159145" lon="12.023967366978548"><ele>812.5</ele><time>2026-04-18T14:59:18Z</time></trkpt><trkpt lat="46.01846424176148" lon="12.023861431758549"><ele>810.3333333333334</ele><time>2026-04-18T14:59:19Z</time></trkpt><trkpt lat="46.01846834334791" lon="12.023750426327407"><ele>808.1666666666667</ele><time>2026-04-18T14:59:20Z</time></trkpt><trkpt lat="46.01847287877564" lon="12.023630020239093"><ele>806.0</ele><time>2026-04-18T14:59:21Z</time></trkpt><trkpt lat="46.01847190172813" lon="12.023513539593434"><ele>806.0</ele><time>2026-04-18T14:59:22Z</time></trkpt><trkpt lat="46.018478567762365" lon="12.023401485695778"><ele>806.0</ele><time>2026-04-18T14:59:23Z</time></trkpt><trkpt lat="46.018486523255326" lon="12.023301965889077"><ele>806.0</ele><time>2026-04-18T14:59:24Z</time></trkpt><trkpt lat="46.018491920215254" lon="12.023208230920051"><ele>806.0</ele><time>2026-04-18T14:59:25Z</time></trkpt><trkpt lat="46.01852136571301" lon="12.023118145316985"><ele>806.0</ele><time>2026-04-18T14:59:26Z</time></trkpt><trkpt lat="46.01854149025252" lon="12.023031264823661"><ele>806.0</ele><time>2026-04-18T14:59:27Z</time></trkpt><trkpt lat="46.018592291701104" lon="12.022966028260317"><ele>806.0</ele><time>2026-04-18T14:59:28Z</time></trkpt><trkpt lat="46.01866018283747" lon="12.022929228714013"><ele>806.0000000000001</ele><time>2026-04-18T14:59:29Z</time></trkpt><trkpt lat="46.01874184781323" lon="12.022933068045075"><ele>806.0</ele><time>2026-04-18T14:59:30Z</time></trkpt><trkpt lat="46.0188532659278" lon="12.023027709647627"><ele>806.0</ele><time>2026-04-18T14:59:32Z</time></trkpt><trkpt lat="46.01889339250581" lon="12.023119910826953"><ele>806.0</ele><time>2026-04-18T14:59:33Z</time></trkpt><trkpt lat="46.018936810788794" lon="12.023223287632929"><ele>806.0000000000001</ele><time>2026-04-18T14:59:34Z</time></trkpt><trkpt lat="46.018981965814866" lon="12.02331010113846"><ele>806.0</ele><time>2026-04-18T14:59:35Z</time></trkpt><trkpt lat="46.01903891144185" lon="12.023376181928239"><ele>806.0000000000001</ele><time>2026-04-18T14:59:36Z</time></trkpt><trkpt lat="46.01911300664695" lon="12.023400050864117"><ele>806.0</ele><time>2026-04-18T14:59:37Z</time></trkpt><trkpt lat="46.01919830423803" lon="12.023386355436264"><ele>806.0</ele><time>2026-04-18T14:59:38Z</time></trkpt><trkpt lat="46.01928396603698" lon="12.023355950677258"><ele>806.0</ele><time>2026-04-18T14:59:39Z</time></trkpt><trkpt lat="46.01936389474645" lon="12.023368751645762"><ele>806.0000000000001</ele><time>2026-04-18T14:59:40Z</time></trkpt><trkpt lat="46.01945571953053" lon="12.02336030439399"><ele>806.0</ele><time>2026-04-18T14:59:41Z</time></trkpt><trkpt lat="46.01954546117408" lon="12.023349743137263"><ele>803.8333333333334</ele><time>2026-04-18T14:59:42Z</time></trkpt><trkpt lat="46.019631636407006" lon="12.023339116622049"><ele>801.6666666666667</ele><time>2026-04-18T14:59:43Z</time></trkpt><trkpt lat="46.01972358927269" lon="12.02332321526919"><ele>799.5</ele><time>2026-04-18T14:59:44Z</time></trkpt><trkpt lat="46.019805082237006" lon="12.023292006484864"><ele>797.3333333333333</ele><time>2026-04-18T14:59:45Z</time></trkpt><trkpt lat="46.01988363646397" lon="12.023289897111802"><ele>795.1666666666666</ele><time>2026-04-18T14:59:46Z</time></trkpt><trkpt lat="46.019947337751425" lon="12.023268703151588"><ele>793.0</ele><time>2026-04-18T14:59:47Z</time></trkpt><trkpt lat="46.0200221862215" lon="12.023262416386618"><ele>790.3333333333333</ele><time>2026-04-18T14:59:48Z</time></trkpt><trkpt lat="46.02009431848892" lon="12.023255589236422"><ele>787.6666666666666</ele><time>2026-04-18T14:59:49Z</time></trkpt><trkpt lat="46.020174884986844" lon="12.02325692722692"><ele>785.0</ele><time>2026-04-18T14:59:50Z</time></trkpt><trkpt lat="46.020258390713124" lon="12.023255484507956"><ele>782.3333333333333</ele><time>2026-04-18T14:59:51Z</time></trkpt><trkpt lat="46.020335865025885" lon="12.023263945713877"><ele>779.6666666666666</ele><time>2026-04-18T14:59:52Z</time></trkpt><trkpt lat="46.020418032773875" lon="12.02330253091671"><ele>777.0</ele><time>2026-04-18T14:59:53Z</time></trkpt><trkpt lat="46.02048636103816" lon="12.023350988011016"><ele>777.0</ele><time>2026-04-18T14:59:54Z</time></trkpt><trkpt lat="46.020544401362805" lon="12.023423667400557"><ele>777.0</ele><time>2026-04-18T14:59:55Z</time></trkpt><trkpt lat="46.02061908904579" lon="12.023465592649988"><ele>777.0</ele><time>2026-04-18T14:59:56Z</time></trkpt><trkpt lat="46.02069037904736" lon="12.023537924770121"><ele>777.0</ele><time>2026-04-18T14:59:57Z</time></trkpt><trkpt lat="46.020762759048935" lon="12.023623254361052"><ele>777.0</ele><time>2026-04-18T14:59:58Z</time></trkpt><trkpt lat="46.020839650596734" lon="12.023697333421802"><ele>777.0</ele><time>2026-04-18T14:59:59Z</time></trkpt><trkpt lat="46.0209305564698" lon="12.023769790778328"><ele>772.2</ele><time>2026-04-18T15:00:00Z</time></trkpt><trkpt lat="46.02102348050288" lon="12.02382800806698"><ele>767.4000000000001</ele><time>2026-04-18T15:00:01Z</time></trkpt><trkpt lat="46.021107116193946" lon="12.023893469228213"><ele>762.5999999999999</ele><time>2026-04-18T15:00:02Z</time></trkpt><trkpt lat="46.02119559513047" lon="12.0239382228427"><ele>757.8</ele><time>2026-04-18T15:00:03Z</time></trkpt><trkpt lat="46.0212709074146" lon="12.023984068567906"><ele>753.0</ele><time>2026-04-18T15:00:04Z</time></trkpt><trkpt lat="46.021343937175324" lon="12.024029512666637"><ele>753.0</ele><time>2026-04-18T15:00:05Z</time></trkpt><trkpt lat="46.021413729652515" lon="12.024064092918683"><ele>753.0</ele><time>2026-04-18T15:00:06Z</time></trkpt><trkpt lat="46.02148424808669" lon="12.024097609934474"><ele>753.0</ele><time>2026-04-18T15:00:07Z</time></trkpt><trkpt lat="46.02155592999677" lon="12.024133367765486"><ele>753.0</ele><time>2026-04-18T15:00:08Z</time></trkpt><trkpt lat="46.021625142625396" lon="12.024187626645164"><ele>753.0</ele><time>2026-04-18T15:00:09Z</time></trkpt><trkpt lat="46.02169092448312" lon="12.024250634563927"><ele>753.0</ele><time>2026-04-18T15:00:10Z</time></trkpt><trkpt lat="46.021755237727724" lon="12.024332297871544"><ele>751.0</ele><time>2026-04-18T15:00:11Z</time></trkpt><trkpt lat="46.02181654168207" lon="12.024439655878925"><ele>749.0</ele><time>2026-04-18T15:00:12Z</time></trkpt><trkpt lat="46.02186700036313" lon="12.024548641968615"><ele>747.0</ele><time>2026-04-18T15:00:13Z</time></trkpt><trkpt lat="46.02191838204926" lon="12.024650234276706"><ele>745.0</ele><time>2026-04-18T15:00:14Z</time></trkpt><trkpt lat="46.021970384144055" lon="12.024744295087324"><ele>743.0</ele><time>2026-04-18T15:00:15Z</time></trkpt><trkpt lat="46.022019611949375" lon="12.02483540042348"><ele>741.0</ele><time>2026-04-18T15:00:16Z</time></trkpt><trkpt lat="46.02206171529181" lon="12.024918255292102"><ele>740.8333333333334</ele><time>2026-04-18T15:00:17Z</time></trkpt><trkpt lat="46.02211364148866" lon="12.024995273649742"><ele>740.6666666666666</ele><time>2026-04-18T15:00:18Z</time></trkpt><trkpt lat="46.02216829058198" lon="12.025056177029441"><ele>740.5</ele><time>2026-04-18T15:00:18.999Z</time></trkpt><trkpt lat="46.02224370147651" lon="12.025091143862126"><ele>740.3333333333333</ele><time>2026-04-18T15:00:19.999Z</time></trkpt><trkpt lat="46.02231811171342" lon="12.025094229414785"><ele>740.1666666666666</ele><time>2026-04-18T15:00:20.999Z</time></trkpt><trkpt lat="46.02239546086926" lon="12.025081802655507"><ele>740.0</ele><time>2026-04-18T15:00:21.999Z</time></trkpt><trkpt lat="46.02246931652532" lon="12.025066652192583"><ele>738.5</ele><time>2026-04-18T15:00:22.999Z</time></trkpt><trkpt lat="46.02253280344432" lon="12.02506901735157"><ele>737.0</ele><time>2026-04-18T15:00:23.999Z</time></trkpt><trkpt lat="46.02265239999265" lon="12.025123309482618"><ele>735.5</ele><time>2026-04-18T15:00:25.999Z</time></trkpt><trkpt lat="46.022700543489215" lon="12.025194826825304"><ele>734.0</ele><time>2026-04-18T15:00:26.999Z</time></trkpt><trkpt lat="46.02273188646506" lon="12.02529214425555"><ele>732.5</ele><time>2026-04-18T15:00:27.999Z</time></trkpt><trkpt lat="46.022765122780164" lon="12.025417086262314"><ele>731.0</ele><time>2026-04-18T15:00:28.999Z</time></trkpt><trkpt lat="46.02279749092926" lon="12.025549595400008"><ele>731.0</ele><time>2026-04-18T15:00:29.999Z</time></trkpt><trkpt lat="46.02282720123706" lon="12.025685590113662"><ele>731.0</ele><time>2026-04-18T15:00:30.999Z</time></trkpt><trkpt lat="46.02285765490693" lon="12.025808810032828"><ele>731.0</ele><time>2026-04-18T15:00:31.999Z</time></trkpt><trkpt lat="46.02289972072875" lon="12.025923876675789"><ele>731.0</ele><time>2026-04-18T15:00:32.999Z</time></trkpt><trkpt lat="46.022920107985726" lon="12.02603982038797"><ele>731.0</ele><time>2026-04-18T15:00:33.999Z</time></trkpt><trkpt lat="46.02294811010526" lon="12.026152532223561"><ele>731.0</ele><time>2026-04-18T15:00:34.999Z</time></trkpt><trkpt lat="46.022969543175435" lon="12.026238745123019"><ele>731.1999999999999</ele><time>2026-04-18T15:00:35.999Z</time></trkpt><trkpt lat="46.02301374734012" lon="12.026390102045674"><ele>731.4</ele><time>2026-04-18T15:00:37.999Z</time></trkpt><trkpt lat="46.02304520643224" lon="12.026571086081969"><ele>731.6</ele><time>2026-04-18T15:00:39.999Z</time></trkpt><trkpt lat="46.023073417531926" lon="12.026656251191994"><ele>731.8</ele><time>2026-04-18T15:00:40.999Z</time></trkpt><trkpt lat="46.023077104256245" lon="12.026759721012697"><ele>732.0</ele><time>2026-04-18T15:00:41.999Z</time></trkpt><trkpt lat="46.02308942332323" lon="12.026866749642759"><ele>731.4000000000001</ele><time>2026-04-18T15:00:42.999Z</time></trkpt><trkpt lat="46.0231549200969" lon="12.027022647214729"><ele>730.8000000000001</ele><time>2026-04-18T15:00:44.999Z</time></trkpt><trkpt lat="46.023270199556336" lon="12.027116022173443"><ele>730.2</ele><time>2026-04-18T15:00:46.999Z</time></trkpt><trkpt lat="46.02333517412847" lon="12.02712536633838"><ele>729.6</ele><time>2026-04-18T15:00:47.999Z</time></trkpt><trkpt lat="46.02342326811544" lon="12.027093519008769"><ele>729.0</ele><time>2026-04-18T15:00:48.999Z</time></trkpt><trkpt lat="46.023514029991674" lon="12.027019976780153"><ele>726.8333333333334</ele><time>2026-04-18T15:00:49.999Z</time></trkpt><trkpt lat="46.023589448639804" lon="12.026935581807376"><ele>724.6666666666666</ele><time>2026-04-18T15:00:50.999Z</time></trkpt><trkpt lat="46.02365541045383" lon="12.026858385411801"><ele>722.5</ele><time>2026-04-18T15:00:51.999Z</time></trkpt><trkpt lat="46.02371538275979" lon="12.026769800291659"><ele>720.3333333333333</ele><time>2026-04-18T15:00:52.999Z</time></trkpt><trkpt lat="46.023775002744685" lon="12.026704585421594"><ele>718.1666666666666</ele><time>2026-04-18T15:00:53.999Z</time></trkpt><trkpt lat="46.02383433144479" lon="12.026618659201262"><ele>716.0</ele><time>2026-04-18T15:00:54.999Z</time></trkpt><trkpt lat="46.02389768980169" lon="12.02651464864032"><ele>716.0</ele><time>2026-04-18T15:00:55.999Z</time></trkpt><trkpt lat="46.02395894036093" lon="12.026388119112944"><ele>716.0</ele><time>2026-04-18T15:00:56.999Z</time></trkpt><trkpt lat="46.02400617835198" lon="12.026265281349463"><ele>716.0</ele><time>2026-04-18T15:00:57.999Z</time></trkpt><trkpt lat="46.02405354688973" lon="12.026152179689047"><ele>716.0</ele><time>2026-04-18T15:00:58.999Z</time></trkpt><trkpt lat="46.02408894691475" lon="12.026035302912373"><ele>716.0</ele><time>2026-04-18T15:00:59.999Z</time></trkpt><trkpt lat="46.024136662444974" lon="12.025911389989702"><ele>709.5999999999999</ele><time>2026-04-18T15:01:00.999Z</time></trkpt><trkpt lat="46.02415782996059" lon="12.02577930188995"><ele>703.2</ele><time>2026-04-18T15:01:01.999Z</time></trkpt><trkpt lat="46.02419425831321" lon="12.02565130575432"><ele>696.8</ele><time>2026-04-18T15:01:02.999Z</time></trkpt><trkpt lat="46.02421323041102" lon="12.025560498184323"><ele>690.4000000000001</ele><time>2026-04-18T15:01:03.999Z</time></trkpt><trkpt lat="46.02422722401432" lon="12.02542070768231"><ele>684.0</ele><time>2026-04-18T15:01:04.999Z</time></trkpt><trkpt lat="46.02421255797935" lon="12.025284038554034"><ele>684.0</ele><time>2026-04-18T15:01:05.999Z</time></trkpt><trkpt lat="46.02419236861413" lon="12.02512347356803"><ele>684.0</ele><time>2026-04-18T15:01:06.999Z</time></trkpt><trkpt lat="46.02413797938063" lon="12.024984196016446"><ele>684.0</ele><time>2026-04-18T15:01:07.999Z</time></trkpt><trkpt lat="46.02410993901241" lon="12.024849207413027"><ele>684.0</ele><time>2026-04-18T15:01:08.999Z</time></trkpt><trkpt lat="46.02407043702689" lon="12.024731131437289"><ele>684.0</ele><time>2026-04-18T15:01:09.999Z</time></trkpt><trkpt lat="46.024038886114695" lon="12.024617225139705"><ele>683.4285714285713</ele><time>2026-04-18T15:01:10.999Z</time></trkpt><trkpt lat="46.0240287789412" lon="12.02450606502231"><ele>682.8571428571429</ele><time>2026-04-18T15:01:12Z</time></trkpt><trkpt lat="46.024001638821375" lon="12.024406556760495"><ele>682.2857142857142</ele><time>2026-04-18T15:01:13Z</time></trkpt><trkpt lat="46.024021753635644" lon="12.024310138478633"><ele>681.7142857142857</ele><time>2026-04-18T15:01:14Z</time></trkpt><trkpt lat="46.02407076588571" lon="12.0242373175391"><ele>681.1428571428571</ele><time>2026-04-18T15:01:15Z</time></trkpt><trkpt lat="46.024134203140314" lon="12.024200564642491"><ele>680.5714285714286</ele><time>2026-04-18T15:01:16Z</time></trkpt><trkpt lat="46.02420771635086" lon="12.02422272762517"><ele>680.0</ele><time>2026-04-18T15:01:17Z</time></trkpt><trkpt lat="46.024272925014145" lon="12.024291474895017"><ele>680.0</ele><time>2026-04-18T15:01:18Z</time></trkpt><trkpt lat="46.024314553398526" lon="12.024434230494586"><ele>680.0</ele><time>2026-04-18T15:01:19Z</time></trkpt><trkpt lat="46.0243965236273" lon="12.02458218019643"><ele>680.0</ele><time>2026-04-18T15:01:20Z</time></trkpt><trkpt lat="46.024449476441795" lon="12.024745428476002"><ele>680.0</ele><time>2026-04-18T15:01:21Z</time></trkpt><trkpt lat="46.024501583968814" lon="12.02487274588447"><ele>680.8</ele><time>2026-04-18T15:01:22Z</time></trkpt><trkpt lat="46.02455519931398" lon="12.024993052546757"><ele>681.6</ele><time>2026-04-18T15:01:23Z</time></trkpt><trkpt lat="46.024596762685974" lon="12.025123131348105"><ele>682.4000000000001</ele><time>2026-04-18T15:01:24Z</time></trkpt><trkpt lat="46.024638696040505" lon="12.025232818412446"><ele>683.2</ele><time>2026-04-18T15:01:25Z</time></trkpt><trkpt lat="46.02468903947723" lon="12.025339928056697"><ele>684.0</ele><time>2026-04-18T15:01:26Z</time></trkpt><trkpt lat="46.02472943987554" lon="12.025443602516184"><ele>684.0</ele><time>2026-04-18T15:01:27Z</time></trkpt><trkpt lat="46.02477124086582" lon="12.025548580991893"><ele>684.0</ele><time>2026-04-18T15:01:28Z</time></trkpt><trkpt lat="46.02481298566697" lon="12.025656169530919"><ele>684.0</ele><time>2026-04-18T15:01:29Z</time></trkpt><trkpt lat="46.024855128891375" lon="12.02576831731859"><ele>684.0</ele><time>2026-04-18T15:01:30Z</time></trkpt><trkpt lat="46.02489207358686" lon="12.025876981374273"><ele>684.0</ele><time>2026-04-18T15:01:31Z</time></trkpt><trkpt lat="46.02492920227189" lon="12.02597595912971"><ele>684.0</ele><time>2026-04-18T15:01:32Z</time></trkpt><trkpt lat="46.02497908273851" lon="12.026102171982647"><ele>679.5</ele><time>2026-04-18T15:01:33Z</time></trkpt><trkpt lat="46.02503227731855" lon="12.026274027590883"><ele>675.0</ele><time>2026-04-18T15:01:34Z</time></trkpt><trkpt lat="46.02507562462729" lon="12.026439383855202"><ele>670.5</ele><time>2026-04-18T15:01:35Z</time></trkpt><trkpt lat="46.025111514735094" lon="12.026589624396419"><ele>666.0</ele><time>2026-04-18T15:01:36Z</time></trkpt><trkpt lat="46.02514332067246" lon="12.02672160049229"><ele>666.0</ele><time>2026-04-18T15:01:37Z</time></trkpt><trkpt lat="46.025170790595276" lon="12.026848095914103"><ele>666.0</ele><time>2026-04-18T15:01:38Z</time></trkpt><trkpt lat="46.02520057489246" lon="12.026983702130735"><ele>666.0</ele><time>2026-04-18T15:01:39Z</time></trkpt><trkpt lat="46.02522016834509" lon="12.027126796224108"><ele>666.0</ele><time>2026-04-18T15:01:40Z</time></trkpt><trkpt lat="46.025248462209284" lon="12.027273177003629"><ele>666.0</ele><time>2026-04-18T15:01:41Z</time></trkpt><trkpt lat="46.02526533010742" lon="12.027398739104756"><ele>666.1999999999999</ele><time>2026-04-18T15:01:42Z</time></trkpt><trkpt lat="46.02528657195296" lon="12.02751996197715"><ele>666.4</ele><time>2026-04-18T15:01:43Z</time></trkpt><trkpt lat="46.025309972231284" lon="12.027646888441653"><ele>666.6</ele><time>2026-04-18T15:01:44Z</time></trkpt><trkpt lat="46.02532474971363" lon="12.027773059481964"><ele>666.8</ele><time>2026-04-18T15:01:45Z</time></trkpt><trkpt lat="46.02534778032055" lon="12.02790917530109"><ele>667.0</ele><time>2026-04-18T15:01:46Z</time></trkpt><trkpt lat="46.02537412069295" lon="12.02804387534773"><ele>667.0</ele><time>2026-04-18T15:01:47Z</time></trkpt><trkpt lat="46.02540432895088" lon="12.028146859697136"><ele>667.0</ele><time>2026-04-18T15:01:48Z</time></trkpt><trkpt lat="46.02547561904858" lon="12.028257500063615"><ele>667.0</ele><time>2026-04-18T15:01:49Z</time></trkpt><trkpt lat="46.02557851560504" lon="12.028342723507448"><ele>667.0</ele><time>2026-04-18T15:01:50Z</time></trkpt><trkpt lat="46.02568827621568" lon="12.028399758544426"><ele>667.0</ele><time>2026-04-18T15:01:51Z</time></trkpt><trkpt lat="46.02577884859215" lon="12.028459628850431"><ele>664.6666666666667</ele><time>2026-04-18T15:01:52Z</time></trkpt><trkpt lat="46.02586012992066" lon="12.028519050344588"><ele>662.3333333333334</ele><time>2026-04-18T15:01:53Z</time></trkpt><trkpt lat="46.025942681038345" lon="12.028581652197593"><ele>660.0</ele><time>2026-04-18T15:01:54Z</time></trkpt><trkpt lat="46.026007870580784" lon="12.028655292753704"><ele>657.6666666666666</ele><time>2026-04-18T15:01:55Z</time></trkpt><trkpt lat="46.02606222684655" lon="12.028754895533266"><ele>655.3333333333333</ele><time>2026-04-18T15:01:56Z</time></trkpt><trkpt lat="46.02610716628631" lon="12.028867802167529"><ele>653.0</ele><time>2026-04-18T15:01:57Z</time></trkpt><trkpt lat="46.02613801096186" lon="12.028991234469126"><ele>653.0</ele><time>2026-04-18T15:01:58Z</time></trkpt><trkpt lat="46.02616655600332" lon="12.029151330395377"><ele>653.0</ele><time>2026-04-18T15:01:59Z</time></trkpt><trkpt lat="46.0262036288911" lon="12.02931333894601"><ele>653.0</ele><time>2026-04-18T15:02:00Z</time></trkpt><trkpt lat="46.02622934372247" lon="12.029455332030796"><ele>653.0</ele><time>2026-04-18T15:02:01Z</time></trkpt><trkpt lat="46.02626799043392" lon="12.02959931036143"><ele>653.0</ele><time>2026-04-18T15:02:02Z</time></trkpt><trkpt lat="46.026302358224115" lon="12.029735071795926"><ele>653.0</ele><time>2026-04-18T15:02:03Z</time></trkpt><trkpt lat="46.026341051186066" lon="12.029888228317578"><ele>653.0</ele><time>2026-04-18T15:02:04Z</time></trkpt><trkpt lat="46.02638985797957" lon="12.030051730173868"><ele>653.0</ele><time>2026-04-18T15:02:05Z</time></trkpt><trkpt lat="46.02642754952528" lon="12.030198824505302"><ele>653.0</ele><time>2026-04-18T15:02:06Z</time></trkpt><trkpt lat="46.026468143498356" lon="12.03034142808118"><ele>652.75</ele><time>2026-04-18T15:02:07Z</time></trkpt><trkpt lat="46.02652102170215" lon="12.030504825598012"><ele>652.5</ele><time>2026-04-18T15:02:08Z</time></trkpt><trkpt lat="46.02657147697438" lon="12.030655404538095"><ele>652.25</ele><time>2026-04-18T15:02:09Z</time></trkpt><trkpt lat="46.02661649757497" lon="12.030793283280568"><ele>652.0</ele><time>2026-04-18T15:02:10Z</time></trkpt><trkpt lat="46.02665721560423" lon="12.030931500056239"><ele>647.8000000000001</ele><time>2026-04-18T15:02:11Z</time></trkpt><trkpt lat="46.026704751506415" lon="12.031071574749417"><ele>643.6</ele><time>2026-04-18T15:02:12Z</time></trkpt><trkpt lat="46.0267486992583" lon="12.031214435779757"><ele>639.4000000000001</ele><time>2026-04-18T15:02:13Z</time></trkpt><trkpt lat="46.02679594043903" lon="12.031364485357186"><ele>635.2</ele><time>2026-04-18T15:02:14Z</time></trkpt><trkpt lat="46.02684190890135" lon="12.0315114980547"><ele>631.0</ele><time>2026-04-18T15:02:15Z</time></trkpt><trkpt lat="46.02688982429202" lon="12.031674133399974"><ele>631.0</ele><time>2026-04-18T15:02:16Z</time></trkpt><trkpt lat="46.02693448195914" lon="12.031825976066184"><ele>631.0</ele><time>2026-04-18T15:02:17Z</time></trkpt><trkpt lat="46.02697955608618" lon="12.031971908281003"><ele>631.0</ele><time>2026-04-18T15:02:18Z</time></trkpt><trkpt lat="46.02703224659685" lon="12.032111270271027"><ele>631.0</ele><time>2026-04-18T15:02:19Z</time></trkpt><trkpt lat="46.02708389289106" lon="12.032254453027454"><ele>631.0</ele><time>2026-04-18T15:02:20Z</time></trkpt><trkpt lat="46.027135723494176" lon="12.032395528698842"><ele>632.2</ele><time>2026-04-18T15:02:21Z</time></trkpt><trkpt lat="46.027184819846134" lon="12.032534337007121"><ele>633.4000000000001</ele><time>2026-04-18T15:02:22Z</time></trkpt><trkpt lat="46.0272342322563" lon="12.032662664337304"><ele>634.6</ele><time>2026-04-18T15:02:22.999Z</time></trkpt><trkpt lat="46.027276837655556" lon="12.032796146894245"><ele>635.8000000000001</ele><time>2026-04-18T15:02:23.999Z</time></trkpt><trkpt lat="46.027315406289276" lon="12.032918554664013"><ele>637.0</ele><time>2026-04-18T15:02:24.999Z</time></trkpt><trkpt lat="46.02736140124249" lon="12.033036043983406"><ele>637.0</ele><time>2026-04-18T15:02:25.999Z</time></trkpt><trkpt lat="46.02740910632645" lon="12.033154751180842"><ele>637.0</ele><time>2026-04-18T15:02:26.999Z</time></trkpt><trkpt lat="46.0274622266615" lon="12.033269672253121"><ele>637.0</ele><time>2026-04-18T15:02:27.999Z</time></trkpt><trkpt lat="46.027523645266754" lon="12.03337959744303"><ele>637.0</ele><time>2026-04-18T15:02:28.999Z</time></trkpt><trkpt lat="46.02759210334714" lon="12.033479673057043"><ele>637.0</ele><time>2026-04-18T15:02:29.999Z</time></trkpt><trkpt lat="46.02767049406482" lon="12.033569995484838"><ele>631.8000000000001</ele><time>2026-04-18T15:02:30.999Z</time></trkpt><trkpt lat="46.02774446380649" lon="12.033659527676623"><ele>626.6</ele><time>2026-04-18T15:02:31.999Z</time></trkpt><trkpt lat="46.02783260376857" lon="12.033752000636188"><ele>621.4000000000001</ele><time>2026-04-18T15:02:32.999Z</time></trkpt><trkpt lat="46.02790961433039" lon="12.03385059407976"><ele>616.2</ele><time>2026-04-18T15:02:33.999Z</time></trkpt><trkpt lat="46.02798145308854" lon="12.033940578621644"><ele>611.0</ele><time>2026-04-18T15:02:34.999Z</time></trkpt><trkpt lat="46.028061560747716" lon="12.034034503561857"><ele>611.0</ele><time>2026-04-18T15:02:35.999Z</time></trkpt><trkpt lat="46.02813573601466" lon="12.034117709421794"><ele>611.0</ele><time>2026-04-18T15:02:36.999Z</time></trkpt><trkpt lat="46.02820421142304" lon="12.03419932345641"><ele>611.0</ele><time>2026-04-18T15:02:37.999Z</time></trkpt><trkpt lat="46.02827547422905" lon="12.034279790763637"><ele>611.0</ele><time>2026-04-18T15:02:38.999Z</time></trkpt><trkpt lat="46.02834457279881" lon="12.034356807324038"><ele>611.0</ele><time>2026-04-18T15:02:39.999Z</time></trkpt><trkpt lat="46.02841984979735" lon="12.03443685482051"><ele>607.0</ele><time>2026-04-18T15:02:40.999Z</time></trkpt><trkpt lat="46.02849961643188" lon="12.034510049748379"><ele>603.0</ele><time>2026-04-18T15:02:41.999Z</time></trkpt><trkpt lat="46.02858352636087" lon="12.034569968806263"><ele>599.0</ele><time>2026-04-18T15:02:42.999Z</time></trkpt><trkpt lat="46.02866163928461" lon="12.03462534006273"><ele>595.0</ele><time>2026-04-18T15:02:43.999Z</time></trkpt><trkpt lat="46.028724810236675" lon="12.034669890093287"><ele>591.0</ele><time>2026-04-18T15:02:44.999Z</time></trkpt><trkpt lat="46.02883731968684" lon="12.03474500892769"><ele>591.0</ele><time>2026-04-18T15:02:46.999Z</time></trkpt><trkpt lat="46.028929436354176" lon="12.034800838526742"><ele>591.0</ele><time>2026-04-18T15:02:48.999Z</time></trkpt><trkpt lat="46.028928631362795" lon="12.034600938965218"><ele>591.0</ele><time>2026-04-18T15:02:54.999Z</time></trkpt><trkpt lat="46.02887621731076" lon="12.034476216066755"><ele>591.0</ele><time>2026-04-18T15:02:55.999Z</time></trkpt><trkpt lat="46.02886736298945" lon="12.034292080888395"><ele>591.0</ele><time>2026-04-18T15:02:57.999Z</time></trkpt><trkpt lat="46.028862657019154" lon="12.03418347595048"><ele>591.0</ele><time>2026-04-18T15:02:58.999Z</time></trkpt><trkpt lat="46.02885513018929" lon="12.034076224794243"><ele>591.0</ele><time>2026-04-18T15:02:59.999Z</time></trkpt><trkpt lat="46.02884921668251" lon="12.033969956805315"><ele>591.0</ele><time>2026-04-18T15:03:00.999Z</time></trkpt><trkpt lat="46.0288420898399" lon="12.033853064574553"><ele>591.0</ele><time>2026-04-18T15:03:01.999Z</time></trkpt><trkpt lat="46.02884035202793" lon="12.033734683480066"><ele>591.0</ele><time>2026-04-18T15:03:02.999Z</time></trkpt><trkpt lat="46.02882427258223" lon="12.033605533692247"><ele>591.2</ele><time>2026-04-18T15:03:03.999Z</time></trkpt><trkpt lat="46.028810414664896" lon="12.033463936776666"><ele>591.4000000000001</ele><time>2026-04-18T15:03:04.999Z</time></trkpt><trkpt lat="46.028784633728165" lon="12.033316450542815"><ele>591.6</ele><time>2026-04-18T15:03:05.999Z</time></trkpt><trkpt lat="46.028769064908204" lon="12.033172582184003"><ele>591.8000000000001</ele><time>2026-04-18T15:03:06.999Z</time></trkpt><trkpt lat="46.02874385141664" lon="12.033058040054138"><ele>592.0</ele><time>2026-04-18T15:03:07.999Z</time></trkpt><trkpt lat="46.02872921127519" lon="12.032956471863736"><ele>592.0</ele><time>2026-04-18T15:03:08.999Z</time></trkpt><trkpt lat="46.0287127682703" lon="12.032844034001895"><ele>592.0</ele><time>2026-04-18T15:03:09.999Z</time></trkpt><trkpt lat="46.0286908040262" lon="12.032716254868639"><ele>592.0</ele><time>2026-04-18T15:03:10.999Z</time></trkpt><trkpt lat="46.02866841302791" lon="12.032587893773469"><ele>592.0</ele><time>2026-04-18T15:03:11.999Z</time></trkpt><trkpt lat="46.028652406047655" lon="12.032466438579025"><ele>592.0</ele><time>2026-04-18T15:03:12.999Z</time></trkpt><trkpt lat="46.02863710984595" lon="12.032340253938585"><ele>592.0</ele><time>2026-04-18T15:03:13.999Z</time></trkpt><trkpt lat="46.02862495842478" lon="12.032203755010435"><ele>592.2</ele><time>2026-04-18T15:03:14.999Z</time></trkpt><trkpt lat="46.028635069232855" lon="12.032052949474675"><ele>592.4000000000001</ele><time>2026-04-18T15:03:15.999Z</time></trkpt><trkpt lat="46.028627197953455" lon="12.031903476132431"><ele>592.5999999999999</ele><time>2026-04-18T15:03:16.999Z</time></trkpt><trkpt lat="46.028634381782716" lon="12.031746191100426"><ele>592.8</ele><time>2026-04-18T15:03:18Z</time></trkpt><trkpt lat="46.0286474546182" lon="12.031595826129848"><ele>593.0</ele><time>2026-04-18T15:03:19Z</time></trkpt><trkpt lat="46.02864604178648" lon="12.031450029730172"><ele>592.4</ele><time>2026-04-18T15:03:20Z</time></trkpt><trkpt lat="46.028643354801325" lon="12.031286480994636"><ele>591.8</ele><time>2026-04-18T15:03:21Z</time></trkpt><trkpt lat="46.028637527805735" lon="12.031107044383862"><ele>591.2</ele><time>2026-04-18T15:03:22Z</time></trkpt><trkpt lat="46.02862984318889" lon="12.0309654785357"><ele>590.6</ele><time>2026-04-18T15:03:23Z</time></trkpt><trkpt lat="46.02861414925463" lon="12.0308458992378"><ele>590.0</ele><time>2026-04-18T15:03:24Z</time></trkpt><trkpt lat="46.02860039258095" lon="12.0307076506481"><ele>590.0</ele><time>2026-04-18T15:03:25Z</time></trkpt><trkpt lat="46.028578705945336" lon="12.030562902639183"><ele>590.0</ele><time>2026-04-18T15:03:26Z</time></trkpt><trkpt lat="46.02855269350624" lon="12.030428545926288"><ele>590.0</ele><time>2026-04-18T15:03:27Z</time></trkpt><trkpt lat="46.02851968631964" lon="12.030258633526893"><ele>590.0</ele><time>2026-04-18T15:03:28Z</time></trkpt><trkpt lat="46.028485252570334" lon="12.030092952102425"><ele>590.0</ele><time>2026-04-18T15:03:29Z</time></trkpt><trkpt lat="46.02845768537304" lon="12.029969508875075"><ele>590.0</ele><time>2026-04-18T15:03:30Z</time></trkpt><trkpt lat="46.028433581897055" lon="12.029839787207107"><ele>590.0</ele><time>2026-04-18T15:03:31Z</time></trkpt><trkpt lat="46.028407393405374" lon="12.029703171152628"><ele>590.0</ele><time>2026-04-18T15:03:32Z</time></trkpt><trkpt lat="46.028376902747226" lon="12.02956652805443"><ele>590.0</ele><time>2026-04-18T15:03:33Z</time></trkpt><trkpt lat="46.02835173724682" lon="12.029422826486798"><ele>590.0</ele><time>2026-04-18T15:03:34Z</time></trkpt><trkpt lat="46.02832327622884" lon="12.029284995728927"><ele>592.4</ele><time>2026-04-18T15:03:35Z</time></trkpt><trkpt lat="46.02829947327955" lon="12.029157711235476"><ele>594.8</ele><time>2026-04-18T15:03:36Z</time></trkpt><trkpt lat="46.02826581470168" lon="12.029033968420597"><ele>597.2</ele><time>2026-04-18T15:03:37Z</time></trkpt><trkpt lat="46.02822089303277" lon="12.028906223508134"><ele>599.6</ele><time>2026-04-18T15:03:38Z</time></trkpt><trkpt lat="46.028166352411105" lon="12.028767583344335"><ele>602.0</ele><time>2026-04-18T15:03:39Z</time></trkpt><trkpt lat="46.02811278161788" lon="12.028639370141144"><ele>602.0</ele><time>2026-04-18T15:03:40Z</time></trkpt><trkpt lat="46.02806349797128" lon="12.028526858141968"><ele>602.0</ele><time>2026-04-18T15:03:41Z</time></trkpt><trkpt lat="46.02801612832594" lon="12.028422806129143"><ele>602.0</ele><time>2026-04-18T15:03:42Z</time></trkpt><trkpt lat="46.02796426230725" lon="12.028313380431296"><ele>602.0</ele><time>2026-04-18T15:03:43Z</time></trkpt><trkpt lat="46.02790842920259" lon="12.028193897883758"><ele>602.0</ele><time>2026-04-18T15:03:44Z</time></trkpt><trkpt lat="46.02786679774071" lon="12.028057243460125"><ele>599.75</ele><time>2026-04-18T15:03:45Z</time></trkpt><trkpt lat="46.027824376543975" lon="12.027924452437226"><ele>597.5</ele><time>2026-04-18T15:03:46Z</time></trkpt><trkpt lat="46.02780649592966" lon="12.027794985194495"><ele>595.25</ele><time>2026-04-18T15:03:47Z</time></trkpt><trkpt lat="46.027771703291" lon="12.027615678922619"><ele>593.0</ele><time>2026-04-18T15:03:48Z</time></trkpt><trkpt lat="46.0276322998816" lon="12.027578097564264"><ele>592.0</ele><time>2026-04-18T15:03:49Z</time></trkpt><trkpt lat="46.02758248651266" lon="12.027467047409255"><ele>591.0</ele><time>2026-04-18T15:03:50Z</time></trkpt><trkpt lat="46.02754978732641" lon="12.027344676970154"><ele>590.0</ele><time>2026-04-18T15:03:51Z</time></trkpt><trkpt lat="46.02750958830306" lon="12.027241309579306"><ele>589.0</ele><time>2026-04-18T15:03:52Z</time></trkpt><trkpt lat="46.02747620848051" lon="12.027148760921767"><ele>588.0</ele><time>2026-04-18T15:03:53Z</time></trkpt><trkpt lat="46.02744685071852" lon="12.027051935121575"><ele>587.0</ele><time>2026-04-18T15:03:54Z</time></trkpt><trkpt lat="46.02741636019757" lon="12.026959746259166"><ele>591.4</ele><time>2026-04-18T15:03:55Z</time></trkpt><trkpt lat="46.02738740671374" lon="12.02685642052768"><ele>595.8000000000001</ele><time>2026-04-18T15:03:56Z</time></trkpt><trkpt lat="46.027375350973365" lon="12.026766961688585"><ele>600.2</ele><time>2026-04-18T15:03:57Z</time></trkpt><trkpt lat="46.02734200743951" lon="12.026619741802428"><ele>604.6</ele><time>2026-04-18T15:03:59Z</time></trkpt><trkpt lat="46.027289196321455" lon="12.02647685550492"><ele>609.0</ele><time>2026-04-18T15:04:01Z</time></trkpt><trkpt lat="46.02727292940414" lon="12.026342930733989"><ele>609.0</ele><time>2026-04-18T15:04:03Z</time></trkpt><trkpt lat="46.0272501036993" lon="12.026201367579361"><ele>609.0</ele><time>2026-04-18T15:04:05Z</time></trkpt><trkpt lat="46.02726183452115" lon="12.026050663564977"><ele>609.0</ele><time>2026-04-18T15:04:07Z</time></trkpt><trkpt lat="46.027288440475125" lon="12.025961890125474"><ele>609.0</ele><time>2026-04-18T15:04:08Z</time></trkpt><trkpt lat="46.02731775267408" lon="12.025873612280344"><ele>609.0</ele><time>2026-04-18T15:04:09Z</time></trkpt><trkpt lat="46.02734397747842" lon="12.025784288361018"><ele>609.0</ele><time>2026-04-18T15:04:10Z</time></trkpt><trkpt lat="46.02736536151288" lon="12.02568004635634"><ele>607.0</ele><time>2026-04-18T15:04:11Z</time></trkpt><trkpt lat="46.02738202665227" lon="12.025491025208016"><ele>605.0</ele><time>2026-04-18T15:04:13Z</time></trkpt><trkpt lat="46.027384563484084" lon="12.025382329512814"><ele>603.0</ele><time>2026-04-18T15:04:14Z</time></trkpt><trkpt lat="46.02739059266536" lon="12.025286075349493"><ele>601.0</ele><time>2026-04-18T15:04:15Z</time></trkpt><trkpt lat="46.027397300214226" lon="12.025117484420164"><ele>599.0</ele><time>2026-04-18T15:04:17Z</time></trkpt><trkpt lat="46.02741613551195" lon="12.024981702508835"><ele>593.0</ele><time>2026-04-18T15:04:19Z</time></trkpt><trkpt lat="46.02748094510773" lon="12.024881400298336"><ele>587.0</ele><time>2026-04-18T15:04:21Z</time></trkpt><trkpt lat="46.02761199955055" lon="12.024875731762611"><ele>581.0</ele><time>2026-04-18T15:04:23Z</time></trkpt><trkpt lat="46.027682357574314" lon="12.02486826311418"><ele>575.0</ele><time>2026-04-18T15:04:24Z</time></trkpt><trkpt lat="46.02775066426647" lon="12.024843552173893"><ele>569.0</ele><time>2026-04-18T15:04:25Z</time></trkpt><trkpt lat="46.02781663200669" lon="12.02481737936162"><ele>563.0</ele><time>2026-04-18T15:04:26Z</time></trkpt><trkpt lat="46.027884562448776" lon="12.02477222992666"><ele>563.0</ele><time>2026-04-18T15:04:27Z</time></trkpt><trkpt lat="46.02794300622618" lon="12.024722799831085"><ele>563.0</ele><time>2026-04-18T15:04:28Z</time></trkpt><trkpt lat="46.02801119564418" lon="12.024660407462768"><ele>563.0</ele><time>2026-04-18T15:04:28.999Z</time></trkpt><trkpt lat="46.0280992871993" lon="12.024564245823063"><ele>563.0</ele><time>2026-04-18T15:04:30.999Z</time></trkpt><trkpt lat="46.0281835844483" lon="12.024497400072104"><ele>563.0</ele><time>2026-04-18T15:04:32.999Z</time></trkpt><trkpt lat="46.02826236798116" lon="12.024413246250056"><ele>561.0</ele><time>2026-04-18T15:04:34.999Z</time></trkpt><trkpt lat="46.02833220010488" lon="12.024358625860437"><ele>559.0</ele><time>2026-04-18T15:04:36.999Z</time></trkpt><trkpt lat="46.028438578334196" lon="12.024335698348057"><ele>557.0</ele><time>2026-04-18T15:04:38.999Z</time></trkpt><trkpt lat="46.02853688326327" lon="12.024292998993559"><ele>555.0</ele><time>2026-04-18T15:04:40.999Z</time></trkpt><trkpt lat="46.02860069806893" lon="12.024277789942355"><ele>553.0</ele><time>2026-04-18T15:04:41.999Z</time></trkpt><trkpt lat="46.02872677789061" lon="12.024273101464367"><ele>553.0</ele><time>2026-04-18T15:04:43.999Z</time></trkpt><trkpt lat="46.02879651416536" lon="12.024273812316322"><ele>553.0</ele><time>2026-04-18T15:04:44.999Z</time></trkpt><trkpt lat="46.02890813926281" lon="12.024257469633593"><ele>553.0</ele><time>2026-04-18T15:04:46.999Z</time></trkpt><trkpt lat="46.02901776450815" lon="12.02425522102202"><ele>553.0</ele><time>2026-04-18T15:04:48.999Z</time></trkpt><trkpt lat="46.02914511919213" lon="12.02424868104959"><ele>553.0</ele><time>2026-04-18T15:04:50.999Z</time></trkpt><trkpt lat="46.029263519325994" lon="12.024254345254567"><ele>551.6666666666667</ele><time>2026-04-18T15:04:52.999Z</time></trkpt><trkpt lat="46.02935215797257" lon="12.024254417600705"><ele>550.3333333333334</ele><time>2026-04-18T15:04:54.999Z</time></trkpt><trkpt lat="46.029441840679716" lon="12.024266474274036"><ele>549.0</ele><time>2026-04-18T15:04:56.999Z</time></trkpt><trkpt lat="46.02951917767106" lon="12.024271851025839"><ele>547.6666666666666</ele><time>2026-04-18T15:04:58.999Z</time></trkpt><trkpt lat="46.029561706705564" lon="12.024121163838634"><ele>546.3333333333333</ele><time>2026-04-18T15:04:59.999Z</time></trkpt><trkpt lat="46.02961984620633" lon="12.024080044529754"><ele>545.0</ele><time>2026-04-18T15:05:01.999Z</time></trkpt><trkpt lat="46.02969888748769" lon="12.024040367880405"><ele>541.4</ele><time>2026-04-18T15:05:03.999Z</time></trkpt><trkpt lat="46.0297903942112" lon="12.024010071031434"><ele>537.8</ele><time>2026-04-18T15:05:05.999Z</time></trkpt><trkpt lat="46.02990624580285" lon="12.024003999093475"><ele>534.2</ele><time>2026-04-18T15:05:07.999Z</time></trkpt><trkpt lat="46.03003078587528" lon="12.024012568565203"><ele>530.6</ele><time>2026-04-18T15:05:09.999Z</time></trkpt><trkpt lat="46.03014366630295" lon="12.023995438169827"><ele>527.0</ele><time>2026-04-18T15:05:11.999Z</time></trkpt><trkpt lat="46.030241032529275" lon="12.023981847477888"><ele>525.2</ele><time>2026-04-18T15:05:13.999Z</time></trkpt><trkpt lat="46.0302933481999" lon="12.023879488878315"><ele>523.4000000000001</ele><time>2026-04-18T15:05:15.999Z</time></trkpt><trkpt lat="46.03037707605188" lon="12.023883199610289"><ele>521.5999999999999</ele><time>2026-04-18T15:05:18.999Z</time></trkpt><trkpt lat="46.0304881899752" lon="12.023895272827506"><ele>519.8</ele><time>2026-04-18T15:05:19.999Z</time></trkpt><trkpt lat="46.03059424428029" lon="12.023891455112961"><ele>518.0</ele><time>2026-04-18T15:05:21.999Z</time></trkpt><trkpt lat="46.03072631782616" lon="12.023887329294508"><ele>514.6</ele><time>2026-04-18T15:05:24Z</time></trkpt><trkpt lat="46.03082822164065" lon="12.02381370999114"><ele>511.19999999999993</ele><time>2026-04-18T15:05:26Z</time></trkpt><trkpt lat="46.03095165310114" lon="12.023792913060934"><ele>507.8</ele><time>2026-04-18T15:05:28Z</time></trkpt><trkpt lat="46.031026067113395" lon="12.023774936161791"><ele>504.4</ele><time>2026-04-18T15:05:29Z</time></trkpt><trkpt lat="46.031124546303374" lon="12.02375993356266"><ele>501.0</ele><time>2026-04-18T15:05:31Z</time></trkpt><trkpt lat="46.03121981383835" lon="12.023752516623674"><ele>501.0</ele><time>2026-04-18T15:05:33Z</time></trkpt><trkpt lat="46.031321258406344" lon="12.023764289736798"><ele>501.0</ele><time>2026-04-18T15:05:35Z</time></trkpt><trkpt lat="46.03143189815253" lon="12.02384558243955"><ele>501.0</ele><time>2026-04-18T15:05:37Z</time></trkpt><trkpt lat="46.03148462388431" lon="12.023897024740371"><ele>501.0</ele><time>2026-04-18T15:05:38Z</time></trkpt><trkpt lat="46.03159319185866" lon="12.023972163766144"><ele>501.0</ele><time>2026-04-18T15:05:40Z</time></trkpt><trkpt lat="46.031655476031254" lon="12.024003843301431"><ele>499.8</ele><time>2026-04-18T15:05:41Z</time></trkpt><trkpt lat="46.03176656250311" lon="12.024066803803882"><ele>498.6</ele><time>2026-04-18T15:05:43Z</time></trkpt><trkpt lat="46.03187636991748" lon="12.024147658034437"><ele>497.4</ele><time>2026-04-18T15:05:45Z</time></trkpt><trkpt lat="46.03192324452257" lon="12.024209887972736"><ele>496.2</ele><time>2026-04-18T15:05:46Z</time></trkpt><trkpt lat="46.032016542616354" lon="12.02432692951999"><ele>495.0</ele><time>2026-04-18T15:05:48Z</time></trkpt><trkpt lat="46.03209431644182" lon="12.024449887338584"><ele>495.0</ele><time>2026-04-18T15:05:50Z</time></trkpt><trkpt lat="46.03218403404172" lon="12.024559731652973"><ele>495.0</ele><time>2026-04-18T15:05:52Z</time></trkpt><trkpt lat="46.032268820951884" lon="12.024663091509389"><ele>495.0</ele><time>2026-04-18T15:05:54Z</time></trkpt><trkpt lat="46.0324096966963" lon="12.024590666418604"><ele>495.0</ele><time>2026-04-18T15:05:55Z</time></trkpt><trkpt lat="46.03247222871565" lon="12.024701950583566"><ele>495.0</ele><time>2026-04-18T15:05:57Z</time></trkpt><trkpt lat="46.03252172464724" lon="12.02477008087004"><ele>495.0</ele><time>2026-04-18T15:05:59Z</time></trkpt><trkpt lat="46.032575897579335" lon="12.02482063673989"><ele>495.0</ele><time>2026-04-18T15:06:03Z</time></trkpt><trkpt lat="46.032522469761616" lon="12.024762732790203"><ele>495.0</ele><time>2026-04-18T15:06:10Z</time></trkpt><trkpt lat="46.032437391390765" lon="12.024767951119918"><ele>495.0</ele><time>2026-04-18T15:06:11Z</time></trkpt><trkpt lat="46.03235210560647" lon="12.02470583686359"><ele>495.0</ele><time>2026-04-18T15:06:12Z</time></trkpt><trkpt lat="46.03226939916596" lon="12.024620488498925"><ele>495.0</ele><time>2026-04-18T15:06:13Z</time></trkpt><trkpt lat="46.03220482050249" lon="12.024533878898238"><ele>495.0</ele><time>2026-04-18T15:06:14Z</time></trkpt><trkpt lat="46.03213453251305" lon="12.024437881675802"><ele>495.0</ele><time>2026-04-18T15:06:15Z</time></trkpt><trkpt lat="46.03207682368734" lon="12.024355495770507"><ele>495.0</ele><time>2026-04-18T15:06:16Z</time></trkpt><trkpt lat="46.03202531585392" lon="12.024282634965097"><ele>495.0</ele><time>2026-04-18T15:06:17Z</time></trkpt><trkpt lat="46.03195795362079" lon="12.024200155919504"><ele>495.0</ele><time>2026-04-18T15:06:19Z</time></trkpt><trkpt lat="46.0318587960333" lon="12.024089272707554"><ele>487.0</ele><time>2026-04-18T15:06:21Z</time></trkpt><trkpt lat="46.03178145080449" lon="12.024001990042725"><ele>479.0</ele><time>2026-04-18T15:06:22Z</time></trkpt><trkpt lat="46.03171667544863" lon="12.024014785378835"><ele>471.0</ele><time>2026-04-18T15:06:23Z</time></trkpt><trkpt lat="46.03179872769666" lon="12.02350925324321"><ele>471.0</ele><time>2026-04-18T15:06:24Z</time></trkpt><trkpt lat="46.03174745001356" lon="12.023421415909079"><ele>471.0</ele><time>2026-04-18T15:06:25Z</time></trkpt><trkpt lat="46.031694027394835" lon="12.023329631047392"><ele>471.0</ele><time>2026-04-18T15:06:26Z</time></trkpt><trkpt lat="46.03166799257728" lon="12.023206334477546"><ele>471.0</ele><time>2026-04-18T15:06:27Z</time></trkpt><trkpt lat="46.031610367310726" lon="12.023132661557728"><ele>471.0</ele><time>2026-04-18T15:06:28Z</time></trkpt><trkpt lat="46.03153428773396" lon="12.023043482239416"><ele>471.0</ele><time>2026-04-18T15:06:29Z</time></trkpt><trkpt lat="46.031456459240445" lon="12.022958301188899"><ele>471.8333333333333</ele><time>2026-04-18T15:06:30Z</time></trkpt><trkpt lat="46.031373291614784" lon="12.022897664272238"><ele>472.66666666666663</ele><time>2026-04-18T15:06:31Z</time></trkpt><trkpt lat="46.031323868556335" lon="12.02283957627449"><ele>473.5</ele><time>2026-04-18T15:06:32Z</time></trkpt><trkpt lat="46.03126629628116" lon="12.02278177649604"><ele>474.3333333333333</ele><time>2026-04-18T15:06:32.999Z</time></trkpt><trkpt lat="46.031191471868205" lon="12.022716564268226"><ele>475.16666666666663</ele><time>2026-04-18T15:06:33.999Z</time></trkpt><trkpt lat="46.0311208235423" lon="12.022661924899486"><ele>476.0</ele><time>2026-04-18T15:06:34.999Z</time></trkpt><trkpt lat="46.0310617029446" lon="12.02262110883319"><ele>476.0</ele><time>2026-04-18T15:06:35.999Z</time></trkpt><trkpt lat="46.030987636312304" lon="12.022569349346824"><ele>476.0</ele><time>2026-04-18T15:06:36.999Z</time></trkpt><trkpt lat="46.0309332295866" lon="12.02248699867915"><ele>476.0</ele><time>2026-04-18T15:06:37.999Z</time></trkpt><trkpt lat="46.03086122767027" lon="12.022459200686074"><ele>476.0</ele><time>2026-04-18T15:06:38.999Z</time></trkpt><trkpt lat="46.0307771298261" lon="12.022474414391638"><ele>476.0</ele><time>2026-04-18T15:06:39.999Z</time></trkpt><trkpt lat="46.030652408649615" lon="12.022530369251468"><ele>479.8333333333333</ele><time>2026-04-18T15:06:40.999Z</time></trkpt><trkpt lat="46.03056997557712" lon="12.02256776195923"><ele>483.66666666666663</ele><time>2026-04-18T15:06:41.999Z</time></trkpt><trkpt lat="46.03044068112349" lon="12.022602841687986"><ele>487.5</ele><time>2026-04-18T15:06:43.999Z</time></trkpt><trkpt lat="46.03036107746706" lon="12.022607416830924"><ele>491.33333333333337</ele><time>2026-04-18T15:06:44.999Z</time></trkpt><trkpt lat="46.03028644346789" lon="12.022625538584965"><ele>495.1666666666667</ele><time>2026-04-18T15:06:45.999Z</time></trkpt><trkpt lat="46.03021100678622" lon="12.022624006112732"><ele>499.0</ele><time>2026-04-18T15:06:46.999Z</time></trkpt><trkpt lat="46.030130968556094" lon="12.022534708047809"><ele>495.75</ele><time>2026-04-18T15:06:48.999Z</time></trkpt><trkpt lat="46.03005990565062" lon="12.022387951056494"><ele>492.5</ele><time>2026-04-18T15:06:50.999Z</time></trkpt><trkpt lat="46.03003677184813" lon="12.022205656515562"><ele>489.25</ele><time>2026-04-18T15:06:51.999Z</time></trkpt><trkpt lat="46.03002035933688" lon="12.022020124051673"><ele>486.0</ele><time>2026-04-18T15:06:52.999Z</time></trkpt><trkpt lat="46.03001502108395" lon="12.021875822024246"><ele>486.0</ele><time>2026-04-18T15:06:53.999Z</time></trkpt><trkpt lat="46.03001210370169" lon="12.021739174381727"><ele>486.0</ele><time>2026-04-18T15:06:54.999Z</time></trkpt><trkpt lat="46.03000574879448" lon="12.021593451027206"><ele>486.0</ele><time>2026-04-18T15:06:56.999Z</time></trkpt><trkpt lat="46.0299845278846" lon="12.021497405725512"><ele>486.0</ele><time>2026-04-18T15:06:57.999Z</time></trkpt><trkpt lat="46.02989650511393" lon="12.021418074505206"><ele>486.0</ele><time>2026-04-18T15:06:58.999Z</time></trkpt><trkpt lat="46.02981668153287" lon="12.021320279206519"><ele>487.0</ele><time>2026-04-18T15:06:59.999Z</time></trkpt><trkpt lat="46.02971446088723" lon="12.021213011422219"><ele>488.0</ele><time>2026-04-18T15:07:00.999Z</time></trkpt><trkpt lat="46.02965857467276" lon="12.021078301134484"><ele>489.0</ele><time>2026-04-18T15:07:01.999Z</time></trkpt><trkpt lat="46.02960107617666" lon="12.020949638707343"><ele>490.0</ele><time>2026-04-18T15:07:02.999Z</time></trkpt><trkpt lat="46.029531833612516" lon="12.020832915832246"><ele>491.0</ele><time>2026-04-18T15:07:03.999Z</time></trkpt><trkpt lat="46.029482450193676" lon="12.02073101977499"><ele>491.0</ele><time>2026-04-18T15:07:04.999Z</time></trkpt><trkpt lat="46.02941764369053" lon="12.020653197883556"><ele>491.0</ele><time>2026-04-18T15:07:05.999Z</time></trkpt><trkpt lat="46.029335718798926" lon="12.02058693941391"><ele>491.0</ele><time>2026-04-18T15:07:06.999Z</time></trkpt><trkpt lat="46.02926896017219" lon="12.020484426932729"><ele>491.0</ele><time>2026-04-18T15:07:07.999Z</time></trkpt><trkpt lat="46.02928712353592" lon="12.020346926697043"><ele>491.0</ele><time>2026-04-18T15:07:08.999Z</time></trkpt><trkpt lat="46.02926169881251" lon="12.020196902145052"><ele>490.99999999999994</ele><time>2026-04-18T15:07:09.999Z</time></trkpt><trkpt lat="46.02922271766167" lon="12.02006153982987"><ele>491.0</ele><time>2026-04-18T15:07:10.999Z</time></trkpt><trkpt lat="46.02919419898674" lon="12.019951807282084"><ele>491.0</ele><time>2026-04-18T15:07:11.999Z</time></trkpt><trkpt lat="46.02917049788592" lon="12.019849525867722"><ele>491.0</ele><time>2026-04-18T15:07:12.999Z</time></trkpt><trkpt lat="46.02913556665552" lon="12.019750879506645"><ele>490.99999999999994</ele><time>2026-04-18T15:07:13.999Z</time></trkpt><trkpt lat="46.029096860911366" lon="12.019639161223509"><ele>491.0</ele><time>2026-04-18T15:07:14.999Z</time></trkpt><trkpt lat="46.029058826119794" lon="12.01952683079518"><ele>495.4</ele><time>2026-04-18T15:07:15.999Z</time></trkpt><trkpt lat="46.029021992097796" lon="12.01939152886697"><ele>499.8</ele><time>2026-04-18T15:07:16.999Z</time></trkpt><trkpt lat="46.02900282536502" lon="12.019243086966373"><ele>504.19999999999993</ele><time>2026-04-18T15:07:17.999Z</time></trkpt><trkpt lat="46.02899166754901" lon="12.0190766763814"><ele>508.59999999999997</ele><time>2026-04-18T15:07:18.999Z</time></trkpt><trkpt lat="46.02898189405456" lon="12.018923937349165"><ele>513.0</ele><time>2026-04-18T15:07:19.999Z</time></trkpt><trkpt lat="46.02896822026552" lon="12.018776596015128"><ele>513.0</ele><time>2026-04-18T15:07:20.999Z</time></trkpt><trkpt lat="46.02895466930438" lon="12.018607365016015"><ele>513.0</ele><time>2026-04-18T15:07:21.999Z</time></trkpt><trkpt lat="46.02894468747809" lon="12.018476003000435"><ele>513.0</ele><time>2026-04-18T15:07:22.999Z</time></trkpt><trkpt lat="46.02893530577911" lon="12.018347518891138"><ele>513.0</ele><time>2026-04-18T15:07:23.999Z</time></trkpt><trkpt lat="46.02892354030827" lon="12.018215870640306"><ele>513.0</ele><time>2026-04-18T15:07:24.999Z</time></trkpt><trkpt lat="46.02889142469742" lon="12.018082906518831"><ele>512.6666666666666</ele><time>2026-04-18T15:07:25.999Z</time></trkpt><trkpt lat="46.02888122422046" lon="12.017945006036076"><ele>512.3333333333334</ele><time>2026-04-18T15:07:26.999Z</time></trkpt><trkpt lat="46.02886010462871" lon="12.017832659079223"><ele>512.0</ele><time>2026-04-18T15:07:27.999Z</time></trkpt><trkpt lat="46.02884220874827" lon="12.017739922013346"><ele>511.6666666666667</ele><time>2026-04-18T15:07:28.999Z</time></trkpt><trkpt lat="46.028807883293275" lon="12.01764814895049"><ele>511.33333333333337</ele><time>2026-04-18T15:07:30Z</time></trkpt><trkpt lat="46.028789617139275" lon="12.017536990076351"><ele>511.0</ele><time>2026-04-18T15:07:31Z</time></trkpt><trkpt lat="46.028757360769426" lon="12.01741258552228"><ele>507.75</ele><time>2026-04-18T15:07:32Z</time></trkpt><trkpt lat="46.028725836473505" lon="12.01728183369604"><ele>504.5</ele><time>2026-04-18T15:07:33Z</time></trkpt><trkpt lat="46.028690140825" lon="12.017131922376251"><ele>501.25</ele><time>2026-04-18T15:07:34Z</time></trkpt><trkpt lat="46.028638025643914" lon="12.016938121540692"><ele>498.0</ele><time>2026-04-18T15:07:35Z</time></trkpt><trkpt lat="46.02858545887281" lon="12.016764608807282"><ele>496.2</ele><time>2026-04-18T15:07:36Z</time></trkpt><trkpt lat="46.02855382035288" lon="12.016605381997863"><ele>494.4</ele><time>2026-04-18T15:07:37Z</time></trkpt><trkpt lat="46.02850876357321" lon="12.016474754418429"><ele>492.59999999999997</ele><time>2026-04-18T15:07:38Z</time></trkpt><trkpt lat="46.02847180553244" lon="12.016347075119656"><ele>490.79999999999995</ele><time>2026-04-18T15:07:39Z</time></trkpt><trkpt lat="46.02844198526046" lon="12.016221761732574"><ele>489.0</ele><time>2026-04-18T15:07:40Z</time></trkpt><trkpt lat="46.02840954980499" lon="12.016101206718837"><ele>489.0</ele><time>2026-04-18T15:07:41Z</time></trkpt><trkpt lat="46.028380763792526" lon="12.015953652802644"><ele>489.0</ele><time>2026-04-18T15:07:42Z</time></trkpt><trkpt lat="46.028356230384524" lon="12.01578796649616"><ele>489.0</ele><time>2026-04-18T15:07:43Z</time></trkpt><trkpt lat="46.0283352014074" lon="12.01564796663164"><ele>489.0</ele><time>2026-04-18T15:07:44Z</time></trkpt><trkpt lat="46.028317370838906" lon="12.015490967621513"><ele>489.0</ele><time>2026-04-18T15:07:45Z</time></trkpt><trkpt lat="46.02830044817132" lon="12.01533577111471"><ele>490.0</ele><time>2026-04-18T15:07:46Z</time></trkpt><trkpt lat="46.02830476234386" lon="12.015182694577298"><ele>491.0</ele><time>2026-04-18T15:07:47Z</time></trkpt><trkpt lat="46.0282759287749" lon="12.015022656221015"><ele>492.0</ele><time>2026-04-18T15:07:48Z</time></trkpt><trkpt lat="46.02825670309066" lon="12.014870408680567"><ele>493.0</ele><time>2026-04-18T15:07:49Z</time></trkpt><trkpt lat="46.02823467355344" lon="12.014727749474682"><ele>494.0</ele><time>2026-04-18T15:07:50Z</time></trkpt><trkpt lat="46.02819210306048" lon="12.014591739231422"><ele>494.0</ele><time>2026-04-18T15:07:51Z</time></trkpt><trkpt lat="46.02815719539255" lon="12.014454399660513"><ele>494.0</ele><time>2026-04-18T15:07:52Z</time></trkpt><trkpt lat="46.0281234411537" lon="12.014325122456047"><ele>494.0</ele><time>2026-04-18T15:07:53Z</time></trkpt><trkpt lat="46.0280956127864" lon="12.014196565029522"><ele>494.0</ele><time>2026-04-18T15:07:54Z</time></trkpt><trkpt lat="46.02806533277614" lon="12.014089009611219"><ele>494.0</ele><time>2026-04-18T15:07:55Z</time></trkpt><trkpt lat="46.02803016353072" lon="12.01398643360744"><ele>490.99999999999994</ele><time>2026-04-18T15:07:56Z</time></trkpt><trkpt lat="46.02799000481961" lon="12.013903045601733"><ele>488.0</ele><time>2026-04-18T15:07:57Z</time></trkpt><trkpt lat="46.02791217549493" lon="12.013820443236067"><ele>485.0</ele><time>2026-04-18T15:07:58Z</time></trkpt><trkpt lat="46.02784299922384" lon="12.013739988010629"><ele>482.0</ele><time>2026-04-18T15:07:59Z</time></trkpt><trkpt lat="46.02776424307087" lon="12.0136964699877"><ele>478.99999999999994</ele><time>2026-04-18T15:08:00Z</time></trkpt><trkpt lat="46.02768108671404" lon="12.013629975462525"><ele>476.0</ele><time>2026-04-18T15:08:01Z</time></trkpt><trkpt lat="46.027601715455624" lon="12.013572800649536"><ele>475.99999999999994</ele><time>2026-04-18T15:08:02Z</time></trkpt><trkpt lat="46.027525115959456" lon="12.013516180000215"><ele>476.0</ele><time>2026-04-18T15:08:03Z</time></trkpt><trkpt lat="46.02744874343939" lon="12.013461691716778"><ele>476.0</ele><time>2026-04-18T15:08:04Z</time></trkpt><trkpt lat="46.02737812803022" lon="12.013397410005407"><ele>476.0</ele><time>2026-04-18T15:08:05Z</time></trkpt><trkpt lat="46.027304131709435" lon="12.013354874431137"><ele>475.99999999999994</ele><time>2026-04-18T15:08:06Z</time></trkpt><trkpt lat="46.02723220328024" lon="12.013307685084486"><ele>476.0</ele><time>2026-04-18T15:08:07Z</time></trkpt><trkpt lat="46.02716346090491" lon="12.01325683052845"><ele>471.20000000000005</ele><time>2026-04-18T15:08:08Z</time></trkpt><trkpt lat="46.027042494004796" lon="12.01313641981835"><ele>466.40000000000003</ele><time>2026-04-18T15:08:10Z</time></trkpt><trkpt lat="46.026977010147526" lon="12.013081288551755"><ele>461.6</ele><time>2026-04-18T15:08:11Z</time></trkpt><trkpt lat="46.02691355480969" lon="12.01302720052268"><ele>456.8</ele><time>2026-04-18T15:08:12Z</time></trkpt><trkpt lat="46.02685720357956" lon="12.012981862075193"><ele>452.0</ele><time>2026-04-18T15:08:13Z</time></trkpt><trkpt lat="46.02673912987192" lon="12.012914644340125"><ele>452.0</ele><time>2026-04-18T15:08:15Z</time></trkpt><trkpt lat="46.0266617113256" lon="12.012902219257391"><ele>452.00000000000006</ele><time>2026-04-18T15:08:16Z</time></trkpt><trkpt lat="46.02657399379518" lon="12.012902796815343"><ele>452.00000000000006</ele><time>2026-04-18T15:08:17Z</time></trkpt><trkpt lat="46.02648307121615" lon="12.012924154606743"><ele>452.0</ele><time>2026-04-18T15:08:18Z</time></trkpt><trkpt lat="46.026416574187614" lon="12.012941435296543"><ele>452.0</ele><time>2026-04-18T15:08:19Z</time></trkpt><trkpt lat="46.02628261977349" lon="12.01291605335438"><ele>452.66666666666663</ele><time>2026-04-18T15:08:21Z</time></trkpt><trkpt lat="46.026206288456926" lon="12.012860687654216"><ele>453.3333333333333</ele><time>2026-04-18T15:08:22Z</time></trkpt><trkpt lat="46.0261276932817" lon="12.012781643931755"><ele>454.0</ele><time>2026-04-18T15:08:23Z</time></trkpt><trkpt lat="46.0260779584254" lon="12.012687007445175"><ele>454.66666666666663</ele><time>2026-04-18T15:08:24Z</time></trkpt><trkpt lat="46.026046084656265" lon="12.012597996484374"><ele>455.3333333333333</ele><time>2026-04-18T15:08:25Z</time></trkpt><trkpt lat="46.02600467441239" lon="12.012516778977087"><ele>456.0</ele><time>2026-04-18T15:08:27Z</time></trkpt><trkpt lat="46.02584541865235" lon="12.01248501933339"><ele>458.8333333333333</ele><time>2026-04-18T15:08:29Z</time></trkpt><trkpt lat="46.02579888013322" lon="12.012555226178085"><ele>461.66666666666663</ele><time>2026-04-18T15:08:33Z</time></trkpt><trkpt lat="46.025704793271295" lon="12.012650404608008"><ele>464.5</ele><time>2026-04-18T15:08:36Z</time></trkpt><trkpt lat="46.02564927598426" lon="12.012719555407187"><ele>467.3333333333333</ele><time>2026-04-18T15:08:37Z</time></trkpt><trkpt lat="46.02559566045049" lon="12.012794010131993"><ele>470.16666666666663</ele><time>2026-04-18T15:08:38Z</time></trkpt><trkpt lat="46.02551905984308" lon="12.012831994594388"><ele>473.0</ele><time>2026-04-18T15:08:39Z</time></trkpt><trkpt lat="46.02542910337757" lon="12.012810462325517"><ele>473.0</ele><time>2026-04-18T15:08:40Z</time></trkpt><trkpt lat="46.02535952716051" lon="12.012789557508544"><ele>473.0</ele><time>2026-04-18T15:08:41Z</time></trkpt><trkpt lat="46.025190284310135" lon="12.012729366061093"><ele>473.0</ele><time>2026-04-18T15:08:42Z</time></trkpt><trkpt lat="46.02508814560319" lon="12.012707616850475"><ele>473.0</ele><time>2026-04-18T15:08:43Z</time></trkpt><trkpt lat="46.02499413426371" lon="12.012646541948737"><ele>475.59999999999997</ele><time>2026-04-18T15:08:44Z</time></trkpt><trkpt lat="46.024925985433136" lon="12.012529650916187"><ele>478.19999999999993</ele><time>2026-04-18T15:08:45Z</time></trkpt><trkpt lat="46.024898715301696" lon="12.01240637574518"><ele>480.8</ele><time>2026-04-18T15:08:46Z</time></trkpt><trkpt lat="46.024878439305354" lon="12.01226345341022"><ele>483.4</ele><time>2026-04-18T15:08:47Z</time></trkpt><trkpt lat="46.02490054991664" lon="12.012082206632607"><ele>486.0</ele><time>2026-04-18T15:08:48Z</time></trkpt><trkpt lat="46.02492513372238" lon="12.011887446812036"><ele>486.0</ele><time>2026-04-18T15:08:49Z</time></trkpt><trkpt lat="46.024912255404715" lon="12.011755930713116"><ele>486.0</ele><time>2026-04-18T15:08:50Z</time></trkpt><trkpt lat="46.024882396032716" lon="12.011562785225728"><ele>486.0</ele><time>2026-04-18T15:08:51Z</time></trkpt><trkpt lat="46.02480713249546" lon="12.01138500962046"><ele>486.0</ele><time>2026-04-18T15:08:52Z</time></trkpt><trkpt lat="46.024776071863" lon="12.011256133672694"><ele>484.3333333333333</ele><time>2026-04-18T15:08:53Z</time></trkpt><trkpt lat="46.02474772479058" lon="12.011141990645315"><ele>482.66666666666663</ele><time>2026-04-18T15:08:54Z</time></trkpt><trkpt lat="46.02472051378235" lon="12.011040990492484"><ele>481.0</ele><time>2026-04-18T15:08:55Z</time></trkpt><trkpt lat="46.0246901395865" lon="12.010959831711196"><ele>479.3333333333333</ele><time>2026-04-18T15:08:56Z</time></trkpt><trkpt lat="46.02462414436273" lon="12.010910670266037"><ele>477.66666666666663</ele><time>2026-04-18T15:08:56.999Z</time></trkpt><trkpt lat="46.024532896492545" lon="12.010901822306458"><ele>476.0</ele><time>2026-04-18T15:08:57.999Z</time></trkpt><trkpt lat="46.02441469257741" lon="12.010887826096708"><ele>476.0</ele><time>2026-04-18T15:08:58.999Z</time></trkpt><trkpt lat="46.02431691057609" lon="12.010858138181316"><ele>476.0</ele><time>2026-04-18T15:08:59.999Z</time></trkpt><trkpt lat="46.02424399751596" lon="12.01086275536236"><ele>476.0</ele><time>2026-04-18T15:09:00.999Z</time></trkpt><trkpt lat="46.024145778808844" lon="12.010925858631017"><ele>476.0</ele><time>2026-04-18T15:09:01.999Z</time></trkpt><trkpt lat="46.0240371413135" lon="12.011025334660959"><ele>476.0</ele><time>2026-04-18T15:09:02.999Z</time></trkpt><trkpt lat="46.02393741796403" lon="12.011079212895382"><ele>477.8</ele><time>2026-04-18T15:09:03.999Z</time></trkpt><trkpt lat="46.02383120572222" lon="12.01107905643549"><ele>479.6</ele><time>2026-04-18T15:09:04.999Z</time></trkpt><trkpt lat="46.023760439087226" lon="12.010997916042882"><ele>481.4</ele><time>2026-04-18T15:09:05.999Z</time></trkpt><trkpt lat="46.02371942251943" lon="12.0109137249448"><ele>483.2</ele><time>2026-04-18T15:09:06.999Z</time></trkpt><trkpt lat="46.023698555442074" lon="12.010736056426495"><ele>485.0</ele><time>2026-04-18T15:09:08.999Z</time></trkpt><trkpt lat="46.02373942981123" lon="12.010632066316186"><ele>485.0</ele><time>2026-04-18T15:09:09.999Z</time></trkpt><trkpt lat="46.023776545140024" lon="12.010485745573902"><ele>485.0</ele><time>2026-04-18T15:09:10.999Z</time></trkpt><trkpt lat="46.0237985966768" lon="12.010368138074647"><ele>485.0</ele><time>2026-04-18T15:09:11.999Z</time></trkpt><trkpt lat="46.02379058606446" lon="12.010252326851973"><ele>485.0</ele><time>2026-04-18T15:09:12.999Z</time></trkpt><trkpt lat="46.02375749314636" lon="12.01015373011559"><ele>485.0</ele><time>2026-04-18T15:09:13.999Z</time></trkpt><trkpt lat="46.02366542875124" lon="12.010065549699334"><ele>484.25</ele><time>2026-04-18T15:09:14.999Z</time></trkpt><trkpt lat="46.02355274985155" lon="12.009975368445277"><ele>483.5</ele><time>2026-04-18T15:09:15.999Z</time></trkpt><trkpt lat="46.02344387497875" lon="12.00986680052264"><ele>482.75</ele><time>2026-04-18T15:09:16.999Z</time></trkpt><trkpt lat="46.02336122280246" lon="12.009782850280535"><ele>482.0</ele><time>2026-04-18T15:09:17.999Z</time></trkpt><trkpt lat="46.023279083631614" lon="12.009688395313795"><ele>486.5</ele><time>2026-04-18T15:09:18.999Z</time></trkpt><trkpt lat="46.02319693865673" lon="12.009580575782788"><ele>491.0</ele><time>2026-04-18T15:09:19.999Z</time></trkpt><trkpt lat="46.02312485943848" lon="12.009426126406096"><ele>495.5</ele><time>2026-04-18T15:09:20.999Z</time></trkpt><trkpt lat="46.023054823424516" lon="12.00929040592702"><ele>500.0</ele><time>2026-04-18T15:09:21.999Z</time></trkpt><trkpt lat="46.02299205837974" lon="12.009155005591118"><ele>500.0</ele><time>2026-04-18T15:09:22.999Z</time></trkpt><trkpt lat="46.0229329628261" lon="12.009002485568496"><ele>500.0</ele><time>2026-04-18T15:09:23.999Z</time></trkpt><trkpt lat="46.022900016949905" lon="12.008841617057676"><ele>500.0</ele><time>2026-04-18T15:09:24.999Z</time></trkpt><trkpt lat="46.02288005621717" lon="12.008660073636861"><ele>500.0</ele><time>2026-04-18T15:09:25.999Z</time></trkpt><trkpt lat="46.022862876611335" lon="12.008471375791535"><ele>501.25</ele><time>2026-04-18T15:09:26.999Z</time></trkpt><trkpt lat="46.02284604184308" lon="12.008268913606596"><ele>502.5</ele><time>2026-04-18T15:09:27.999Z</time></trkpt><trkpt lat="46.02283270375575" lon="12.008093031724297"><ele>503.75</ele><time>2026-04-18T15:09:28.999Z</time></trkpt><trkpt lat="46.022804210142105" lon="12.007940728914068"><ele>505.0</ele><time>2026-04-18T15:09:29.999Z</time></trkpt><trkpt lat="46.022796808200155" lon="12.007790793276252"><ele>505.0</ele><time>2026-04-18T15:09:30.999Z</time></trkpt><trkpt lat="46.02278392401644" lon="12.007620023057559"><ele>505.0</ele><time>2026-04-18T15:09:31.999Z</time></trkpt><trkpt lat="46.02276524651122" lon="12.00744888508135"><ele>505.0</ele><time>2026-04-18T15:09:32.999Z</time></trkpt><trkpt lat="46.02275113844948" lon="12.007268493997133"><ele>505.0</ele><time>2026-04-18T15:09:33.999Z</time></trkpt><trkpt lat="46.022759897710465" lon="12.007109618254116"><ele>505.5</ele><time>2026-04-18T15:09:34.999Z</time></trkpt><trkpt lat="46.02275571860849" lon="12.006950917030194"><ele>506.0</ele><time>2026-04-18T15:09:36Z</time></trkpt><trkpt lat="46.022756988110835" lon="12.006770727328526"><ele>506.5</ele><time>2026-04-18T15:09:37Z</time></trkpt><trkpt lat="46.02276715121846" lon="12.006597989566899"><ele>507.0</ele><time>2026-04-18T15:09:38Z</time></trkpt><trkpt lat="46.022772184485845" lon="12.006444728161316"><ele>507.0</ele><time>2026-04-18T15:09:39Z</time></trkpt><trkpt lat="46.02279360973285" lon="12.006316344261691"><ele>507.00000000000006</ele><time>2026-04-18T15:09:40Z</time></trkpt><trkpt lat="46.022804535819986" lon="12.00619629695063"><ele>507.00000000000006</ele><time>2026-04-18T15:09:41Z</time></trkpt><trkpt lat="46.022800100980675" lon="12.006077631220979"><ele>507.0</ele><time>2026-04-18T15:09:42Z</time></trkpt><trkpt lat="46.02277324023892" lon="12.005931583773673"><ele>507.0</ele><time>2026-04-18T15:09:43Z</time></trkpt><trkpt lat="46.02269743104421" lon="12.005783637046795"><ele>508.25</ele><time>2026-04-18T15:09:44Z</time></trkpt><trkpt lat="46.022580361695" lon="12.005619842642295"><ele>509.5</ele><time>2026-04-18T15:09:45Z</time></trkpt><trkpt lat="46.02249103008823" lon="12.005473579726576"><ele>510.75</ele><time>2026-04-18T15:09:46Z</time></trkpt><trkpt lat="46.02241987759534" lon="12.00535844512285"><ele>512.0</ele><time>2026-04-18T15:09:47Z</time></trkpt><trkpt lat="46.02234881430659" lon="12.005251823659696"><ele>512.0</ele><time>2026-04-18T15:09:48Z</time></trkpt><trkpt lat="46.022269142837445" lon="12.005109931199621"><ele>512.0</ele><time>2026-04-18T15:09:49Z</time></trkpt><trkpt lat="46.02219033004319" lon="12.004965503024208"><ele>512.0</ele><time>2026-04-18T15:09:50Z</time></trkpt><trkpt lat="46.02211805163588" lon="12.004862115948235"><ele>512.0</ele><time>2026-04-18T15:09:51Z</time></trkpt><trkpt lat="46.022046985093496" lon="12.004760725821283"><ele>512.0</ele><time>2026-04-18T15:09:52Z</time></trkpt><trkpt lat="46.021968982253895" lon="12.004675697602774"><ele>512.0</ele><time>2026-04-18T15:09:53Z</time></trkpt><trkpt lat="46.0218733239551" lon="12.004599932836541"><ele>512.0</ele><time>2026-04-18T15:09:54Z</time></trkpt><trkpt lat="46.02176638573764" lon="12.004547625291881"><ele>512.0</ele><time>2026-04-18T15:09:55Z</time></trkpt><trkpt lat="46.0216822991441" lon="12.004504696359326"><ele>512.0</ele><time>2026-04-18T15:09:56Z</time></trkpt><trkpt lat="46.02159977189339" lon="12.004470082737418"><ele>512.0</ele><time>2026-04-18T15:09:57Z</time></trkpt><trkpt lat="46.02151945071243" lon="12.00442709451439"><ele>512.0</ele><time>2026-04-18T15:09:58Z</time></trkpt><trkpt lat="46.02144477863136" lon="12.004411372972738"><ele>512.0</ele><time>2026-04-18T15:09:59Z</time></trkpt><trkpt lat="46.02136099692979" lon="12.004428031529406"><ele>512.0</ele><time>2026-04-18T15:10:00Z</time></trkpt><trkpt lat="46.02127295501539" lon="12.004495406157256"><ele>512.0</ele><time>2026-04-18T15:10:01Z</time></trkpt><trkpt lat="46.02117893787206" lon="12.004600392651527"><ele>511.99999999999994</ele><time>2026-04-18T15:10:02Z</time></trkpt><trkpt lat="46.02111585849033" lon="12.004635157941655"><ele>512.0</ele><time>2026-04-18T15:10:03Z</time></trkpt><trkpt lat="46.02104173542135" lon="12.004674879586593"><ele>512.0</ele><time>2026-04-18T15:10:04Z</time></trkpt><trkpt lat="46.020960916770356" lon="12.004687527785551"><ele>512.0</ele><time>2026-04-18T15:10:05Z</time></trkpt><trkpt lat="46.02087818466803" lon="12.004670211294085"><ele>511.99999999999994</ele><time>2026-04-18T15:10:06Z</time></trkpt><trkpt lat="46.020824888075104" lon="12.004554231782752"><ele>512.0</ele><time>2026-04-18T15:10:07Z</time></trkpt><trkpt lat="46.020776407840756" lon="12.004455466105231"><ele>513.5</ele><time>2026-04-18T15:10:08Z</time></trkpt><trkpt lat="46.02068570847726" lon="12.004301016369325"><ele>515.0</ele><time>2026-04-18T15:10:09Z</time></trkpt><trkpt lat="46.020612452322815" lon="12.004224112219154"><ele>516.5</ele><time>2026-04-18T15:10:10Z</time></trkpt><trkpt lat="46.020538178757995" lon="12.004115480648416"><ele>518.0</ele><time>2026-04-18T15:10:11Z</time></trkpt><trkpt lat="46.02041330401258" lon="12.004012900687183"><ele>518.0</ele><time>2026-04-18T15:10:12Z</time></trkpt><trkpt lat="46.02032920841598" lon="12.003938144760104"><ele>518.0</ele><time>2026-04-18T15:10:13Z</time></trkpt><trkpt lat="46.020262987531915" lon="12.003849854099357"><ele>518.0</ele><time>2026-04-18T15:10:14Z</time></trkpt><trkpt lat="46.02020272137336" lon="12.003704633282576"><ele>518.0</ele><time>2026-04-18T15:10:15Z</time></trkpt><trkpt lat="46.02015699199057" lon="12.003537922108382"><ele>518.0</ele><time>2026-04-18T15:10:16Z</time></trkpt><trkpt lat="46.02009700405933" lon="12.003365741813992"><ele>519.0</ele><time>2026-04-18T15:10:17Z</time></trkpt><trkpt lat="46.02005627315768" lon="12.003218590528318"><ele>520.0</ele><time>2026-04-18T15:10:18Z</time></trkpt><trkpt lat="46.02004144102851" lon="12.003100789191045"><ele>521.0</ele><time>2026-04-18T15:10:19Z</time></trkpt><trkpt lat="46.02001522989117" lon="12.002984093116865"><ele>522.0</ele><time>2026-04-18T15:10:20Z</time></trkpt><trkpt lat="46.01996658806469" lon="12.002867937304458"><ele>523.0</ele><time>2026-04-18T15:10:21Z</time></trkpt><trkpt lat="46.01992622944786" lon="12.002739024121935"><ele>523.0</ele><time>2026-04-18T15:10:22Z</time></trkpt><trkpt lat="46.01988619887855" lon="12.002621789712263"><ele>523.0</ele><time>2026-04-18T15:10:23Z</time></trkpt><trkpt lat="46.019857687726855" lon="12.0025056688348"><ele>523.0</ele><time>2026-04-18T15:10:24Z</time></trkpt><trkpt lat="46.01979848854484" lon="12.002407542887697"><ele>523.0</ele><time>2026-04-18T15:10:25Z</time></trkpt><trkpt lat="46.0197059849699" lon="12.002307860994664"><ele>523.0</ele><time>2026-04-18T15:10:26Z</time></trkpt><trkpt lat="46.01958164293951" lon="12.002215698774256"><ele>522.1999999999999</ele><time>2026-04-18T15:10:27Z</time></trkpt><trkpt lat="46.019487518928194" lon="12.002104974528015"><ele>521.4</ele><time>2026-04-18T15:10:28Z</time></trkpt><trkpt lat="46.01940830453062" lon="12.002031952522657"><ele>520.5999999999999</ele><time>2026-04-18T15:10:29Z</time></trkpt><trkpt lat="46.019328894709545" lon="12.001964502259694"><ele>519.8</ele><time>2026-04-18T15:10:30Z</time></trkpt><trkpt lat="46.01923651332858" lon="12.001882043064827"><ele>519.0</ele><time>2026-04-18T15:10:31Z</time></trkpt><trkpt lat="46.01913692901847" lon="12.001813783145636"><ele>519.0</ele><time>2026-04-18T15:10:32Z</time></trkpt><trkpt lat="46.019033901015824" lon="12.001785449387828"><ele>519.0</ele><time>2026-04-18T15:10:33Z</time></trkpt><trkpt lat="46.01892146891135" lon="12.001749600090914"><ele>519.0</ele><time>2026-04-18T15:10:34Z</time></trkpt><trkpt lat="46.018809557083934" lon="12.001685598243533"><ele>519.0</ele><time>2026-04-18T15:10:35Z</time></trkpt><trkpt lat="46.01870736195367" lon="12.001592286067348"><ele>516.3333333333334</ele><time>2026-04-18T15:10:36Z</time></trkpt><trkpt lat="46.01860190764915" lon="12.001464450237787"><ele>513.6666666666667</ele><time>2026-04-18T15:10:37Z</time></trkpt><trkpt lat="46.01849068398985" lon="12.001281640273612"><ele>511.0</ele><time>2026-04-18T15:10:38Z</time></trkpt><trkpt lat="46.01836792178305" lon="12.00107468772484"><ele>513.6666666666667</ele><time>2026-04-18T15:10:39Z</time></trkpt><trkpt lat="46.01827508932013" lon="12.0008834105522"><ele>516.3333333333334</ele><time>2026-04-18T15:10:40Z</time></trkpt><trkpt lat="46.018178923997404" lon="12.000731931533483"><ele>519.0</ele><time>2026-04-18T15:10:41Z</time></trkpt><trkpt lat="46.018079155870005" lon="12.000574777411103"><ele>519.0</ele><time>2026-04-18T15:10:42Z</time></trkpt><trkpt lat="46.0179621258693" lon="12.000390432459424"><ele>519.0</ele><time>2026-04-18T15:10:43Z</time></trkpt><trkpt lat="46.017855685477095" lon="12.000222768220576"><ele>519.0</ele><time>2026-04-18T15:10:44Z</time></trkpt><trkpt lat="46.017744502424065" lon="12.00008109642564"><ele>519.0</ele><time>2026-04-18T15:10:45Z</time></trkpt><trkpt lat="46.017644126113936" lon="11.999917866338013"><ele>519.0</ele><time>2026-04-18T15:10:46Z</time></trkpt><trkpt lat="46.01755892669083" lon="11.999755740299074"><ele>519.0</ele><time>2026-04-18T15:10:47Z</time></trkpt><trkpt lat="46.017472736382004" lon="11.99961053006754"><ele>519.0</ele><time>2026-04-18T15:10:48Z</time></trkpt><trkpt lat="46.01740571539657" lon="11.999464345991978"><ele>520.75</ele><time>2026-04-18T15:10:49Z</time></trkpt><trkpt lat="46.017340220712235" lon="11.999313670351187"><ele>522.5</ele><time>2026-04-18T15:10:50Z</time></trkpt><trkpt lat="46.017274814474845" lon="11.999158708808391"><ele>524.25</ele><time>2026-04-18T15:10:51Z</time></trkpt><trkpt lat="46.01721632998465" lon="11.999019602500683"><ele>526.0</ele><time>2026-04-18T15:10:52Z</time></trkpt><trkpt lat="46.01716141656589" lon="11.998889999829201"><ele>526.0</ele><time>2026-04-18T15:10:53Z</time></trkpt><trkpt lat="46.01710994060643" lon="11.998768763548368"><ele>526.0</ele><time>2026-04-18T15:10:54Z</time></trkpt><trkpt lat="46.017063532587905" lon="11.998659463298562"><ele>526.0</ele><time>2026-04-18T15:10:55Z</time></trkpt><trkpt lat="46.01702705553007" lon="11.998571483367552"><ele>526.0</ele><time>2026-04-18T15:10:56Z</time></trkpt><trkpt lat="46.01697703417979" lon="11.998448797735525"><ele>526.0</ele><time>2026-04-18T15:10:58Z</time></trkpt><trkpt lat="46.01694472938747" lon="11.998364070616397"><ele>526.0</ele><time>2026-04-18T15:11:00Z</time></trkpt><trkpt lat="46.017046764967816" lon="11.998504244188103"><ele>526.0</ele><time>2026-04-18T15:11:05.999Z</time></trkpt><trkpt lat="46.01707805362586" lon="11.998601631363067"><ele>526.0</ele><time>2026-04-18T15:11:06.999Z</time></trkpt><trkpt lat="46.017155255680215" lon="11.998742490329537"><ele>526.0</ele><time>2026-04-18T15:11:08.999Z</time></trkpt><trkpt lat="46.017245949836855" lon="11.998878963313754"><ele>526.0</ele><time>2026-04-18T15:11:10.999Z</time></trkpt><trkpt lat="46.01729512185016" lon="11.998947814974779"><ele>526.0</ele><time>2026-04-18T15:11:11.999Z</time></trkpt><trkpt lat="46.01739541707559" lon="11.999050818339791"><ele>526.0</ele><time>2026-04-18T15:11:13.999Z</time></trkpt><trkpt lat="46.017447353528844" lon="11.999107856871222"><ele>526.0</ele><time>2026-04-18T15:11:14.999Z</time></trkpt><trkpt lat="46.01755450370966" lon="11.999203569240603"><ele>526.0</ele><time>2026-04-18T15:11:16.999Z</time></trkpt><trkpt lat="46.01766386797852" lon="11.999279538102028"><ele>526.0</ele><time>2026-04-18T15:11:18.999Z</time></trkpt><trkpt lat="46.017759455172275" lon="11.99935291191006"><ele>526.0</ele><time>2026-04-18T15:11:20.999Z</time></trkpt><trkpt lat="46.01784164952949" lon="11.999392845306636"><ele>524.6</ele><time>2026-04-18T15:11:22.999Z</time></trkpt><trkpt lat="46.01791652928425" lon="11.999447022485693"><ele>523.2</ele><time>2026-04-18T15:11:24.999Z</time></trkpt><trkpt lat="46.018002104682445" lon="11.999494354565643"><ele>521.8</ele><time>2026-04-18T15:11:26.999Z</time></trkpt><trkpt lat="46.018096058894606" lon="11.999511701519555"><ele>520.4</ele><time>2026-04-18T15:11:28.999Z</time></trkpt><trkpt lat="46.01820902143817" lon="11.99951933803482"><ele>519.0</ele><time>2026-04-18T15:11:30.999Z</time></trkpt><trkpt lat="46.018316083734774" lon="11.999493435518689"><ele>516.1666666666666</ele><time>2026-04-18T15:11:32.999Z</time></trkpt><trkpt lat="46.01840494162573" lon="11.999444210555017"><ele>513.3333333333334</ele><time>2026-04-18T15:11:34.999Z</time></trkpt><trkpt lat="46.01847533298415" lon="11.999411545993484"><ele>510.5</ele><time>2026-04-18T15:11:36.999Z</time></trkpt><trkpt lat="46.01855332375596" lon="11.999377359256732"><ele>507.6666666666667</ele><time>2026-04-18T15:11:38.999Z</time></trkpt><trkpt lat="46.018626047515966" lon="11.999363390748014"><ele>504.83333333333337</ele><time>2026-04-18T15:11:40.999Z</time></trkpt><trkpt lat="46.018701354533164" lon="11.999361413220445"><ele>502.0</ele><time>2026-04-18T15:11:58Z</time></trkpt><trkpt lat="46.01878090790221" lon="11.999325656026903"><ele>502.00000000000006</ele><time>2026-04-18T15:12:01Z</time></trkpt><trkpt lat="46.01885370448307" lon="11.999284710573011"><ele>502.0</ele><time>2026-04-18T15:12:05Z</time></trkpt><trkpt lat="46.018784380506396" lon="11.999321158152542"><ele>502.0</ele><time>2026-04-18T15:12:14Z</time></trkpt><trkpt lat="46.01868705777049" lon="11.99931247875264"><ele>502.0</ele><time>2026-04-18T15:12:15Z</time></trkpt><trkpt lat="46.018613951922234" lon="11.999340950129007"><ele>502.00000000000006</ele><time>2026-04-18T15:12:16Z</time></trkpt><trkpt lat="46.01853474700109" lon="11.999366973201317"><ele>502.0</ele><time>2026-04-18T15:12:17Z</time></trkpt><trkpt lat="46.01845710307631" lon="11.999390011781067"><ele>502.0</ele><time>2026-04-18T15:12:18Z</time></trkpt><trkpt lat="46.01835367332711" lon="11.999438556824408"><ele>502.00000000000006</ele><time>2026-04-18T15:12:19Z</time></trkpt><trkpt lat="46.01826280038052" lon="11.999480322365951"><ele>502.00000000000006</ele><time>2026-04-18T15:12:20Z</time></trkpt><trkpt lat="46.01815685570966" lon="11.999512291670932"><ele>502.0</ele><time>2026-04-18T15:12:21Z</time></trkpt><trkpt lat="46.0180279203488" lon="11.999481873940177"><ele>502.0</ele><time>2026-04-18T15:12:22Z</time></trkpt><trkpt lat="46.01792913556626" lon="11.999441682082013"><ele>502.8</ele><time>2026-04-18T15:12:23Z</time></trkpt><trkpt lat="46.01783193580261" lon="11.999381053158023"><ele>503.6</ele><time>2026-04-18T15:12:24Z</time></trkpt><trkpt lat="46.01776655062748" lon="11.999309792242068"><ele>504.40000000000003</ele><time>2026-04-18T15:12:25Z</time></trkpt><trkpt lat="46.01768419206162" lon="11.999254837653648"><ele>505.20000000000005</ele><time>2026-04-18T15:12:26Z</time></trkpt><trkpt lat="46.01759690305195" lon="11.999194111565409"><ele>506.0</ele><time>2026-04-18T15:12:27Z</time></trkpt><trkpt lat="46.01751196583039" lon="11.9991236287368"><ele>510.0</ele><time>2026-04-18T15:12:28Z</time></trkpt><trkpt lat="46.01742348852848" lon="11.999031564649638"><ele>514.0</ele><time>2026-04-18T15:12:29Z</time></trkpt><trkpt lat="46.01733170735287" lon="11.998923642700579"><ele>518.0</ele><time>2026-04-18T15:12:30Z</time></trkpt><trkpt lat="46.017265635772674" lon="11.998837943037389"><ele>522.0</ele><time>2026-04-18T15:12:31Z</time></trkpt><trkpt lat="46.01720574071251" lon="11.998753814335416"><ele>526.0</ele><time>2026-04-18T15:12:32Z</time></trkpt><trkpt lat="46.01713932468374" lon="11.9986515838127"><ele>526.0</ele><time>2026-04-18T15:12:33Z</time></trkpt><trkpt lat="46.01708520629217" lon="11.998538502789659"><ele>526.0</ele><time>2026-04-18T15:12:34Z</time></trkpt><trkpt lat="46.01703806140257" lon="11.998414217484292"><ele>526.0</ele><time>2026-04-18T15:12:35Z</time></trkpt><trkpt lat="46.01699691985824" lon="11.998319563019695"><ele>526.0</ele><time>2026-04-18T15:12:36Z</time></trkpt><trkpt lat="46.01695424174588" lon="11.9982421384265"><ele>526.0</ele><time>2026-04-18T15:12:37Z</time></trkpt><trkpt lat="46.01689441648658" lon="11.998163441779466"><ele>526.0</ele><time>2026-04-18T15:12:38Z</time></trkpt><trkpt lat="46.016826470311926" lon="11.998064777464363"><ele>524.75</ele><time>2026-04-18T15:12:39Z</time></trkpt><trkpt lat="46.01675311346694" lon="11.997896557418443"><ele>523.5</ele><time>2026-04-18T15:12:40Z</time></trkpt><trkpt lat="46.016677744366156" lon="11.997741181902665"><ele>522.25</ele><time>2026-04-18T15:12:41Z</time></trkpt><trkpt lat="46.01660772613809" lon="11.997607687902779"><ele>521.0</ele><time>2026-04-18T15:12:42Z</time></trkpt><trkpt lat="46.01653349735169" lon="11.997482151268173"><ele>524.8</ele><time>2026-04-18T15:12:43Z</time></trkpt><trkpt lat="46.01648606394474" lon="11.997376198043977"><ele>528.6</ele><time>2026-04-18T15:12:44Z</time></trkpt><trkpt lat="46.016428690953916" lon="11.997264572270403"><ele>532.4</ele><time>2026-04-18T15:12:45Z</time></trkpt><trkpt lat="46.01636660233766" lon="11.997131161336284"><ele>536.2</ele><time>2026-04-18T15:12:46Z</time></trkpt><trkpt lat="46.01629961993647" lon="11.996981443295452"><ele>540.0</ele><time>2026-04-18T15:12:47Z</time></trkpt><trkpt lat="46.016235989805374" lon="11.99683426679143"><ele>540.0</ele><time>2026-04-18T15:12:48Z</time></trkpt><trkpt lat="46.01618086174734" lon="11.996722943229114"><ele>540.0</ele><time>2026-04-18T15:12:49Z</time></trkpt><trkpt lat="46.01613155777737" lon="11.996621161939693"><ele>540.0</ele><time>2026-04-18T15:12:50Z</time></trkpt><trkpt lat="46.01607360159675" lon="11.996518680002724"><ele>540.0</ele><time>2026-04-18T15:12:51Z</time></trkpt><trkpt lat="46.01600589950601" lon="11.996399613478392"><ele>540.0</ele><time>2026-04-18T15:12:52Z</time></trkpt><trkpt lat="46.01591627291702" lon="11.996290375239065"><ele>541.75</ele><time>2026-04-18T15:12:53Z</time></trkpt><trkpt lat="46.01581112088172" lon="11.996186721490558"><ele>543.5</ele><time>2026-04-18T15:12:54Z</time></trkpt><trkpt lat="46.015709413416744" lon="11.99611537306156"><ele>545.25</ele><time>2026-04-18T15:12:55Z</time></trkpt><trkpt lat="46.0155973557867" lon="11.99602438289157"><ele>547.0</ele><time>2026-04-18T15:12:56Z</time></trkpt><trkpt lat="46.01547574627055" lon="11.995973256087382"><ele>547.0</ele><time>2026-04-18T15:12:57Z</time></trkpt><trkpt lat="46.01537167985176" lon="11.99590991566256"><ele>547.0</ele><time>2026-04-18T15:12:58Z</time></trkpt><trkpt lat="46.01527673849342" lon="11.995860404759659"><ele>547.0</ele><time>2026-04-18T15:12:59Z</time></trkpt><trkpt lat="46.0151908428725" lon="11.995822604935114"><ele>547.0</ele><time>2026-04-18T15:13:00Z</time></trkpt><trkpt lat="46.01512058791883" lon="11.99578522114986"><ele>547.0</ele><time>2026-04-18T15:13:01Z</time></trkpt><trkpt lat="46.01503998208699" lon="11.995747332188834"><ele>543.8333333333334</ele><time>2026-04-18T15:13:02Z</time></trkpt><trkpt lat="46.01495231324774" lon="11.995702734437838"><ele>540.6666666666667</ele><time>2026-04-18T15:13:03Z</time></trkpt><trkpt lat="46.014867719509716" lon="11.99566458192679"><ele>537.5</ele><time>2026-04-18T15:13:04Z</time></trkpt><trkpt lat="46.0147937753182" lon="11.995634207272456"><ele>534.3333333333334</ele><time>2026-04-18T15:13:05Z</time></trkpt><trkpt lat="46.014706482217576" lon="11.995619390379654"><ele>531.1666666666666</ele><time>2026-04-18T15:13:06Z</time></trkpt><trkpt lat="46.01461804331689" lon="11.995653074598874"><ele>528.0</ele><time>2026-04-18T15:13:07Z</time></trkpt><trkpt lat="46.01452795682503" lon="11.995702365847633"><ele>528.0</ele><time>2026-04-18T15:13:07.999Z</time></trkpt><trkpt lat="46.01444747059622" lon="11.995796849649889"><ele>528.0</ele><time>2026-04-18T15:13:08.999Z</time></trkpt><trkpt lat="46.014366947404554" lon="11.995889399512564"><ele>528.0</ele><time>2026-04-18T15:13:09.999Z</time></trkpt><trkpt lat="46.01430120419817" lon="11.995957812062988"><ele>528.0</ele><time>2026-04-18T15:13:10.999Z</time></trkpt><trkpt lat="46.01423255016204" lon="11.99601534780158"><ele>528.0</ele><time>2026-04-18T15:13:11.999Z</time></trkpt><trkpt lat="46.01414544493821" lon="11.996065735209235"><ele>530.4</ele><time>2026-04-18T15:13:12.999Z</time></trkpt><trkpt lat="46.014039183163526" lon="11.996092233765365"><ele>532.8</ele><time>2026-04-18T15:13:13.999Z</time></trkpt><trkpt lat="46.013918436834174" lon="11.996080687941378"><ele>535.2</ele><time>2026-04-18T15:13:14.999Z</time></trkpt><trkpt lat="46.013819896156505" lon="11.996070741762553"><ele>537.6</ele><time>2026-04-18T15:13:15.999Z</time></trkpt><trkpt lat="46.013722388304956" lon="11.996014533620878"><ele>540.0</ele><time>2026-04-18T15:13:16.999Z</time></trkpt><trkpt lat="46.01364012907323" lon="11.995972992494425"><ele>540.0</ele><time>2026-04-18T15:13:17.999Z</time></trkpt><trkpt lat="46.013571203510494" lon="11.995929105853309"><ele>540.0</ele><time>2026-04-18T15:13:18.999Z</time></trkpt><trkpt lat="46.01349150273093" lon="11.995892869113451"><ele>540.0</ele><time>2026-04-18T15:13:19.999Z</time></trkpt><trkpt lat="46.01340904199005" lon="11.995854628426443"><ele>540.0</ele><time>2026-04-18T15:13:20.999Z</time></trkpt><trkpt lat="46.01331370976409" lon="11.995809251857365"><ele>540.0</ele><time>2026-04-18T15:13:21.999Z</time></trkpt><trkpt lat="46.013218021885486" lon="11.995767346526696"><ele>540.0</ele><time>2026-04-18T15:13:22.999Z</time></trkpt><trkpt lat="46.01311879647062" lon="11.99574539341433"><ele>538.6666666666666</ele><time>2026-04-18T15:13:23.999Z</time></trkpt><trkpt lat="46.01304089343069" lon="11.995728941880031"><ele>537.3333333333334</ele><time>2026-04-18T15:13:24.999Z</time></trkpt><trkpt lat="46.012958877727776" lon="11.995709227916354"><ele>536.0</ele><time>2026-04-18T15:13:25.999Z</time></trkpt><trkpt lat="46.01287398809205" lon="11.99567546835103"><ele>534.6666666666667</ele><time>2026-04-18T15:13:26.999Z</time></trkpt><trkpt lat="46.01280458982084" lon="11.995642501849018"><ele>533.3333333333334</ele><time>2026-04-18T15:13:27.999Z</time></trkpt><trkpt lat="46.01272981307631" lon="11.995597253032347"><ele>532.0</ele><time>2026-04-18T15:13:28.999Z</time></trkpt><trkpt lat="46.01265940274672" lon="11.995552099253858"><ele>532.0</ele><time>2026-04-18T15:13:29.999Z</time></trkpt><trkpt lat="46.01258507011216" lon="11.995504331273969"><ele>532.0</ele><time>2026-04-18T15:13:30.999Z</time></trkpt><trkpt lat="46.01251518270408" lon="11.995470071157145"><ele>532.0</ele><time>2026-04-18T15:13:31.999Z</time></trkpt><trkpt lat="46.01245768331417" lon="11.995412103778653"><ele>532.0</ele><time>2026-04-18T15:13:32.999Z</time></trkpt><trkpt lat="46.01239526159141" lon="11.995383404201663"><ele>532.0</ele><time>2026-04-18T15:13:33.999Z</time></trkpt><trkpt lat="46.012334979882" lon="11.995340875457225"><ele>532.0</ele><time>2026-04-18T15:13:34.999Z</time></trkpt><trkpt lat="46.01228004329333" lon="11.995295592330294"><ele>532.0</ele><time>2026-04-18T15:13:35.999Z</time></trkpt><trkpt lat="46.012193810633605" lon="11.99519706526467"><ele>530.6</ele><time>2026-04-18T15:13:37.999Z</time></trkpt><trkpt lat="46.01210540938415" lon="11.995121904341534"><ele>529.2</ele><time>2026-04-18T15:13:39.999Z</time></trkpt><trkpt lat="46.011998739179454" lon="11.995056434938293"><ele>527.8</ele><time>2026-04-18T15:13:41.999Z</time></trkpt><trkpt lat="46.011915965400064" lon="11.994947532831146"><ele>526.4</ele><time>2026-04-18T15:13:43.999Z</time></trkpt><trkpt lat="46.011861785301754" lon="11.994859753853515"><ele>525.0</ele><time>2026-04-18T15:13:45.999Z</time></trkpt><trkpt lat="46.011792188861264" lon="11.994738463841475"><ele>523.8333333333334</ele><time>2026-04-18T15:13:48Z</time></trkpt><trkpt lat="46.01179894255792" lon="11.994593124027048"><ele>522.6666666666666</ele><time>2026-04-18T15:13:50Z</time></trkpt><trkpt lat="46.01178741224757" lon="11.994498286371426"><ele>521.5</ele><time>2026-04-18T15:13:51Z</time></trkpt><trkpt lat="46.011782876562634" lon="11.994399682936878"><ele>520.3333333333333</ele><time>2026-04-18T15:13:52Z</time></trkpt><trkpt lat="46.011776531860924" lon="11.994243206514206"><ele>519.1666666666666</ele><time>2026-04-18T15:13:54Z</time></trkpt><trkpt lat="46.01177539998824" lon="11.994107574413217"><ele>518.0</ele><time>2026-04-18T15:13:56Z</time></trkpt><trkpt lat="46.011834852284906" lon="11.993985604520908"><ele>517.1666666666666</ele><time>2026-04-18T15:13:58Z</time></trkpt><trkpt lat="46.01186908404815" lon="11.99389041611677"><ele>516.3333333333333</ele><time>2026-04-18T15:14:00Z</time></trkpt><trkpt lat="46.011834495893595" lon="11.993806968019049"><ele>515.5</ele><time>2026-04-18T15:14:01Z</time></trkpt><trkpt lat="46.011800531482145" lon="11.993655983079995"><ele>514.6666666666666</ele><time>2026-04-18T15:14:03Z</time></trkpt><trkpt lat="46.01170093904607" lon="11.993581700579828"><ele>513.8333333333334</ele><time>2026-04-18T15:14:05Z</time></trkpt><trkpt lat="46.01163096595998" lon="11.993538401886868"><ele>513.0</ele><time>2026-04-18T15:14:07Z</time></trkpt><trkpt lat="46.01156872107493" lon="11.993420174112595"><ele>507.0</ele><time>2026-04-18T15:14:09Z</time></trkpt><trkpt lat="46.01145375679079" lon="11.993232184343395"><ele>501.0</ele><time>2026-04-18T15:14:11Z</time></trkpt><trkpt lat="46.011395435670124" lon="11.993024654884332"><ele>495.0</ele><time>2026-04-18T15:14:13Z</time></trkpt><trkpt lat="46.011363248303574" lon="11.992904572612943"><ele>489.0</ele><time>2026-04-18T15:14:14Z</time></trkpt><trkpt lat="46.01133574158008" lon="11.992801921804347"><ele>489.0</ele><time>2026-04-18T15:14:15Z</time></trkpt><trkpt lat="46.011305841686486" lon="11.99269034006518"><ele>489.0</ele><time>2026-04-18T15:14:16Z</time></trkpt><trkpt lat="46.01128073506907" lon="11.992590809617955"><ele>489.0</ele><time>2026-04-18T15:14:17Z</time></trkpt><trkpt lat="46.01124922847634" lon="11.992463438188848"><ele>489.0</ele><time>2026-04-18T15:14:18Z</time></trkpt><trkpt lat="46.011219837150236" lon="11.992345370899109"><ele>489.0</ele><time>2026-04-18T15:14:19Z</time></trkpt><trkpt lat="46.01118807975572" lon="11.992226812028894"><ele>489.0</ele><time>2026-04-18T15:14:20Z</time></trkpt><trkpt lat="46.01116045345362" lon="11.992113171307208"><ele>488.42857142857144</ele><time>2026-04-18T15:14:21Z</time></trkpt><trkpt lat="46.011128191189094" lon="11.992012690985247"><ele>487.8571428571429</ele><time>2026-04-18T15:14:22Z</time></trkpt><trkpt lat="46.01110596645298" lon="11.991917387288417"><ele>487.28571428571433</ele><time>2026-04-18T15:14:23Z</time></trkpt><trkpt lat="46.011085464040676" lon="11.991816419711425"><ele>486.7142857142858</ele><time>2026-04-18T15:14:24Z</time></trkpt><trkpt lat="46.01106130315598" lon="11.991716883498396"><ele>486.14285714285717</ele><time>2026-04-18T15:14:25Z</time></trkpt><trkpt lat="46.01103922689835" lon="11.991620542908803"><ele>485.57142857142867</ele><time>2026-04-18T15:14:26Z</time></trkpt><trkpt lat="46.011010895320624" lon="11.991528475993205"><ele>485.00000000000006</ele><time>2026-04-18T15:14:27Z</time></trkpt><trkpt lat="46.01096762751586" lon="11.991448880975991"><ele>484.99999999999994</ele><time>2026-04-18T15:14:28Z</time></trkpt><trkpt lat="46.010913254779275" lon="11.991373671939552"><ele>485.0</ele><time>2026-04-18T15:14:29Z</time></trkpt><trkpt lat="46.010854899280254" lon="11.991302773800003"><ele>485.0</ele><time>2026-04-18T15:14:30Z</time></trkpt><trkpt lat="46.01078865500896" lon="11.991240194834464"><ele>485.0</ele><time>2026-04-18T15:14:31Z</time></trkpt><trkpt lat="46.010715161007916" lon="11.99118829660094"><ele>484.99999999999994</ele><time>2026-04-18T15:14:32Z</time></trkpt><trkpt lat="46.010621065233444" lon="11.991173232440028"><ele>485.0</ele><time>2026-04-18T15:14:33Z</time></trkpt><trkpt lat="46.01053869671029" lon="11.99113968339362"><ele>481.49999999999994</ele><time>2026-04-18T15:14:34Z</time></trkpt><trkpt lat="46.0104553594696" lon="11.991097131919165"><ele>478.0</ele><time>2026-04-18T15:14:35Z</time></trkpt><trkpt lat="46.01037010982867" lon="11.991080845903172"><ele>474.5</ele><time>2026-04-18T15:14:36Z</time></trkpt><trkpt lat="46.010279660335705" lon="11.991064188527124"><ele>471.0</ele><time>2026-04-18T15:14:37Z</time></trkpt><trkpt lat="46.01019677952544" lon="11.991039050781689"><ele>467.49999999999994</ele><time>2026-04-18T15:14:38Z</time></trkpt><trkpt lat="46.010126808107294" lon="11.990973231992538"><ele>464.0</ele><time>2026-04-18T15:14:39Z</time></trkpt><trkpt lat="46.010048626757204" lon="11.9908910441727"><ele>461.79999999999995</ele><time>2026-04-18T15:14:40Z</time></trkpt><trkpt lat="46.00996796461736" lon="11.990774771528052"><ele>459.59999999999997</ele><time>2026-04-18T15:14:41Z</time></trkpt><trkpt lat="46.009886982760634" lon="11.990658852184893"><ele>457.4</ele><time>2026-04-18T15:14:42Z</time></trkpt><trkpt lat="46.00980796514589" lon="11.990577256210107"><ele>455.2</ele><time>2026-04-18T15:14:43Z</time></trkpt><trkpt lat="46.00975811292153" lon="11.99048548191697"><ele>453.0</ele><time>2026-04-18T15:14:44Z</time></trkpt><trkpt lat="46.009707506467805" lon="11.990415812955117"><ele>453.0</ele><time>2026-04-18T15:14:45Z</time></trkpt><trkpt lat="46.009679312336544" lon="11.990334279350067"><ele>453.0</ele><time>2026-04-18T15:14:46Z</time></trkpt><trkpt lat="46.00966980477559" lon="11.990243115594714"><ele>453.0</ele><time>2026-04-18T15:14:47Z</time></trkpt><trkpt lat="46.0096986106789" lon="11.990142886871723"><ele>453.0</ele><time>2026-04-18T15:14:48Z</time></trkpt><trkpt lat="46.009680852662996" lon="11.9900259561371"><ele>453.0</ele><time>2026-04-18T15:14:49Z</time></trkpt><trkpt lat="46.009670989069356" lon="11.98988799876736"><ele>453.0</ele><time>2026-04-18T15:14:50Z</time></trkpt><trkpt lat="46.00964641457518" lon="11.98977296163016"><ele>454.0</ele><time>2026-04-18T15:14:51Z</time></trkpt><trkpt lat="46.00961202304376" lon="11.989646372224687"><ele>454.99999999999994</ele><time>2026-04-18T15:14:52Z</time></trkpt><trkpt lat="46.00955734382707" lon="11.98949125439455"><ele>455.99999999999994</ele><time>2026-04-18T15:14:53Z</time></trkpt><trkpt lat="46.00951076754934" lon="11.989347757962923"><ele>457.0</ele><time>2026-04-18T15:14:54Z</time></trkpt><trkpt lat="46.009454727336056" lon="11.989232697492763"><ele>458.0</ele><time>2026-04-18T15:14:55Z</time></trkpt><trkpt lat="46.00941183542386" lon="11.989119980183773"><ele>459.0</ele><time>2026-04-18T15:14:56Z</time></trkpt><trkpt lat="46.0093739623627" lon="11.989009937037146"><ele>459.99999999999994</ele><time>2026-04-18T15:14:57Z</time></trkpt><trkpt lat="46.009320972080175" lon="11.988886439388862"><ele>460.99999999999994</ele><time>2026-04-18T15:14:58Z</time></trkpt><trkpt lat="46.0092762086163" lon="11.988757812916178"><ele>462.0</ele><time>2026-04-18T15:14:59Z</time></trkpt><trkpt lat="46.00923855270854" lon="11.98864723490586"><ele>463.0</ele><time>2026-04-18T15:15:00Z</time></trkpt><trkpt lat="46.009206477081825" lon="11.988539846970928"><ele>463.00000000000006</ele><time>2026-04-18T15:15:01Z</time></trkpt><trkpt lat="46.00917919879966" lon="11.988426080234905"><ele>463.0</ele><time>2026-04-18T15:15:02Z</time></trkpt><trkpt lat="46.0091544672174" lon="11.988316907159186"><ele>463.0</ele><time>2026-04-18T15:15:03Z</time></trkpt><trkpt lat="46.00916359561311" lon="11.988195412701334"><ele>463.0</ele><time>2026-04-18T15:15:04Z</time></trkpt><trkpt lat="46.00919680309118" lon="11.988061796624976"><ele>463.00000000000006</ele><time>2026-04-18T15:15:05Z</time></trkpt><trkpt lat="46.00920330208372" lon="11.98791731435267"><ele>463.0</ele><time>2026-04-18T15:15:06Z</time></trkpt><trkpt lat="46.00920515772798" lon="11.987800695567184"><ele>462.33333333333337</ele><time>2026-04-18T15:15:07Z</time></trkpt><trkpt lat="46.009197745230594" lon="11.987674619330898"><ele>461.6666666666667</ele><time>2026-04-18T15:15:08Z</time></trkpt><trkpt lat="46.00920840789946" lon="11.98756446863633"><ele>461.0</ele><time>2026-04-18T15:15:09Z</time></trkpt><trkpt lat="46.00925193694376" lon="11.987489703542831"><ele>460.33333333333337</ele><time>2026-04-18T15:15:09.999Z</time></trkpt><trkpt lat="46.00929274402009" lon="11.987418445881653"><ele>459.6666666666667</ele><time>2026-04-18T15:15:10.999Z</time></trkpt><trkpt lat="46.009369774711" lon="11.987315237279203"><ele>459.0</ele><time>2026-04-18T15:15:12.999Z</time></trkpt><trkpt lat="46.00943498111909" lon="11.987261877440504"><ele>459.0</ele><time>2026-04-18T15:15:14.999Z</time></trkpt><trkpt lat="46.00951670532534" lon="11.987233482273146"><ele>459.0</ele><time>2026-04-18T15:15:16.999Z</time></trkpt><trkpt lat="46.00960051561911" lon="11.987281077557789"><ele>459.0</ele><time>2026-04-18T15:15:18.999Z</time></trkpt><trkpt lat="46.00964917890089" lon="11.987353205799096"><ele>459.0</ele><time>2026-04-18T15:15:19.999Z</time></trkpt><trkpt lat="46.00971285904918" lon="11.987411542851763"><ele>459.0</ele><time>2026-04-18T15:15:20.999Z</time></trkpt><trkpt lat="46.009764726746496" lon="11.987512308487139"><ele>459.0</ele><time>2026-04-18T15:15:21.999Z</time></trkpt><trkpt lat="46.0098338163246" lon="11.987585996018316"><ele>459.0</ele><time>2026-04-18T15:15:22.999Z</time></trkpt><trkpt lat="46.00989120090822" lon="11.987662186755767"><ele>459.0</ele><time>2026-04-18T15:15:23.999Z</time></trkpt><trkpt lat="46.00997202285182" lon="11.987791033687152"><ele>459.0</ele><time>2026-04-18T15:15:25.999Z</time></trkpt><trkpt lat="46.010041929918536" lon="11.987858796682085"><ele>459.0</ele><time>2026-04-18T15:15:26.999Z</time></trkpt><trkpt lat="46.01009724881086" lon="11.987932854081537"><ele>459.0</ele><time>2026-04-18T15:15:27.999Z</time></trkpt><trkpt lat="46.01016958582597" lon="11.98799512501475"><ele>459.0</ele><time>2026-04-18T15:15:28.999Z</time></trkpt><trkpt lat="46.01026385148393" lon="11.988022983098157"><ele>459.0</ele><time>2026-04-18T15:15:29.999Z</time></trkpt><trkpt lat="46.01035600506401" lon="11.988064805586216"><ele>459.0</ele><time>2026-04-18T15:15:30.999Z</time></trkpt><trkpt lat="46.010441290231725" lon="11.988099510758829"><ele>459.0</ele><time>2026-04-18T15:15:31.999Z</time></trkpt><trkpt lat="46.01053110413462" lon="11.988158003603138"><ele>459.0</ele><time>2026-04-18T15:15:32.999Z</time></trkpt><trkpt lat="46.01063072741556" lon="11.988181400486848"><ele>459.0</ele><time>2026-04-18T15:15:33.999Z</time></trkpt><trkpt lat="46.01073672676175" lon="11.988220531940845"><ele>458.2</ele><time>2026-04-18T15:15:34.999Z</time></trkpt><trkpt lat="46.010832716734534" lon="11.988251495416202"><ele>457.4</ele><time>2026-04-18T15:15:35.999Z</time></trkpt><trkpt lat="46.010930740941475" lon="11.988310803754924"><ele>456.6</ele><time>2026-04-18T15:15:36.999Z</time></trkpt><trkpt lat="46.01101519109722" lon="11.988341714182207"><ele>455.8</ele><time>2026-04-18T15:15:37.999Z</time></trkpt><trkpt lat="46.01110327561503" lon="11.988367085007763"><ele>455.0</ele><time>2026-04-18T15:15:38.999Z</time></trkpt><trkpt lat="46.01118743010058" lon="11.988413342906766"><ele>455.0</ele><time>2026-04-18T15:15:39.999Z</time></trkpt><trkpt lat="46.01127177078895" lon="11.988484587011484"><ele>455.0</ele><time>2026-04-18T15:15:40.999Z</time></trkpt><trkpt lat="46.01136510946535" lon="11.988511953731017"><ele>455.0</ele><time>2026-04-18T15:15:41.999Z</time></trkpt><trkpt lat="46.01145446620363" lon="11.988542751901816"><ele>455.0</ele><time>2026-04-18T15:15:42.999Z</time></trkpt><trkpt lat="46.011546438565226" lon="11.988575504075273"><ele>455.0</ele><time>2026-04-18T15:15:43.999Z</time></trkpt><trkpt lat="46.011624787300704" lon="11.988596660263584"><ele>450.3333333333333</ele><time>2026-04-18T15:15:44.999Z</time></trkpt><trkpt lat="46.011710949164225" lon="11.988634949459506"><ele>445.66666666666663</ele><time>2026-04-18T15:15:45.999Z</time></trkpt><trkpt lat="46.01179459388368" lon="11.988620683877249"><ele>441.0</ele><time>2026-04-18T15:15:46.999Z</time></trkpt><trkpt lat="46.01186815961345" lon="11.988627129458997"><ele>436.33333333333337</ele><time>2026-04-18T15:15:47.999Z</time></trkpt><trkpt lat="46.01194687567587" lon="11.988626105064283"><ele>431.6666666666667</ele><time>2026-04-18T15:15:48.999Z</time></trkpt><trkpt lat="46.01201263969599" lon="11.988641275953864"><ele>427.0</ele><time>2026-04-18T15:15:49.999Z</time></trkpt><trkpt lat="46.0121284659018" lon="11.988729601364097"><ele>427.00000000000006</ele><time>2026-04-18T15:15:51.999Z</time></trkpt><trkpt lat="46.01218481272105" lon="11.988794243322328"><ele>427.0</ele><time>2026-04-18T15:15:52.999Z</time></trkpt><trkpt lat="46.01223812824913" lon="11.988856783045666"><ele>427.0</ele><time>2026-04-18T15:15:54Z</time></trkpt><trkpt lat="46.0122938344374" lon="11.988910213752106"><ele>427.0</ele><time>2026-04-18T15:15:55Z</time></trkpt><trkpt lat="46.01236287665804" lon="11.988922379437124"><ele>427.00000000000006</ele><time>2026-04-18T15:15:56Z</time></trkpt><trkpt lat="46.01250054525501" lon="11.98888145652457"><ele>427.0</ele><time>2026-04-18T15:15:58Z</time></trkpt><trkpt lat="46.01256528066138" lon="11.988820302806134"><ele>424.50000000000006</ele><time>2026-04-18T15:15:59Z</time></trkpt><trkpt lat="46.01260756326105" lon="11.988711805027771"><ele>422.0</ele><time>2026-04-18T15:16:00Z</time></trkpt><trkpt lat="46.01264876316657" lon="11.988613995866892"><ele>419.5</ele><time>2026-04-18T15:16:01Z</time></trkpt><trkpt lat="46.01267930215199" lon="11.988482204440153"><ele>417.0</ele><time>2026-04-18T15:16:02Z</time></trkpt><trkpt lat="46.01270060068683" lon="11.98836279203549"><ele>414.50000000000006</ele><time>2026-04-18T15:16:03Z</time></trkpt><trkpt lat="46.012701941086135" lon="11.988242312140875"><ele>412.0</ele><time>2026-04-18T15:16:04Z</time></trkpt><trkpt lat="46.01270411507645" lon="11.988120378098646"><ele>410.71428571428567</ele><time>2026-04-18T15:16:05Z</time></trkpt><trkpt lat="46.01269604829404" lon="11.98800491402379"><ele>409.42857142857144</ele><time>2026-04-18T15:16:06Z</time></trkpt><trkpt lat="46.0126844956513" lon="11.98789144225337"><ele>408.1428571428571</ele><time>2026-04-18T15:16:07Z</time></trkpt><trkpt lat="46.01266370668648" lon="11.987780918611538"><ele>406.85714285714283</ele><time>2026-04-18T15:16:08Z</time></trkpt><trkpt lat="46.012634372842996" lon="11.9876834970003"><ele>405.57142857142856</ele><time>2026-04-18T15:16:09Z</time></trkpt><trkpt lat="46.01259919476716" lon="11.987606404876233"><ele>404.2857142857143</ele><time>2026-04-18T15:16:10Z</time></trkpt><trkpt lat="46.01254686010396" lon="11.987537910820775"><ele>403.0</ele><time>2026-04-18T15:16:11Z</time></trkpt><trkpt lat="46.012480823445046" lon="11.987488912681576"><ele>403.00000000000006</ele><time>2026-04-18T15:16:12Z</time></trkpt><trkpt lat="46.01241240229135" lon="11.987443471814478"><ele>403.0</ele><time>2026-04-18T15:16:13Z</time></trkpt><trkpt lat="46.01234459184844" lon="11.987372030692473"><ele>403.0</ele><time>2026-04-18T15:16:14Z</time></trkpt><trkpt lat="46.01230115566379" lon="11.987256640650399"><ele>403.0</ele><time>2026-04-18T15:16:15Z</time></trkpt><trkpt lat="46.01222944924742" lon="11.987147542051924"><ele>403.00000000000006</ele><time>2026-04-18T15:16:16Z</time></trkpt><trkpt lat="46.012181584676384" lon="11.987043026580661"><ele>403.0</ele><time>2026-04-18T15:16:17Z</time></trkpt><trkpt lat="46.0121417489442" lon="11.986930717282846"><ele>403.0</ele><time>2026-04-18T15:16:18Z</time></trkpt><trkpt lat="46.012114595980954" lon="11.986820441198333"><ele>403.0</ele><time>2026-04-18T15:16:19Z</time></trkpt><trkpt lat="46.01206462535838" lon="11.986728736296875"><ele>403.0</ele><time>2026-04-18T15:16:20Z</time></trkpt><trkpt lat="46.012032499368544" lon="11.986619293463438"><ele>403.0</ele><time>2026-04-18T15:16:21Z</time></trkpt><trkpt lat="46.011966606773235" lon="11.986480213012557"><ele>403.0</ele><time>2026-04-18T15:16:23Z</time></trkpt><trkpt lat="46.01193565261786" lon="11.986359900277549"><ele>399.59999999999997</ele><time>2026-04-18T15:16:25Z</time></trkpt><trkpt lat="46.01197947193289" lon="11.986259699654875"><ele>396.2</ele><time>2026-04-18T15:16:27Z</time></trkpt><trkpt lat="46.01211046587942" lon="11.986278892799128"><ele>392.8</ele><time>2026-04-18T15:16:29Z</time></trkpt><trkpt lat="46.01218347239181" lon="11.986270614600942"><ele>389.4</ele><time>2026-04-18T15:16:30Z</time></trkpt><trkpt lat="46.01225723753397" lon="11.98619741675653"><ele>386.0</ele><time>2026-04-18T15:16:31Z</time></trkpt><trkpt lat="46.01233653994057" lon="11.9861531166715"><ele>385.99999999999994</ele><time>2026-04-18T15:16:32Z</time></trkpt><trkpt lat="46.012408421561695" lon="11.986120172465208"><ele>386.0</ele><time>2026-04-18T15:16:33Z</time></trkpt><trkpt lat="46.01248718514884" lon="11.986125669569374"><ele>386.0</ele><time>2026-04-18T15:16:34Z</time></trkpt><trkpt lat="46.01256885364409" lon="11.986125089181822"><ele>386.0</ele><time>2026-04-18T15:16:35Z</time></trkpt><trkpt lat="46.012646436253284" lon="11.986126873454465"><ele>385.99999999999994</ele><time>2026-04-18T15:16:36Z</time></trkpt><trkpt lat="46.012724291503105" lon="11.986131797941999"><ele>386.0</ele><time>2026-04-18T15:16:37Z</time></trkpt><trkpt lat="46.01279501481952" lon="11.986139872778613"><ele>385.16666666666663</ele><time>2026-04-18T15:16:38Z</time></trkpt><trkpt lat="46.012866997293315" lon="11.986154562282172"><ele>384.3333333333333</ele><time>2026-04-18T15:16:39Z</time></trkpt><trkpt lat="46.012941167583236" lon="11.986177432605746"><ele>383.5</ele><time>2026-04-18T15:16:40Z</time></trkpt><trkpt lat="46.01301752839371" lon="11.986203588907891"><ele>382.66666666666663</ele><time>2026-04-18T15:16:41Z</time></trkpt><trkpt lat="46.013097224620196" lon="11.986211267638916"><ele>381.8333333333333</ele><time>2026-04-18T15:16:42Z</time></trkpt><trkpt lat="46.0131658745609" lon="11.986268737097184"><ele>381.0</ele><time>2026-04-18T15:16:43Z</time></trkpt><trkpt lat="46.01326068177868" lon="11.986329693569822"><ele>377.20000000000005</ele><time>2026-04-18T15:16:44Z</time></trkpt><trkpt lat="46.01335167292292" lon="11.986381129160936"><ele>373.40000000000003</ele><time>2026-04-18T15:16:45Z</time></trkpt><trkpt lat="46.01343389090335" lon="11.98644668807957"><ele>369.6</ele><time>2026-04-18T15:16:46Z</time></trkpt><trkpt lat="46.013508559451154" lon="11.986521648923613"><ele>365.8</ele><time>2026-04-18T15:16:47Z</time></trkpt><trkpt lat="46.013597980996785" lon="11.986595574406342"><ele>362.0</ele><time>2026-04-18T15:16:48Z</time></trkpt><trkpt lat="46.01367900439224" lon="11.986663894988057"><ele>365.0</ele><time>2026-04-18T15:16:49Z</time></trkpt><trkpt lat="46.01376433413728" lon="11.986724894847915"><ele>368.0</ele><time>2026-04-18T15:16:50Z</time></trkpt><trkpt lat="46.013846871189536" lon="11.986807296730992"><ele>371.0</ele><time>2026-04-18T15:16:51Z</time></trkpt><trkpt lat="46.013933668468326" lon="11.986870217169626"><ele>374.0</ele><time>2026-04-18T15:16:52Z</time></trkpt><trkpt lat="46.01401430356661" lon="11.98692520523191"><ele>377.0</ele><time>2026-04-18T15:16:53Z</time></trkpt><trkpt lat="46.01409049249051" lon="11.986997000992035"><ele>373.20000000000005</ele><time>2026-04-18T15:16:54Z</time></trkpt><trkpt lat="46.01416608728789" lon="11.98706710007171"><ele>369.4</ele><time>2026-04-18T15:16:55Z</time></trkpt><trkpt lat="46.01423146550355" lon="11.987159357390745"><ele>365.6</ele><time>2026-04-18T15:16:56Z</time></trkpt><trkpt lat="46.01431314357176" lon="11.987245668458892"><ele>361.79999999999995</ele><time>2026-04-18T15:16:57Z</time></trkpt><trkpt lat="46.014401534719156" lon="11.987313673935986"><ele>358.0</ele><time>2026-04-18T15:16:58Z</time></trkpt><trkpt lat="46.01448881178881" lon="11.987377690605463"><ele>358.0</ele><time>2026-04-18T15:16:59Z</time></trkpt><trkpt lat="46.014565517381406" lon="11.987436345312846"><ele>358.0</ele><time>2026-04-18T15:17:00Z</time></trkpt><trkpt lat="46.01464630405006" lon="11.98749800157825"><ele>358.0</ele><time>2026-04-18T15:17:01Z</time></trkpt><trkpt lat="46.014724740679945" lon="11.987555914964252"><ele>358.0</ele><time>2026-04-18T15:17:02Z</time></trkpt><trkpt lat="46.014791522117754" lon="11.987605222754844"><ele>358.0</ele><time>2026-04-18T15:17:03Z</time></trkpt><trkpt lat="46.014855441692255" lon="11.987652417504385"><ele>358.0</ele><time>2026-04-18T15:17:04Z</time></trkpt><trkpt lat="46.01492412296223" lon="11.987703128047183"><ele>355.79999999999995</ele><time>2026-04-18T15:17:05Z</time></trkpt><trkpt lat="46.01498983669552" lon="11.987751677510046"><ele>353.6</ele><time>2026-04-18T15:17:06Z</time></trkpt><trkpt lat="46.01513782823554" lon="11.9878633365073"><ele>351.4</ele><time>2026-04-18T15:17:08Z</time></trkpt><trkpt lat="46.01520626849569" lon="11.987930392003008"><ele>349.20000000000005</ele><time>2026-04-18T15:17:09Z</time></trkpt><trkpt lat="46.015259183248155" lon="11.988014963469103"><ele>347.0</ele><time>2026-04-18T15:17:10Z</time></trkpt><trkpt lat="46.01531434760651" lon="11.988095658484076"><ele>347.0</ele><time>2026-04-18T15:17:11Z</time></trkpt><trkpt lat="46.015375407276736" lon="11.988159766439997"><ele>347.0</ele><time>2026-04-18T15:17:12Z</time></trkpt><trkpt lat="46.01545259347589" lon="11.988193916412753"><ele>347.0</ele><time>2026-04-18T15:17:13Z</time></trkpt><trkpt lat="46.015500847361864" lon="11.988286656103915"><ele>347.0</ele><time>2026-04-18T15:17:14Z</time></trkpt><trkpt lat="46.01558943212316" lon="11.988419650680514"><ele>347.0</ele><time>2026-04-18T15:17:16Z</time></trkpt><trkpt lat="46.015636646028675" lon="11.988542827767736"><ele>345.8</ele><time>2026-04-18T15:17:18Z</time></trkpt><trkpt lat="46.015692216277955" lon="11.988596713619954"><ele>344.6</ele><time>2026-04-18T15:17:19Z</time></trkpt><trkpt lat="46.01582034009403" lon="11.98859197047166"><ele>343.40000000000003</ele><time>2026-04-18T15:17:21Z</time></trkpt><trkpt lat="46.01588259701137" lon="11.988529741741536"><ele>342.20000000000005</ele><time>2026-04-18T15:17:22Z</time></trkpt><trkpt lat="46.01593997626375" lon="11.988480482384587"><ele>341.0</ele><time>2026-04-18T15:17:23Z</time></trkpt><trkpt lat="46.016052055887364" lon="11.988425966633793"><ele>341.0</ele><time>2026-04-18T15:17:24.999Z</time></trkpt><trkpt lat="46.01616061961894" lon="11.988466037661192"><ele>341.0</ele><time>2026-04-18T15:17:26.999Z</time></trkpt><trkpt lat="46.01623779127805" lon="11.988572598087869"><ele>341.0</ele><time>2026-04-18T15:17:28.999Z</time></trkpt><trkpt lat="46.01632546332389" lon="11.988559851379298"><ele>341.0</ele><time>2026-04-18T15:17:30.999Z</time></trkpt><trkpt lat="46.01636740804671" lon="11.988425568608854"><ele>341.0</ele><time>2026-04-18T15:17:32.999Z</time></trkpt><trkpt lat="46.01634229954045" lon="11.988330804411543"><ele>334.75</ele><time>2026-04-18T15:17:33.999Z</time></trkpt><trkpt lat="46.0161908708608" lon="11.988209465914482"><ele>328.5</ele><time>2026-04-18T15:17:35.999Z</time></trkpt><trkpt lat="46.01610462762185" lon="11.988113755131083"><ele>322.25</ele><time>2026-04-18T15:17:36.999Z</time></trkpt><trkpt lat="46.01604589356757" lon="11.988042129313369"><ele>316.0</ele><time>2026-04-18T15:17:37.999Z</time></trkpt><trkpt lat="46.01599848805786" lon="11.987926822315197"><ele>316.0</ele><time>2026-04-18T15:17:38.999Z</time></trkpt><trkpt lat="46.015921404532996" lon="11.98777757921649"><ele>316.0</ele><time>2026-04-18T15:17:39.999Z</time></trkpt><trkpt lat="46.0158381112905" lon="11.98767050266237"><ele>316.0</ele><time>2026-04-18T15:17:40.999Z</time></trkpt><trkpt lat="46.01577937458562" lon="11.987536262974242"><ele>316.0</ele><time>2026-04-18T15:17:41.999Z</time></trkpt><trkpt lat="46.01571023254661" lon="11.987422549808468"><ele>318.8</ele><time>2026-04-18T15:17:42.999Z</time></trkpt><trkpt lat="46.0156460296085" lon="11.987316959636688"><ele>321.6</ele><time>2026-04-18T15:17:43.999Z</time></trkpt><trkpt lat="46.015583994594515" lon="11.987214921162966"><ele>324.4</ele><time>2026-04-18T15:17:44.999Z</time></trkpt><trkpt lat="46.01552026516172" lon="11.987114593297845"><ele>327.2</ele><time>2026-04-18T15:17:45.999Z</time></trkpt><trkpt lat="46.01543883158082" lon="11.986992136228297"><ele>330.0</ele><time>2026-04-18T15:17:46.999Z</time></trkpt><trkpt lat="46.015371719727405" lon="11.986877769877745"><ele>330.0</ele><time>2026-04-18T15:17:47.999Z</time></trkpt><trkpt lat="46.015313225712276" lon="11.98676655367851"><ele>330.0</ele><time>2026-04-18T15:17:48.999Z</time></trkpt><trkpt lat="46.015262348997595" lon="11.98665673236516"><ele>330.0</ele><time>2026-04-18T15:17:49.999Z</time></trkpt><trkpt lat="46.01521449808894" lon="11.986541593345777"><ele>330.0</ele><time>2026-04-18T15:17:50.999Z</time></trkpt><trkpt lat="46.0151571579713" lon="11.986459101943804"><ele>330.0</ele><time>2026-04-18T15:17:51.999Z</time></trkpt><trkpt lat="46.015111030975376" lon="11.986391351376664"><ele>330.0</ele><time>2026-04-18T15:17:52.999Z</time></trkpt><trkpt lat="46.015047196761564" lon="11.986250525349805"><ele>325.0</ele><time>2026-04-18T15:17:54.999Z</time></trkpt><trkpt lat="46.015013435786436" lon="11.986160847196345"><ele>320.0</ele><time>2026-04-18T15:17:56.999Z</time></trkpt><trkpt lat="46.01514087047241" lon="11.986320968857052"><ele>315.0</ele><time>2026-04-18T15:18:02Z</time></trkpt><trkpt lat="46.01521067272982" lon="11.986451951770347"><ele>310.0</ele><time>2026-04-18T15:18:03Z</time></trkpt><trkpt lat="46.01526182419357" lon="11.98653723404198"><ele>305.0</ele><time>2026-04-18T15:18:04Z</time></trkpt><trkpt lat="46.015324752309176" lon="11.986636671687258"><ele>309.1666666666667</ele><time>2026-04-18T15:18:05Z</time></trkpt><trkpt lat="46.0153822570598" lon="11.986707899059875"><ele>313.33333333333337</ele><time>2026-04-18T15:18:06Z</time></trkpt><trkpt lat="46.015423550747684" lon="11.986785810989536"><ele>317.5</ele><time>2026-04-18T15:18:07Z</time></trkpt><trkpt lat="46.01547725625006" lon="11.986835676661675"><ele>321.6666666666667</ele><time>2026-04-18T15:18:08Z</time></trkpt><trkpt lat="46.0155548419026" lon="11.986930537663403"><ele>325.8333333333333</ele><time>2026-04-18T15:18:09Z</time></trkpt><trkpt lat="46.015623248814315" lon="11.98702267566997"><ele>330.0</ele><time>2026-04-18T15:18:10Z</time></trkpt><trkpt lat="46.015684478929025" lon="11.987097066030302"><ele>330.0</ele><time>2026-04-18T15:18:11Z</time></trkpt><trkpt lat="46.0157463910533" lon="11.987197456644127"><ele>330.0</ele><time>2026-04-18T15:18:12Z</time></trkpt><trkpt lat="46.01580671295598" lon="11.987268914257392"><ele>330.0</ele><time>2026-04-18T15:18:13Z</time></trkpt><trkpt lat="46.01586952122387" lon="11.987354660192388"><ele>330.0</ele><time>2026-04-18T15:18:14Z</time></trkpt><trkpt lat="46.015935606872375" lon="11.987430458597002"><ele>330.0</ele><time>2026-04-18T15:18:15Z</time></trkpt><trkpt lat="46.01599386859348" lon="11.987499774055824"><ele>330.0</ele><time>2026-04-18T15:18:16Z</time></trkpt><trkpt lat="46.016056493120445" lon="11.987569799856788"><ele>327.2</ele><time>2026-04-18T15:18:17Z</time></trkpt><trkpt lat="46.016133201547824" lon="11.987644585583572"><ele>324.4</ele><time>2026-04-18T15:18:18Z</time></trkpt><trkpt lat="46.01622730626414" lon="11.9877249419976"><ele>321.6</ele><time>2026-04-18T15:18:19Z</time></trkpt><trkpt lat="46.01632668363813" lon="11.987821495364754"><ele>318.8</ele><time>2026-04-18T15:18:21Z</time></trkpt><trkpt lat="46.01642378396978" lon="11.987903670652829"><ele>316.0</ele><time>2026-04-18T15:18:22Z</time></trkpt><trkpt lat="46.016510742584295" lon="11.98797067877166"><ele>316.0</ele><time>2026-04-18T15:18:23Z</time></trkpt><trkpt lat="46.01659026346412" lon="11.988039670072547"><ele>316.0</ele><time>2026-04-18T15:18:24Z</time></trkpt><trkpt lat="46.016666427889454" lon="11.988083937406572"><ele>316.0</ele><time>2026-04-18T15:18:25Z</time></trkpt><trkpt lat="46.0167416047892" lon="11.988125456135258"><ele>316.0</ele><time>2026-04-18T15:18:26Z</time></trkpt><trkpt lat="46.016817628966066" lon="11.988154350049724"><ele>316.0</ele><time>2026-04-18T15:18:27Z</time></trkpt><trkpt lat="46.01690307782782" lon="11.988202928052742"><ele>316.0</ele><time>2026-04-18T15:18:28Z</time></trkpt><trkpt lat="46.01698616778807" lon="11.988247674324185"><ele>314.2</ele><time>2026-04-18T15:18:29Z</time></trkpt><trkpt lat="46.01706567522202" lon="11.98829195117057"><ele>312.40000000000003</ele><time>2026-04-18T15:18:30Z</time></trkpt><trkpt lat="46.01716169571218" lon="11.988358345980256"><ele>310.6</ele><time>2026-04-18T15:18:31Z</time></trkpt><trkpt lat="46.01724652444562" lon="11.988408591319144"><ele>308.8</ele><time>2026-04-18T15:18:32Z</time></trkpt><trkpt lat="46.01732387091492" lon="11.988444354046447"><ele>307.0</ele><time>2026-04-18T15:18:33Z</time></trkpt><trkpt lat="46.01741648033483" lon="11.988499260027453"><ele>301.4</ele><time>2026-04-18T15:18:34Z</time></trkpt><trkpt lat="46.01749737731991" lon="11.988561810149564"><ele>295.79999999999995</ele><time>2026-04-18T15:18:35Z</time></trkpt><trkpt lat="46.017592233124326" lon="11.988635153581217"><ele>290.2</ele><time>2026-04-18T15:18:36Z</time></trkpt><trkpt lat="46.01767115519508" lon="11.98870287728676"><ele>284.59999999999997</ele><time>2026-04-18T15:18:37Z</time></trkpt><trkpt lat="46.01775888986466" lon="11.988783305148756"><ele>279.0</ele><time>2026-04-18T15:18:38Z</time></trkpt><trkpt lat="46.01786372004783" lon="11.988879160171237"><ele>279.0</ele><time>2026-04-18T15:18:39Z</time></trkpt><trkpt lat="46.01798962784382" lon="11.988968533016662"><ele>279.0</ele><time>2026-04-18T15:18:40Z</time></trkpt><trkpt lat="46.0180809429041" lon="11.989050516390156"><ele>279.0</ele><time>2026-04-18T15:18:41Z</time></trkpt><trkpt lat="46.01816407322447" lon="11.989130252070145"><ele>279.0</ele><time>2026-04-18T15:18:42Z</time></trkpt><trkpt lat="46.018253419085184" lon="11.989216333566997"><ele>276.5</ele><time>2026-04-18T15:18:43Z</time></trkpt><trkpt lat="46.018348795681554" lon="11.989314784399197"><ele>274.0</ele><time>2026-04-18T15:18:44Z</time></trkpt><trkpt lat="46.018441220523805" lon="11.989427586374244"><ele>271.5</ele><time>2026-04-18T15:18:45Z</time></trkpt><trkpt lat="46.018534088013105" lon="11.989547950511868"><ele>269.0</ele><time>2026-04-18T15:18:46Z</time></trkpt><trkpt lat="46.01861322252758" lon="11.989678291226838"><ele>269.0</ele><time>2026-04-18T15:18:47Z</time></trkpt><trkpt lat="46.018701495784185" lon="11.989781870801185"><ele>269.0</ele><time>2026-04-18T15:18:48Z</time></trkpt><trkpt lat="46.018780649269644" lon="11.98989547357764"><ele>269.0</ele><time>2026-04-18T15:18:49Z</time></trkpt><trkpt lat="46.018856844349315" lon="11.989998526373652"><ele>269.0</ele><time>2026-04-18T15:18:50Z</time></trkpt><trkpt lat="46.01891352950356" lon="11.990120940901704"><ele>269.0</ele><time>2026-04-18T15:18:51Z</time></trkpt><trkpt lat="46.018979049575336" lon="11.99022507001131"><ele>268.0</ele><time>2026-04-18T15:18:52Z</time></trkpt><trkpt lat="46.01905722240824" lon="11.990316288562923"><ele>267.0</ele><time>2026-04-18T15:18:53Z</time></trkpt><trkpt lat="46.01911110807645" lon="11.990427348241164"><ele>266.0</ele><time>2026-04-18T15:18:54Z</time></trkpt><trkpt lat="46.01917827846977" lon="11.990522150976778"><ele>265.0</ele><time>2026-04-18T15:18:55Z</time></trkpt><trkpt lat="46.01923591187913" lon="11.990614373987485"><ele>264.0</ele><time>2026-04-18T15:18:56Z</time></trkpt><trkpt lat="46.01929289265056" lon="11.990696454000272"><ele>264.0</ele><time>2026-04-18T15:18:57Z</time></trkpt><trkpt lat="46.0193568842983" lon="11.99078599413203"><ele>264.0</ele><time>2026-04-18T15:18:58Z</time></trkpt><trkpt lat="46.01941930967218" lon="11.990880556324548"><ele>264.0</ele><time>2026-04-18T15:18:59Z</time></trkpt><trkpt lat="46.01949866806898" lon="11.99096122279689"><ele>264.0</ele><time>2026-04-18T15:19:00Z</time></trkpt><trkpt lat="46.0195793998808" lon="11.991034940044434"><ele>264.0</ele><time>2026-04-18T15:19:01Z</time></trkpt><trkpt lat="46.01965369630755" lon="11.991093421281258"><ele>261.59999999999997</ele><time>2026-04-18T15:19:02Z</time></trkpt><trkpt lat="46.01974497276513" lon="11.991162828282325"><ele>259.2</ele><time>2026-04-18T15:19:03Z</time></trkpt><trkpt lat="46.019825751303586" lon="11.991228342365273"><ele>256.79999999999995</ele><time>2026-04-18T15:19:04Z</time></trkpt><trkpt lat="46.019900219525866" lon="11.991290631528694"><ele>254.39999999999998</ele><time>2026-04-18T15:19:05Z</time></trkpt><trkpt lat="46.01998249966129" lon="11.99137396818561"><ele>252.0</ele><time>2026-04-18T15:19:06Z</time></trkpt><trkpt lat="46.02006217001079" lon="11.991453343565642"><ele>252.0</ele><time>2026-04-18T15:19:07Z</time></trkpt><trkpt lat="46.020134967445664" lon="11.991539130266803"><ele>252.0</ele><time>2026-04-18T15:19:08Z</time></trkpt><trkpt lat="46.02020467148104" lon="11.991627202565343"><ele>252.0</ele><time>2026-04-18T15:19:09Z</time></trkpt><trkpt lat="46.02027853235967" lon="11.991710917985724"><ele>252.0</ele><time>2026-04-18T15:19:10Z</time></trkpt><trkpt lat="46.020343158182534" lon="11.991791361813421"><ele>252.0</ele><time>2026-04-18T15:19:11Z</time></trkpt><trkpt lat="46.020414665574314" lon="11.991879722028493"><ele>252.16666666666666</ele><time>2026-04-18T15:19:12Z</time></trkpt><trkpt lat="46.020485367278994" lon="11.991962017094036"><ele>252.33333333333331</ele><time>2026-04-18T15:19:13Z</time></trkpt><trkpt lat="46.020548720680445" lon="11.992051199215725"><ele>252.5</ele><time>2026-04-18T15:19:14Z</time></trkpt><trkpt lat="46.02061556731622" lon="11.992087228938008"><ele>252.66666666666666</ele><time>2026-04-18T15:19:15Z</time></trkpt><trkpt lat="46.02068667446395" lon="11.99215394986788"><ele>252.83333333333331</ele><time>2026-04-18T15:19:16Z</time></trkpt><trkpt lat="46.020771662205796" lon="11.992175532693762"><ele>253.0</ele><time>2026-04-18T15:19:17Z</time></trkpt><trkpt lat="46.020850455677625" lon="11.992211197112242"><ele>253.00000000000003</ele><time>2026-04-18T15:19:18Z</time></trkpt><trkpt lat="46.02093406544548" lon="11.99225797872542"><ele>253.0</ele><time>2026-04-18T15:19:19Z</time></trkpt><trkpt lat="46.02099500005067" lon="11.992321357481403"><ele>253.00000000000003</ele><time>2026-04-18T15:19:20Z</time></trkpt><trkpt lat="46.02105475466135" lon="11.992386231308544"><ele>253.00000000000003</ele><time>2026-04-18T15:19:21Z</time></trkpt><trkpt lat="46.021107926621816" lon="11.99244818547706"><ele>253.0</ele><time>2026-04-18T15:19:22Z</time></trkpt><trkpt lat="46.02115793508837" lon="11.992506728469095"><ele>253.00000000000003</ele><time>2026-04-18T15:19:23Z</time></trkpt><trkpt lat="46.02122066832986" lon="11.992540615759363"><ele>253.00000000000003</ele><time>2026-04-18T15:19:24Z</time></trkpt><trkpt lat="46.021300297878156" lon="11.992583284124251"><ele>256.4</ele><time>2026-04-18T15:19:26Z</time></trkpt><trkpt lat="46.021360460861594" lon="11.992613912898095"><ele>259.8</ele><time>2026-04-18T15:19:28Z</time></trkpt><trkpt lat="46.021474130181446" lon="11.992692291484593"><ele>263.2</ele><time>2026-04-18T15:19:29.999Z</time></trkpt><trkpt lat="46.021562452083536" lon="11.99276210172054"><ele>266.6</ele><time>2026-04-18T15:19:30.999Z</time></trkpt><trkpt lat="46.021664143903806" lon="11.992847073726825"><ele>270.0</ele><time>2026-04-18T15:19:31.999Z</time></trkpt><trkpt lat="46.02179670102558" lon="11.992947686122054"><ele>270.0</ele><time>2026-04-18T15:19:32.999Z</time></trkpt><trkpt lat="46.021939218585345" lon="11.993014640512241"><ele>270.0</ele><time>2026-04-18T15:19:33.999Z</time></trkpt><trkpt lat="46.022091040167105" lon="11.993106175561282"><ele>270.0</ele><time>2026-04-18T15:19:34.999Z</time></trkpt><trkpt lat="46.022235140438084" lon="11.993198311901095"><ele>270.0</ele><time>2026-04-18T15:19:35.999Z</time></trkpt><trkpt lat="46.022368108479476" lon="11.993274912704251"><ele>270.0</ele><time>2026-04-18T15:19:36.999Z</time></trkpt><trkpt lat="46.02250418970401" lon="11.993353997023618"><ele>270.0</ele><time>2026-04-18T15:19:37.999Z</time></trkpt><trkpt lat="46.02265123617721" lon="11.993437784869462"><ele>270.0</ele><time>2026-04-18T15:19:38.999Z</time></trkpt><trkpt lat="46.02279210685321" lon="11.99352388233417"><ele>272.6666666666667</ele><time>2026-04-18T15:19:39.999Z</time></trkpt><trkpt lat="46.02293973339126" lon="11.993611019043723"><ele>275.33333333333337</ele><time>2026-04-18T15:19:40.999Z</time></trkpt><trkpt lat="46.02309079073849" lon="11.993695182963037"><ele>278.0</ele><time>2026-04-18T15:19:41.999Z</time></trkpt><trkpt lat="46.02324050312044" lon="11.993783369101756"><ele>272.0</ele><time>2026-04-18T15:19:42.999Z</time></trkpt><trkpt lat="46.023383857159345" lon="11.99386611110204"><ele>266.0</ele><time>2026-04-18T15:19:43.999Z</time></trkpt><trkpt lat="46.02352988291987" lon="11.993956063376414"><ele>260.0</ele><time>2026-04-18T15:19:44.999Z</time></trkpt><trkpt lat="46.02367616438607" lon="11.994037200240934"><ele>260.0</ele><time>2026-04-18T15:19:45.999Z</time></trkpt><trkpt lat="46.023813557773586" lon="11.994121022463522"><ele>260.0</ele><time>2026-04-18T15:19:46.999Z</time></trkpt><trkpt lat="46.0239482009062" lon="11.994196007266668"><ele>260.0</ele><time>2026-04-18T15:19:47.999Z</time></trkpt><trkpt lat="46.024082842254" lon="11.994272886815073"><ele>260.0</ele><time>2026-04-18T15:19:48.999Z</time></trkpt><trkpt lat="46.024220582169235" lon="11.994359779688823"><ele>263.25</ele><time>2026-04-18T15:19:49.999Z</time></trkpt><trkpt lat="46.02435423055624" lon="11.99444014083845"><ele>266.5</ele><time>2026-04-18T15:19:50.999Z</time></trkpt><trkpt lat="46.024492079448365" lon="11.994520871522038"><ele>269.75</ele><time>2026-04-18T15:19:51.999Z</time></trkpt><trkpt lat="46.02463051690971" lon="11.994610838584013"><ele>273.0</ele><time>2026-04-18T15:19:52.999Z</time></trkpt><trkpt lat="46.02476627089741" lon="11.994700333716883"><ele>273.0</ele><time>2026-04-18T15:19:53.999Z</time></trkpt><trkpt lat="46.024898085236906" lon="11.994810228388046"><ele>273.0</ele><time>2026-04-18T15:19:54.999Z</time></trkpt><trkpt lat="46.02503512762758" lon="11.994928121372835"><ele>273.0</ele><time>2026-04-18T15:19:55.999Z</time></trkpt><trkpt lat="46.025171261109115" lon="11.995043410582992"><ele>272.3333333333333</ele><time>2026-04-18T15:19:56.999Z</time></trkpt><trkpt lat="46.0253033241735" lon="11.99518502263142"><ele>271.66666666666663</ele><time>2026-04-18T15:19:57.999Z</time></trkpt><trkpt lat="46.02543324025683" lon="11.995318483171367"><ele>271.0</ele><time>2026-04-18T15:19:58.999Z</time></trkpt><trkpt lat="46.025554113120656" lon="11.995448023806956"><ele>271.0</ele><time>2026-04-18T15:19:59.999Z</time></trkpt><trkpt lat="46.02566677077188" lon="11.995570878375142"><ele>271.0</ele><time>2026-04-18T15:20:00.999Z</time></trkpt><trkpt lat="46.025783919611335" lon="11.995701205366565"><ele>271.0</ele><time>2026-04-18T15:20:01.999Z</time></trkpt><trkpt lat="46.025897319084365" lon="11.995820523008046"><ele>271.0</ele><time>2026-04-18T15:20:02.999Z</time></trkpt><trkpt lat="46.026017540515824" lon="11.995947266763471"><ele>263.0</ele><time>2026-04-18T15:20:03.999Z</time></trkpt><trkpt lat="46.026137907199754" lon="11.99607489885304"><ele>255.0</ele><time>2026-04-18T15:20:04.999Z</time></trkpt><trkpt lat="46.026257131335804" lon="11.996201673032802"><ele>247.0</ele><time>2026-04-18T15:20:06Z</time></trkpt><trkpt lat="46.026379204471525" lon="11.996332953248535"><ele>247.0</ele><time>2026-04-18T15:20:07Z</time></trkpt><trkpt lat="46.026506098383365" lon="11.99646862116592"><ele>247.0</ele><time>2026-04-18T15:20:08Z</time></trkpt><trkpt lat="46.02663250330047" lon="11.996601429745871"><ele>247.0</ele><time>2026-04-18T15:20:09Z</time></trkpt><trkpt lat="46.02675463009783" lon="11.996729389827092"><ele>245.25</ele><time>2026-04-18T15:20:10Z</time></trkpt><trkpt lat="46.02687673391187" lon="11.996853396605552"><ele>243.5</ele><time>2026-04-18T15:20:11Z</time></trkpt><trkpt lat="46.02699749372922" lon="11.996964487178627"><ele>241.75</ele><time>2026-04-18T15:20:12Z</time></trkpt><trkpt lat="46.027128888862684" lon="11.997085783974782"><ele>240.0</ele><time>2026-04-18T15:20:13Z</time></trkpt><trkpt lat="46.02725518285664" lon="11.997192477959027"><ele>240.0</ele><time>2026-04-18T15:20:14Z</time></trkpt><trkpt lat="46.027384078417704" lon="11.997284317806395"><ele>240.0</ele><time>2026-04-18T15:20:15Z</time></trkpt><trkpt lat="46.027508907954044" lon="11.997370856796561"><ele>240.0</ele><time>2026-04-18T15:20:16Z</time></trkpt><trkpt lat="46.02764686248293" lon="11.997445399326924"><ele>240.0</ele><time>2026-04-18T15:20:17Z</time></trkpt><trkpt lat="46.027784680629274" lon="11.997514500413056"><ele>240.25</ele><time>2026-04-18T15:20:18Z</time></trkpt><trkpt lat="46.02791930439721" lon="11.997570410433681"><ele>240.5</ele><time>2026-04-18T15:20:19Z</time></trkpt><trkpt lat="46.028046691042924" lon="11.99762501410077"><ele>240.75</ele><time>2026-04-18T15:20:20Z</time></trkpt><trkpt lat="46.02818151762121" lon="11.997669241143056"><ele>241.0</ele><time>2026-04-18T15:20:21Z</time></trkpt><trkpt lat="46.028325388308296" lon="11.99770006765985"><ele>241.25</ele><time>2026-04-18T15:20:22Z</time></trkpt><trkpt lat="46.028468758417915" lon="11.997726089503955"><ele>241.5</ele><time>2026-04-18T15:20:23Z</time></trkpt><trkpt lat="46.028612932883206" lon="11.997736690826624"><ele>241.75</ele><time>2026-04-18T15:20:24Z</time></trkpt><trkpt lat="46.02876113922827" lon="11.997747824284163"><ele>242.0</ele><time>2026-04-18T15:20:25Z</time></trkpt><trkpt lat="46.02891653556146" lon="11.997751408751407"><ele>242.0</ele><time>2026-04-18T15:20:26Z</time></trkpt><trkpt lat="46.02904247287528" lon="11.99779910499779"><ele>242.0</ele><time>2026-04-18T15:20:27Z</time></trkpt><trkpt lat="46.02918975940753" lon="11.997825436772949"><ele>242.0</ele><time>2026-04-18T15:20:28Z</time></trkpt><trkpt lat="46.029384587437505" lon="11.997761266730363"><ele>240.66666666666669</ele><time>2026-04-18T15:20:29Z</time></trkpt><trkpt lat="46.02953466482195" lon="11.997742303848149"><ele>239.33333333333331</ele><time>2026-04-18T15:20:30Z</time></trkpt><trkpt lat="46.02968443613098" lon="11.997747697590228"><ele>238.0</ele><time>2026-04-18T15:20:31Z</time></trkpt><trkpt lat="46.029835438461134" lon="11.99774205969704"><ele>237.33333333333331</ele><time>2026-04-18T15:20:32Z</time></trkpt><trkpt lat="46.029985770216264" lon="11.997739938986019"><ele>236.66666666666669</ele><time>2026-04-18T15:20:33Z</time></trkpt><trkpt lat="46.03014024490241" lon="11.99773501397989"><ele>236.0</ele><time>2026-04-18T15:20:34Z</time></trkpt><trkpt lat="46.03029519156218" lon="11.997730636977812"><ele>236.0</ele><time>2026-04-18T15:20:35Z</time></trkpt><trkpt lat="46.0304544714434" lon="11.997727150114079"><ele>236.0</ele><time>2026-04-18T15:20:36Z</time></trkpt><trkpt lat="46.03061347531464" lon="11.997726997351613"><ele>236.0</ele><time>2026-04-18T15:20:37Z</time></trkpt><trkpt lat="46.03077403140684" lon="11.997716719680412"><ele>236.5</ele><time>2026-04-18T15:20:38Z</time></trkpt><trkpt lat="46.03092817933016" lon="11.997707493019295"><ele>237.0</ele><time>2026-04-18T15:20:39Z</time></trkpt><trkpt lat="46.03107635437101" lon="11.99770229654954"><ele>237.5</ele><time>2026-04-18T15:20:40Z</time></trkpt><trkpt lat="46.03122312082919" lon="11.997698168297026"><ele>238.0</ele><time>2026-04-18T15:20:41Z</time></trkpt><trkpt lat="46.03136314233505" lon="11.99770296655397"><ele>238.0</ele><time>2026-04-18T15:20:42Z</time></trkpt><trkpt lat="46.031508867705234" lon="11.99769638335595"><ele>238.0</ele><time>2026-04-18T15:20:43Z</time></trkpt><trkpt lat="46.031653931360836" lon="11.997698399058976"><ele>238.0</ele><time>2026-04-18T15:20:44Z</time></trkpt><trkpt lat="46.0318054742777" lon="11.997688665435726"><ele>238.0</ele><time>2026-04-18T15:20:45Z</time></trkpt><trkpt lat="46.031960632669865" lon="11.997680155378156"><ele>237.33333333333331</ele><time>2026-04-18T15:20:46Z</time></trkpt><trkpt lat="46.032117954420094" lon="11.997683393098209"><ele>236.66666666666669</ele><time>2026-04-18T15:20:47Z</time></trkpt><trkpt lat="46.03227277628509" lon="11.997688313422524"><ele>236.0</ele><time>2026-04-18T15:20:48Z</time></trkpt><trkpt lat="46.03243276525265" lon="11.997687663060013"><ele>236.66666666666669</ele><time>2026-04-18T15:20:49Z</time></trkpt><trkpt lat="46.032592492211094" lon="11.997685394402414"><ele>237.33333333333331</ele><time>2026-04-18T15:20:50Z</time></trkpt><trkpt lat="46.03275175458329" lon="11.997682951646638"><ele>238.0</ele><time>2026-04-18T15:20:51Z</time></trkpt><trkpt lat="46.03290933141553" lon="11.997677708310261"><ele>238.0</ele><time>2026-04-18T15:20:52Z</time></trkpt><trkpt lat="46.03306536535804" lon="11.99767243650366"><ele>238.0</ele><time>2026-04-18T15:20:53Z</time></trkpt><trkpt lat="46.03322371169305" lon="11.99766885446666"><ele>238.0</ele><time>2026-04-18T15:20:54Z</time></trkpt><trkpt lat="46.03338356253926" lon="11.997667112621174"><ele>238.33333333333331</ele><time>2026-04-18T15:20:55Z</time></trkpt><trkpt lat="46.03353562478761" lon="11.99766376529572"><ele>238.66666666666669</ele><time>2026-04-18T15:20:56Z</time></trkpt><trkpt lat="46.03369191477374" lon="11.997661036892914"><ele>239.0</ele><time>2026-04-18T15:20:57Z</time></trkpt><trkpt lat="46.03384379505827" lon="11.997657720254887"><ele>239.0</ele><time>2026-04-18T15:20:58Z</time></trkpt><trkpt lat="46.03399229441904" lon="11.997654167986273"><ele>239.0</ele><time>2026-04-18T15:20:59Z</time></trkpt><trkpt lat="46.034134657495024" lon="11.997650578748425"><ele>239.0</ele><time>2026-04-18T15:21:00Z</time></trkpt><trkpt lat="46.0342594243147" lon="11.997645160162453"><ele>239.0</ele><time>2026-04-18T15:21:01Z</time></trkpt><trkpt lat="46.03438297902377" lon="11.99764142536985"><ele>239.39999999999998</ele><time>2026-04-18T15:21:02Z</time></trkpt><trkpt lat="46.03450402726128" lon="11.997637413628633"><ele>239.79999999999998</ele><time>2026-04-18T15:21:03Z</time></trkpt><trkpt lat="46.03461509228179" lon="11.997635307978246"><ele>240.20000000000002</ele><time>2026-04-18T15:21:04Z</time></trkpt><trkpt lat="46.03471824023602" lon="11.997624259137252"><ele>240.60000000000002</ele><time>2026-04-18T15:21:05Z</time></trkpt><trkpt lat="46.03481963483892" lon="11.997624151737456"><ele>241.0</ele><time>2026-04-18T15:21:06Z</time></trkpt><trkpt lat="46.03491779979454" lon="11.997616796575766"><ele>240.66666666666666</ele><time>2026-04-18T15:21:07Z</time></trkpt><trkpt lat="46.03501630616561" lon="11.997609178893963"><ele>240.33333333333331</ele><time>2026-04-18T15:21:08Z</time></trkpt><trkpt lat="46.03510918881462" lon="11.997604808112214"><ele>240.0</ele><time>2026-04-18T15:21:09Z</time></trkpt><trkpt lat="46.03519409329396" lon="11.997612353973972"><ele>239.66666666666669</ele><time>2026-04-18T15:21:10Z</time></trkpt><trkpt lat="46.035270999187865" lon="11.997640766756255"><ele>239.33333333333334</ele><time>2026-04-18T15:21:11Z</time></trkpt><trkpt lat="46.035343400289314" lon="11.997678900369548"><ele>239.0</ele><time>2026-04-18T15:21:12Z</time></trkpt><trkpt lat="46.035408439589865" lon="11.99767751708027"><ele>239.0</ele><time>2026-04-18T15:21:13Z</time></trkpt><trkpt lat="46.03547868085944" lon="11.99765825380777"><ele>238.99999999999997</ele><time>2026-04-18T15:21:14Z</time></trkpt><trkpt lat="46.035520212425894" lon="11.997510464322069"><ele>238.99999999999997</ele><time>2026-04-18T15:21:15Z</time></trkpt><trkpt lat="46.03556559990842" lon="11.997402481761242"><ele>239.0</ele><time>2026-04-18T15:21:16Z</time></trkpt><trkpt lat="46.035636638670454" lon="11.997333089765181"><ele>239.0</ele><time>2026-04-18T15:21:17Z</time></trkpt><trkpt lat="46.03574547410616" lon="11.997285863591527"><ele>239.5</ele><time>2026-04-18T15:21:18Z</time></trkpt><trkpt lat="46.03586072747517" lon="11.99722565729631"><ele>240.0</ele><time>2026-04-18T15:21:19Z</time></trkpt><trkpt lat="46.03597828875304" lon="11.99715350889775"><ele>240.5</ele><time>2026-04-18T15:21:20Z</time></trkpt><trkpt lat="46.03609599711827" lon="11.997070690498093"><ele>241.0</ele><time>2026-04-18T15:21:21Z</time></trkpt><trkpt lat="46.036202373599735" lon="11.99700689136795"><ele>241.0</ele><time>2026-04-18T15:21:22Z</time></trkpt><trkpt lat="46.03631143283845" lon="11.99691806315797"><ele>241.0</ele><time>2026-04-18T15:21:23Z</time></trkpt><trkpt lat="46.03642132206894" lon="11.996797692583876"><ele>241.0</ele><time>2026-04-18T15:21:24Z</time></trkpt><trkpt lat="46.03653271183967" lon="11.99669616939948"><ele>241.0</ele><time>2026-04-18T15:21:25Z</time></trkpt><trkpt lat="46.036635829227095" lon="11.996615074673006"><ele>240.75</ele><time>2026-04-18T15:21:25.999Z</time></trkpt><trkpt lat="46.03673573542818" lon="11.996507080964571"><ele>240.5</ele><time>2026-04-18T15:21:26.999Z</time></trkpt><trkpt lat="46.036838729021746" lon="11.99638805310011"><ele>240.25</ele><time>2026-04-18T15:21:27.999Z</time></trkpt><trkpt lat="46.036924424321974" lon="11.996260677307914"><ele>240.0</ele><time>2026-04-18T15:21:28.999Z</time></trkpt><trkpt lat="46.03701267042436" lon="11.99615943796329"><ele>240.0</ele><time>2026-04-18T15:21:29.999Z</time></trkpt><trkpt lat="46.03709423400447" lon="11.99603555994166"><ele>240.0</ele><time>2026-04-18T15:21:30.999Z</time></trkpt><trkpt lat="46.0371654113255" lon="11.995889390346845"><ele>240.0</ele><time>2026-04-18T15:21:31.999Z</time></trkpt><trkpt lat="46.0372466057079" lon="11.99575602812068"><ele>240.0</ele><time>2026-04-18T15:21:32.999Z</time></trkpt><trkpt lat="46.037327200984535" lon="11.995613718542302"><ele>240.0</ele><time>2026-04-18T15:21:33.999Z</time></trkpt><trkpt lat="46.03739487988425" lon="11.995477385848693"><ele>240.0</ele><time>2026-04-18T15:21:34.999Z</time></trkpt><trkpt lat="46.03745725493593" lon="11.995355975772835"><ele>240.0</ele><time>2026-04-18T15:21:35.999Z</time></trkpt><trkpt lat="46.0375183172826" lon="11.995215811757038"><ele>240.0</ele><time>2026-04-18T15:21:36.999Z</time></trkpt><trkpt lat="46.03757821615137" lon="11.995073051763095"><ele>240.4</ele><time>2026-04-18T15:21:37.999Z</time></trkpt><trkpt lat="46.03762654806347" lon="11.994935682074532"><ele>240.8</ele><time>2026-04-18T15:21:38.999Z</time></trkpt><trkpt lat="46.03767217074078" lon="11.994809545756834"><ele>241.2</ele><time>2026-04-18T15:21:39.999Z</time></trkpt><trkpt lat="46.037717751359914" lon="11.99467610612414"><ele>241.6</ele><time>2026-04-18T15:21:40.999Z</time></trkpt><trkpt lat="46.03775951351109" lon="11.994545697706524"><ele>242.0</ele><time>2026-04-18T15:21:41.999Z</time></trkpt><trkpt lat="46.03779346073127" lon="11.994449587719433"><ele>242.00000000000003</ele><time>2026-04-18T15:21:42.999Z</time></trkpt><trkpt lat="46.03782187528366" lon="11.994346263142246"><ele>242.0</ele><time>2026-04-18T15:21:45.999Z</time></trkpt><trkpt lat="46.03785529985938" lon="11.99422804882003"><ele>242.0</ele><time>2026-04-18T15:21:47.999Z</time></trkpt><trkpt lat="46.0379024266193" lon="11.994132856109806"><ele>242.0</ele><time>2026-04-18T15:21:48.999Z</time></trkpt><trkpt lat="46.03790295133255" lon="11.993993644875868"><ele>242.00000000000003</ele><time>2026-04-18T15:21:49.999Z</time></trkpt><trkpt lat="46.037924033505966" lon="11.993868468551286"><ele>242.0</ele><time>2026-04-18T15:21:50.999Z</time></trkpt><trkpt lat="46.037935920182015" lon="11.993760813588331"><ele>241.6</ele><time>2026-04-18T15:21:51.999Z</time></trkpt><trkpt lat="46.03795052430824" lon="11.993641678045494"><ele>241.2</ele><time>2026-04-18T15:21:52.999Z</time></trkpt><trkpt lat="46.03796500539954" lon="11.993516851548657"><ele>240.8</ele><time>2026-04-18T15:21:53.999Z</time></trkpt><trkpt lat="46.03798669882608" lon="11.993372422623391"><ele>240.4</ele><time>2026-04-18T15:21:54.999Z</time></trkpt><trkpt lat="46.03801190967051" lon="11.99320998605356"><ele>240.0</ele><time>2026-04-18T15:21:55.999Z</time></trkpt><trkpt lat="46.03803207902607" lon="11.9930344509869"><ele>240.0</ele><time>2026-04-18T15:21:56.999Z</time></trkpt><trkpt lat="46.03805557561029" lon="11.992865181299315"><ele>240.0</ele><time>2026-04-18T15:21:57.999Z</time></trkpt><trkpt lat="46.038069746916634" lon="11.992686063542246"><ele>240.0</ele><time>2026-04-18T15:21:58.999Z</time></trkpt><trkpt lat="46.03808531122433" lon="11.992498706333215"><ele>240.0</ele><time>2026-04-18T15:21:59.999Z</time></trkpt><trkpt lat="46.03810439226329" lon="11.992330891402943"><ele>240.0</ele><time>2026-04-18T15:22:00.999Z</time></trkpt><trkpt lat="46.03812520987504" lon="11.992164342991767"><ele>240.0</ele><time>2026-04-18T15:22:01.999Z</time></trkpt><trkpt lat="46.03814040018884" lon="11.992002852803749"><ele>240.0</ele><time>2026-04-18T15:22:02.999Z</time></trkpt><trkpt lat="46.038152118317306" lon="11.991857726822166"><ele>240.0</ele><time>2026-04-18T15:22:03.999Z</time></trkpt><trkpt lat="46.038168383303876" lon="11.99169882551504"><ele>240.0</ele><time>2026-04-18T15:22:04.999Z</time></trkpt><trkpt lat="46.038185652570895" lon="11.99153112408879"><ele>240.0</ele><time>2026-04-18T15:22:05.999Z</time></trkpt><trkpt lat="46.03820042897194" lon="11.991362939466443"><ele>240.0</ele><time>2026-04-18T15:22:06.999Z</time></trkpt><trkpt lat="46.03822050189678" lon="11.991189542563818"><ele>240.0</ele><time>2026-04-18T15:22:07.999Z</time></trkpt><trkpt lat="46.038237242292496" lon="11.991018929315784"><ele>240.0</ele><time>2026-04-18T15:22:08.999Z</time></trkpt><trkpt lat="46.03825664348431" lon="11.99085038896883"><ele>240.0</ele><time>2026-04-18T15:22:09.999Z</time></trkpt><trkpt lat="46.03827347947898" lon="11.990672947498409"><ele>240.0</ele><time>2026-04-18T15:22:10.999Z</time></trkpt><trkpt lat="46.03829045423252" lon="11.990497501530267"><ele>240.0</ele><time>2026-04-18T15:22:12Z</time></trkpt><trkpt lat="46.038303465461205" lon="11.990324647677006"><ele>240.0</ele><time>2026-04-18T15:22:13Z</time></trkpt><trkpt lat="46.038306614725435" lon="11.990149578494782"><ele>239.75</ele><time>2026-04-18T15:22:14Z</time></trkpt><trkpt lat="46.038295287351694" lon="11.989970939436894"><ele>239.5</ele><time>2026-04-18T15:22:15Z</time></trkpt><trkpt lat="46.03828169093126" lon="11.989801855484314"><ele>239.25</ele><time>2026-04-18T15:22:16Z</time></trkpt><trkpt lat="46.03826294804111" lon="11.989643711364291"><ele>239.0</ele><time>2026-04-18T15:22:17Z</time></trkpt><trkpt lat="46.03824334710408" lon="11.989471682752809"><ele>239.0</ele><time>2026-04-18T15:22:18Z</time></trkpt><trkpt lat="46.03821789458653" lon="11.989294575187968"><ele>239.0</ele><time>2026-04-18T15:22:19Z</time></trkpt><trkpt lat="46.03819047431993" lon="11.989119682795893"><ele>239.0</ele><time>2026-04-18T15:22:20Z</time></trkpt><trkpt lat="46.03816221764609" lon="11.988954507865278"><ele>239.0</ele><time>2026-04-18T15:22:21Z</time></trkpt><trkpt lat="46.03813587242337" lon="11.98879149879037"><ele>238.39999999999998</ele><time>2026-04-18T15:22:22Z</time></trkpt><trkpt lat="46.03811466948285" lon="11.988630345516915"><ele>237.79999999999998</ele><time>2026-04-18T15:22:23Z</time></trkpt><trkpt lat="46.03809393390908" lon="11.988470151155871"><ele>237.20000000000002</ele><time>2026-04-18T15:22:24Z</time></trkpt><trkpt lat="46.03807223775954" lon="11.988321443135765"><ele>236.60000000000002</ele><time>2026-04-18T15:22:25Z</time></trkpt><trkpt lat="46.03804769027235" lon="11.98815833251304"><ele>236.0</ele><time>2026-04-18T15:22:26Z</time></trkpt><trkpt lat="46.03803044511651" lon="11.987984947317795"><ele>235.5</ele><time>2026-04-18T15:22:27Z</time></trkpt><trkpt lat="46.03802185464294" lon="11.987807734839407"><ele>235.0</ele><time>2026-04-18T15:22:28Z</time></trkpt><trkpt lat="46.03802262582769" lon="11.987621333521862"><ele>234.5</ele><time>2026-04-18T15:22:29Z</time></trkpt><trkpt lat="46.038033416582934" lon="11.987433894418826"><ele>234.0</ele><time>2026-04-18T15:22:30Z</time></trkpt><trkpt lat="46.03803461782791" lon="11.987240523735904"><ele>233.75</ele><time>2026-04-18T15:22:31Z</time></trkpt><trkpt lat="46.03804222201766" lon="11.987067907519661"><ele>233.5</ele><time>2026-04-18T15:22:32Z</time></trkpt><trkpt lat="46.0380422412237" lon="11.98690710122359"><ele>233.25</ele><time>2026-04-18T15:22:33Z</time></trkpt><trkpt lat="46.038044926688244" lon="11.986742234098664"><ele>233.0</ele><time>2026-04-18T15:22:34Z</time></trkpt><trkpt lat="46.03804841080216" lon="11.986574945741015"><ele>233.0</ele><time>2026-04-18T15:22:35Z</time></trkpt><trkpt lat="46.038051405654656" lon="11.986405830132053"><ele>233.0</ele><time>2026-04-18T15:22:36Z</time></trkpt><trkpt lat="46.038054756353596" lon="11.986234690398412"><ele>233.0</ele><time>2026-04-18T15:22:37Z</time></trkpt><trkpt lat="46.03806052871082" lon="11.986065627330085"><ele>233.0</ele><time>2026-04-18T15:22:38Z</time></trkpt><trkpt lat="46.03806931538422" lon="11.985893735210825"><ele>235.25</ele><time>2026-04-18T15:22:39Z</time></trkpt><trkpt lat="46.03809055015598" lon="11.98571736974905"><ele>237.5</ele><time>2026-04-18T15:22:40Z</time></trkpt><trkpt lat="46.03815927534879" lon="11.985564276640655"><ele>239.75</ele><time>2026-04-18T15:22:41Z</time></trkpt><trkpt lat="46.038226622676426" lon="11.98540256009714"><ele>242.0</ele><time>2026-04-18T15:22:42Z</time></trkpt><trkpt lat="46.03829612445061" lon="11.985226526681213"><ele>241.5</ele><time>2026-04-18T15:22:43Z</time></trkpt><trkpt lat="46.03836845724772" lon="11.985042428856561"><ele>241.0</ele><time>2026-04-18T15:22:44Z</time></trkpt><trkpt lat="46.038435790308995" lon="11.984871621997447"><ele>240.5</ele><time>2026-04-18T15:22:45Z</time></trkpt><trkpt lat="46.038495178768784" lon="11.984722706092166"><ele>240.0</ele><time>2026-04-18T15:22:46Z</time></trkpt><trkpt lat="46.038552435279435" lon="11.984581932227428"><ele>240.0</ele><time>2026-04-18T15:22:47Z</time></trkpt><trkpt lat="46.03860828093819" lon="11.984441929436539"><ele>240.0</ele><time>2026-04-18T15:22:48Z</time></trkpt><trkpt lat="46.03865969284516" lon="11.984298375095173"><ele>240.0</ele><time>2026-04-18T15:22:49Z</time></trkpt><trkpt lat="46.03870677531517" lon="11.98414208413156"><ele>240.0</ele><time>2026-04-18T15:22:50Z</time></trkpt><trkpt lat="46.038725032843004" lon="11.983980403429753"><ele>241.2</ele><time>2026-04-18T15:22:51Z</time></trkpt><trkpt lat="46.03874937695378" lon="11.983829922662235"><ele>242.4</ele><time>2026-04-18T15:22:52Z</time></trkpt><trkpt lat="46.03875884059543" lon="11.983696622681839"><ele>243.60000000000002</ele><time>2026-04-18T15:22:53Z</time></trkpt><trkpt lat="46.03876427217967" lon="11.983579625133403"><ele>244.8</ele><time>2026-04-18T15:22:54Z</time></trkpt><trkpt lat="46.03877342953715" lon="11.983477263781927"><ele>246.0</ele><time>2026-04-18T15:22:55Z</time></trkpt><trkpt lat="46.03881170018366" lon="11.98328929354701"><ele>246.0</ele><time>2026-04-18T15:22:57Z</time></trkpt><trkpt lat="46.03885801808749" lon="11.983199293106065"><ele>246.0</ele><time>2026-04-18T15:22:58Z</time></trkpt><trkpt lat="46.03889941959001" lon="11.983112387797343"><ele>246.0</ele><time>2026-04-18T15:22:59Z</time></trkpt><trkpt lat="46.03892046125254" lon="11.983018818975557"><ele>246.0</ele><time>2026-04-18T15:23:00Z</time></trkpt><trkpt lat="46.03891531259408" lon="11.982903706014431"><ele>246.0</ele><time>2026-04-18T15:23:01Z</time></trkpt><trkpt lat="46.03888138083402" lon="11.982794441588636"><ele>246.0</ele><time>2026-04-18T15:23:02Z</time></trkpt><trkpt lat="46.03881182027065" lon="11.982709303926432"><ele>246.0</ele><time>2026-04-18T15:23:03Z</time></trkpt><trkpt lat="46.03873693646793" lon="11.982646398914206"><ele>246.0</ele><time>2026-04-18T15:23:04Z</time></trkpt><trkpt lat="46.038672926075655" lon="11.982588617890125"><ele>246.0</ele><time>2026-04-18T15:23:05Z</time></trkpt><trkpt lat="46.03861312101373" lon="11.982519262526031"><ele>246.0</ele><time>2026-04-18T15:23:06Z</time></trkpt><trkpt lat="46.03855061176232" lon="11.982417972125015"><ele>246.0</ele><time>2026-04-18T15:23:07Z</time></trkpt><trkpt lat="46.03849070506866" lon="11.98229946410064"><ele>246.0</ele><time>2026-04-18T15:23:08Z</time></trkpt><trkpt lat="46.03843659048955" lon="11.982186333466506"><ele>246.0</ele><time>2026-04-18T15:23:09Z</time></trkpt><trkpt lat="46.03838123697636" lon="11.982078830733549"><ele>246.00000000000003</ele><time>2026-04-18T15:23:10Z</time></trkpt><trkpt lat="46.03832164679583" lon="11.981962547356936"><ele>246.00000000000003</ele><time>2026-04-18T15:23:11Z</time></trkpt><trkpt lat="46.03826648387797" lon="11.981849783560138"><ele>246.0</ele><time>2026-04-18T15:23:12Z</time></trkpt><trkpt lat="46.03820869195897" lon="11.981727454397173"><ele>246.0</ele><time>2026-04-18T15:23:13Z</time></trkpt><trkpt lat="46.03815128589479" lon="11.981598581915549"><ele>246.20000000000002</ele><time>2026-04-18T15:23:14Z</time></trkpt><trkpt lat="46.03809504604108" lon="11.981466009270957"><ele>246.40000000000003</ele><time>2026-04-18T15:23:15Z</time></trkpt><trkpt lat="46.03804222449972" lon="11.981332079467249"><ele>246.6</ele><time>2026-04-18T15:23:16Z</time></trkpt><trkpt lat="46.03798766917621" lon="11.981203691979898"><ele>246.8</ele><time>2026-04-18T15:23:17Z</time></trkpt><trkpt lat="46.03793101850826" lon="11.981065283400758"><ele>247.0</ele><time>2026-04-18T15:23:18Z</time></trkpt><trkpt lat="46.03787093236693" lon="11.980929574463287"><ele>247.0</ele><time>2026-04-18T15:23:19Z</time></trkpt><trkpt lat="46.03781009273128" lon="11.980776777453226"><ele>247.0</ele><time>2026-04-18T15:23:20Z</time></trkpt><trkpt lat="46.03775012404087" lon="11.980627762298251"><ele>247.0</ele><time>2026-04-18T15:23:21Z</time></trkpt><trkpt lat="46.03768822707893" lon="11.98048217723451"><ele>247.0</ele><time>2026-04-18T15:23:22Z</time></trkpt><trkpt lat="46.03762889759547" lon="11.980338657217379"><ele>247.0</ele><time>2026-04-18T15:23:23Z</time></trkpt><trkpt lat="46.03756882067441" lon="11.980189144612078"><ele>247.0</ele><time>2026-04-18T15:23:24Z</time></trkpt><trkpt lat="46.037507342064096" lon="11.980034676935487"><ele>247.0</ele><time>2026-04-18T15:23:25Z</time></trkpt><trkpt lat="46.03744300031922" lon="11.979876935808843"><ele>247.0</ele><time>2026-04-18T15:23:26Z</time></trkpt><trkpt lat="46.03737550842815" lon="11.97971936966466"><ele>249.0</ele><time>2026-04-18T15:23:27Z</time></trkpt><trkpt lat="46.03731457244626" lon="11.979570963182203"><ele>251.0</ele><time>2026-04-18T15:23:28Z</time></trkpt><trkpt lat="46.03724797665815" lon="11.979400442097711"><ele>253.0</ele><time>2026-04-18T15:23:29Z</time></trkpt><trkpt lat="46.03716081653769" lon="11.97918447724425"><ele>255.0</ele><time>2026-04-18T15:23:30Z</time></trkpt><trkpt lat="46.03705935445484" lon="11.9789390469718"><ele>255.66666666666669</ele><time>2026-04-18T15:23:31Z</time></trkpt><trkpt lat="46.03695749863458" lon="11.978705457745976"><ele>256.33333333333337</ele><time>2026-04-18T15:23:32Z</time></trkpt><trkpt lat="46.036864075990145" lon="11.978477720081393"><ele>257.0</ele><time>2026-04-18T15:23:33Z</time></trkpt><trkpt lat="46.03677650266131" lon="11.978258039473129"><ele>257.0</ele><time>2026-04-18T15:23:34Z</time></trkpt><trkpt lat="46.036701459702684" lon="11.978067900472855"><ele>257.0</ele><time>2026-04-18T15:23:34.999Z</time></trkpt><trkpt lat="46.03662418038149" lon="11.97788091649666"><ele>257.0</ele><time>2026-04-18T15:23:35.999Z</time></trkpt><trkpt lat="46.03654038438398" lon="11.977676834091762"><ele>257.6666666666667</ele><time>2026-04-18T15:23:36.999Z</time></trkpt><trkpt lat="46.03645977280849" lon="11.977472366296922"><ele>258.3333333333333</ele><time>2026-04-18T15:23:37.999Z</time></trkpt><trkpt lat="46.03638509731315" lon="11.977287826114209"><ele>259.0</ele><time>2026-04-18T15:23:38.999Z</time></trkpt><trkpt lat="46.03630552125792" lon="11.977092441582636"><ele>259.0</ele><time>2026-04-18T15:23:39.999Z</time></trkpt><trkpt lat="46.03622778496069" lon="11.976899678186305"><ele>259.0</ele><time>2026-04-18T15:23:40.999Z</time></trkpt><trkpt lat="46.03614666883237" lon="11.976707733316593"><ele>259.0</ele><time>2026-04-18T15:23:41.999Z</time></trkpt><trkpt lat="46.03607276154465" lon="11.976522223895746"><ele>258.5</ele><time>2026-04-18T15:23:42.999Z</time></trkpt><trkpt lat="46.0360040111813" lon="11.976348641766563"><ele>258.0</ele><time>2026-04-18T15:23:43.999Z</time></trkpt><trkpt lat="46.03593010618259" lon="11.976165343231452"><ele>257.5</ele><time>2026-04-18T15:23:44.999Z</time></trkpt><trkpt lat="46.0358519833144" lon="11.975978178202064"><ele>257.0</ele><time>2026-04-18T15:23:45.999Z</time></trkpt><trkpt lat="46.035776668450495" lon="11.975788886233122"><ele>258.25</ele><time>2026-04-18T15:23:46.999Z</time></trkpt><trkpt lat="46.03570525695863" lon="11.97561585815391"><ele>259.5</ele><time>2026-04-18T15:23:47.999Z</time></trkpt><trkpt lat="46.03564083519554" lon="11.975449278976091"><ele>260.75</ele><time>2026-04-18T15:23:48.999Z</time></trkpt><trkpt lat="46.03556581119159" lon="11.975265978398637"><ele>262.0</ele><time>2026-04-18T15:23:49.999Z</time></trkpt><trkpt lat="46.03548947770719" lon="11.975079825768686"><ele>262.0</ele><time>2026-04-18T15:23:50.999Z</time></trkpt><trkpt lat="46.03540789357303" lon="11.974876877401382"><ele>262.0</ele><time>2026-04-18T15:23:51.999Z</time></trkpt><trkpt lat="46.03533128951819" lon="11.97469373473751"><ele>262.0</ele><time>2026-04-18T15:23:52.999Z</time></trkpt><trkpt lat="46.03526560244788" lon="11.974531238921385"><ele>262.0</ele><time>2026-04-18T15:23:53.999Z</time></trkpt><trkpt lat="46.03520739461522" lon="11.974381268205782"><ele>262.0</ele><time>2026-04-18T15:23:54.999Z</time></trkpt><trkpt lat="46.0351469207468" lon="11.974236212633743"><ele>262.0</ele><time>2026-04-18T15:23:55.999Z</time></trkpt><trkpt lat="46.035087466803894" lon="11.97408908223013"><ele>262.0</ele><time>2026-04-18T15:23:56.999Z</time></trkpt><trkpt lat="46.03503250164093" lon="11.973958579836623"><ele>262.0</ele><time>2026-04-18T15:23:57.999Z</time></trkpt><trkpt lat="46.03497729716761" lon="11.97383048515568"><ele>262.0</ele><time>2026-04-18T15:23:58.999Z</time></trkpt><trkpt lat="46.03492797612302" lon="11.973702857267305"><ele>262.3333333333333</ele><time>2026-04-18T15:23:59.999Z</time></trkpt><trkpt lat="46.034880851338734" lon="11.973577668435846"><ele>262.66666666666663</ele><time>2026-04-18T15:24:00.999Z</time></trkpt><trkpt lat="46.034847533564495" lon="11.973492242692377"><ele>263.0</ele><time>2026-04-18T15:24:01.999Z</time></trkpt><trkpt lat="46.03481344330076" lon="11.973408606576855"><ele>263.3333333333333</ele><time>2026-04-18T15:24:02.999Z</time></trkpt><trkpt lat="46.03482754308119" lon="11.973298273275876"><ele>263.6666666666667</ele><time>2026-04-18T15:24:05.999Z</time></trkpt><trkpt lat="46.03490824852101" lon="11.97335857228818"><ele>264.0</ele><time>2026-04-18T15:24:07.999Z</time></trkpt><trkpt lat="46.03494570508955" lon="11.973456312896758"><ele>264.2</ele><time>2026-04-18T15:24:08.999Z</time></trkpt><trkpt lat="46.03498786413612" lon="11.973595679495821"><ele>264.4</ele><time>2026-04-18T15:24:09.999Z</time></trkpt><trkpt lat="46.03502901243378" lon="11.973697810900493"><ele>264.6</ele><time>2026-04-18T15:24:10.999Z</time></trkpt><trkpt lat="46.03506445621813" lon="11.973785785328893"><ele>264.8</ele><time>2026-04-18T15:24:11.999Z</time></trkpt><trkpt lat="46.03517632111116" lon="11.973799411372825"><ele>265.0</ele><time>2026-04-18T15:24:12.999Z</time></trkpt><trkpt lat="46.03538168358398" lon="11.973737473295785"><ele>265.0</ele><time>2026-04-18T15:24:14.999Z</time></trkpt><trkpt lat="46.03551166208278" lon="11.973718362294864"><ele>265.0</ele><time>2026-04-18T15:24:15.999Z</time></trkpt><trkpt lat="46.03564733047035" lon="11.973695877276977"><ele>265.0</ele><time>2026-04-18T15:24:16.999Z</time></trkpt><trkpt lat="46.03575928250672" lon="11.973700900860118"><ele>265.0</ele><time>2026-04-18T15:24:18Z</time></trkpt><trkpt lat="46.03586329041856" lon="11.973690960196201"><ele>266.4</ele><time>2026-04-18T15:24:19Z</time></trkpt><trkpt lat="46.03598002619618" lon="11.973678144814063"><ele>267.8</ele><time>2026-04-18T15:24:20Z</time></trkpt><trkpt lat="46.0361018884297" lon="11.973666337133391"><ele>269.2</ele><time>2026-04-18T15:24:21Z</time></trkpt><trkpt lat="46.03621373693267" lon="11.973655479546327"><ele>270.6</ele><time>2026-04-18T15:24:22Z</time></trkpt><trkpt lat="46.03630399762111" lon="11.973646100987263"><ele>272.0</ele><time>2026-04-18T15:24:23Z</time></trkpt><trkpt lat="46.036391681685494" lon="11.973636052063949"><ele>272.0</ele><time>2026-04-18T15:24:24Z</time></trkpt><trkpt lat="46.03647088557095" lon="11.973623442780458"><ele>272.0</ele><time>2026-04-18T15:24:25Z</time></trkpt><trkpt lat="46.036555926142164" lon="11.973557411911903"><ele>272.0</ele><time>2026-04-18T15:24:26Z</time></trkpt><trkpt lat="46.0366477414892" lon="11.973452694843187"><ele>272.0</ele><time>2026-04-18T15:24:27Z</time></trkpt><trkpt lat="46.03675049193189" lon="11.973336344677788"><ele>272.0</ele><time>2026-04-18T15:24:28Z</time></trkpt><trkpt lat="46.03684845324057" lon="11.973225891824718"><ele>273.2</ele><time>2026-04-18T15:24:29Z</time></trkpt><trkpt lat="46.03693238703852" lon="11.973131255117416"><ele>274.4</ele><time>2026-04-18T15:24:30Z</time></trkpt><trkpt lat="46.03700172312727" lon="11.973053077580689"><ele>275.6</ele><time>2026-04-18T15:24:31Z</time></trkpt><trkpt lat="46.03706269410443" lon="11.972984331886801"><ele>276.8</ele><time>2026-04-18T15:24:32Z</time></trkpt><trkpt lat="46.03712252379079" lon="11.972916872981829"><ele>278.0</ele><time>2026-04-18T15:24:33Z</time></trkpt><trkpt lat="46.037208407334376" lon="11.972823157401972"><ele>278.0</ele><time>2026-04-18T15:24:35Z</time></trkpt><trkpt lat="46.0372748164695" lon="11.972813105178313"><ele>278.0</ele><time>2026-04-18T15:24:39Z</time></trkpt><trkpt lat="46.03727337637154" lon="11.972923122133725"><ele>278.0</ele><time>2026-04-18T15:24:43Z</time></trkpt><trkpt lat="46.03727274951168" lon="11.972828179526584"><ele>278.0</ele><time>2026-04-18T15:43:30Z</time></trkpt><trkpt lat="46.037236350072504" lon="11.972744669615892"><ele>278.0</ele><time>2026-04-18T15:43:38Z</time></trkpt><trkpt lat="46.03706896190037" lon="11.97287185664191"><ele>278.0</ele><time>2026-04-18T15:43:45Z</time></trkpt><trkpt lat="46.03700714420384" lon="11.972944572619973"><ele>278.0</ele><time>2026-04-18T15:43:46Z</time></trkpt><trkpt lat="46.036948999607226" lon="11.973025817474648"><ele>278.0</ele><time>2026-04-18T15:43:47Z</time></trkpt><trkpt lat="46.03687935698015" lon="11.973103662303775"><ele>278.0</ele><time>2026-04-18T15:43:48Z</time></trkpt><trkpt lat="46.03680717045071" lon="11.973184431973287"><ele>278.0</ele><time>2026-04-18T15:43:49Z</time></trkpt><trkpt lat="46.03674111421856" lon="11.97326186457016"><ele>278.0</ele><time>2026-04-18T15:43:50Z</time></trkpt><trkpt lat="46.03668815983745" lon="11.973327267207313"><ele>277.1666666666667</ele><time>2026-04-18T15:43:51Z</time></trkpt><trkpt lat="46.03663722162167" lon="11.973384844683881"><ele>276.33333333333337</ele><time>2026-04-18T15:43:52Z</time></trkpt><trkpt lat="46.036586170558685" lon="11.973443106450627"><ele>275.5</ele><time>2026-04-18T15:43:53Z</time></trkpt><trkpt lat="46.03647534170118" lon="11.9735438218629"><ele>274.6666666666667</ele><time>2026-04-18T15:43:55Z</time></trkpt><trkpt lat="46.036413699937526" lon="11.973579832886177"><ele>273.8333333333333</ele><time>2026-04-18T15:43:56Z</time></trkpt><trkpt lat="46.036330147558225" lon="11.973604728940643"><ele>273.0</ele><time>2026-04-18T15:43:57Z</time></trkpt><trkpt lat="46.036239168475625" lon="11.973599044626503"><ele>272.8333333333333</ele><time>2026-04-18T15:43:58Z</time></trkpt><trkpt lat="46.03616451798082" lon="11.973602037794636"><ele>272.6666666666667</ele><time>2026-04-18T15:43:59Z</time></trkpt><trkpt lat="46.0360869946769" lon="11.973625863313291"><ele>272.5</ele><time>2026-04-18T15:44:00Z</time></trkpt><trkpt lat="46.036004723101726" lon="11.973628728761225"><ele>272.33333333333337</ele><time>2026-04-18T15:44:01Z</time></trkpt><trkpt lat="46.03591094580077" lon="11.97363517063526"><ele>272.1666666666667</ele><time>2026-04-18T15:44:02Z</time></trkpt><trkpt lat="46.0358132792556" lon="11.973643440907404"><ele>272.0</ele><time>2026-04-18T15:44:03Z</time></trkpt><trkpt lat="46.03573590360294" lon="11.973650430484701"><ele>270.83333333333337</ele><time>2026-04-18T15:44:04Z</time></trkpt><trkpt lat="46.035664774572965" lon="11.973655808662075"><ele>269.6666666666667</ele><time>2026-04-18T15:44:05Z</time></trkpt><trkpt lat="46.03559607201069" lon="11.973665668361114"><ele>268.5</ele><time>2026-04-18T15:44:06Z</time></trkpt><trkpt lat="46.035532554458875" lon="11.973677744402595"><ele>267.3333333333333</ele><time>2026-04-18T15:44:07Z</time></trkpt><trkpt lat="46.035462248169615" lon="11.973685586372468"><ele>266.16666666666663</ele><time>2026-04-18T15:44:08Z</time></trkpt><trkpt lat="46.035342526903776" lon="11.973704259601993"><ele>265.0</ele><time>2026-04-18T15:44:10Z</time></trkpt><trkpt lat="46.03527828070442" lon="11.97371511390835"><ele>265.0</ele><time>2026-04-18T15:44:11Z</time></trkpt><trkpt lat="46.03515584194513" lon="11.97371531223459"><ele>265.0</ele><time>2026-04-18T15:44:13Z</time></trkpt><trkpt lat="46.03506134823593" lon="11.973612678378593"><ele>265.0</ele><time>2026-04-18T15:44:15Z</time></trkpt><trkpt lat="46.035018139724436" lon="11.97353994011341"><ele>265.0</ele><time>2026-04-18T15:44:16Z</time></trkpt><trkpt lat="46.03496918385573" lon="11.973464122673754"><ele>265.0</ele><time>2026-04-18T15:44:17Z</time></trkpt><trkpt lat="46.03488774434212" lon="11.97334317515"><ele>264.8</ele><time>2026-04-18T15:44:19Z</time></trkpt><trkpt lat="46.03481879895683" lon="11.973240699236676"><ele>264.6</ele><time>2026-04-18T15:44:21Z</time></trkpt><trkpt lat="46.034732990011776" lon="11.973171859495249"><ele>264.4</ele><time>2026-04-18T15:44:23Z</time></trkpt><trkpt lat="46.03467009648639" lon="11.973046498906495"><ele>264.2</ele><time>2026-04-18T15:44:25Z</time></trkpt><trkpt lat="46.034591299679725" lon="11.972875827502275"><ele>264.0</ele><time>2026-04-18T15:44:27Z</time></trkpt><trkpt lat="46.03454925293103" lon="11.972765810082066"><ele>264.0</ele><time>2026-04-18T15:44:28Z</time></trkpt><trkpt lat="46.034503043441035" lon="11.97263589921329"><ele>264.0</ele><time>2026-04-18T15:44:29Z</time></trkpt><trkpt lat="46.034449980217" lon="11.972495040381093"><ele>264.0</ele><time>2026-04-18T15:44:30Z</time></trkpt><trkpt lat="46.034387429835505" lon="11.972331846233196"><ele>264.0</ele><time>2026-04-18T15:44:31Z</time></trkpt><trkpt lat="46.03432214077617" lon="11.972158473516524"><ele>264.3333333333333</ele><time>2026-04-18T15:44:32Z</time></trkpt><trkpt lat="46.03424630450815" lon="11.971953572543788"><ele>264.66666666666663</ele><time>2026-04-18T15:44:33Z</time></trkpt><trkpt lat="46.03416730166765" lon="11.971751251982282"><ele>265.0</ele><time>2026-04-18T15:44:34Z</time></trkpt><trkpt lat="46.034104856205744" lon="11.971581146372856"><ele>264.25</ele><time>2026-04-18T15:44:34.999Z</time></trkpt><trkpt lat="46.03404979654246" lon="11.971429382338497"><ele>263.5</ele><time>2026-04-18T15:44:35.999Z</time></trkpt><trkpt lat="46.033993156329096" lon="11.97128354638557"><ele>262.75</ele><time>2026-04-18T15:44:36.999Z</time></trkpt><trkpt lat="46.033929671992546" lon="11.971119166500845"><ele>262.0</ele><time>2026-04-18T15:44:37.999Z</time></trkpt><trkpt lat="46.03386096991135" lon="11.970934549375675"><ele>262.25</ele><time>2026-04-18T15:44:38.999Z</time></trkpt><trkpt lat="46.033793967289334" lon="11.97074615333811"><ele>262.5</ele><time>2026-04-18T15:44:39.999Z</time></trkpt><trkpt lat="46.033727653606235" lon="11.970562527613591"><ele>262.75</ele><time>2026-04-18T15:44:40.999Z</time></trkpt><trkpt lat="46.03366410661613" lon="11.970380841225463"><ele>263.0</ele><time>2026-04-18T15:44:41.999Z</time></trkpt><trkpt lat="46.03361888215022" lon="11.970186309317459"><ele>263.75</ele><time>2026-04-18T15:44:42.999Z</time></trkpt><trkpt lat="46.033570981998416" lon="11.969993953952484"><ele>264.5</ele><time>2026-04-18T15:44:43.999Z</time></trkpt><trkpt lat="46.03352569617971" lon="11.969804430941561"><ele>265.25</ele><time>2026-04-18T15:44:44.999Z</time></trkpt><trkpt lat="46.03350267959332" lon="11.969617842905011"><ele>266.0</ele><time>2026-04-18T15:44:45.999Z</time></trkpt><trkpt lat="46.03348548315237" lon="11.969411080890055"><ele>265.6666666666667</ele><time>2026-04-18T15:44:46.999Z</time></trkpt><trkpt lat="46.03348657583512" lon="11.969166474786544"><ele>265.3333333333333</ele><time>2026-04-18T15:44:47.999Z</time></trkpt><trkpt lat="46.03349032113314" lon="11.968895151508555"><ele>265.0</ele><time>2026-04-18T15:44:48.999Z</time></trkpt><trkpt lat="46.033485969133075" lon="11.968635194822152"><ele>265.0</ele><time>2026-04-18T15:44:50.999Z</time></trkpt><trkpt lat="46.03348994579223" lon="11.96845096793231"><ele>265.0</ele><time>2026-04-18T15:44:51.999Z</time></trkpt><trkpt lat="46.03349741965183" lon="11.968273288971172"><ele>265.0</ele><time>2026-04-18T15:44:52.999Z</time></trkpt><trkpt lat="46.03350306618618" lon="11.968094673896118"><ele>265.0</ele><time>2026-04-18T15:44:53.999Z</time></trkpt><trkpt lat="46.03350410127137" lon="11.967917048003361"><ele>265.25</ele><time>2026-04-18T15:44:54.999Z</time></trkpt><trkpt lat="46.03350805876494" lon="11.967728491993205"><ele>265.5</ele><time>2026-04-18T15:44:55.999Z</time></trkpt><trkpt lat="46.03352251173023" lon="11.967543043090464"><ele>265.75</ele><time>2026-04-18T15:44:56.999Z</time></trkpt><trkpt lat="46.033523544199724" lon="11.967347470676271"><ele>266.0</ele><time>2026-04-18T15:44:57.999Z</time></trkpt><trkpt lat="46.033525563183034" lon="11.967153004408685"><ele>267.25</ele><time>2026-04-18T15:44:58.999Z</time></trkpt><trkpt lat="46.03352676291488" lon="11.966958861085859"><ele>268.5</ele><time>2026-04-18T15:44:59.999Z</time></trkpt><trkpt lat="46.0335049663337" lon="11.966768563892101"><ele>269.75</ele><time>2026-04-18T15:45:00.999Z</time></trkpt><trkpt lat="46.03348434970623" lon="11.966587473835096"><ele>271.0</ele><time>2026-04-18T15:45:01.999Z</time></trkpt><trkpt lat="46.03346271851854" lon="11.96642100913852"><ele>271.5</ele><time>2026-04-18T15:45:02.999Z</time></trkpt><trkpt lat="46.03342714347501" lon="11.966253195037458"><ele>272.0</ele><time>2026-04-18T15:45:03.999Z</time></trkpt><trkpt lat="46.033380344377505" lon="11.966084102235966"><ele>272.5</ele><time>2026-04-18T15:45:04.999Z</time></trkpt><trkpt lat="46.03333916648387" lon="11.96591477472619"><ele>273.0</ele><time>2026-04-18T15:45:05.999Z</time></trkpt><trkpt lat="46.03328224387511" lon="11.96573999720563"><ele>273.0</ele><time>2026-04-18T15:45:06.999Z</time></trkpt><trkpt lat="46.03322831914435" lon="11.965564657193655"><ele>273.0</ele><time>2026-04-18T15:45:07.999Z</time></trkpt><trkpt lat="46.03317779552566" lon="11.96539809658461"><ele>273.0</ele><time>2026-04-18T15:45:08.999Z</time></trkpt><trkpt lat="46.03312176712339" lon="11.965217706775164"><ele>273.0</ele><time>2026-04-18T15:45:09.999Z</time></trkpt><trkpt lat="46.03306496301311" lon="11.965040357583907"><ele>273.5</ele><time>2026-04-18T15:45:10.999Z</time></trkpt><trkpt lat="46.033004297160275" lon="11.964862102752564"><ele>274.0</ele><time>2026-04-18T15:45:11.999Z</time></trkpt><trkpt lat="46.03293983762529" lon="11.964680250074863"><ele>274.5</ele><time>2026-04-18T15:45:12.999Z</time></trkpt><trkpt lat="46.032870055971145" lon="11.96450346436087"><ele>275.0</ele><time>2026-04-18T15:45:13.999Z</time></trkpt><trkpt lat="46.03280066853791" lon="11.964335857468193"><ele>276.25</ele><time>2026-04-18T15:45:14.999Z</time></trkpt><trkpt lat="46.03271592732322" lon="11.964167575157202"><ele>277.5</ele><time>2026-04-18T15:45:15.999Z</time></trkpt><trkpt lat="46.032628094830756" lon="11.963997418935127"><ele>278.75</ele><time>2026-04-18T15:45:16.999Z</time></trkpt><trkpt lat="46.032525542437476" lon="11.963844008240478"><ele>280.0</ele><time>2026-04-18T15:45:18Z</time></trkpt><trkpt lat="46.032431294857176" lon="11.963688294832012"><ele>281.0</ele><time>2026-04-18T15:45:19Z</time></trkpt><trkpt lat="46.032348349987295" lon="11.96355026576055"><ele>282.0</ele><time>2026-04-18T15:45:20Z</time></trkpt><trkpt lat="46.032263987029054" lon="11.963415045879776"><ele>283.0</ele><time>2026-04-18T15:45:21Z</time></trkpt><trkpt lat="46.03218145109866" lon="11.963278246053553"><ele>284.0</ele><time>2026-04-18T15:45:22Z</time></trkpt><trkpt lat="46.032097743332166" lon="11.963141449770012"><ele>284.75</ele><time>2026-04-18T15:45:23Z</time></trkpt><trkpt lat="46.03201576537543" lon="11.963005981835764"><ele>285.5</ele><time>2026-04-18T15:45:24Z</time></trkpt><trkpt lat="46.03193625945657" lon="11.962870475531373"><ele>286.25</ele><time>2026-04-18T15:45:25Z</time></trkpt><trkpt lat="46.03185937675278" lon="11.962730366048909"><ele>287.0</ele><time>2026-04-18T15:45:26Z</time></trkpt><trkpt lat="46.03178855939481" lon="11.96257926122334"><ele>286.75</ele><time>2026-04-18T15:45:27Z</time></trkpt><trkpt lat="46.03172240474145" lon="11.962417016602734"><ele>286.5</ele><time>2026-04-18T15:45:28Z</time></trkpt><trkpt lat="46.03166829138672" lon="11.962231881051135"><ele>286.25</ele><time>2026-04-18T15:45:29Z</time></trkpt><trkpt lat="46.03162307075256" lon="11.962033086565205"><ele>286.0</ele><time>2026-04-18T15:45:30Z</time></trkpt><trkpt lat="46.03158865477679" lon="11.961837374695495"><ele>285.75</ele><time>2026-04-18T15:45:31Z</time></trkpt><trkpt lat="46.0315667091673" lon="11.96164957630123"><ele>285.5</ele><time>2026-04-18T15:45:32Z</time></trkpt><trkpt lat="46.03154636124621" lon="11.961447246328067"><ele>285.25</ele><time>2026-04-18T15:45:33Z</time></trkpt><trkpt lat="46.031529861547696" lon="11.961232198336068"><ele>285.0</ele><time>2026-04-18T15:45:34Z</time></trkpt><trkpt lat="46.03150955104845" lon="11.961023313564864"><ele>285.4</ele><time>2026-04-18T15:45:35Z</time></trkpt><trkpt lat="46.031487222870894" lon="11.960854436296719"><ele>285.8</ele><time>2026-04-18T15:45:36Z</time></trkpt><trkpt lat="46.03147465700955" lon="11.960692283300336"><ele>286.2</ele><time>2026-04-18T15:45:37Z</time></trkpt><trkpt lat="46.031461058706235" lon="11.960541132507775"><ele>286.6</ele><time>2026-04-18T15:45:38Z</time></trkpt><trkpt lat="46.031449457896684" lon="11.960405976709787"><ele>287.0</ele><time>2026-04-18T15:45:39Z</time></trkpt><trkpt lat="46.03144174222493" lon="11.960309203137275"><ele>287.0</ele><time>2026-04-18T15:45:40Z</time></trkpt><trkpt lat="46.03143684083691" lon="11.96019163413441"><ele>287.0</ele><time>2026-04-18T15:45:42Z</time></trkpt><trkpt lat="46.031445672047184" lon="11.960064678366056"><ele>287.0</ele><time>2026-04-18T15:45:44Z</time></trkpt><trkpt lat="46.03144265799495" lon="11.959972086707012"><ele>287.0</ele><time>2026-04-18T15:45:45Z</time></trkpt><trkpt lat="46.03142462429901" lon="11.959858404407056"><ele>287.0</ele><time>2026-04-18T15:45:46Z</time></trkpt><trkpt lat="46.031395752681576" lon="11.959745830712896"><ele>287.0</ele><time>2026-04-18T15:45:47Z</time></trkpt><trkpt lat="46.031369109819266" lon="11.959613541511892"><ele>287.2</ele><time>2026-04-18T15:45:48Z</time></trkpt><trkpt lat="46.031353358021306" lon="11.959475386388522"><ele>287.4</ele><time>2026-04-18T15:45:49Z</time></trkpt><trkpt lat="46.03133908023136" lon="11.959317491051968"><ele>287.6</ele><time>2026-04-18T15:45:50Z</time></trkpt><trkpt lat="46.031325996795296" lon="11.959143609982435"><ele>287.8</ele><time>2026-04-18T15:45:51Z</time></trkpt><trkpt lat="46.03131312228996" lon="11.958980870943302"><ele>288.0</ele><time>2026-04-18T15:45:52Z</time></trkpt><trkpt lat="46.031297603716425" lon="11.958813833401965"><ele>288.5</ele><time>2026-04-18T15:45:53Z</time></trkpt><trkpt lat="46.03128014004221" lon="11.958642860632017"><ele>289.0</ele><time>2026-04-18T15:45:54Z</time></trkpt><trkpt lat="46.03126438545457" lon="11.958467524373653"><ele>289.5</ele><time>2026-04-18T15:45:55Z</time></trkpt><trkpt lat="46.031249394111306" lon="11.958292642349958"><ele>290.0</ele><time>2026-04-18T15:45:56Z</time></trkpt><trkpt lat="46.031231194599684" lon="11.958110382164605"><ele>290.25</ele><time>2026-04-18T15:45:57Z</time></trkpt><trkpt lat="46.03121119836192" lon="11.957928635224063"><ele>290.5</ele><time>2026-04-18T15:45:58Z</time></trkpt><trkpt lat="46.03119697243942" lon="11.957744318815074"><ele>290.75</ele><time>2026-04-18T15:45:59Z</time></trkpt><trkpt lat="46.031182438457236" lon="11.957558819510918"><ele>291.0</ele><time>2026-04-18T15:46:00Z</time></trkpt><trkpt lat="46.031162169869155" lon="11.957366752440281"><ele>291.5</ele><time>2026-04-18T15:46:01Z</time></trkpt><trkpt lat="46.03114250804476" lon="11.957170096899064"><ele>292.0</ele><time>2026-04-18T15:46:02Z</time></trkpt><trkpt lat="46.03112109536998" lon="11.956967067960067"><ele>292.5</ele><time>2026-04-18T15:46:03Z</time></trkpt><trkpt lat="46.0311031394554" lon="11.956766472483107"><ele>293.0</ele><time>2026-04-18T15:46:04Z</time></trkpt><trkpt lat="46.031083830127955" lon="11.956574599063597"><ele>293.75</ele><time>2026-04-18T15:46:05Z</time></trkpt><trkpt lat="46.03106944623692" lon="11.956387823297826"><ele>294.5</ele><time>2026-04-18T15:46:06Z</time></trkpt><trkpt lat="46.03105262566247" lon="11.956210250331997"><ele>295.25</ele><time>2026-04-18T15:46:07Z</time></trkpt><trkpt lat="46.03103094131834" lon="11.956018121731024"><ele>296.0</ele><time>2026-04-18T15:46:08Z</time></trkpt><trkpt lat="46.03101724610056" lon="11.955833650514954"><ele>296.25</ele><time>2026-04-18T15:46:09Z</time></trkpt><trkpt lat="46.030996722186686" lon="11.955640708185719"><ele>296.5</ele><time>2026-04-18T15:46:10Z</time></trkpt><trkpt lat="46.03098429088025" lon="11.955453836922405"><ele>296.75</ele><time>2026-04-18T15:46:11Z</time></trkpt><trkpt lat="46.03096815790721" lon="11.955257730929757"><ele>297.0</ele><time>2026-04-18T15:46:12Z</time></trkpt><trkpt lat="46.03095492356503" lon="11.955042636278344"><ele>297.25</ele><time>2026-04-18T15:46:13Z</time></trkpt><trkpt lat="46.03092746301182" lon="11.954863292487541"><ele>297.5</ele><time>2026-04-18T15:46:14Z</time></trkpt><trkpt lat="46.0309087279391" lon="11.95465788897022"><ele>297.75</ele><time>2026-04-18T15:46:15Z</time></trkpt><trkpt lat="46.03089067046547" lon="11.954460130010387"><ele>298.0</ele><time>2026-04-18T15:46:16Z</time></trkpt><trkpt lat="46.03087282992241" lon="11.954246407651752"><ele>299.25</ele><time>2026-04-18T15:46:17Z</time></trkpt><trkpt lat="46.030849995395975" lon="11.95403665122554"><ele>300.5</ele><time>2026-04-18T15:46:18Z</time></trkpt><trkpt lat="46.03083203675068" lon="11.95382479958177"><ele>301.75</ele><time>2026-04-18T15:46:19Z</time></trkpt><trkpt lat="46.030814293828676" lon="11.953624402155754"><ele>303.0</ele><time>2026-04-18T15:46:20Z</time></trkpt><trkpt lat="46.03080361906833" lon="11.953439495427324"><ele>303.0</ele><time>2026-04-18T15:46:21Z</time></trkpt><trkpt lat="46.03078524370791" lon="11.953258290101397"><ele>303.0</ele><time>2026-04-18T15:46:22Z</time></trkpt><trkpt lat="46.030763365730905" lon="11.953069719230884"><ele>303.0</ele><time>2026-04-18T15:46:23Z</time></trkpt><trkpt lat="46.03074738755574" lon="11.952883971378224"><ele>303.0</ele><time>2026-04-18T15:46:24Z</time></trkpt><trkpt lat="46.030727177657084" lon="11.95270046352897"><ele>303.25</ele><time>2026-04-18T15:46:25Z</time></trkpt><trkpt lat="46.03070152213807" lon="11.952514945060537"><ele>303.5</ele><time>2026-04-18T15:46:26Z</time></trkpt><trkpt lat="46.03067607740536" lon="11.952328943577978"><ele>303.75</ele><time>2026-04-18T15:46:27Z</time></trkpt><trkpt lat="46.030649674832134" lon="11.952134932127244"><ele>304.0</ele><time>2026-04-18T15:46:28Z</time></trkpt><trkpt lat="46.030621190053125" lon="11.951941839801806"><ele>304.0</ele><time>2026-04-18T15:46:29Z</time></trkpt><trkpt lat="46.03059159861045" lon="11.951748887389934"><ele>304.0</ele><time>2026-04-18T15:46:30Z</time></trkpt><trkpt lat="46.030553990788974" lon="11.951549709639808"><ele>304.0</ele><time>2026-04-18T15:46:31Z</time></trkpt><trkpt lat="46.03051542430786" lon="11.951355526016464"><ele>304.0</ele><time>2026-04-18T15:46:31.999Z</time></trkpt><trkpt lat="46.03047237966774" lon="11.951146155360023"><ele>304.75</ele><time>2026-04-18T15:46:32.999Z</time></trkpt><trkpt lat="46.03044075525867" lon="11.95094944191326"><ele>305.5</ele><time>2026-04-18T15:46:33.999Z</time></trkpt><trkpt lat="46.03040745011555" lon="11.950740980154695"><ele>306.25</ele><time>2026-04-18T15:46:34.999Z</time></trkpt><trkpt lat="46.0303636611958" lon="11.950530106754218"><ele>307.0</ele><time>2026-04-18T15:46:35.999Z</time></trkpt><trkpt lat="46.03032297771704" lon="11.950320642044767"><ele>307.0</ele><time>2026-04-18T15:46:36.999Z</time></trkpt><trkpt lat="46.0302855957728" lon="11.950121596055585"><ele>307.0</ele><time>2026-04-18T15:46:37.999Z</time></trkpt><trkpt lat="46.030248367242095" lon="11.94992176053791"><ele>307.0</ele><time>2026-04-18T15:46:38.999Z</time></trkpt><trkpt lat="46.03021196346602" lon="11.949715739984523"><ele>307.0</ele><time>2026-04-18T15:46:39.999Z</time></trkpt><trkpt lat="46.03017129368987" lon="11.94950664279578"><ele>307.5</ele><time>2026-04-18T15:46:40.999Z</time></trkpt><trkpt lat="46.030130888370806" lon="11.949296832650884"><ele>308.0</ele><time>2026-04-18T15:46:41.999Z</time></trkpt><trkpt lat="46.03009507208935" lon="11.949089294835854"><ele>308.5</ele><time>2026-04-18T15:46:42.999Z</time></trkpt><trkpt lat="46.03006074632077" lon="11.94889407264801"><ele>309.0</ele><time>2026-04-18T15:46:43.999Z</time></trkpt><trkpt lat="46.03002726725949" lon="11.948710070160327"><ele>309.25</ele><time>2026-04-18T15:46:44.999Z</time></trkpt><trkpt lat="46.029991192188724" lon="11.948516788164378"><ele>309.5</ele><time>2026-04-18T15:46:45.999Z</time></trkpt><trkpt lat="46.02995285407526" lon="11.94831845665091"><ele>309.75</ele><time>2026-04-18T15:46:46.999Z</time></trkpt><trkpt lat="46.029919706504394" lon="11.94812909354307"><ele>310.0</ele><time>2026-04-18T15:46:47.999Z</time></trkpt><trkpt lat="46.02987994468743" lon="11.947924906582573"><ele>310.0</ele><time>2026-04-18T15:46:48.999Z</time></trkpt><trkpt lat="46.02984652602734" lon="11.947734749018544"><ele>310.0</ele><time>2026-04-18T15:46:49.999Z</time></trkpt><trkpt lat="46.02981027037036" lon="11.94754633459108"><ele>310.0</ele><time>2026-04-18T15:46:50.999Z</time></trkpt><trkpt lat="46.02977652060585" lon="11.947350138185351"><ele>310.0</ele><time>2026-04-18T15:46:51.999Z</time></trkpt><trkpt lat="46.02974007194365" lon="11.947158859321043"><ele>310.75</ele><time>2026-04-18T15:46:52.999Z</time></trkpt><trkpt lat="46.02970406475934" lon="11.94696380550068"><ele>311.5</ele><time>2026-04-18T15:46:53.999Z</time></trkpt><trkpt lat="46.029671015784906" lon="11.94677251838975"><ele>312.25</ele><time>2026-04-18T15:46:54.999Z</time></trkpt><trkpt lat="46.02963474610447" lon="11.946576645812584"><ele>313.0</ele><time>2026-04-18T15:46:55.999Z</time></trkpt><trkpt lat="46.02960027324041" lon="11.946385110839033"><ele>313.0</ele><time>2026-04-18T15:46:56.999Z</time></trkpt><trkpt lat="46.02956087817774" lon="11.94617646657035"><ele>313.0</ele><time>2026-04-18T15:46:57.999Z</time></trkpt><trkpt lat="46.02952966289718" lon="11.945962955723816"><ele>313.0</ele><time>2026-04-18T15:46:58.999Z</time></trkpt><trkpt lat="46.02948873241883" lon="11.94576945514032"><ele>313.0</ele><time>2026-04-18T15:46:59.999Z</time></trkpt><trkpt lat="46.02945164375883" lon="11.945565148313584"><ele>313.0</ele><time>2026-04-18T15:47:00.999Z</time></trkpt><trkpt lat="46.02940913340867" lon="11.945359820271033"><ele>313.0</ele><time>2026-04-18T15:47:01.999Z</time></trkpt><trkpt lat="46.02936268996244" lon="11.94516748395416"><ele>313.0</ele><time>2026-04-18T15:47:02.999Z</time></trkpt><trkpt lat="46.02933053231777" lon="11.94499395201202"><ele>313.0</ele><time>2026-04-18T15:47:03.999Z</time></trkpt><trkpt lat="46.0292941614693" lon="11.944816989077678"><ele>313.5</ele><time>2026-04-18T15:47:04.999Z</time></trkpt><trkpt lat="46.02925526439365" lon="11.94464532915327"><ele>314.0</ele><time>2026-04-18T15:47:05.999Z</time></trkpt><trkpt lat="46.02920935549606" lon="11.944468175486762"><ele>314.5</ele><time>2026-04-18T15:47:06.999Z</time></trkpt><trkpt lat="46.02916119451581" lon="11.94428324954549"><ele>315.0</ele><time>2026-04-18T15:47:07.999Z</time></trkpt><trkpt lat="46.02911450545307" lon="11.944102569024793"><ele>315.0</ele><time>2026-04-18T15:47:08.999Z</time></trkpt><trkpt lat="46.02906513993416" lon="11.943906169003816"><ele>315.0</ele><time>2026-04-18T15:47:09.999Z</time></trkpt><trkpt lat="46.0290038932245" lon="11.943708205140917"><ele>315.0</ele><time>2026-04-18T15:47:10.999Z</time></trkpt><trkpt lat="46.028951362676736" lon="11.943505400757408"><ele>315.0</ele><time>2026-04-18T15:47:11.999Z</time></trkpt><trkpt lat="46.02888926373659" lon="11.943301956599784"><ele>315.0</ele><time>2026-04-18T15:47:12.999Z</time></trkpt><trkpt lat="46.028822404919936" lon="11.943085371147102"><ele>315.0</ele><time>2026-04-18T15:47:13.999Z</time></trkpt><trkpt lat="46.02876164562942" lon="11.942884880124934"><ele>315.0</ele><time>2026-04-18T15:47:14.999Z</time></trkpt><trkpt lat="46.028701762508966" lon="11.942680670027018"><ele>315.0</ele><time>2026-04-18T15:47:15.999Z</time></trkpt><trkpt lat="46.028644255859625" lon="11.942495255640825"><ele>315.0</ele><time>2026-04-18T15:47:16.999Z</time></trkpt><trkpt lat="46.02859979754678" lon="11.94231231253064"><ele>315.0</ele><time>2026-04-18T15:47:17.999Z</time></trkpt><trkpt lat="46.02854012619746" lon="11.942117473650098"><ele>315.0</ele><time>2026-04-18T15:47:18.999Z</time></trkpt><trkpt lat="46.02848130540224" lon="11.941932645578383"><ele>315.0</ele><time>2026-04-18T15:47:19.999Z</time></trkpt><trkpt lat="46.02842754296912" lon="11.941738743059622"><ele>315.0</ele><time>2026-04-18T15:47:20.999Z</time></trkpt><trkpt lat="46.02837422127979" lon="11.941536203463976"><ele>315.0</ele><time>2026-04-18T15:47:21.999Z</time></trkpt><trkpt lat="46.02831498301856" lon="11.941337479604535"><ele>315.0</ele><time>2026-04-18T15:47:22.999Z</time></trkpt><trkpt lat="46.02824347827135" lon="11.941138562311279"><ele>314.25</ele><time>2026-04-18T15:47:24Z</time></trkpt><trkpt lat="46.02818967522564" lon="11.940938736300762"><ele>313.5</ele><time>2026-04-18T15:47:25Z</time></trkpt><trkpt lat="46.02814472268311" lon="11.940741094386746"><ele>312.75</ele><time>2026-04-18T15:47:26Z</time></trkpt><trkpt lat="46.02808213968317" lon="11.940539579203971"><ele>312.0</ele><time>2026-04-18T15:47:27Z</time></trkpt><trkpt lat="46.0280250978974" lon="11.940346059943286"><ele>311.5</ele><time>2026-04-18T15:47:28Z</time></trkpt><trkpt lat="46.027968131338156" lon="11.94014974208429"><ele>311.0</ele><time>2026-04-18T15:47:29Z</time></trkpt><trkpt lat="46.0279141724581" lon="11.939954240985983"><ele>310.5</ele><time>2026-04-18T15:47:30Z</time></trkpt><trkpt lat="46.027857896204594" lon="11.939760185966966"><ele>310.0</ele><time>2026-04-18T15:47:31Z</time></trkpt><trkpt lat="46.027802789132544" lon="11.939571173209641"><ele>308.75</ele><time>2026-04-18T15:47:32Z</time></trkpt><trkpt lat="46.02774840089394" lon="11.939382851726409"><ele>307.5</ele><time>2026-04-18T15:47:33Z</time></trkpt><trkpt lat="46.02769456353552" lon="11.939192273639089"><ele>306.25</ele><time>2026-04-18T15:47:34Z</time></trkpt><trkpt lat="46.02764436527487" lon="11.939013939937313"><ele>305.0</ele><time>2026-04-18T15:47:35Z</time></trkpt><trkpt lat="46.027611983123016" lon="11.93886732530297"><ele>305.0</ele><time>2026-04-18T15:47:36Z</time></trkpt><trkpt lat="46.02755579976376" lon="11.938630952499738"><ele>305.0</ele><time>2026-04-18T15:47:37Z</time></trkpt><trkpt lat="46.02751575563741" lon="11.93845890590275"><ele>305.0</ele><time>2026-04-18T15:47:38Z</time></trkpt><trkpt lat="46.0274703064973" lon="11.938234803428891"><ele>306.75</ele><time>2026-04-18T15:47:39Z</time></trkpt><trkpt lat="46.027433563639576" lon="11.93803427389525"><ele>308.5</ele><time>2026-04-18T15:47:40Z</time></trkpt><trkpt lat="46.02739087624003" lon="11.937825144647636"><ele>310.25</ele><time>2026-04-18T15:47:41Z</time></trkpt><trkpt lat="46.02735157609871" lon="11.937614975132215"><ele>312.0</ele><time>2026-04-18T15:47:42Z</time></trkpt><trkpt lat="46.027307619571715" lon="11.937404903622296"><ele>312.75</ele><time>2026-04-18T15:47:43Z</time></trkpt><trkpt lat="46.02727142669649" lon="11.937205672382863"><ele>313.5</ele><time>2026-04-18T15:47:44Z</time></trkpt><trkpt lat="46.02723299871655" lon="11.937016750194374"><ele>314.25</ele><time>2026-04-18T15:47:45Z</time></trkpt><trkpt lat="46.027198074379015" lon="11.936827924354182"><ele>315.0</ele><time>2026-04-18T15:47:46Z</time></trkpt><trkpt lat="46.02716297502985" lon="11.93663702637898"><ele>315.0</ele><time>2026-04-18T15:47:47Z</time></trkpt><trkpt lat="46.02712724886958" lon="11.936440761791456"><ele>315.0</ele><time>2026-04-18T15:47:48Z</time></trkpt><trkpt lat="46.02709157349446" lon="11.93624476410501"><ele>315.0</ele><time>2026-04-18T15:47:49Z</time></trkpt><trkpt lat="46.02704695967696" lon="11.936040555321556"><ele>315.0</ele><time>2026-04-18T15:47:50Z</time></trkpt><trkpt lat="46.027009055736244" lon="11.93584188632021"><ele>313.25</ele><time>2026-04-18T15:47:51Z</time></trkpt><trkpt lat="46.02697349192406" lon="11.935645427687902"><ele>311.5</ele><time>2026-04-18T15:47:52Z</time></trkpt><trkpt lat="46.02694064029755" lon="11.935459432180052"><ele>309.75</ele><time>2026-04-18T15:47:53Z</time></trkpt><trkpt lat="46.02690303589799" lon="11.935264142420953"><ele>308.0</ele><time>2026-04-18T15:47:54Z</time></trkpt><trkpt lat="46.0268648217422" lon="11.93506765864218"><ele>308.0</ele><time>2026-04-18T15:47:55Z</time></trkpt><trkpt lat="46.02683078581731" lon="11.934863101164895"><ele>308.0</ele><time>2026-04-18T15:47:56Z</time></trkpt><trkpt lat="46.02679541320186" lon="11.934651491603978"><ele>308.0</ele><time>2026-04-18T15:47:57Z</time></trkpt><trkpt lat="46.02676793015621" lon="11.9344375409759"><ele>308.0</ele><time>2026-04-18T15:47:58Z</time></trkpt><trkpt lat="46.02674733559615" lon="11.934228611447415"><ele>307.5</ele><time>2026-04-18T15:47:59Z</time></trkpt><trkpt lat="46.026729051265356" lon="11.93402214787545"><ele>307.0</ele><time>2026-04-18T15:48:00Z</time></trkpt><trkpt lat="46.026733417366174" lon="11.93382623652662"><ele>306.5</ele><time>2026-04-18T15:48:01Z</time></trkpt><trkpt lat="46.02671668540128" lon="11.933657323960102"><ele>306.0</ele><time>2026-04-18T15:48:02Z</time></trkpt><trkpt lat="46.02670317887139" lon="11.933465264490502"><ele>305.75</ele><time>2026-04-18T15:48:03Z</time></trkpt><trkpt lat="46.02669114298822" lon="11.9332752178281"><ele>305.5</ele><time>2026-04-18T15:48:04Z</time></trkpt><trkpt lat="46.02668072096478" lon="11.933078787061788"><ele>305.25</ele><time>2026-04-18T15:48:05Z</time></trkpt><trkpt lat="46.026670729129776" lon="11.93287449429988"><ele>305.0</ele><time>2026-04-18T15:48:06Z</time></trkpt><trkpt lat="46.02665888020049" lon="11.93267602121086"><ele>304.75</ele><time>2026-04-18T15:48:07Z</time></trkpt><trkpt lat="46.026655175065" lon="11.93247604057724"><ele>304.5</ele><time>2026-04-18T15:48:08Z</time></trkpt><trkpt lat="46.02663880456411" lon="11.932276067332834"><ele>304.25</ele><time>2026-04-18T15:48:09Z</time></trkpt><trkpt lat="46.02663321046025" lon="11.932094469504602"><ele>304.0</ele><time>2026-04-18T15:48:10Z</time></trkpt><trkpt lat="46.02662079423436" lon="11.931899933829056"><ele>307.5</ele><time>2026-04-18T15:48:11Z</time></trkpt><trkpt lat="46.026605568157926" lon="11.931701237751719"><ele>311.0</ele><time>2026-04-18T15:48:12Z</time></trkpt><trkpt lat="46.026583641377144" lon="11.931508584826966"><ele>314.5</ele><time>2026-04-18T15:48:13Z</time></trkpt><trkpt lat="46.02656581344549" lon="11.931306898637937"><ele>318.0</ele><time>2026-04-18T15:48:14Z</time></trkpt><trkpt lat="46.02654169941475" lon="11.931107566034408"><ele>318.0</ele><time>2026-04-18T15:48:15Z</time></trkpt><trkpt lat="46.02652038749193" lon="11.930919620507218"><ele>318.0</ele><time>2026-04-18T15:48:16Z</time></trkpt><trkpt lat="46.0264902950701" lon="11.930731962536973"><ele>318.0</ele><time>2026-04-18T15:48:17Z</time></trkpt><trkpt lat="46.02645987212461" lon="11.930547602678722"><ele>318.0</ele><time>2026-04-18T15:48:18Z</time></trkpt><trkpt lat="46.02642425193491" lon="11.930376112802177"><ele>316.75</ele><time>2026-04-18T15:48:19Z</time></trkpt><trkpt lat="46.02639096869538" lon="11.930216420776807"><ele>315.5</ele><time>2026-04-18T15:48:20Z</time></trkpt><trkpt lat="46.026356775449585" lon="11.930052606604887"><ele>314.25</ele><time>2026-04-18T15:48:21Z</time></trkpt><trkpt lat="46.02632140549455" lon="11.929879840810775"><ele>313.0</ele><time>2026-04-18T15:48:22Z</time></trkpt><trkpt lat="46.02627110821657" lon="11.92968854691332"><ele>311.75</ele><time>2026-04-18T15:48:23Z</time></trkpt><trkpt lat="46.02622029286486" lon="11.929500807976233"><ele>310.5</ele><time>2026-04-18T15:48:24Z</time></trkpt><trkpt lat="46.02617241271783" lon="11.929327227313342"><ele>309.25</ele><time>2026-04-18T15:48:25Z</time></trkpt><trkpt lat="46.026124698682764" lon="11.929161770066273"><ele>308.0</ele><time>2026-04-18T15:48:26Z</time></trkpt><trkpt lat="46.026075799843156" lon="11.929003388153925"><ele>306.25</ele><time>2026-04-18T15:48:27Z</time></trkpt><trkpt lat="46.02602497560048" lon="11.928841448688992"><ele>304.5</ele><time>2026-04-18T15:48:28Z</time></trkpt><trkpt lat="46.02597415505956" lon="11.928676814618239"><ele>302.75</ele><time>2026-04-18T15:48:29Z</time></trkpt><trkpt lat="46.02592136430386" lon="11.928507147041955"><ele>301.0</ele><time>2026-04-18T15:48:30Z</time></trkpt><trkpt lat="46.02587279620426" lon="11.92834874483768"><ele>300.2</ele><time>2026-04-18T15:48:31Z</time></trkpt><trkpt lat="46.02582816247904" lon="11.928201109976008"><ele>299.40000000000003</ele><time>2026-04-18T15:48:32Z</time></trkpt><trkpt lat="46.0257827091639" lon="11.928060446591388"><ele>298.6</ele><time>2026-04-18T15:48:33Z</time></trkpt><trkpt lat="46.02573788671888" lon="11.927913411830101"><ele>297.8</ele><time>2026-04-18T15:48:34Z</time></trkpt><trkpt lat="46.025690776718804" lon="11.927768328481127"><ele>297.0</ele><time>2026-04-18T15:48:35Z</time></trkpt><trkpt lat="46.0256438376532" lon="11.927622550598043"><ele>298.2</ele><time>2026-04-18T15:48:36Z</time></trkpt><trkpt lat="46.02560228585629" lon="11.927480019477859"><ele>299.4</ele><time>2026-04-18T15:48:37Z</time></trkpt><trkpt lat="46.02556063957491" lon="11.927348779871842"><ele>300.6</ele><time>2026-04-18T15:48:38Z</time></trkpt><trkpt lat="46.0255202200267" lon="11.927215914315614"><ele>301.8</ele><time>2026-04-18T15:48:39Z</time></trkpt><trkpt lat="46.02547654792214" lon="11.927061301254765"><ele>303.0</ele><time>2026-04-18T15:48:39.999Z</time></trkpt><trkpt lat="46.02542510281516" lon="11.92689183740426"><ele>302.0</ele><time>2026-04-18T15:48:40.999Z</time></trkpt><trkpt lat="46.025369985487536" lon="11.926727072272787"><ele>301.0</ele><time>2026-04-18T15:48:41.999Z</time></trkpt><trkpt lat="46.025323221022255" lon="11.926581694649444"><ele>300.0</ele><time>2026-04-18T15:48:42.999Z</time></trkpt><trkpt lat="46.02527008341041" lon="11.92642559033607"><ele>299.0</ele><time>2026-04-18T15:48:43.999Z</time></trkpt><trkpt lat="46.025207109166686" lon="11.92626339092285"><ele>299.0</ele><time>2026-04-18T15:48:44.999Z</time></trkpt><trkpt lat="46.02514095724583" lon="11.926104981721073"><ele>299.0</ele><time>2026-04-18T15:48:45.999Z</time></trkpt><trkpt lat="46.02508014502957" lon="11.92595489122893"><ele>299.0</ele><time>2026-04-18T15:48:46.999Z</time></trkpt><trkpt lat="46.02501290658676" lon="11.925788673746313"><ele>299.0</ele><time>2026-04-18T15:48:47.999Z</time></trkpt><trkpt lat="46.024933331149704" lon="11.92561469016629"><ele>299.25</ele><time>2026-04-18T15:48:48.999Z</time></trkpt><trkpt lat="46.02486186833991" lon="11.925456449264786"><ele>299.5</ele><time>2026-04-18T15:48:49.999Z</time></trkpt><trkpt lat="46.02479397672043" lon="11.925317165807147"><ele>299.75</ele><time>2026-04-18T15:48:50.999Z</time></trkpt><trkpt lat="46.024724623965206" lon="11.925191452059984"><ele>300.0</ele><time>2026-04-18T15:48:51.999Z</time></trkpt><trkpt lat="46.02465081188989" lon="11.925062738839005"><ele>299.25</ele><time>2026-04-18T15:48:52.999Z</time></trkpt><trkpt lat="46.02457800311206" lon="11.924934442066684"><ele>298.5</ele><time>2026-04-18T15:48:53.999Z</time></trkpt><trkpt lat="46.02450356219182" lon="11.924800893343624"><ele>297.75</ele><time>2026-04-18T15:48:54.999Z</time></trkpt><trkpt lat="46.024422121637635" lon="11.924666224681665"><ele>297.0</ele><time>2026-04-18T15:48:55.999Z</time></trkpt><trkpt lat="46.02434415072017" lon="11.924533297699815"><ele>297.0</ele><time>2026-04-18T15:48:56.999Z</time></trkpt><trkpt lat="46.02426668476524" lon="11.92439798931079"><ele>297.0</ele><time>2026-04-18T15:48:57.999Z</time></trkpt><trkpt lat="46.024193459182335" lon="11.92427229201435"><ele>297.0</ele><time>2026-04-18T15:48:58.999Z</time></trkpt><trkpt lat="46.02411574636709" lon="11.924139571737658"><ele>297.0</ele><time>2026-04-18T15:48:59.999Z</time></trkpt><trkpt lat="46.02403510434627" lon="11.923999899731411"><ele>297.0</ele><time>2026-04-18T15:49:00.999Z</time></trkpt><trkpt lat="46.02396120297723" lon="11.923865787171641"><ele>297.0</ele><time>2026-04-18T15:49:01.999Z</time></trkpt><trkpt lat="46.02389482132972" lon="11.923738991276961"><ele>297.0</ele><time>2026-04-18T15:49:02.999Z</time></trkpt><trkpt lat="46.023825917512845" lon="11.923602355513404"><ele>297.0</ele><time>2026-04-18T15:49:03.999Z</time></trkpt><trkpt lat="46.02375941668725" lon="11.92346560073348"><ele>296.6</ele><time>2026-04-18T15:49:04.999Z</time></trkpt><trkpt lat="46.02369956748725" lon="11.923345400670414"><ele>296.2</ele><time>2026-04-18T15:49:05.999Z</time></trkpt><trkpt lat="46.0236423231195" lon="11.923220639630497"><ele>295.8</ele><time>2026-04-18T15:49:06.999Z</time></trkpt><trkpt lat="46.023583843616144" lon="11.92308205876491"><ele>295.4</ele><time>2026-04-18T15:49:07.999Z</time></trkpt><trkpt lat="46.02352422757332" lon="11.922944121039668"><ele>295.0</ele><time>2026-04-18T15:49:08.999Z</time></trkpt><trkpt lat="46.023463449317575" lon="11.922790412776388"><ele>295.0</ele><time>2026-04-18T15:49:09.999Z</time></trkpt><trkpt lat="46.02341592371336" lon="11.922664634165697"><ele>295.0</ele><time>2026-04-18T15:49:10.999Z</time></trkpt><trkpt lat="46.02336403352925" lon="11.92252976079985"><ele>295.0</ele><time>2026-04-18T15:49:11.999Z</time></trkpt><trkpt lat="46.02331382088175" lon="11.92239635996697"><ele>295.0</ele><time>2026-04-18T15:49:12.999Z</time></trkpt><trkpt lat="46.02327213082485" lon="11.922273201672356"><ele>295.0</ele><time>2026-04-18T15:49:13.999Z</time></trkpt><trkpt lat="46.02323450205794" lon="11.92215039748959"><ele>294.66666666666663</ele><time>2026-04-18T15:49:14.999Z</time></trkpt><trkpt lat="46.02320638295872" lon="11.922033719951948"><ele>294.3333333333333</ele><time>2026-04-18T15:49:15.999Z</time></trkpt><trkpt lat="46.02317991649396" lon="11.92191472067521"><ele>294.0</ele><time>2026-04-18T15:49:16.999Z</time></trkpt><trkpt lat="46.0231573736143" lon="11.92179774481966"><ele>293.6666666666667</ele><time>2026-04-18T15:49:17.999Z</time></trkpt><trkpt lat="46.023139745766365" lon="11.921691033006208"><ele>293.33333333333337</ele><time>2026-04-18T15:49:18.999Z</time></trkpt><trkpt lat="46.023135697270156" lon="11.921580529279552"><ele>293.0</ele><time>2026-04-18T15:49:19.999Z</time></trkpt><trkpt lat="46.02314411807373" lon="11.921464822762474"><ele>293.0</ele><time>2026-04-18T15:49:20.999Z</time></trkpt><trkpt lat="46.02315264806662" lon="11.921348725643746"><ele>293.0</ele><time>2026-04-18T15:49:21.999Z</time></trkpt><trkpt lat="46.02315171962184" lon="11.921222208010686"><ele>293.0</ele><time>2026-04-18T15:49:22.999Z</time></trkpt><trkpt lat="46.023119426263456" lon="11.921096099970594"><ele>293.0</ele><time>2026-04-18T15:49:23.999Z</time></trkpt><trkpt lat="46.02309408673392" lon="11.92097145944785"><ele>293.0</ele><time>2026-04-18T15:49:24.999Z</time></trkpt><trkpt lat="46.0230399092297" lon="11.920851516458766"><ele>293.0</ele><time>2026-04-18T15:49:25.999Z</time></trkpt><trkpt lat="46.02302755122718" lon="11.920713329279318"><ele>293.0</ele><time>2026-04-18T15:49:26.999Z</time></trkpt><trkpt lat="46.023020829102734" lon="11.920572448038893"><ele>293.0</ele><time>2026-04-18T15:49:27.999Z</time></trkpt><trkpt lat="46.02301383558088" lon="11.920446201465873"><ele>293.0</ele><time>2026-04-18T15:49:28.999Z</time></trkpt><trkpt lat="46.02300035192776" lon="11.920300539152475"><ele>293.0</ele><time>2026-04-18T15:49:30Z</time></trkpt><trkpt lat="46.022986621316576" lon="11.92013855874549"><ele>293.25</ele><time>2026-04-18T15:49:31Z</time></trkpt><trkpt lat="46.022971988419336" lon="11.919962451731152"><ele>293.5</ele><time>2026-04-18T15:49:32Z</time></trkpt><trkpt lat="46.022973430762335" lon="11.919766465551575"><ele>293.75</ele><time>2026-04-18T15:49:33Z</time></trkpt><trkpt lat="46.02295249505539" lon="11.919601345897753"><ele>294.0</ele><time>2026-04-18T15:49:34Z</time></trkpt><trkpt lat="46.02295118716403" lon="11.919435038052887"><ele>294.0</ele><time>2026-04-18T15:49:35Z</time></trkpt><trkpt lat="46.0229393394188" lon="11.919258462493914"><ele>294.0</ele><time>2026-04-18T15:49:36Z</time></trkpt><trkpt lat="46.02293103955115" lon="11.919083064441287"><ele>294.0</ele><time>2026-04-18T15:49:37Z</time></trkpt><trkpt lat="46.02292317423688" lon="11.91892437352795"><ele>294.0</ele><time>2026-04-18T15:49:38Z</time></trkpt><trkpt lat="46.022917027026054" lon="11.918759898960857"><ele>293.25</ele><time>2026-04-18T15:49:39Z</time></trkpt><trkpt lat="46.0229087666796" lon="11.918592904596446"><ele>292.5</ele><time>2026-04-18T15:49:40Z</time></trkpt><trkpt lat="46.02290207491629" lon="11.918423391000482"><ele>291.75</ele><time>2026-04-18T15:49:41Z</time></trkpt><trkpt lat="46.02289282469354" lon="11.918252748956146"><ele>291.0</ele><time>2026-04-18T15:49:42Z</time></trkpt><trkpt lat="46.022885116473354" lon="11.918088091007501"><ele>290.0</ele><time>2026-04-18T15:49:43Z</time></trkpt><trkpt lat="46.02287591030157" lon="11.91793602621362"><ele>289.0</ele><time>2026-04-18T15:49:44Z</time></trkpt><trkpt lat="46.02286882063075" lon="11.917766019833321"><ele>288.0</ele><time>2026-04-18T15:49:45Z</time></trkpt><trkpt lat="46.02286274315432" lon="11.917590043122177"><ele>287.0</ele><time>2026-04-18T15:49:46Z</time></trkpt><trkpt lat="46.02285235359763" lon="11.917428992295154"><ele>286.75</ele><time>2026-04-18T15:49:47Z</time></trkpt><trkpt lat="46.02284615503066" lon="11.917278057169762"><ele>286.5</ele><time>2026-04-18T15:49:48Z</time></trkpt><trkpt lat="46.02284322503339" lon="11.917110878183918"><ele>286.25</ele><time>2026-04-18T15:49:49Z</time></trkpt><trkpt lat="46.02283310114534" lon="11.916935736899784"><ele>286.0</ele><time>2026-04-18T15:49:50Z</time></trkpt><trkpt lat="46.02282965259892" lon="11.916751363537891"><ele>285.25</ele><time>2026-04-18T15:49:51Z</time></trkpt><trkpt lat="46.02282137170148" lon="11.916578644128196"><ele>284.5</ele><time>2026-04-18T15:49:52Z</time></trkpt><trkpt lat="46.02281526805118" lon="11.91640200326452"><ele>283.75</ele><time>2026-04-18T15:49:53Z</time></trkpt><trkpt lat="46.02281169656182" lon="11.916205209077559"><ele>283.0</ele><time>2026-04-18T15:49:54Z</time></trkpt><trkpt lat="46.02280348971435" lon="11.916015405047164"><ele>281.75</ele><time>2026-04-18T15:49:55Z</time></trkpt><trkpt lat="46.02279564445207" lon="11.915838468779004"><ele>280.5</ele><time>2026-04-18T15:49:56Z</time></trkpt><trkpt lat="46.02278799148287" lon="11.91564046705713"><ele>279.25</ele><time>2026-04-18T15:49:57Z</time></trkpt><trkpt lat="46.02277614142867" lon="11.915445210436534"><ele>278.0</ele><time>2026-04-18T15:49:58Z</time></trkpt><trkpt lat="46.02277005434612" lon="11.915264837366461"><ele>278.0</ele><time>2026-04-18T15:49:59Z</time></trkpt><trkpt lat="46.02276297200077" lon="11.915098979720582"><ele>278.0</ele><time>2026-04-18T15:50:00Z</time></trkpt><trkpt lat="46.02275646396099" lon="11.914939322410804"><ele>278.0</ele><time>2026-04-18T15:50:01Z</time></trkpt><trkpt lat="46.02274882646381" lon="11.914785495817414"><ele>278.0</ele><time>2026-04-18T15:50:02Z</time></trkpt><trkpt lat="46.02274108671733" lon="11.914619315815358"><ele>278.0</ele><time>2026-04-18T15:50:03Z</time></trkpt><trkpt lat="46.02273594917248" lon="11.914442283961066"><ele>277.4</ele><time>2026-04-18T15:50:04Z</time></trkpt><trkpt lat="46.022727835074164" lon="11.914270700338253"><ele>276.8</ele><time>2026-04-18T15:50:05Z</time></trkpt><trkpt lat="46.022719892162456" lon="11.914133980096079"><ele>276.2</ele><time>2026-04-18T15:50:06Z</time></trkpt><trkpt lat="46.022705400259355" lon="11.913994349698045"><ele>275.6</ele><time>2026-04-18T15:50:07Z</time></trkpt><trkpt lat="46.022700007918246" lon="11.91383873420707"><ele>275.0</ele><time>2026-04-18T15:50:08Z</time></trkpt><trkpt lat="46.022692928810876" lon="11.913674685311562"><ele>275.0</ele><time>2026-04-18T15:50:09Z</time></trkpt><trkpt lat="46.022686199908065" lon="11.913521655419675"><ele>275.0</ele><time>2026-04-18T15:50:10Z</time></trkpt><trkpt lat="46.0226806775378" lon="11.913377554219895"><ele>275.0</ele><time>2026-04-18T15:50:11Z</time></trkpt><trkpt lat="46.02267298974362" lon="11.913238519895097"><ele>275.0</ele><time>2026-04-18T15:50:12Z</time></trkpt><trkpt lat="46.02266751848126" lon="11.913124538252712"><ele>275.0</ele><time>2026-04-18T15:50:13Z</time></trkpt><trkpt lat="46.02266352593534" lon="11.913002354958264"><ele>275.0</ele><time>2026-04-18T15:50:14Z</time></trkpt><trkpt lat="46.02266072415242" lon="11.912895806549578"><ele>275.0</ele><time>2026-04-18T15:50:15Z</time></trkpt><trkpt lat="46.0226597340562" lon="11.91280062205519"><ele>275.0</ele><time>2026-04-18T15:50:16Z</time></trkpt><trkpt lat="46.022663230049524" lon="11.912704246841107"><ele>275.0</ele><time>2026-04-18T15:50:17Z</time></trkpt><trkpt lat="46.022680448509114" lon="11.91259942211137"><ele>275.0</ele><time>2026-04-18T15:50:18Z</time></trkpt><trkpt lat="46.022697802431125" lon="11.912500136244299"><ele>275.0</ele><time>2026-04-18T15:50:19Z</time></trkpt><trkpt lat="46.022692068971054" lon="11.912380771762768"><ele>275.0</ele><time>2026-04-18T15:50:20Z</time></trkpt><trkpt lat="46.022667872349714" lon="11.912268935773184"><ele>275.33333333333337</ele><time>2026-04-18T15:50:21Z</time></trkpt><trkpt lat="46.022642423831144" lon="11.912164700519064"><ele>275.6666666666667</ele><time>2026-04-18T15:50:22Z</time></trkpt><trkpt lat="46.02262058651885" lon="11.912066182949292"><ele>276.0</ele><time>2026-04-18T15:50:23Z</time></trkpt><trkpt lat="46.022615540385196" lon="11.911963360603234"><ele>276.3333333333333</ele><time>2026-04-18T15:50:24Z</time></trkpt><trkpt lat="46.022614377194515" lon="11.911865157021726"><ele>276.66666666666663</ele><time>2026-04-18T15:50:25Z</time></trkpt><trkpt lat="46.022607385467616" lon="11.911751686640594"><ele>277.0</ele><time>2026-04-18T15:50:26Z</time></trkpt><trkpt lat="46.02259987056896" lon="11.91161619126373"><ele>277.0</ele><time>2026-04-18T15:50:27Z</time></trkpt><trkpt lat="46.022590703395984" lon="11.911480585177534"><ele>277.0</ele><time>2026-04-18T15:50:28Z</time></trkpt><trkpt lat="46.02258080934692" lon="11.911342916571142"><ele>277.0</ele><time>2026-04-18T15:50:29Z</time></trkpt><trkpt lat="46.02256846754895" lon="11.91121659364849"><ele>277.0</ele><time>2026-04-18T15:50:30Z</time></trkpt><trkpt lat="46.02255215039463" lon="11.911078101272736"><ele>277.0</ele><time>2026-04-18T15:50:31Z</time></trkpt><trkpt lat="46.02253404699292" lon="11.91092124532102"><ele>277.0</ele><time>2026-04-18T15:50:32Z</time></trkpt><trkpt lat="46.022519274622184" lon="11.910801219502833"><ele>277.0</ele><time>2026-04-18T15:50:33Z</time></trkpt><trkpt lat="46.022495374568486" lon="11.9106725492439"><ele>277.0</ele><time>2026-04-18T15:50:34Z</time></trkpt><trkpt lat="46.0224754880373" lon="11.910549302356824"><ele>277.0</ele><time>2026-04-18T15:50:35Z</time></trkpt><trkpt lat="46.02245218983379" lon="11.91042340375354"><ele>277.0</ele><time>2026-04-18T15:50:36Z</time></trkpt><trkpt lat="46.02243409229066" lon="11.9103015109679"><ele>277.0</ele><time>2026-04-18T15:50:37Z</time></trkpt><trkpt lat="46.022400450061355" lon="11.91017716114726"><ele>276.6</ele><time>2026-04-18T15:50:38Z</time></trkpt><trkpt lat="46.02237263752494" lon="11.910049203541382"><ele>276.2</ele><time>2026-04-18T15:50:39Z</time></trkpt><trkpt lat="46.022344206551736" lon="11.909921706258524"><ele>275.8</ele><time>2026-04-18T15:50:40Z</time></trkpt><trkpt lat="46.02231359594661" lon="11.909791158912439"><ele>275.4</ele><time>2026-04-18T15:50:41Z</time></trkpt><trkpt lat="46.02227993263462" lon="11.909652240304554"><ele>275.0</ele><time>2026-04-18T15:50:42Z</time></trkpt><trkpt lat="46.02224618760046" lon="11.909501584137233"><ele>275.0</ele><time>2026-04-18T15:50:43Z</time></trkpt><trkpt lat="46.02221574005342" lon="11.909359515490006"><ele>275.0</ele><time>2026-04-18T15:50:44Z</time></trkpt><trkpt lat="46.022184463610316" lon="11.909225364324309"><ele>275.0</ele><time>2026-04-18T15:50:45Z</time></trkpt><trkpt lat="46.02215241267961" lon="11.909093774068786"><ele>275.0</ele><time>2026-04-18T15:50:46Z</time></trkpt><trkpt lat="46.02211833564794" lon="11.908945080984726"><ele>275.0</ele><time>2026-04-18T15:50:47Z</time></trkpt><trkpt lat="46.02208758645781" lon="11.908799515560021"><ele>274.8</ele><time>2026-04-18T15:50:48Z</time></trkpt><trkpt lat="46.02205498790524" lon="11.908657129054484"><ele>274.6</ele><time>2026-04-18T15:50:49Z</time></trkpt><trkpt lat="46.0220246770521" lon="11.908515125244344"><ele>274.4</ele><time>2026-04-18T15:50:50Z</time></trkpt><trkpt lat="46.021993882132776" lon="11.908374827089448"><ele>274.2</ele><time>2026-04-18T15:50:51Z</time></trkpt><trkpt lat="46.02196600906303" lon="11.908234530474646"><ele>274.0</ele><time>2026-04-18T15:50:52Z</time></trkpt><trkpt lat="46.02193926296551" lon="11.908097919179378"><ele>273.8</ele><time>2026-04-18T15:50:53Z</time></trkpt><trkpt lat="46.02191296336161" lon="11.907960771319411"><ele>273.59999999999997</ele><time>2026-04-18T15:50:54Z</time></trkpt><trkpt lat="46.02188534673508" lon="11.90782274670761"><ele>273.4</ele><time>2026-04-18T15:50:55Z</time></trkpt><trkpt lat="46.02185514567852" lon="11.907671703786313"><ele>273.2</ele><time>2026-04-18T15:50:56Z</time></trkpt><trkpt lat="46.02182340158672" lon="11.907516423774435"><ele>273.0</ele><time>2026-04-18T15:50:57Z</time></trkpt><trkpt lat="46.021791389497565" lon="11.907356539201125"><ele>272.8</ele><time>2026-04-18T15:50:58Z</time></trkpt><trkpt lat="46.02176171663052" lon="11.907193333660134"><ele>272.6</ele><time>2026-04-18T15:50:58.999Z</time></trkpt><trkpt lat="46.02173840010629" lon="11.907047092324335"><ele>272.4</ele><time>2026-04-18T15:50:59.999Z</time></trkpt><trkpt lat="46.02171257701529" lon="11.90691018142483"><ele>272.2</ele><time>2026-04-18T15:51:00.999Z</time></trkpt><trkpt lat="46.02169393372432" lon="11.906778268221366"><ele>272.0</ele><time>2026-04-18T15:51:01.999Z</time></trkpt><trkpt lat="46.021674456041254" lon="11.906640182417043"><ele>272.1666666666667</ele><time>2026-04-18T15:51:02.999Z</time></trkpt><trkpt lat="46.02164948332381" lon="11.906507551268328"><ele>272.33333333333337</ele><time>2026-04-18T15:51:03.999Z</time></trkpt><trkpt lat="46.02163113298962" lon="11.906387978238161"><ele>272.5</ele><time>2026-04-18T15:51:04.999Z</time></trkpt><trkpt lat="46.021611690439606" lon="11.906281236944775"><ele>272.6666666666667</ele><time>2026-04-18T15:51:05.999Z</time></trkpt><trkpt lat="46.02159886884438" lon="11.906169511295156"><ele>272.8333333333333</ele><time>2026-04-18T15:51:06.999Z</time></trkpt><trkpt lat="46.02158731987728" lon="11.906074283999518"><ele>273.0</ele><time>2026-04-18T15:51:07.999Z</time></trkpt><trkpt lat="46.02157525698023" lon="11.905922433828106"><ele>273.0</ele><time>2026-04-18T15:51:09.999Z</time></trkpt><trkpt lat="46.02157996362291" lon="11.905816692676053"><ele>273.0</ele><time>2026-04-18T15:51:13.999Z</time></trkpt><trkpt lat="46.02154712629001" lon="11.905731423725246"><ele>273.0</ele><time>2026-04-18T15:51:16.999Z</time></trkpt><trkpt lat="46.02144363427191" lon="11.90574411077472"><ele>273.0</ele><time>2026-04-18T15:51:20.999Z</time></trkpt><trkpt lat="46.021519167042726" lon="11.90594626020784"><ele>273.0</ele><time>2026-04-18T15:53:52Z</time></trkpt><trkpt lat="46.0215097631009" lon="11.906048462796727"><ele>273.0</ele><time>2026-04-18T15:56:35Z</time></trkpt><trkpt lat="46.02151455421321" lon="11.90614676721131"><ele>273.0</ele><time>2026-04-18T15:56:49.999Z</time></trkpt><trkpt lat="46.02151061607492" lon="11.906254337795442"><ele>273.0</ele><time>2026-04-18T15:56:50.999Z</time></trkpt><trkpt lat="46.021562894217" lon="11.906334199357108"><ele>273.0</ele><time>2026-04-18T15:56:53.999Z</time></trkpt><trkpt lat="46.02162570171301" lon="11.906321517016066"><ele>273.0</ele><time>2026-04-18T15:57:01.999Z</time></trkpt><trkpt lat="46.02162152894432" lon="11.906041862219526"><ele>273.1666666666667</ele><time>2026-04-18T15:57:03.999Z</time></trkpt><trkpt lat="46.02160105262048" lon="11.905882256438222"><ele>273.3333333333333</ele><time>2026-04-18T15:57:04.999Z</time></trkpt><trkpt lat="46.02160144287636" lon="11.905775006975976"><ele>273.5</ele><time>2026-04-18T15:57:05.999Z</time></trkpt><trkpt lat="46.02159314723925" lon="11.905675047993322"><ele>273.66666666666663</ele><time>2026-04-18T15:57:06.999Z</time></trkpt><trkpt lat="46.02158640708326" lon="11.905565695668937"><ele>273.8333333333333</ele><time>2026-04-18T15:57:07.999Z</time></trkpt><trkpt lat="46.021576907716536" lon="11.905473528353046"><ele>274.0</ele><time>2026-04-18T15:57:08.999Z</time></trkpt><trkpt lat="46.02159437531426" lon="11.9053061393488"><ele>274.0</ele><time>2026-04-18T15:57:10.999Z</time></trkpt><trkpt lat="46.02162938790694" lon="11.905210008903833"><ele>274.0</ele><time>2026-04-18T15:57:11.999Z</time></trkpt><trkpt lat="46.02169053774844" lon="11.905125113110346"><ele>274.0</ele><time>2026-04-18T15:57:12.999Z</time></trkpt><trkpt lat="46.02173794738444" lon="11.90505036453409"><ele>274.0</ele><time>2026-04-18T15:57:13.999Z</time></trkpt><trkpt lat="46.02185771910846" lon="11.905072384654698"><ele>274.0</ele><time>2026-04-18T15:57:14.999Z</time></trkpt><trkpt lat="46.02199428115479" lon="11.905019871429706"><ele>274.0</ele><time>2026-04-18T15:57:15.999Z</time></trkpt><trkpt lat="46.02215980730662" lon="11.904984678698177"><ele>274.0</ele><time>2026-04-18T15:57:16.999Z</time></trkpt><trkpt lat="46.02229437193754" lon="11.904946664512163"><ele>274.0</ele><time>2026-04-18T15:57:17.999Z</time></trkpt><trkpt lat="46.02240102296169" lon="11.904915987197876"><ele>274.0</ele><time>2026-04-18T15:57:18.999Z</time></trkpt><trkpt lat="46.02248340346062" lon="11.904897357030526"><ele>274.59999999999997</ele><time>2026-04-18T15:57:19.999Z</time></trkpt><trkpt lat="46.022549888292154" lon="11.904936402984983"><ele>275.2</ele><time>2026-04-18T15:57:20.999Z</time></trkpt><trkpt lat="46.02262668706966" lon="11.905015293939247"><ele>275.79999999999995</ele><time>2026-04-18T15:57:21.999Z</time></trkpt><trkpt lat="46.02273961343616" lon="11.905067430664792"><ele>276.4</ele><time>2026-04-18T15:57:22.999Z</time></trkpt><trkpt lat="46.022852228171146" lon="11.905095841198447"><ele>277.0</ele><time>2026-04-18T15:57:23.999Z</time></trkpt><trkpt lat="46.022961505022224" lon="11.905075262903804"><ele>277.66666666666663</ele><time>2026-04-18T15:57:24.999Z</time></trkpt><trkpt lat="46.02310987638008" lon="11.905037338375873"><ele>278.3333333333333</ele><time>2026-04-18T15:57:25.999Z</time></trkpt><trkpt lat="46.02327105050952" lon="11.904991991979148"><ele>279.0</ele><time>2026-04-18T15:57:26.999Z</time></trkpt><trkpt lat="46.02344765508893" lon="11.904942143396424"><ele>279.0</ele><time>2026-04-18T15:57:27.999Z</time></trkpt><trkpt lat="46.02365154052592" lon="11.90488407120064"><ele>279.0</ele><time>2026-04-18T15:57:28.999Z</time></trkpt><trkpt lat="46.02385321483579" lon="11.904826629043153"><ele>279.0</ele><time>2026-04-18T15:57:29.999Z</time></trkpt><trkpt lat="46.02402160205945" lon="11.904778667917613"><ele>280.0</ele><time>2026-04-18T15:57:30.999Z</time></trkpt><trkpt lat="46.02417304337772" lon="11.904735533412618"><ele>281.0</ele><time>2026-04-18T15:57:31.999Z</time></trkpt><trkpt lat="46.02431243155819" lon="11.904695831978545"><ele>282.0</ele><time>2026-04-18T15:57:32.999Z</time></trkpt><trkpt lat="46.02444054776021" lon="11.904659341025202"><ele>283.0</ele><time>2026-04-18T15:57:33.999Z</time></trkpt><trkpt lat="46.02455956829158" lon="11.904625440781524"><ele>283.0</ele><time>2026-04-18T15:57:34.999Z</time></trkpt><trkpt lat="46.024673837172124" lon="11.90459246122018"><ele>283.0</ele><time>2026-04-18T15:57:35.999Z</time></trkpt><trkpt lat="46.024787644386564" lon="11.90455961338188"><ele>283.0</ele><time>2026-04-18T15:57:36.999Z</time></trkpt><trkpt lat="46.02489115659299" lon="11.904529737006166"><ele>283.0</ele><time>2026-04-18T15:57:37.999Z</time></trkpt><trkpt lat="46.02498947172054" lon="11.90450136050163"><ele>283.0</ele><time>2026-04-18T15:57:38.999Z</time></trkpt><trkpt lat="46.02507036540898" lon="11.904473798944075"><ele>283.2857142857143</ele><time>2026-04-18T15:57:39.999Z</time></trkpt><trkpt lat="46.0251459905587" lon="11.904462735384802"><ele>283.5714285714286</ele><time>2026-04-18T15:57:40.999Z</time></trkpt><trkpt lat="46.0252188576838" lon="11.904483450891767"><ele>283.8571428571429</ele><time>2026-04-18T15:57:41.999Z</time></trkpt><trkpt lat="46.02527604164764" lon="11.90452508379684"><ele>284.14285714285717</ele><time>2026-04-18T15:57:42.999Z</time></trkpt><trkpt lat="46.02533935829458" lon="11.904559468790056"><ele>284.42857142857144</ele><time>2026-04-18T15:57:43.999Z</time></trkpt><trkpt lat="46.02541002056616" lon="11.904598081857674"><ele>284.7142857142857</ele><time>2026-04-18T15:57:44.999Z</time></trkpt><trkpt lat="46.02548869981372" lon="11.904560691887657"><ele>285.0</ele><time>2026-04-18T15:57:45.999Z</time></trkpt><trkpt lat="46.02556043075911" lon="11.904547228750422"><ele>285.0</ele><time>2026-04-18T15:57:46.999Z</time></trkpt><trkpt lat="46.025628227751795" lon="11.904567125658675"><ele>285.0</ele><time>2026-04-18T15:57:47.999Z</time></trkpt><trkpt lat="46.02569666727204" lon="11.904624620490697"><ele>285.0</ele><time>2026-04-18T15:57:48.999Z</time></trkpt><trkpt lat="46.025753842570865" lon="11.90466979174166"><ele>285.0</ele><time>2026-04-18T15:57:49.999Z</time></trkpt><trkpt lat="46.02594262940016" lon="11.904567703485478"><ele>285.0</ele><time>2026-04-18T15:57:52.999Z</time></trkpt><trkpt lat="46.02599968589683" lon="11.904505664915165"><ele>284.2</ele><time>2026-04-18T15:57:54Z</time></trkpt><trkpt lat="46.026093977683786" lon="11.904406960417123"><ele>283.4</ele><time>2026-04-18T15:57:56Z</time></trkpt><trkpt lat="46.02614867789986" lon="11.904349920922673"><ele>282.6</ele><time>2026-04-18T15:57:58Z</time></trkpt><trkpt lat="46.02602384570466" lon="11.904169017774919"><ele>281.8</ele><time>2026-04-18T15:58:00Z</time></trkpt><trkpt lat="46.02597892575302" lon="11.904083184230958"><ele>281.0</ele><time>2026-04-18T15:58:02Z</time></trkpt><trkpt lat="46.02607388953435" lon="11.903967283935996"><ele>281.0</ele><time>2026-04-18T15:58:04Z</time></trkpt><trkpt lat="46.026106097072564" lon="11.903885291041346"><ele>281.0</ele><time>2026-04-18T15:58:05Z</time></trkpt><trkpt lat="46.02615658552584" lon="11.903748718726868"><ele>281.0</ele><time>2026-04-18T15:58:06Z</time></trkpt><trkpt lat="46.02618319892632" lon="11.903664761398666"><ele>281.0</ele><time>2026-04-18T15:58:07Z</time></trkpt><trkpt lat="46.026205484614394" lon="11.903545984514919"><ele>281.0</ele><time>2026-04-18T15:58:09Z</time></trkpt><trkpt lat="46.02625428363584" lon="11.903484444284281"><ele>281.0</ele><time>2026-04-18T15:59:25Z</time></trkpt><trkpt lat="46.02627891555553" lon="11.903392464313772"><ele>281.00000000000006</ele><time>2026-04-18T15:59:32.999Z</time></trkpt><trkpt lat="46.026254033174936" lon="11.903485379653786"><ele>281.0</ele><time>2026-04-18T15:59:45.999Z</time></trkpt><trkpt lat="46.02627974632478" lon="11.90338990815296"><ele>281.0</ele><time>2026-04-18T16:00:01Z</time></trkpt><trkpt lat="46.02623308479455" lon="11.903501262120315"><ele>281.0</ele><time>2026-04-18T16:00:04Z</time></trkpt><trkpt lat="46.026271979341026" lon="11.903418365480682"><ele>281.0</ele><time>2026-04-18T16:00:08Z</time></trkpt><trkpt lat="46.02629612412897" lon="11.903323928606365"><ele>281.00000000000006</ele><time>2026-04-18T16:00:11Z</time></trkpt><trkpt lat="46.02632548414234" lon="11.9032287764779"><ele>281.0</ele><time>2026-04-18T16:00:29Z</time></trkpt><trkpt lat="46.02633006803014" lon="11.903114416479358"><ele>283.0</ele><time>2026-04-18T16:00:31Z</time></trkpt><trkpt lat="46.026344126244275" lon="11.903002271310925"><ele>283.0</ele><time>2026-04-18T16:00:34.02Z</time></trkpt></trkseg></trk></gpx>